<?xml version="1.0" encoding="UTF-8" standalone="yes"?>
<gpx version="1.1" creator="outdooractive - http://www.outdooractive.com" xmlns="http://www.topografix.com/GPX/1/1" xmlns:oa="http://www.outdooractive.com/GPX/Extensions/1" xmlns:xsi="http://www.w3.org/2001/XMLSchema-instance" xsi:schemaLocation="http://www.topografix.com/GPX/1/1 http://www.topografix.com/GPX/1/1/gpx.xsd http://www.outdooractive.com/GPX/Extensions/1 https://www.outdooractive.com/schema/gpx_extensions.xsd">
  <metadata>
    <name>9sep26-RLE-Barton-S-46m</name>
    <author>
      <name>CLIVE and JOAN COOPER - Community</name>
    </author>
    <link href="https://www.outdooractive.com/r/351800558"/>
    <time>2026-09-04T11:23:56.877Z</time>
    <extensions>
      <oa:oaCategory>cycling</oa:oaCategory>
    </extensions>
  </metadata>
  <trk>
    <name>9sep26-RLE-Barton-S-46m</name>
    <type>cycling</type>
    <trkseg>
      <trkpt lat="52.36908" lon="-1.83539">
        <ele>143.79908</ele>
        <time>2017-05-16T00:00:00.000Z</time>
        <name>52.369080,-1.835390</name>
      </trkpt>
      <trkpt lat="52.36885" lon="-1.83552">
        <ele>143.63465</ele>
        <time>2017-05-16T00:00:05.000Z</time>
      </trkpt>
      <trkpt lat="52.36881" lon="-1.83555">
        <ele>143.63952</ele>
        <time>2017-05-16T00:00:06.000Z</time>
      </trkpt>
      <trkpt lat="52.36858" lon="-1.83576">
        <ele>143.52172</ele>
        <time>2017-05-16T00:00:11.000Z</time>
      </trkpt>
      <trkpt lat="52.3685" lon="-1.83583">
        <ele>143.34397</ele>
        <time>2017-05-16T00:00:13.000Z</time>
      </trkpt>
      <trkpt lat="52.36838" lon="-1.83592">
        <ele>143.23198</ele>
        <time>2017-05-16T00:00:15.000Z</time>
      </trkpt>
      <trkpt lat="52.36827" lon="-1.83599">
        <ele>143.05132</ele>
        <time>2017-05-16T00:00:18.000Z</time>
      </trkpt>
      <trkpt lat="52.36801" lon="-1.83614">
        <ele>142.59421</ele>
        <time>2017-05-16T00:00:23.000Z</time>
      </trkpt>
      <trkpt lat="52.36813" lon="-1.83633">
        <ele>143.26824</ele>
        <time>2017-05-16T00:00:27.000Z</time>
      </trkpt>
      <trkpt lat="52.36833" lon="-1.83664">
        <ele>144.43285</ele>
        <time>2017-05-16T00:00:32.000Z</time>
      </trkpt>
      <trkpt lat="52.36862" lon="-1.83704">
        <ele>145.3159</ele>
        <time>2017-05-16T00:00:40.000Z</time>
      </trkpt>
      <trkpt lat="52.36881" lon="-1.83733">
        <ele>145.80762</ele>
        <time>2017-05-16T00:00:45.000Z</time>
      </trkpt>
      <trkpt lat="52.36899" lon="-1.83759">
        <ele>146.11309</ele>
        <time>2017-05-16T00:00:50.000Z</time>
      </trkpt>
      <trkpt lat="52.36932" lon="-1.83812">
        <ele>146.21415</ele>
        <time>2017-05-16T00:00:59.000Z</time>
      </trkpt>
      <trkpt lat="52.36973" lon="-1.83879">
        <ele>146.01224</ele>
        <time>2017-05-16T00:01:11.000Z</time>
      </trkpt>
      <trkpt lat="52.36985" lon="-1.839">
        <ele>145.79185</ele>
        <time>2017-05-16T00:01:14.000Z</time>
      </trkpt>
      <trkpt lat="52.3701" lon="-1.83936">
        <ele>145.19833</ele>
        <time>2017-05-16T00:01:21.000Z</time>
      </trkpt>
      <trkpt lat="52.37027" lon="-1.83962">
        <ele>145.04555</ele>
        <time>2017-05-16T00:01:26.000Z</time>
      </trkpt>
      <trkpt lat="52.37041" lon="-1.83985">
        <ele>144.9922</ele>
        <time>2017-05-16T00:01:30.000Z</time>
      </trkpt>
      <trkpt lat="52.37046" lon="-1.83995">
        <ele>145.02078</ele>
        <time>2017-05-16T00:01:31.000Z</time>
      </trkpt>
      <trkpt lat="52.37052" lon="-1.84008">
        <ele>144.99591</ele>
        <time>2017-05-16T00:01:33.000Z</time>
      </trkpt>
      <trkpt lat="52.37059" lon="-1.84025">
        <ele>145.03515</ele>
        <time>2017-05-16T00:01:36.000Z</time>
      </trkpt>
      <trkpt lat="52.37099" lon="-1.84121">
        <ele>145.70686</ele>
        <time>2017-05-16T00:01:50.000Z</time>
      </trkpt>
      <trkpt lat="52.37138" lon="-1.84219">
        <ele>146.55951</ele>
        <time>2017-05-16T00:02:04.000Z</time>
      </trkpt>
      <trkpt lat="52.37166" lon="-1.84285">
        <ele>146.19581</ele>
        <time>2017-05-16T00:02:14.000Z</time>
      </trkpt>
      <trkpt lat="52.37187" lon="-1.84337">
        <ele>146.1795</ele>
        <time>2017-05-16T00:02:22.000Z</time>
      </trkpt>
      <trkpt lat="52.37209" lon="-1.84394">
        <ele>146.64836</ele>
        <time>2017-05-16T00:02:30.000Z</time>
      </trkpt>
      <trkpt lat="52.37238" lon="-1.84461">
        <ele>148.0868</ele>
        <time>2017-05-16T00:02:40.000Z</time>
      </trkpt>
      <trkpt lat="52.37261" lon="-1.84516">
        <ele>148.77568</ele>
        <time>2017-05-16T00:02:48.000Z</time>
      </trkpt>
      <trkpt lat="52.37281" lon="-1.84565">
        <ele>149.04033</ele>
        <time>2017-05-16T00:02:55.000Z</time>
      </trkpt>
      <trkpt lat="52.37294" lon="-1.84595">
        <ele>149.18334</ele>
        <time>2017-05-16T00:03:00.000Z</time>
      </trkpt>
      <trkpt lat="52.37314" lon="-1.84644">
        <ele>149.43079</ele>
        <time>2017-05-16T00:03:07.000Z</time>
      </trkpt>
      <trkpt lat="52.37338" lon="-1.84701">
        <ele>149.64344</ele>
        <time>2017-05-16T00:03:15.000Z</time>
      </trkpt>
      <trkpt lat="52.37364" lon="-1.8477">
        <ele>149.89443</ele>
        <time>2017-05-16T00:03:25.000Z</time>
      </trkpt>
      <trkpt lat="52.37389" lon="-1.84834">
        <ele>150.028</ele>
        <time>2017-05-16T00:03:35.000Z</time>
      </trkpt>
      <trkpt lat="52.37413" lon="-1.84898">
        <ele>149.95179</ele>
        <time>2017-05-16T00:03:44.000Z</time>
      </trkpt>
      <trkpt lat="52.37407" lon="-1.84911">
        <ele>150.14818</ele>
        <time>2017-05-16T00:03:46.000Z</time>
      </trkpt>
      <trkpt lat="52.37386" lon="-1.84943">
        <ele>150.73336</ele>
        <time>2017-05-16T00:03:52.000Z</time>
      </trkpt>
      <trkpt lat="52.37363" lon="-1.84978">
        <ele>151.31191</ele>
        <time>2017-05-16T00:03:58.000Z</time>
      </trkpt>
      <trkpt lat="52.37342" lon="-1.8501">
        <ele>151.73158</ele>
        <time>2017-05-16T00:04:04.000Z</time>
      </trkpt>
      <trkpt lat="52.37298" lon="-1.85077">
        <ele>151.93874</ele>
        <time>2017-05-16T00:04:16.000Z</time>
      </trkpt>
      <trkpt lat="52.37283" lon="-1.851">
        <ele>152.11239</ele>
        <time>2017-05-16T00:04:20.000Z</time>
      </trkpt>
      <trkpt lat="52.37263" lon="-1.85129">
        <ele>152.18461</ele>
        <time>2017-05-16T00:04:25.000Z</time>
      </trkpt>
      <trkpt lat="52.37232" lon="-1.85174">
        <ele>152.00878</ele>
        <time>2017-05-16T00:04:33.000Z</time>
      </trkpt>
      <trkpt lat="52.37204" lon="-1.85213">
        <ele>152.01212</ele>
        <time>2017-05-16T00:04:41.000Z</time>
      </trkpt>
      <trkpt lat="52.37168" lon="-1.85268">
        <ele>152.32655</ele>
        <time>2017-05-16T00:04:51.000Z</time>
      </trkpt>
      <trkpt lat="52.37126" lon="-1.85333">
        <ele>152.96661</ele>
        <time>2017-05-16T00:05:02.000Z</time>
      </trkpt>
      <trkpt lat="52.37086" lon="-1.85395">
        <ele>153.46476</ele>
        <time>2017-05-16T00:05:13.000Z</time>
      </trkpt>
      <trkpt lat="52.37029" lon="-1.85484">
        <ele>154.07878</ele>
        <time>2017-05-16T00:05:29.000Z</time>
      </trkpt>
      <trkpt lat="52.36999" lon="-1.8553">
        <ele>154.00989</ele>
        <time>2017-05-16T00:05:37.000Z</time>
      </trkpt>
      <trkpt lat="52.36985" lon="-1.85552">
        <ele>154.06884</ele>
        <time>2017-05-16T00:05:41.000Z</time>
      </trkpt>
      <trkpt lat="52.36976" lon="-1.8557">
        <ele>154.08189</ele>
        <time>2017-05-16T00:05:44.000Z</time>
      </trkpt>
      <trkpt lat="52.36961" lon="-1.85601">
        <ele>153.99117</ele>
        <time>2017-05-16T00:05:49.000Z</time>
      </trkpt>
      <trkpt lat="52.36946" lon="-1.85631">
        <ele>153.81351</ele>
        <time>2017-05-16T00:05:54.000Z</time>
      </trkpt>
      <trkpt lat="52.36926" lon="-1.85676">
        <ele>153.33283</ele>
        <time>2017-05-16T00:06:00.000Z</time>
      </trkpt>
      <trkpt lat="52.36923" lon="-1.85684">
        <ele>153.29292</ele>
        <time>2017-05-16T00:06:02.000Z</time>
      </trkpt>
      <trkpt lat="52.36921" lon="-1.85689">
        <ele>153.24288</ele>
        <time>2017-05-16T00:06:02.634Z</time>
      </trkpt>
      <trkpt lat="52.36906" lon="-1.85722">
        <ele>152.9752</ele>
        <time>2017-05-16T00:06:07.000Z</time>
      </trkpt>
      <trkpt lat="52.36899" lon="-1.85739">
        <ele>152.77858</ele>
        <time>2017-05-16T00:06:10.000Z</time>
      </trkpt>
      <trkpt lat="52.36884" lon="-1.85773">
        <ele>152.21184</ele>
        <time>2017-05-16T00:06:15.000Z</time>
      </trkpt>
      <trkpt lat="52.3686" lon="-1.85827">
        <ele>151.13134</ele>
        <time>2017-05-16T00:06:23.000Z</time>
      </trkpt>
      <trkpt lat="52.3684" lon="-1.85873">
        <ele>150.92725</ele>
        <time>2017-05-16T00:06:30.000Z</time>
      </trkpt>
      <trkpt lat="52.36822" lon="-1.85919">
        <ele>151.23887</ele>
        <time>2017-05-16T00:06:37.000Z</time>
      </trkpt>
      <trkpt lat="52.36801" lon="-1.85976">
        <ele>151.99851</ele>
        <time>2017-05-16T00:06:45.000Z</time>
      </trkpt>
      <trkpt lat="52.36785" lon="-1.86024">
        <ele>152.74284</ele>
        <time>2017-05-16T00:06:52.000Z</time>
      </trkpt>
      <trkpt lat="52.36774" lon="-1.86056">
        <ele>153.20255</ele>
        <time>2017-05-16T00:06:56.000Z</time>
      </trkpt>
      <trkpt lat="52.36758" lon="-1.86101">
        <ele>153.94957</ele>
        <time>2017-05-16T00:07:02.000Z</time>
      </trkpt>
      <trkpt lat="52.36733" lon="-1.86173">
        <ele>155.95171</ele>
        <time>2017-05-16T00:07:13.000Z</time>
      </trkpt>
      <trkpt lat="52.36726" lon="-1.86193">
        <ele>155.59092</ele>
        <time>2017-05-16T00:07:15.000Z</time>
      </trkpt>
      <trkpt lat="52.3671" lon="-1.86239">
        <ele>156.88016</ele>
        <time>2017-05-16T00:07:22.000Z</time>
      </trkpt>
      <trkpt lat="52.3673" lon="-1.86258">
        <ele>155.81978</ele>
        <time>2017-05-16T00:07:27.000Z</time>
      </trkpt>
      <trkpt lat="52.36744" lon="-1.8627">
        <ele>155.31819</ele>
        <time>2017-05-16T00:07:30.000Z</time>
      </trkpt>
      <trkpt lat="52.36752" lon="-1.86278">
        <ele>154.75983</ele>
        <time>2017-05-16T00:07:32.000Z</time>
      </trkpt>
      <trkpt lat="52.36759" lon="-1.86287">
        <ele>154.67685</ele>
        <time>2017-05-16T00:07:33.000Z</time>
      </trkpt>
      <trkpt lat="52.36763" lon="-1.86292">
        <ele>154.56866</ele>
        <time>2017-05-16T00:07:34.000Z</time>
      </trkpt>
      <trkpt lat="52.36765" lon="-1.86299">
        <ele>154.51485</ele>
        <time>2017-05-16T00:07:35.000Z</time>
      </trkpt>
      <trkpt lat="52.3677" lon="-1.86314">
        <ele>154.41853</ele>
        <time>2017-05-16T00:07:37.000Z</time>
      </trkpt>
      <trkpt lat="52.36776" lon="-1.86339">
        <ele>154.29948</ele>
        <time>2017-05-16T00:07:41.000Z</time>
      </trkpt>
      <trkpt lat="52.36789" lon="-1.864">
        <ele>154.22055</ele>
        <time>2017-05-16T00:07:49.000Z</time>
      </trkpt>
      <trkpt lat="52.368" lon="-1.86451">
        <ele>154.34378</ele>
        <time>2017-05-16T00:07:55.000Z</time>
      </trkpt>
      <trkpt lat="52.36809" lon="-1.86495">
        <ele>154.17513</ele>
        <time>2017-05-16T00:08:01.000Z</time>
      </trkpt>
      <trkpt lat="52.36818" lon="-1.86533">
        <ele>153.9693</ele>
        <time>2017-05-16T00:08:06.000Z</time>
      </trkpt>
      <trkpt lat="52.36821" lon="-1.86544">
        <ele>153.96023</ele>
        <time>2017-05-16T00:08:07.000Z</time>
      </trkpt>
      <trkpt lat="52.36829" lon="-1.86581">
        <ele>153.66833</ele>
        <time>2017-05-16T00:08:12.000Z</time>
      </trkpt>
      <trkpt lat="52.36839" lon="-1.86626">
        <ele>153.22355</ele>
        <time>2017-05-16T00:08:18.000Z</time>
      </trkpt>
      <trkpt lat="52.36843" lon="-1.86641">
        <ele>153.17963</ele>
        <time>2017-05-16T00:08:20.000Z</time>
      </trkpt>
      <trkpt lat="52.36848" lon="-1.86664">
        <ele>152.92178</ele>
        <time>2017-05-16T00:08:23.000Z</time>
      </trkpt>
      <trkpt lat="52.36852" lon="-1.86687">
        <ele>152.79587</ele>
        <time>2017-05-16T00:08:26.000Z</time>
      </trkpt>
      <trkpt lat="52.36858" lon="-1.86721">
        <ele>152.0959</ele>
        <time>2017-05-16T00:08:30.000Z</time>
      </trkpt>
      <trkpt lat="52.36864" lon="-1.86765">
        <ele>151.09513</ele>
        <time>2017-05-16T00:08:36.000Z</time>
      </trkpt>
      <trkpt lat="52.36869" lon="-1.86803">
        <ele>149.33882</ele>
        <time>2017-05-16T00:08:41.000Z</time>
      </trkpt>
      <trkpt lat="52.36872" lon="-1.86841">
        <ele>147.75127</ele>
        <time>2017-05-16T00:08:45.000Z</time>
      </trkpt>
      <trkpt lat="52.36873" lon="-1.86878">
        <ele>146.65623</ele>
        <time>2017-05-16T00:08:50.000Z</time>
      </trkpt>
      <trkpt lat="52.36872" lon="-1.86915">
        <ele>145.92845</ele>
        <time>2017-05-16T00:08:54.000Z</time>
      </trkpt>
      <trkpt lat="52.3687" lon="-1.86939">
        <ele>145.68826</ele>
        <time>2017-05-16T00:08:57.000Z</time>
      </trkpt>
      <trkpt lat="52.36866" lon="-1.86975">
        <ele>145.44424</ele>
        <time>2017-05-16T00:09:02.000Z</time>
      </trkpt>
      <trkpt lat="52.36861" lon="-1.87018">
        <ele>144.60336</ele>
        <time>2017-05-16T00:09:07.000Z</time>
      </trkpt>
      <trkpt lat="52.36859" lon="-1.8704">
        <ele>144.13614</ele>
        <time>2017-05-16T00:09:10.000Z</time>
      </trkpt>
      <trkpt lat="52.36859" lon="-1.87056">
        <ele>144.06056</ele>
        <time>2017-05-16T00:09:12.000Z</time>
      </trkpt>
      <trkpt lat="52.36858" lon="-1.87068">
        <ele>144.12672</ele>
        <time>2017-05-16T00:09:13.000Z</time>
      </trkpt>
      <trkpt lat="52.36857" lon="-1.87076">
        <ele>144.16968</ele>
        <time>2017-05-16T00:09:14.000Z</time>
      </trkpt>
      <trkpt lat="52.36856" lon="-1.87083">
        <ele>144.17756</ele>
        <time>2017-05-16T00:09:15.000Z</time>
      </trkpt>
      <trkpt lat="52.36854" lon="-1.87091">
        <ele>144.13875</ele>
        <time>2017-05-16T00:09:16.000Z</time>
      </trkpt>
      <trkpt lat="52.36852" lon="-1.87098">
        <ele>144.10093</ele>
        <time>2017-05-16T00:09:17.000Z</time>
      </trkpt>
      <trkpt lat="52.36847" lon="-1.87114">
        <ele>144.12114</ele>
        <time>2017-05-16T00:09:19.000Z</time>
      </trkpt>
      <trkpt lat="52.36829" lon="-1.87162">
        <ele>144.27637</ele>
        <time>2017-05-16T00:09:26.000Z</time>
      </trkpt>
      <trkpt lat="52.36819" lon="-1.87195">
        <ele>144.49057</ele>
        <time>2017-05-16T00:09:31.000Z</time>
      </trkpt>
      <trkpt lat="52.36817" lon="-1.87202">
        <ele>144.51657</ele>
        <time>2017-05-16T00:09:32.000Z</time>
      </trkpt>
      <trkpt lat="52.36816" lon="-1.8721">
        <ele>144.6069</ele>
        <time>2017-05-16T00:09:33.000Z</time>
      </trkpt>
      <trkpt lat="52.36815" lon="-1.8722">
        <ele>144.7631</ele>
        <time>2017-05-16T00:09:34.000Z</time>
      </trkpt>
      <trkpt lat="52.36814" lon="-1.8723">
        <ele>144.92601</ele>
        <time>2017-05-16T00:09:35.000Z</time>
      </trkpt>
      <trkpt lat="52.36815" lon="-1.8724">
        <ele>145.1344</ele>
        <time>2017-05-16T00:09:36.000Z</time>
      </trkpt>
      <trkpt lat="52.36816" lon="-1.87244">
        <ele>145.25683</ele>
        <time>2017-05-16T00:09:37.000Z</time>
      </trkpt>
      <trkpt lat="52.36818" lon="-1.87249">
        <ele>145.44952</ele>
        <time>2017-05-16T00:09:38.000Z</time>
      </trkpt>
      <trkpt lat="52.36826" lon="-1.8727">
        <ele>146.34385</ele>
        <time>2017-05-16T00:09:41.000Z</time>
      </trkpt>
      <trkpt lat="52.36844" lon="-1.87303">
        <ele>147.6092</ele>
        <time>2017-05-16T00:09:46.000Z</time>
      </trkpt>
      <trkpt lat="52.36854" lon="-1.87323">
        <ele>148.37331</ele>
        <time>2017-05-16T00:09:49.000Z</time>
      </trkpt>
      <trkpt lat="52.3687" lon="-1.87357">
        <ele>149.30986</ele>
        <time>2017-05-16T00:09:54.000Z</time>
      </trkpt>
      <trkpt lat="52.36911" lon="-1.87446">
        <ele>152.87057</ele>
        <time>2017-05-16T00:10:08.000Z</time>
      </trkpt>
      <trkpt lat="52.36912" lon="-1.87457">
        <ele>153.13672</ele>
        <time>2017-05-16T00:10:09.000Z</time>
      </trkpt>
      <trkpt lat="52.36913" lon="-1.87463">
        <ele>153.30666</ele>
        <time>2017-05-16T00:10:10.000Z</time>
      </trkpt>
      <trkpt lat="52.36913" lon="-1.87469">
        <ele>153.48066</ele>
        <time>2017-05-16T00:10:11.000Z</time>
      </trkpt>
      <trkpt lat="52.36912" lon="-1.87474">
        <ele>153.62755</ele>
        <time>2017-05-16T00:10:12.000Z</time>
      </trkpt>
      <trkpt lat="52.36911" lon="-1.87481">
        <ele>153.85049</ele>
        <time>2017-05-16T00:10:13.000Z</time>
      </trkpt>
      <trkpt lat="52.36908" lon="-1.87492">
        <ele>154.16657</ele>
        <time>2017-05-16T00:10:14.000Z</time>
      </trkpt>
      <trkpt lat="52.36891" lon="-1.87551">
        <ele>154.95653</ele>
        <time>2017-05-16T00:10:22.000Z</time>
      </trkpt>
      <trkpt lat="52.36893" lon="-1.87558">
        <ele>155.15273</ele>
        <time>2017-05-16T00:10:23.000Z</time>
      </trkpt>
      <trkpt lat="52.36894" lon="-1.87563">
        <ele>155.28206</ele>
        <time>2017-05-16T00:10:24.000Z</time>
      </trkpt>
      <trkpt lat="52.36896" lon="-1.8758">
        <ele>155.68954</ele>
        <time>2017-05-16T00:10:26.000Z</time>
      </trkpt>
      <trkpt lat="52.36898" lon="-1.87598">
        <ele>156.05672</ele>
        <time>2017-05-16T00:10:28.000Z</time>
      </trkpt>
      <trkpt lat="52.36899" lon="-1.87612">
        <ele>156.31592</ele>
        <time>2017-05-16T00:10:30.000Z</time>
      </trkpt>
      <trkpt lat="52.36898" lon="-1.87626">
        <ele>156.54495</ele>
        <time>2017-05-16T00:10:31.000Z</time>
      </trkpt>
      <trkpt lat="52.36897" lon="-1.8764">
        <ele>156.74861</ele>
        <time>2017-05-16T00:10:33.000Z</time>
      </trkpt>
      <trkpt lat="52.36896" lon="-1.87649">
        <ele>156.85739</ele>
        <time>2017-05-16T00:10:34.000Z</time>
      </trkpt>
      <trkpt lat="52.36894" lon="-1.87663">
        <ele>157.06994</ele>
        <time>2017-05-16T00:10:36.000Z</time>
      </trkpt>
      <trkpt lat="52.36891" lon="-1.87689">
        <ele>157.5345</ele>
        <time>2017-05-16T00:10:39.000Z</time>
        <name>52.368910,-1.876890</name>
        <extensions>
          <oa:locType>calcWayPoint</oa:locType>
        </extensions>
      </trkpt>
      <trkpt lat="52.36888" lon="-1.87705">
        <ele>157.77458</ele>
        <time>2017-05-16T00:10:41.000Z</time>
      </trkpt>
      <trkpt lat="52.36886" lon="-1.87721">
        <ele>157.96742</ele>
        <time>2017-05-16T00:10:43.000Z</time>
      </trkpt>
      <trkpt lat="52.36879" lon="-1.8773">
        <ele>157.73048</ele>
        <time>2017-05-16T00:10:45.000Z</time>
      </trkpt>
      <trkpt lat="52.36862" lon="-1.87752">
        <ele>157.18094</ele>
        <time>2017-05-16T00:10:49.000Z</time>
      </trkpt>
      <trkpt lat="52.36822" lon="-1.87804">
        <ele>153.75014</ele>
        <time>2017-05-16T00:11:00.000Z</time>
      </trkpt>
      <trkpt lat="52.36777" lon="-1.87878">
        <ele>151.3657</ele>
        <time>2017-05-16T00:11:12.000Z</time>
      </trkpt>
      <trkpt lat="52.36758" lon="-1.87905">
        <ele>151.52759</ele>
        <time>2017-05-16T00:11:17.000Z</time>
      </trkpt>
      <trkpt lat="52.36743" lon="-1.87925">
        <ele>151.6793</ele>
        <time>2017-05-16T00:11:21.000Z</time>
      </trkpt>
      <trkpt lat="52.36735" lon="-1.87935">
        <ele>151.8456</ele>
        <time>2017-05-16T00:11:23.000Z</time>
      </trkpt>
      <trkpt lat="52.36724" lon="-1.87946">
        <ele>152.25172</ele>
        <time>2017-05-16T00:11:26.000Z</time>
      </trkpt>
      <trkpt lat="52.36653" lon="-1.88009">
        <ele>155.32598</ele>
        <time>2017-05-16T00:11:42.000Z</time>
      </trkpt>
      <trkpt lat="52.36634" lon="-1.8803">
        <ele>155.68955</ele>
        <time>2017-05-16T00:11:47.000Z</time>
      </trkpt>
      <trkpt lat="52.36619" lon="-1.88053">
        <ele>156.07374</ele>
        <time>2017-05-16T00:11:51.000Z</time>
      </trkpt>
      <trkpt lat="52.36606" lon="-1.8808">
        <ele>156.27877</ele>
        <time>2017-05-16T00:11:55.000Z</time>
      </trkpt>
      <trkpt lat="52.36597" lon="-1.88102">
        <ele>156.54453</ele>
        <time>2017-05-16T00:11:58.000Z</time>
      </trkpt>
      <trkpt lat="52.36588" lon="-1.88126">
        <ele>156.85463</ele>
        <time>2017-05-16T00:12:02.000Z</time>
      </trkpt>
      <trkpt lat="52.36576" lon="-1.88155">
        <ele>157.25004</ele>
        <time>2017-05-16T00:12:06.000Z</time>
      </trkpt>
      <trkpt lat="52.36558" lon="-1.88198">
        <ele>157.83263</ele>
        <time>2017-05-16T00:12:12.000Z</time>
      </trkpt>
      <trkpt lat="52.36554" lon="-1.88206">
        <ele>157.96085</ele>
        <time>2017-05-16T00:12:14.000Z</time>
      </trkpt>
      <trkpt lat="52.36548" lon="-1.88223">
        <ele>158.24045</ele>
        <time>2017-05-16T00:12:16.000Z</time>
      </trkpt>
      <trkpt lat="52.36535" lon="-1.88254">
        <ele>158.67015</ele>
        <time>2017-05-16T00:12:21.000Z</time>
      </trkpt>
      <trkpt lat="52.36526" lon="-1.88274">
        <ele>158.9224</ele>
        <time>2017-05-16T00:12:24.000Z</time>
      </trkpt>
      <trkpt lat="52.36513" lon="-1.88309">
        <ele>159.45533</ele>
        <time>2017-05-16T00:12:29.000Z</time>
      </trkpt>
      <trkpt lat="52.36509" lon="-1.8832">
        <ele>159.60147</ele>
        <time>2017-05-16T00:12:30.000Z</time>
      </trkpt>
      <trkpt lat="52.36505" lon="-1.88336">
        <ele>159.75924</ele>
        <time>2017-05-16T00:12:32.000Z</time>
      </trkpt>
      <trkpt lat="52.365" lon="-1.88356">
        <ele>159.99018</ele>
        <time>2017-05-16T00:12:35.000Z</time>
      </trkpt>
      <trkpt lat="52.36497" lon="-1.88372">
        <ele>160.20999</ele>
        <time>2017-05-16T00:12:37.000Z</time>
      </trkpt>
      <trkpt lat="52.36493" lon="-1.88396">
        <ele>160.54781</ele>
        <time>2017-05-16T00:12:40.000Z</time>
      </trkpt>
      <trkpt lat="52.3649" lon="-1.8842">
        <ele>160.74147</ele>
        <time>2017-05-16T00:12:43.000Z</time>
      </trkpt>
      <trkpt lat="52.36484" lon="-1.88453">
        <ele>161.04244</ele>
        <time>2017-05-16T00:12:47.000Z</time>
      </trkpt>
      <trkpt lat="52.36476" lon="-1.88506">
        <ele>161.55614</ele>
        <time>2017-05-16T00:12:54.000Z</time>
      </trkpt>
      <trkpt lat="52.36468" lon="-1.8854">
        <ele>161.96499</ele>
        <time>2017-05-16T00:12:58.000Z</time>
      </trkpt>
      <trkpt lat="52.36462" lon="-1.88566">
        <ele>162.2827</ele>
        <time>2017-05-16T00:13:02.000Z</time>
      </trkpt>
      <trkpt lat="52.36456" lon="-1.88596">
        <ele>162.62681</ele>
        <time>2017-05-16T00:13:06.000Z</time>
      </trkpt>
      <trkpt lat="52.36448" lon="-1.8864">
        <ele>162.67796</ele>
        <time>2017-05-16T00:13:11.000Z</time>
      </trkpt>
      <trkpt lat="52.36443" lon="-1.88675">
        <ele>162.75675</ele>
        <time>2017-05-16T00:13:16.000Z</time>
      </trkpt>
      <trkpt lat="52.36438" lon="-1.88723">
        <ele>162.8027</ele>
        <time>2017-05-16T00:13:22.000Z</time>
      </trkpt>
      <trkpt lat="52.36435" lon="-1.88769">
        <ele>162.94543</ele>
        <time>2017-05-16T00:13:27.000Z</time>
      </trkpt>
      <trkpt lat="52.36433" lon="-1.88811">
        <ele>163.03626</ele>
        <time>2017-05-16T00:13:32.000Z</time>
      </trkpt>
      <trkpt lat="52.36435" lon="-1.88866">
        <ele>163.36491</ele>
        <time>2017-05-16T00:13:39.000Z</time>
      </trkpt>
      <trkpt lat="52.36434" lon="-1.88877">
        <ele>163.39999</ele>
        <time>2017-05-16T00:13:41.000Z</time>
      </trkpt>
      <trkpt lat="52.3643" lon="-1.88887">
        <ele>163.37349</ele>
        <time>2017-05-16T00:13:42.000Z</time>
      </trkpt>
      <trkpt lat="52.36423" lon="-1.88899">
        <ele>163.31085</ele>
        <time>2017-05-16T00:13:44.000Z</time>
      </trkpt>
      <trkpt lat="52.36387" lon="-1.88907">
        <ele>162.63324</ele>
        <time>2017-05-16T00:13:51.000Z</time>
      </trkpt>
      <trkpt lat="52.36362" lon="-1.88912">
        <ele>162.09105</ele>
        <time>2017-05-16T00:13:56.000Z</time>
      </trkpt>
      <trkpt lat="52.36345" lon="-1.88916">
        <ele>161.65511</ele>
        <time>2017-05-16T00:14:00.000Z</time>
      </trkpt>
      <trkpt lat="52.3633" lon="-1.8891">
        <ele>161.10504</ele>
        <time>2017-05-16T00:14:03.000Z</time>
      </trkpt>
      <trkpt lat="52.36305" lon="-1.88911">
        <ele>160.35599</ele>
        <time>2017-05-16T00:14:08.000Z</time>
      </trkpt>
      <trkpt lat="52.36269" lon="-1.88912">
        <ele>159.26054</ele>
        <time>2017-05-16T00:14:15.000Z</time>
      </trkpt>
      <trkpt lat="52.36238" lon="-1.88913">
        <ele>157.38573</ele>
        <time>2017-05-16T00:14:21.000Z</time>
      </trkpt>
      <trkpt lat="52.36206" lon="-1.88914">
        <ele>155.55813</ele>
        <time>2017-05-16T00:14:28.000Z</time>
      </trkpt>
      <trkpt lat="52.36175" lon="-1.88914">
        <ele>153.98543</ele>
        <time>2017-05-16T00:14:34.000Z</time>
      </trkpt>
      <trkpt lat="52.36144" lon="-1.88912">
        <ele>152.57695</ele>
        <time>2017-05-16T00:14:40.000Z</time>
      </trkpt>
      <trkpt lat="52.36121" lon="-1.8891">
        <ele>151.93355</ele>
        <time>2017-05-16T00:14:45.000Z</time>
      </trkpt>
      <trkpt lat="52.36097" lon="-1.88906">
        <ele>151.38209</ele>
        <time>2017-05-16T00:14:50.000Z</time>
      </trkpt>
      <trkpt lat="52.36095" lon="-1.88922">
        <ele>151.71814</ele>
        <time>2017-05-16T00:14:52.000Z</time>
      </trkpt>
      <trkpt lat="52.36091" lon="-1.88957">
        <ele>152.35061</ele>
        <time>2017-05-16T00:14:56.000Z</time>
      </trkpt>
      <trkpt lat="52.36086" lon="-1.88993">
        <ele>151.82728</ele>
        <time>2017-05-16T00:15:01.000Z</time>
      </trkpt>
      <trkpt lat="52.36082" lon="-1.89009">
        <ele>151.93372</ele>
        <time>2017-05-16T00:15:03.000Z</time>
      </trkpt>
      <trkpt lat="52.36081" lon="-1.89016">
        <ele>151.98398</ele>
        <time>2017-05-16T00:15:04.000Z</time>
      </trkpt>
      <trkpt lat="52.36078" lon="-1.89025">
        <ele>151.93891</ele>
        <time>2017-05-16T00:15:05.000Z</time>
      </trkpt>
      <trkpt lat="52.36072" lon="-1.89038">
        <ele>151.83183</ele>
        <time>2017-05-16T00:15:07.000Z</time>
      </trkpt>
      <trkpt lat="52.36066" lon="-1.89051">
        <ele>151.44247</ele>
        <time>2017-05-16T00:15:09.000Z</time>
      </trkpt>
      <trkpt lat="52.36053" lon="-1.89075">
        <ele>151.14123</ele>
        <time>2017-05-16T00:15:13.000Z</time>
      </trkpt>
      <trkpt lat="52.36045" lon="-1.89089">
        <ele>151.16631</ele>
        <time>2017-05-16T00:15:15.000Z</time>
      </trkpt>
      <trkpt lat="52.36033" lon="-1.89119">
        <ele>151.10546</ele>
        <time>2017-05-16T00:15:19.000Z</time>
      </trkpt>
      <trkpt lat="52.36024" lon="-1.89142">
        <ele>151.23726</ele>
        <time>2017-05-16T00:15:23.000Z</time>
      </trkpt>
      <trkpt lat="52.36017" lon="-1.89159">
        <ele>151.34676</ele>
        <time>2017-05-16T00:15:25.000Z</time>
      </trkpt>
      <trkpt lat="52.36011" lon="-1.89176">
        <ele>151.25479</ele>
        <time>2017-05-16T00:15:28.000Z</time>
      </trkpt>
      <trkpt lat="52.36002" lon="-1.89193">
        <ele>151.51915</ele>
        <time>2017-05-16T00:15:30.000Z</time>
      </trkpt>
      <trkpt lat="52.35993" lon="-1.89213">
        <ele>151.53203</ele>
        <time>2017-05-16T00:15:34.000Z</time>
      </trkpt>
      <trkpt lat="52.35978" lon="-1.89241">
        <ele>151.66311</ele>
        <time>2017-05-16T00:15:38.000Z</time>
      </trkpt>
      <trkpt lat="52.35965" lon="-1.89266">
        <ele>151.60753</ele>
        <time>2017-05-16T00:15:42.000Z</time>
      </trkpt>
      <trkpt lat="52.35953" lon="-1.8929">
        <ele>151.71257</ele>
        <time>2017-05-16T00:15:46.000Z</time>
      </trkpt>
      <trkpt lat="52.35945" lon="-1.8931">
        <ele>151.7341</ele>
        <time>2017-05-16T00:15:49.000Z</time>
      </trkpt>
      <trkpt lat="52.35939" lon="-1.89301">
        <ele>151.79707</ele>
        <time>2017-05-16T00:15:50.000Z</time>
      </trkpt>
      <trkpt lat="52.35945" lon="-1.8931">
        <ele>151.7341</ele>
        <time>2017-05-16T00:15:52.000Z</time>
      </trkpt>
      <trkpt lat="52.35941" lon="-1.89329">
        <ele>151.9064</ele>
        <time>2017-05-16T00:15:55.000Z</time>
      </trkpt>
      <trkpt lat="52.35936" lon="-1.89355">
        <ele>151.95841</ele>
        <time>2017-05-16T00:15:58.000Z</time>
      </trkpt>
      <trkpt lat="52.35934" lon="-1.89385">
        <ele>151.91217</ele>
        <time>2017-05-16T00:16:02.000Z</time>
      </trkpt>
      <trkpt lat="52.35932" lon="-1.8942">
        <ele>151.98416</ele>
        <time>2017-05-16T00:16:06.000Z</time>
      </trkpt>
      <trkpt lat="52.3593" lon="-1.89465">
        <ele>152.14199</ele>
        <time>2017-05-16T00:16:11.000Z</time>
      </trkpt>
      <trkpt lat="52.35928" lon="-1.89544">
        <ele>152.23244</ele>
        <time>2017-05-16T00:16:21.000Z</time>
      </trkpt>
      <trkpt lat="52.35923" lon="-1.89782">
        <ele>153.56466</ele>
        <time>2017-05-16T00:16:50.000Z</time>
      </trkpt>
      <trkpt lat="52.35922" lon="-1.89864">
        <ele>154.22044</ele>
        <time>2017-05-16T00:17:00.000Z</time>
      </trkpt>
      <trkpt lat="52.35922" lon="-1.89884">
        <ele>154.42605</ele>
        <time>2017-05-16T00:17:03.000Z</time>
      </trkpt>
      <trkpt lat="52.35923" lon="-1.89899">
        <ele>154.5282</ele>
        <time>2017-05-16T00:17:05.000Z</time>
      </trkpt>
      <trkpt lat="52.35913" lon="-1.89901">
        <ele>154.4687</ele>
        <time>2017-05-16T00:17:07.000Z</time>
      </trkpt>
      <trkpt lat="52.35905" lon="-1.89901">
        <ele>154.4137</ele>
        <time>2017-05-16T00:17:08.000Z</time>
      </trkpt>
      <trkpt lat="52.35897" lon="-1.89901">
        <ele>154.35615</ele>
        <time>2017-05-16T00:17:10.000Z</time>
      </trkpt>
      <trkpt lat="52.3589" lon="-1.899">
        <ele>154.34654</ele>
        <time>2017-05-16T00:17:11.000Z</time>
      </trkpt>
      <trkpt lat="52.35882" lon="-1.89898">
        <ele>154.28124</ele>
        <time>2017-05-16T00:17:13.000Z</time>
      </trkpt>
      <trkpt lat="52.3587" lon="-1.89894">
        <ele>154.42061</ele>
        <time>2017-05-16T00:17:15.000Z</time>
      </trkpt>
      <trkpt lat="52.35859" lon="-1.89888">
        <ele>154.41882</ele>
        <time>2017-05-16T00:17:18.000Z</time>
      </trkpt>
      <trkpt lat="52.35843" lon="-1.8988">
        <ele>154.29078</ele>
        <time>2017-05-16T00:17:21.000Z</time>
      </trkpt>
      <trkpt lat="52.35824" lon="-1.89872">
        <ele>154.31874</ele>
        <time>2017-05-16T00:17:25.000Z</time>
      </trkpt>
      <trkpt lat="52.35813" lon="-1.89868">
        <ele>154.41966</ele>
        <time>2017-05-16T00:17:27.000Z</time>
      </trkpt>
      <trkpt lat="52.35784" lon="-1.89859">
        <ele>154.66616</ele>
        <time>2017-05-16T00:17:33.000Z</time>
      </trkpt>
      <trkpt lat="52.35753" lon="-1.89851">
        <ele>155.08249</ele>
        <time>2017-05-16T00:17:39.000Z</time>
      </trkpt>
      <trkpt lat="52.35724" lon="-1.89846">
        <ele>155.73956</ele>
        <time>2017-05-16T00:17:45.000Z</time>
      </trkpt>
      <trkpt lat="52.35684" lon="-1.89841">
        <ele>157.04421</ele>
        <time>2017-05-16T00:17:53.000Z</time>
      </trkpt>
      <trkpt lat="52.35649" lon="-1.89839">
        <ele>158.50815</ele>
        <time>2017-05-16T00:18:00.000Z</time>
      </trkpt>
      <trkpt lat="52.35591" lon="-1.8984">
        <ele>160.52708</ele>
        <time>2017-05-16T00:18:12.000Z</time>
      </trkpt>
      <trkpt lat="52.35567" lon="-1.89843">
        <ele>161.45642</ele>
        <time>2017-05-16T00:18:17.000Z</time>
      </trkpt>
      <trkpt lat="52.35556" lon="-1.89844">
        <ele>161.10739</ele>
        <time>2017-05-16T00:18:19.000Z</time>
      </trkpt>
      <trkpt lat="52.3555" lon="-1.89846">
        <ele>159.2152</ele>
        <time>2017-05-16T00:18:20.000Z</time>
      </trkpt>
      <trkpt lat="52.3553" lon="-1.89848">
        <ele>155.22302</ele>
        <time>2017-05-16T00:18:24.000Z</time>
      </trkpt>
      <trkpt lat="52.35527" lon="-1.89849">
        <ele>155.13805</ele>
        <time>2017-05-16T00:18:25.000Z</time>
      </trkpt>
      <trkpt lat="52.35516" lon="-1.8985">
        <ele>154.93361</ele>
        <time>2017-05-16T00:18:27.000Z</time>
      </trkpt>
      <trkpt lat="52.35505" lon="-1.89851">
        <ele>156.81423</ele>
        <time>2017-05-16T00:18:29.000Z</time>
      </trkpt>
      <trkpt lat="52.35501" lon="-1.89852">
        <ele>158.40355</ele>
        <time>2017-05-16T00:18:30.000Z</time>
      </trkpt>
      <trkpt lat="52.35469" lon="-1.89857">
        <ele>161.60067</ele>
        <time>2017-05-16T00:18:36.000Z</time>
      </trkpt>
      <trkpt lat="52.35452" lon="-1.89861">
        <ele>161.316</ele>
        <time>2017-05-16T00:18:40.000Z</time>
      </trkpt>
      <trkpt lat="52.3543" lon="-1.89868">
        <ele>161.04126</ele>
        <time>2017-05-16T00:18:44.000Z</time>
      </trkpt>
      <trkpt lat="52.35412" lon="-1.89875">
        <ele>161.23412</ele>
        <time>2017-05-16T00:18:48.000Z</time>
      </trkpt>
      <trkpt lat="52.35383" lon="-1.89889">
        <ele>161.32642</ele>
        <time>2017-05-16T00:18:54.000Z</time>
      </trkpt>
      <trkpt lat="52.35322" lon="-1.89928">
        <ele>162.59215</ele>
        <time>2017-05-16T00:19:07.000Z</time>
      </trkpt>
      <trkpt lat="52.35311" lon="-1.89935">
        <ele>163.02259</ele>
        <time>2017-05-16T00:19:10.000Z</time>
      </trkpt>
      <trkpt lat="52.35302" lon="-1.89941">
        <ele>163.40776</ele>
        <time>2017-05-16T00:19:12.000Z</time>
      </trkpt>
      <trkpt lat="52.35278" lon="-1.89957">
        <ele>164.32183</ele>
        <time>2017-05-16T00:19:17.000Z</time>
      </trkpt>
      <trkpt lat="52.35264" lon="-1.89968">
        <ele>164.71494</ele>
        <time>2017-05-16T00:19:20.000Z</time>
      </trkpt>
      <trkpt lat="52.35254" lon="-1.89976">
        <ele>164.85501</ele>
        <time>2017-05-16T00:19:22.000Z</time>
      </trkpt>
      <trkpt lat="52.35245" lon="-1.89985">
        <ele>164.80003</ele>
        <time>2017-05-16T00:19:24.000Z</time>
      </trkpt>
      <trkpt lat="52.3524" lon="-1.89992">
        <ele>164.76177</ele>
        <time>2017-05-16T00:19:25.000Z</time>
      </trkpt>
      <trkpt lat="52.35232" lon="-1.90004">
        <ele>164.62455</ele>
        <time>2017-05-16T00:19:28.000Z</time>
      </trkpt>
      <trkpt lat="52.35227" lon="-1.90013">
        <ele>164.37661</ele>
        <time>2017-05-16T00:19:29.000Z</time>
      </trkpt>
      <trkpt lat="52.35221" lon="-1.90026">
        <ele>164.13406</ele>
        <time>2017-05-16T00:19:31.000Z</time>
      </trkpt>
      <trkpt lat="52.35216" lon="-1.90042">
        <ele>163.58401</ele>
        <time>2017-05-16T00:19:33.000Z</time>
      </trkpt>
      <trkpt lat="52.35209" lon="-1.90063">
        <ele>162.58814</ele>
        <time>2017-05-16T00:19:36.000Z</time>
      </trkpt>
      <trkpt lat="52.35196" lon="-1.90109">
        <ele>160.30264</ele>
        <time>2017-05-16T00:19:42.000Z</time>
      </trkpt>
      <trkpt lat="52.3518" lon="-1.90158">
        <ele>158.33473</ele>
        <time>2017-05-16T00:19:49.000Z</time>
      </trkpt>
      <trkpt lat="52.35163" lon="-1.90201">
        <ele>157.46231</ele>
        <time>2017-05-16T00:19:56.000Z</time>
      </trkpt>
      <trkpt lat="52.35128" lon="-1.90284">
        <ele>157.04447</ele>
        <time>2017-05-16T00:20:08.000Z</time>
      </trkpt>
      <trkpt lat="52.35114" lon="-1.90314">
        <ele>156.85778</ele>
        <time>2017-05-16T00:20:12.000Z</time>
      </trkpt>
      <trkpt lat="52.35093" lon="-1.90357">
        <ele>156.92831</ele>
        <time>2017-05-16T00:20:19.000Z</time>
      </trkpt>
      <trkpt lat="52.35075" lon="-1.9039">
        <ele>156.59774</ele>
        <time>2017-05-16T00:20:25.000Z</time>
      </trkpt>
      <trkpt lat="52.35057" lon="-1.90414">
        <ele>156.36441</ele>
        <time>2017-05-16T00:20:29.000Z</time>
      </trkpt>
      <trkpt lat="52.35035" lon="-1.90434">
        <ele>156.31198</ele>
        <time>2017-05-16T00:20:34.000Z</time>
      </trkpt>
      <trkpt lat="52.35006" lon="-1.90451">
        <ele>156.04817</ele>
        <time>2017-05-16T00:20:41.000Z</time>
      </trkpt>
      <trkpt lat="52.34976" lon="-1.90461">
        <ele>155.11328</ele>
        <time>2017-05-16T00:20:47.000Z</time>
      </trkpt>
      <trkpt lat="52.34946" lon="-1.90464">
        <ele>154.44321</ele>
        <time>2017-05-16T00:20:53.000Z</time>
      </trkpt>
      <trkpt lat="52.34889" lon="-1.90474">
        <ele>154.0269</ele>
        <time>2017-05-16T00:21:04.000Z</time>
      </trkpt>
      <trkpt lat="52.34868" lon="-1.9048">
        <ele>153.20737</ele>
        <time>2017-05-16T00:21:08.000Z</time>
      </trkpt>
      <trkpt lat="52.34848" lon="-1.90489">
        <ele>152.07924</ele>
        <time>2017-05-16T00:21:13.000Z</time>
      </trkpt>
      <trkpt lat="52.34836" lon="-1.90497">
        <ele>151.52308</ele>
        <time>2017-05-16T00:21:15.000Z</time>
      </trkpt>
      <trkpt lat="52.34818" lon="-1.9051">
        <ele>151.35214</ele>
        <time>2017-05-16T00:21:19.000Z</time>
      </trkpt>
      <trkpt lat="52.34813" lon="-1.90514">
        <ele>151.3094</ele>
        <time>2017-05-16T00:21:20.000Z</time>
      </trkpt>
      <trkpt lat="52.34794" lon="-1.9053">
        <ele>150.5102</ele>
        <time>2017-05-16T00:21:25.000Z</time>
      </trkpt>
      <trkpt lat="52.34772" lon="-1.90552">
        <ele>148.66517</ele>
        <time>2017-05-16T00:21:30.000Z</time>
      </trkpt>
      <trkpt lat="52.34754" lon="-1.90577">
        <ele>146.57048</ele>
        <time>2017-05-16T00:21:34.000Z</time>
      </trkpt>
      <trkpt lat="52.34732" lon="-1.90602">
        <ele>143.02625</ele>
        <time>2017-05-16T00:21:40.000Z</time>
      </trkpt>
      <trkpt lat="52.34714" lon="-1.90617">
        <ele>141.41091</ele>
        <time>2017-05-16T00:21:44.000Z</time>
      </trkpt>
      <trkpt lat="52.3469" lon="-1.90633">
        <ele>140.09666</ele>
        <time>2017-05-16T00:21:49.000Z</time>
      </trkpt>
      <trkpt lat="52.34669" lon="-1.90648">
        <ele>139.26792</ele>
        <time>2017-05-16T00:21:54.000Z</time>
      </trkpt>
      <trkpt lat="52.34653" lon="-1.90654">
        <ele>138.89508</ele>
        <time>2017-05-16T00:21:57.000Z</time>
      </trkpt>
      <trkpt lat="52.34631" lon="-1.90662">
        <ele>138.23861</ele>
        <time>2017-05-16T00:22:01.000Z</time>
      </trkpt>
      <trkpt lat="52.34581" lon="-1.90669">
        <ele>137.02131</ele>
        <time>2017-05-16T00:22:11.000Z</time>
      </trkpt>
      <trkpt lat="52.34543" lon="-1.90677">
        <ele>136.88023</ele>
        <time>2017-05-16T00:22:19.000Z</time>
      </trkpt>
      <trkpt lat="52.34531" lon="-1.90682">
        <ele>136.89593</ele>
        <time>2017-05-16T00:22:22.000Z</time>
      </trkpt>
      <trkpt lat="52.34523" lon="-1.90687">
        <ele>136.85616</ele>
        <time>2017-05-16T00:22:23.000Z</time>
      </trkpt>
      <trkpt lat="52.34517" lon="-1.90691">
        <ele>136.81968</ele>
        <time>2017-05-16T00:22:25.000Z</time>
      </trkpt>
      <trkpt lat="52.34511" lon="-1.90697">
        <ele>136.8374</ele>
        <time>2017-05-16T00:22:26.000Z</time>
      </trkpt>
      <trkpt lat="52.345" lon="-1.90709">
        <ele>136.71941</ele>
        <time>2017-05-16T00:22:29.000Z</time>
      </trkpt>
      <trkpt lat="52.34466" lon="-1.90754">
        <ele>136.34352</ele>
        <time>2017-05-16T00:22:37.000Z</time>
      </trkpt>
      <trkpt lat="52.34455" lon="-1.90768">
        <ele>136.50506</ele>
        <time>2017-05-16T00:22:40.000Z</time>
      </trkpt>
      <trkpt lat="52.34438" lon="-1.90791">
        <ele>136.88532</ele>
        <time>2017-05-16T00:22:45.000Z</time>
      </trkpt>
      <trkpt lat="52.34412" lon="-1.9083">
        <ele>137.12023</ele>
        <time>2017-05-16T00:22:52.000Z</time>
      </trkpt>
      <trkpt lat="52.3441" lon="-1.90833">
        <ele>137.01992</ele>
        <time>2017-05-16T00:22:52.492Z</time>
      </trkpt>
      <trkpt lat="52.34392" lon="-1.90861">
        <ele>136.0286</ele>
        <time>2017-05-16T00:22:57.000Z</time>
      </trkpt>
      <trkpt lat="52.34381" lon="-1.90879">
        <ele>135.51262</ele>
        <time>2017-05-16T00:23:00.000Z</time>
      </trkpt>
      <trkpt lat="52.34372" lon="-1.90893">
        <ele>135.21298</ele>
        <time>2017-05-16T00:23:03.000Z</time>
      </trkpt>
      <trkpt lat="52.34354" lon="-1.9092">
        <ele>134.65581</ele>
        <time>2017-05-16T00:23:08.000Z</time>
      </trkpt>
      <trkpt lat="52.34347" lon="-1.90932">
        <ele>134.44336</ele>
        <time>2017-05-16T00:23:10.000Z</time>
      </trkpt>
      <trkpt lat="52.34337" lon="-1.9095">
        <ele>134.32998</ele>
        <time>2017-05-16T00:23:13.000Z</time>
      </trkpt>
      <trkpt lat="52.34332" lon="-1.90958">
        <ele>134.22894</ele>
        <time>2017-05-16T00:23:14.000Z</time>
      </trkpt>
      <trkpt lat="52.34322" lon="-1.90979">
        <ele>134.18323</ele>
        <time>2017-05-16T00:23:17.000Z</time>
      </trkpt>
      <trkpt lat="52.34291" lon="-1.9104">
        <ele>133.63938</ele>
        <time>2017-05-16T00:23:27.000Z</time>
      </trkpt>
      <trkpt lat="52.34273" lon="-1.91078">
        <ele>133.06606</ele>
        <time>2017-05-16T00:23:33.000Z</time>
      </trkpt>
      <trkpt lat="52.34265" lon="-1.91096">
        <ele>132.74678</ele>
        <time>2017-05-16T00:23:36.000Z</time>
      </trkpt>
      <trkpt lat="52.34259" lon="-1.9111">
        <ele>132.55064</ele>
        <time>2017-05-16T00:23:38.000Z</time>
      </trkpt>
      <trkpt lat="52.34256" lon="-1.9112">
        <ele>132.48079</ele>
        <time>2017-05-16T00:23:39.000Z</time>
      </trkpt>
      <trkpt lat="52.34247" lon="-1.9115">
        <ele>131.96828</ele>
        <time>2017-05-16T00:23:43.000Z</time>
      </trkpt>
      <trkpt lat="52.3424" lon="-1.91169">
        <ele>131.45276</ele>
        <time>2017-05-16T00:23:46.000Z</time>
      </trkpt>
      <trkpt lat="52.34235" lon="-1.91184">
        <ele>131.01634</ele>
        <time>2017-05-16T00:23:48.000Z</time>
      </trkpt>
      <trkpt lat="52.34231" lon="-1.91191">
        <ele>130.85659</ele>
        <time>2017-05-16T00:23:49.000Z</time>
      </trkpt>
      <trkpt lat="52.34228" lon="-1.91199">
        <ele>130.73189</ele>
        <time>2017-05-16T00:23:50.000Z</time>
      </trkpt>
      <trkpt lat="52.34222" lon="-1.91208">
        <ele>130.5145</ele>
        <time>2017-05-16T00:23:52.000Z</time>
      </trkpt>
      <trkpt lat="52.34217" lon="-1.91216">
        <ele>130.38832</ele>
        <time>2017-05-16T00:23:53.000Z</time>
      </trkpt>
      <trkpt lat="52.34213" lon="-1.91223">
        <ele>130.28363</ele>
        <time>2017-05-16T00:23:55.000Z</time>
      </trkpt>
      <trkpt lat="52.34206" lon="-1.91232">
        <ele>130.10479</ele>
        <time>2017-05-16T00:23:56.000Z</time>
      </trkpt>
      <trkpt lat="52.34197" lon="-1.91241">
        <ele>130.01585</ele>
        <time>2017-05-16T00:23:59.000Z</time>
      </trkpt>
      <trkpt lat="52.34185" lon="-1.91254">
        <ele>129.99045</ele>
        <time>2017-05-16T00:24:01.000Z</time>
      </trkpt>
      <trkpt lat="52.34179" lon="-1.91259">
        <ele>129.93751</ele>
        <time>2017-05-16T00:24:03.000Z</time>
      </trkpt>
      <trkpt lat="52.34162" lon="-1.91271">
        <ele>129.76597</ele>
        <time>2017-05-16T00:24:06.000Z</time>
      </trkpt>
      <trkpt lat="52.34148" lon="-1.91278">
        <ele>129.24975</ele>
        <time>2017-05-16T00:24:09.000Z</time>
      </trkpt>
      <trkpt lat="52.34134" lon="-1.91284">
        <ele>128.81555</ele>
        <time>2017-05-16T00:24:12.000Z</time>
      </trkpt>
      <trkpt lat="52.34119" lon="-1.91288">
        <ele>128.21181</ele>
        <time>2017-05-16T00:24:15.000Z</time>
      </trkpt>
      <trkpt lat="52.34106" lon="-1.91291">
        <ele>127.81725</ele>
        <time>2017-05-16T00:24:18.000Z</time>
      </trkpt>
      <trkpt lat="52.34087" lon="-1.91294">
        <ele>127.14341</ele>
        <time>2017-05-16T00:24:22.000Z</time>
      </trkpt>
      <trkpt lat="52.34071" lon="-1.91296">
        <ele>126.20462</ele>
        <time>2017-05-16T00:24:25.000Z</time>
      </trkpt>
      <trkpt lat="52.3405" lon="-1.91296">
        <ele>124.63742</ele>
        <time>2017-05-16T00:24:29.000Z</time>
      </trkpt>
      <trkpt lat="52.34032" lon="-1.91295">
        <ele>123.23672</ele>
        <time>2017-05-16T00:24:33.000Z</time>
      </trkpt>
      <trkpt lat="52.34018" lon="-1.91295">
        <ele>122.1193</ele>
        <time>2017-05-16T00:24:36.000Z</time>
      </trkpt>
      <trkpt lat="52.34012" lon="-1.91296">
        <ele>121.6943</ele>
        <time>2017-05-16T00:24:37.000Z</time>
      </trkpt>
      <trkpt lat="52.34007" lon="-1.91298">
        <ele>121.42753</ele>
        <time>2017-05-16T00:24:38.000Z</time>
      </trkpt>
      <trkpt lat="52.34001" lon="-1.91302">
        <ele>121.18311</ele>
        <time>2017-05-16T00:24:39.000Z</time>
      </trkpt>
      <trkpt lat="52.33997" lon="-1.91305">
        <ele>120.98431</ele>
        <time>2017-05-16T00:24:40.000Z</time>
      </trkpt>
      <trkpt lat="52.33994" lon="-1.91309">
        <ele>120.71244</ele>
        <time>2017-05-16T00:24:41.000Z</time>
      </trkpt>
      <trkpt lat="52.33991" lon="-1.91313">
        <ele>120.48763</ele>
        <time>2017-05-16T00:24:42.000Z</time>
      </trkpt>
      <trkpt lat="52.33987" lon="-1.91318">
        <ele>120.28028</ele>
        <time>2017-05-16T00:24:43.000Z</time>
      </trkpt>
      <trkpt lat="52.3398" lon="-1.9133">
        <ele>119.87247</ele>
        <time>2017-05-16T00:24:45.000Z</time>
      </trkpt>
      <trkpt lat="52.33976" lon="-1.91339">
        <ele>119.74227</ele>
        <time>2017-05-16T00:24:46.000Z</time>
      </trkpt>
      <trkpt lat="52.33967" lon="-1.9136">
        <ele>119.2412</ele>
        <time>2017-05-16T00:24:49.000Z</time>
      </trkpt>
      <trkpt lat="52.33955" lon="-1.91389">
        <ele>119.26605</ele>
        <time>2017-05-16T00:24:53.000Z</time>
      </trkpt>
      <trkpt lat="52.33947" lon="-1.91405">
        <ele>119.47479</ele>
        <time>2017-05-16T00:24:56.000Z</time>
      </trkpt>
      <trkpt lat="52.33942" lon="-1.91414">
        <ele>119.62727</ele>
        <time>2017-05-16T00:24:57.000Z</time>
      </trkpt>
      <trkpt lat="52.33939" lon="-1.91418">
        <ele>119.7286</ele>
        <time>2017-05-16T00:24:58.000Z</time>
      </trkpt>
      <trkpt lat="52.33935" lon="-1.91422">
        <ele>119.94431</ele>
        <time>2017-05-16T00:24:59.000Z</time>
      </trkpt>
      <trkpt lat="52.33932" lon="-1.91425">
        <ele>120.13278</ele>
        <time>2017-05-16T00:25:00.000Z</time>
      </trkpt>
      <trkpt lat="52.33927" lon="-1.91427">
        <ele>120.29254</ele>
        <time>2017-05-16T00:25:01.000Z</time>
      </trkpt>
      <trkpt lat="52.33923" lon="-1.91428">
        <ele>120.36583</ele>
        <time>2017-05-16T00:25:02.000Z</time>
      </trkpt>
      <trkpt lat="52.33919" lon="-1.91429">
        <ele>120.45829</ele>
        <time>2017-05-16T00:25:03.000Z</time>
      </trkpt>
      <trkpt lat="52.3391" lon="-1.91429">
        <ele>120.69532</ele>
        <time>2017-05-16T00:25:04.000Z</time>
        <name>52.339150,-1.914290</name>
        <extensions>
          <oa:locType>calcWayPoint</oa:locType>
        </extensions>
      </trkpt>
      <trkpt lat="52.33906" lon="-1.91428">
        <ele>120.80045</ele>
        <time>2017-05-16T00:25:05.000Z</time>
      </trkpt>
      <trkpt lat="52.33902" lon="-1.91427">
        <ele>120.90227</ele>
        <time>2017-05-16T00:25:06.000Z</time>
      </trkpt>
      <trkpt lat="52.33899" lon="-1.91426">
        <ele>120.94789</ele>
        <time>2017-05-16T00:25:07.000Z</time>
      </trkpt>
      <trkpt lat="52.33891" lon="-1.91423">
        <ele>121.00949</ele>
        <time>2017-05-16T00:25:08.000Z</time>
      </trkpt>
      <trkpt lat="52.33883" lon="-1.9142">
        <ele>121.01991</ele>
        <time>2017-05-16T00:25:10.000Z</time>
      </trkpt>
      <trkpt lat="52.33871" lon="-1.91413">
        <ele>121.01974</ele>
        <time>2017-05-16T00:25:12.000Z</time>
      </trkpt>
      <trkpt lat="52.33792" lon="-1.91367">
        <ele>120.62691</ele>
        <time>2017-05-16T00:25:29.000Z</time>
      </trkpt>
      <trkpt lat="52.33738" lon="-1.91331">
        <ele>119.19709</ele>
        <time>2017-05-16T00:25:41.000Z</time>
      </trkpt>
      <trkpt lat="52.33713" lon="-1.91314">
        <ele>117.42041</ele>
        <time>2017-05-16T00:25:46.000Z</time>
      </trkpt>
      <trkpt lat="52.33694" lon="-1.91302">
        <ele>115.88204</ele>
        <time>2017-05-16T00:25:50.000Z</time>
      </trkpt>
      <trkpt lat="52.33687" lon="-1.91298">
        <ele>115.02612</ele>
        <time>2017-05-16T00:25:52.000Z</time>
      </trkpt>
      <trkpt lat="52.33671" lon="-1.91288">
        <ele>114.38623</ele>
        <time>2017-05-16T00:25:55.000Z</time>
      </trkpt>
      <trkpt lat="52.33601" lon="-1.91247">
        <ele>109.46385</ele>
        <time>2017-05-16T00:26:10.000Z</time>
      </trkpt>
      <trkpt lat="52.33397" lon="-1.91127">
        <ele>103.75088</ele>
        <time>2017-05-16T00:26:54.000Z</time>
      </trkpt>
      <trkpt lat="52.33362" lon="-1.91108">
        <ele>103.01955</ele>
        <time>2017-05-16T00:27:01.000Z</time>
      </trkpt>
      <trkpt lat="52.3331" lon="-1.91081">
        <ele>102.0113</ele>
        <time>2017-05-16T00:27:12.000Z</time>
      </trkpt>
      <trkpt lat="52.33294" lon="-1.91072">
        <ele>101.69381</ele>
        <time>2017-05-16T00:27:15.000Z</time>
      </trkpt>
      <trkpt lat="52.33279" lon="-1.91062">
        <ele>101.40648</ele>
        <time>2017-05-16T00:27:19.000Z</time>
      </trkpt>
      <trkpt lat="52.33242" lon="-1.91035">
        <ele>100.67414</ele>
        <time>2017-05-16T00:27:27.000Z</time>
      </trkpt>
      <trkpt lat="52.33149" lon="-1.90964">
        <ele>99.57034</ele>
        <time>2017-05-16T00:27:47.000Z</time>
      </trkpt>
      <trkpt lat="52.33087" lon="-1.90918">
        <ele>99.08548</ele>
        <time>2017-05-16T00:28:01.000Z</time>
      </trkpt>
      <trkpt lat="52.33075" lon="-1.9091">
        <ele>99.06901</ele>
        <time>2017-05-16T00:28:04.000Z</time>
      </trkpt>
      <trkpt lat="52.33067" lon="-1.90906">
        <ele>99.00709</ele>
        <time>2017-05-16T00:28:05.000Z</time>
      </trkpt>
      <trkpt lat="52.33054" lon="-1.90899">
        <ele>99.06252</ele>
        <time>2017-05-16T00:28:08.000Z</time>
      </trkpt>
      <trkpt lat="52.33043" lon="-1.90894">
        <ele>99.0956</ele>
        <time>2017-05-16T00:28:10.000Z</time>
      </trkpt>
      <trkpt lat="52.33035" lon="-1.90892">
        <ele>98.9351</ele>
        <time>2017-05-16T00:28:12.000Z</time>
      </trkpt>
      <trkpt lat="52.33024" lon="-1.90888">
        <ele>98.7157</ele>
        <time>2017-05-16T00:28:14.000Z</time>
      </trkpt>
      <trkpt lat="52.33014" lon="-1.90888">
        <ele>98.71619</ele>
        <time>2017-05-16T00:28:16.000Z</time>
      </trkpt>
      <trkpt lat="52.32997" lon="-1.90887">
        <ele>98.85391</ele>
        <time>2017-05-16T00:28:20.000Z</time>
      </trkpt>
      <trkpt lat="52.32905" lon="-1.9089">
        <ele>99.52592</ele>
        <time>2017-05-16T00:28:38.000Z</time>
      </trkpt>
      <trkpt lat="52.32877" lon="-1.90892">
        <ele>100.00409</ele>
        <time>2017-05-16T00:28:44.000Z</time>
      </trkpt>
      <trkpt lat="52.32838" lon="-1.90897">
        <ele>100.86857</ele>
        <time>2017-05-16T00:28:51.000Z</time>
      </trkpt>
      <trkpt lat="52.32712" lon="-1.90913">
        <ele>103.54263</ele>
        <time>2017-05-16T00:29:17.000Z</time>
      </trkpt>
      <trkpt lat="52.3251" lon="-1.90939">
        <ele>107.73952</ele>
        <time>2017-05-16T00:29:57.000Z</time>
      </trkpt>
      <trkpt lat="52.32359" lon="-1.90948">
        <ele>112.25279</ele>
        <time>2017-05-16T00:30:28.000Z</time>
      </trkpt>
      <trkpt lat="52.3235" lon="-1.90949">
        <ele>111.97326</ele>
        <time>2017-05-16T00:30:29.000Z</time>
      </trkpt>
      <trkpt lat="52.32336" lon="-1.9095">
        <ele>111.52312</ele>
        <time>2017-05-16T00:30:32.000Z</time>
      </trkpt>
      <trkpt lat="52.32315" lon="-1.90953">
        <ele>111.03275</ele>
        <time>2017-05-16T00:30:36.000Z</time>
      </trkpt>
      <trkpt lat="52.3231" lon="-1.90953">
        <ele>110.88467</ele>
        <time>2017-05-16T00:30:37.000Z</time>
      </trkpt>
      <trkpt lat="52.32308" lon="-1.90953">
        <ele>110.82166</ele>
        <time>2017-05-16T00:30:38.000Z</time>
      </trkpt>
      <trkpt lat="52.32291" lon="-1.90951">
        <ele>110.34305</ele>
        <time>2017-05-16T00:30:41.000Z</time>
      </trkpt>
      <trkpt lat="52.32272" lon="-1.90948">
        <ele>109.86268</ele>
        <time>2017-05-16T00:30:45.000Z</time>
      </trkpt>
      <trkpt lat="52.32251" lon="-1.90943">
        <ele>109.12326</ele>
        <time>2017-05-16T00:30:49.000Z</time>
      </trkpt>
      <trkpt lat="52.3221" lon="-1.90931">
        <ele>107.8164</ele>
        <time>2017-05-16T00:30:58.000Z</time>
      </trkpt>
      <trkpt lat="52.32122" lon="-1.90905">
        <ele>105.03321</ele>
        <time>2017-05-16T00:31:16.000Z</time>
      </trkpt>
      <trkpt lat="52.32102" lon="-1.90898">
        <ele>104.65554</ele>
        <time>2017-05-16T00:31:20.000Z</time>
      </trkpt>
      <trkpt lat="52.321" lon="-1.90906">
        <ele>104.27194</ele>
        <time>2017-05-16T00:31:21.000Z</time>
      </trkpt>
      <trkpt lat="52.32098" lon="-1.90912">
        <ele>104.01433</ele>
        <time>2017-05-16T00:31:22.000Z</time>
      </trkpt>
      <trkpt lat="52.32097" lon="-1.90913">
        <ele>103.9451</ele>
        <time>2017-05-16T00:31:22.237Z</time>
      </trkpt>
      <trkpt lat="52.32095" lon="-1.90913">
        <ele>103.86331</ele>
        <time>2017-05-16T00:31:22.642Z</time>
      </trkpt>
      <trkpt lat="52.32039" lon="-1.90919">
        <ele>102.60463</ele>
        <time>2017-05-16T00:31:34.000Z</time>
      </trkpt>
      <trkpt lat="52.32034" lon="-1.90919">
        <ele>102.68847</ele>
        <time>2017-05-16T00:31:35.000Z</time>
      </trkpt>
      <trkpt lat="52.32023" lon="-1.90915">
        <ele>102.61649</ele>
        <time>2017-05-16T00:31:37.000Z</time>
      </trkpt>
      <trkpt lat="52.32012" lon="-1.90911">
        <ele>102.49959</ele>
        <time>2017-05-16T00:31:39.000Z</time>
      </trkpt>
      <trkpt lat="52.32015" lon="-1.90882">
        <ele>104.20999</ele>
        <time>2017-05-16T00:31:43.000Z</time>
      </trkpt>
      <trkpt lat="52.32015" lon="-1.90875">
        <ele>104.26121</ele>
        <time>2017-05-16T00:31:44.000Z</time>
      </trkpt>
      <trkpt lat="52.32009" lon="-1.90871">
        <ele>104.06374</ele>
        <time>2017-05-16T00:31:45.000Z</time>
      </trkpt>
      <trkpt lat="52.31937" lon="-1.9085">
        <ele>100.49041</ele>
        <time>2017-05-16T00:32:00.000Z</time>
      </trkpt>
      <trkpt lat="52.31882" lon="-1.90836">
        <ele>98.48683</ele>
        <time>2017-05-16T00:32:11.000Z</time>
      </trkpt>
      <trkpt lat="52.31699" lon="-1.90784">
        <ele>96.27631</ele>
        <time>2017-05-16T00:32:48.000Z</time>
      </trkpt>
      <trkpt lat="52.31652" lon="-1.90769">
        <ele>96.44806</ele>
        <time>2017-05-16T00:32:58.000Z</time>
      </trkpt>
      <trkpt lat="52.3163" lon="-1.90763">
        <ele>96.45865</ele>
        <time>2017-05-16T00:33:02.000Z</time>
      </trkpt>
      <trkpt lat="52.31615" lon="-1.90759">
        <ele>97.13669</ele>
        <time>2017-05-16T00:33:05.000Z</time>
      </trkpt>
      <trkpt lat="52.31608" lon="-1.90757">
        <ele>97.51791</ele>
        <time>2017-05-16T00:33:06.000Z</time>
      </trkpt>
      <trkpt lat="52.31603" lon="-1.90757">
        <ele>97.81779</ele>
        <time>2017-05-16T00:33:07.000Z</time>
      </trkpt>
      <trkpt lat="52.31589" lon="-1.90755">
        <ele>98.24237</ele>
        <time>2017-05-16T00:33:10.000Z</time>
      </trkpt>
      <trkpt lat="52.31521" lon="-1.90736">
        <ele>98.0857</ele>
        <time>2017-05-16T00:33:24.000Z</time>
      </trkpt>
      <trkpt lat="52.31465" lon="-1.90717">
        <ele>94.94457</ele>
        <time>2017-05-16T00:33:36.000Z</time>
      </trkpt>
      <trkpt lat="52.31396" lon="-1.90696">
        <ele>91.19888</ele>
        <time>2017-05-16T00:33:50.000Z</time>
      </trkpt>
      <trkpt lat="52.31377" lon="-1.9069">
        <ele>90.18283</ele>
        <time>2017-05-16T00:33:54.000Z</time>
      </trkpt>
      <trkpt lat="52.31363" lon="-1.90684">
        <ele>89.27431</ele>
        <time>2017-05-16T00:33:56.000Z</time>
      </trkpt>
      <trkpt lat="52.31364" lon="-1.90674">
        <ele>89.25652</ele>
        <time>2017-05-16T00:33:58.000Z</time>
      </trkpt>
      <trkpt lat="52.31365" lon="-1.90651">
        <ele>89.09775</ele>
        <time>2017-05-16T00:34:00.000Z</time>
      </trkpt>
      <trkpt lat="52.31365" lon="-1.90625">
        <ele>88.86785</ele>
        <time>2017-05-16T00:34:04.000Z</time>
      </trkpt>
      <trkpt lat="52.31364" lon="-1.90601">
        <ele>88.59374</ele>
        <time>2017-05-16T00:34:07.000Z</time>
      </trkpt>
      <trkpt lat="52.31358" lon="-1.90524">
        <ele>88.09595</ele>
        <time>2017-05-16T00:34:16.000Z</time>
      </trkpt>
      <trkpt lat="52.31357" lon="-1.90507">
        <ele>87.98663</ele>
        <time>2017-05-16T00:34:18.000Z</time>
      </trkpt>
      <trkpt lat="52.31358" lon="-1.90487">
        <ele>88.02617</ele>
        <time>2017-05-16T00:34:21.000Z</time>
      </trkpt>
      <trkpt lat="52.31358" lon="-1.90472">
        <ele>88.00365</ele>
        <time>2017-05-16T00:34:23.000Z</time>
      </trkpt>
      <trkpt lat="52.3136" lon="-1.90459">
        <ele>87.98614</ele>
        <time>2017-05-16T00:34:24.000Z</time>
      </trkpt>
      <trkpt lat="52.31362" lon="-1.9044">
        <ele>87.66652</ele>
        <time>2017-05-16T00:34:27.000Z</time>
      </trkpt>
      <trkpt lat="52.31356" lon="-1.90437">
        <ele>87.65614</ele>
        <time>2017-05-16T00:34:28.000Z</time>
      </trkpt>
      <trkpt lat="52.31351" lon="-1.90434">
        <ele>87.68471</ele>
        <time>2017-05-16T00:34:29.000Z</time>
      </trkpt>
      <trkpt lat="52.31342" lon="-1.90428">
        <ele>87.53789</ele>
        <time>2017-05-16T00:34:31.000Z</time>
      </trkpt>
      <trkpt lat="52.31336" lon="-1.90424">
        <ele>87.39092</ele>
        <time>2017-05-16T00:34:32.000Z</time>
      </trkpt>
      <trkpt lat="52.3133" lon="-1.90418">
        <ele>87.27574</ele>
        <time>2017-05-16T00:34:33.000Z</time>
      </trkpt>
      <trkpt lat="52.31313" lon="-1.904">
        <ele>86.84846</ele>
        <time>2017-05-16T00:34:38.000Z</time>
      </trkpt>
      <trkpt lat="52.31302" lon="-1.90389">
        <ele>86.89828</ele>
        <time>2017-05-16T00:34:40.000Z</time>
      </trkpt>
      <trkpt lat="52.31294" lon="-1.9038">
        <ele>86.76886</ele>
        <time>2017-05-16T00:34:42.000Z</time>
      </trkpt>
      <trkpt lat="52.31289" lon="-1.90374">
        <ele>86.75372</ele>
        <time>2017-05-16T00:34:43.000Z</time>
      </trkpt>
      <trkpt lat="52.31281" lon="-1.90367">
        <ele>86.59052</ele>
        <time>2017-05-16T00:34:45.000Z</time>
      </trkpt>
      <trkpt lat="52.31271" lon="-1.90359">
        <ele>86.49966</ele>
        <time>2017-05-16T00:34:47.000Z</time>
      </trkpt>
      <trkpt lat="52.31259" lon="-1.90351">
        <ele>86.32234</ele>
        <time>2017-05-16T00:34:50.000Z</time>
      </trkpt>
      <trkpt lat="52.31204" lon="-1.9032">
        <ele>86.71927</ele>
        <time>2017-05-16T00:35:02.000Z</time>
      </trkpt>
      <trkpt lat="52.31196" lon="-1.90315">
        <ele>86.85088</ele>
        <time>2017-05-16T00:35:03.000Z</time>
      </trkpt>
      <trkpt lat="52.31186" lon="-1.90308">
        <ele>86.70894</ele>
        <time>2017-05-16T00:35:06.000Z</time>
      </trkpt>
      <trkpt lat="52.31176" lon="-1.90299">
        <ele>86.55801</ele>
        <time>2017-05-16T00:35:08.000Z</time>
      </trkpt>
      <trkpt lat="52.31161" lon="-1.90287">
        <ele>86.3211</ele>
        <time>2017-05-16T00:35:11.000Z</time>
      </trkpt>
      <trkpt lat="52.31154" lon="-1.9028">
        <ele>86.18606</ele>
        <time>2017-05-16T00:35:13.000Z</time>
      </trkpt>
      <trkpt lat="52.31144" lon="-1.90271">
        <ele>86.07185</ele>
        <time>2017-05-16T00:35:15.000Z</time>
      </trkpt>
      <trkpt lat="52.31136" lon="-1.90266">
        <ele>85.94339</ele>
        <time>2017-05-16T00:35:17.000Z</time>
      </trkpt>
      <trkpt lat="52.31128" lon="-1.9026">
        <ele>85.7223</ele>
        <time>2017-05-16T00:35:19.000Z</time>
      </trkpt>
      <trkpt lat="52.3112" lon="-1.90256">
        <ele>85.57622</ele>
        <time>2017-05-16T00:35:20.000Z</time>
      </trkpt>
      <trkpt lat="52.31115" lon="-1.90253">
        <ele>85.48802</ele>
        <time>2017-05-16T00:35:21.000Z</time>
      </trkpt>
      <trkpt lat="52.31104" lon="-1.90249">
        <ele>85.1289</ele>
        <time>2017-05-16T00:35:24.000Z</time>
      </trkpt>
      <trkpt lat="52.31097" lon="-1.90247">
        <ele>84.90229</ele>
        <time>2017-05-16T00:35:25.000Z</time>
      </trkpt>
      <trkpt lat="52.3109" lon="-1.90245">
        <ele>84.70206</ele>
        <time>2017-05-16T00:35:26.000Z</time>
      </trkpt>
      <trkpt lat="52.31092" lon="-1.90228">
        <ele>84.66758</ele>
        <time>2017-05-16T00:35:29.000Z</time>
      </trkpt>
      <trkpt lat="52.31094" lon="-1.90209">
        <ele>84.39835</ele>
        <time>2017-05-16T00:35:31.000Z</time>
      </trkpt>
      <trkpt lat="52.31095" lon="-1.902">
        <ele>84.34373</ele>
        <time>2017-05-16T00:35:32.000Z</time>
      </trkpt>
      <trkpt lat="52.31095" lon="-1.90188">
        <ele>84.30614</ele>
        <time>2017-05-16T00:35:33.000Z</time>
      </trkpt>
      <trkpt lat="52.31095" lon="-1.9015">
        <ele>84.36738</ele>
        <time>2017-05-16T00:35:38.000Z</time>
      </trkpt>
      <trkpt lat="52.31096" lon="-1.90097">
        <ele>84.58662</ele>
        <time>2017-05-16T00:35:45.000Z</time>
      </trkpt>
      <trkpt lat="52.31095" lon="-1.90088">
        <ele>84.56888</ele>
        <time>2017-05-16T00:35:46.000Z</time>
      </trkpt>
      <trkpt lat="52.31094" lon="-1.90075">
        <ele>84.49101</ele>
        <time>2017-05-16T00:35:47.000Z</time>
      </trkpt>
      <trkpt lat="52.31092" lon="-1.90057">
        <ele>84.35354</ele>
        <time>2017-05-16T00:35:50.000Z</time>
      </trkpt>
      <trkpt lat="52.31108" lon="-1.90059">
        <ele>84.69614</ele>
        <time>2017-05-16T00:35:53.000Z</time>
      </trkpt>
      <trkpt lat="52.31112" lon="-1.90059">
        <ele>84.77188</ele>
        <time>2017-05-16T00:35:54.000Z</time>
      </trkpt>
      <trkpt lat="52.31112" lon="-1.90058">
        <ele>84.76763</ele>
        <time>2017-05-16T00:35:54.122Z</time>
      </trkpt>
      <trkpt lat="52.31112" lon="-1.89977">
        <ele>84.48653</ele>
        <time>2017-05-16T00:36:04.000Z</time>
      </trkpt>
      <trkpt lat="52.31113" lon="-1.89889">
        <ele>84.86268</ele>
        <time>2017-05-16T00:36:15.000Z</time>
      </trkpt>
      <trkpt lat="52.31113" lon="-1.89887">
        <ele>84.8914</ele>
        <time>2017-05-16T00:36:15.227Z</time>
      </trkpt>
      <trkpt lat="52.31132" lon="-1.89826">
        <ele>87.00503</ele>
        <time>2017-05-16T00:36:23.000Z</time>
      </trkpt>
      <trkpt lat="52.31131" lon="-1.89822">
        <ele>87.38668</ele>
        <time>2017-05-16T00:36:24.000Z</time>
      </trkpt>
      <trkpt lat="52.31078" lon="-1.89783">
        <ele>89.29543</ele>
        <time>2017-05-16T00:36:35.000Z</time>
      </trkpt>
      <trkpt lat="52.31077" lon="-1.89782">
        <ele>88.85512</ele>
        <time>2017-05-16T00:36:36.000Z</time>
      </trkpt>
      <trkpt lat="52.31074" lon="-1.89775">
        <ele>87.23157</ele>
        <time>2017-05-16T00:36:37.000Z</time>
      </trkpt>
      <trkpt lat="52.31063" lon="-1.8977">
        <ele>84.44361</ele>
        <time>2017-05-16T00:36:39.000Z</time>
      </trkpt>
      <trkpt lat="52.3105" lon="-1.89766">
        <ele>84.78351</ele>
        <time>2017-05-16T00:36:42.000Z</time>
      </trkpt>
      <trkpt lat="52.31039" lon="-1.89762">
        <ele>85.22909</ele>
        <time>2017-05-16T00:36:44.000Z</time>
      </trkpt>
      <trkpt lat="52.31026" lon="-1.89757">
        <ele>88.68385</ele>
        <time>2017-05-16T00:36:47.000Z</time>
      </trkpt>
      <trkpt lat="52.30971" lon="-1.89735">
        <ele>88.20439</ele>
        <time>2017-05-16T00:36:58.000Z</time>
      </trkpt>
      <trkpt lat="52.30945" lon="-1.89724">
        <ele>86.6634</ele>
        <time>2017-05-16T00:37:03.000Z</time>
      </trkpt>
      <trkpt lat="52.30929" lon="-1.89718">
        <ele>85.62107</ele>
        <time>2017-05-16T00:37:07.000Z</time>
      </trkpt>
      <trkpt lat="52.30901" lon="-1.89706">
        <ele>84.06494</ele>
        <time>2017-05-16T00:37:12.000Z</time>
      </trkpt>
      <trkpt lat="52.30875" lon="-1.89694">
        <ele>83.35577</ele>
        <time>2017-05-16T00:37:18.000Z</time>
      </trkpt>
      <trkpt lat="52.30821" lon="-1.89668">
        <ele>82.98678</ele>
        <time>2017-05-16T00:37:29.000Z</time>
      </trkpt>
      <trkpt lat="52.30805" lon="-1.89661">
        <ele>82.87255</ele>
        <time>2017-05-16T00:37:32.000Z</time>
      </trkpt>
      <trkpt lat="52.30776" lon="-1.8965">
        <ele>82.76098</ele>
        <time>2017-05-16T00:37:38.000Z</time>
      </trkpt>
      <trkpt lat="52.30774" lon="-1.8965">
        <ele>82.7548</ele>
        <time>2017-05-16T00:37:39.000Z</time>
      </trkpt>
      <trkpt lat="52.30768" lon="-1.89648">
        <ele>82.76418</ele>
        <time>2017-05-16T00:37:40.000Z</time>
      </trkpt>
      <trkpt lat="52.30749" lon="-1.89645">
        <ele>82.88082</ele>
        <time>2017-05-16T00:37:44.000Z</time>
      </trkpt>
      <trkpt lat="52.30735" lon="-1.89645">
        <ele>83.07701</ele>
        <time>2017-05-16T00:37:47.000Z</time>
      </trkpt>
      <trkpt lat="52.30721" lon="-1.89647">
        <ele>83.31311</ele>
        <time>2017-05-16T00:37:49.000Z</time>
      </trkpt>
      <trkpt lat="52.30709" lon="-1.8965">
        <ele>83.60108</ele>
        <time>2017-05-16T00:37:52.000Z</time>
      </trkpt>
      <trkpt lat="52.30683" lon="-1.89657">
        <ele>84.38705</ele>
        <time>2017-05-16T00:37:57.000Z</time>
      </trkpt>
      <trkpt lat="52.30675" lon="-1.89659">
        <ele>84.6704</ele>
        <time>2017-05-16T00:37:59.000Z</time>
      </trkpt>
      <trkpt lat="52.30666" lon="-1.8966">
        <ele>84.99103</ele>
        <time>2017-05-16T00:38:01.000Z</time>
      </trkpt>
      <trkpt lat="52.30655" lon="-1.8966">
        <ele>85.36863</ele>
        <time>2017-05-16T00:38:03.000Z</time>
      </trkpt>
      <trkpt lat="52.3064" lon="-1.89659">
        <ele>85.88057</ele>
        <time>2017-05-16T00:38:06.000Z</time>
      </trkpt>
      <trkpt lat="52.30636" lon="-1.89657">
        <ele>86.01014</ele>
        <time>2017-05-16T00:38:07.000Z</time>
      </trkpt>
      <trkpt lat="52.30624" lon="-1.89653">
        <ele>86.33423</ele>
        <time>2017-05-16T00:38:09.000Z</time>
      </trkpt>
      <trkpt lat="52.30609" lon="-1.89646">
        <ele>86.84872</ele>
        <time>2017-05-16T00:38:12.000Z</time>
      </trkpt>
      <trkpt lat="52.30597" lon="-1.89637">
        <ele>87.11251</ele>
        <time>2017-05-16T00:38:15.000Z</time>
      </trkpt>
      <trkpt lat="52.30588" lon="-1.8963">
        <ele>87.43646</ele>
        <time>2017-05-16T00:38:17.000Z</time>
      </trkpt>
      <trkpt lat="52.30582" lon="-1.89625">
        <ele>87.58686</ele>
        <time>2017-05-16T00:38:18.000Z</time>
      </trkpt>
      <trkpt lat="52.30575" lon="-1.89617">
        <ele>87.92527</ele>
        <time>2017-05-16T00:38:20.000Z</time>
      </trkpt>
      <trkpt lat="52.30557" lon="-1.89594">
        <ele>88.73417</ele>
        <time>2017-05-16T00:38:24.000Z</time>
      </trkpt>
      <trkpt lat="52.30531" lon="-1.89559">
        <ele>89.80153</ele>
        <time>2017-05-16T00:38:31.000Z</time>
      </trkpt>
      <trkpt lat="52.30517" lon="-1.89541">
        <ele>90.46846</ele>
        <time>2017-05-16T00:38:35.000Z</time>
      </trkpt>
      <trkpt lat="52.30507" lon="-1.89531">
        <ele>90.63641</ele>
        <time>2017-05-16T00:38:37.000Z</time>
      </trkpt>
      <trkpt lat="52.30502" lon="-1.89527">
        <ele>90.89259</ele>
        <time>2017-05-16T00:38:38.000Z</time>
      </trkpt>
      <trkpt lat="52.30495" lon="-1.89522">
        <ele>91.19796</ele>
        <time>2017-05-16T00:38:40.000Z</time>
      </trkpt>
      <trkpt lat="52.30487" lon="-1.89518">
        <ele>91.32916</ele>
        <time>2017-05-16T00:38:41.000Z</time>
      </trkpt>
      <trkpt lat="52.30471" lon="-1.8951">
        <ele>91.69044</ele>
        <time>2017-05-16T00:38:45.000Z</time>
      </trkpt>
      <trkpt lat="52.30464" lon="-1.89513">
        <ele>91.907</ele>
        <time>2017-05-16T00:38:46.000Z</time>
      </trkpt>
      <trkpt lat="52.3046" lon="-1.89516">
        <ele>92.0285</ele>
        <time>2017-05-16T00:38:47.000Z</time>
      </trkpt>
      <trkpt lat="52.30454" lon="-1.89521">
        <ele>92.1754</ele>
        <time>2017-05-16T00:38:48.000Z</time>
      </trkpt>
      <trkpt lat="52.30444" lon="-1.89531">
        <ele>92.33086</ele>
        <time>2017-05-16T00:38:51.000Z</time>
      </trkpt>
      <trkpt lat="52.30438" lon="-1.89537">
        <ele>92.44529</ele>
        <time>2017-05-16T00:38:52.000Z</time>
      </trkpt>
      <trkpt lat="52.30433" lon="-1.89543">
        <ele>92.47044</ele>
        <time>2017-05-16T00:38:53.000Z</time>
      </trkpt>
      <trkpt lat="52.30407" lon="-1.89577">
        <ele>91.89099</ele>
        <time>2017-05-16T00:39:00.000Z</time>
      </trkpt>
      <trkpt lat="52.30385" lon="-1.89608">
        <ele>90.50014</ele>
        <time>2017-05-16T00:39:06.000Z</time>
      </trkpt>
      <trkpt lat="52.30379" lon="-1.89615">
        <ele>90.15428</ele>
        <time>2017-05-16T00:39:07.000Z</time>
      </trkpt>
      <trkpt lat="52.30374" lon="-1.89619">
        <ele>89.79356</ele>
        <time>2017-05-16T00:39:09.000Z</time>
      </trkpt>
      <trkpt lat="52.30365" lon="-1.89626">
        <ele>89.23592</ele>
        <time>2017-05-16T00:39:11.000Z</time>
      </trkpt>
      <trkpt lat="52.30358" lon="-1.89628">
        <ele>88.90353</ele>
        <time>2017-05-16T00:39:12.000Z</time>
      </trkpt>
      <trkpt lat="52.30353" lon="-1.8963">
        <ele>88.63144</ele>
        <time>2017-05-16T00:39:13.000Z</time>
      </trkpt>
      <trkpt lat="52.3035" lon="-1.8963">
        <ele>88.4473</ele>
        <time>2017-05-16T00:39:14.000Z</time>
      </trkpt>
      <trkpt lat="52.30331" lon="-1.89631">
        <ele>87.31963</ele>
        <time>2017-05-16T00:39:17.000Z</time>
      </trkpt>
      <trkpt lat="52.30321" lon="-1.8963">
        <ele>86.74401</ele>
        <time>2017-05-16T00:39:19.000Z</time>
      </trkpt>
      <trkpt lat="52.30303" lon="-1.89627">
        <ele>85.73456</ele>
        <time>2017-05-16T00:39:23.000Z</time>
      </trkpt>
      <trkpt lat="52.30295" lon="-1.89624">
        <ele>85.23082</ele>
        <time>2017-05-16T00:39:25.000Z</time>
      </trkpt>
      <trkpt lat="52.30288" lon="-1.89619">
        <ele>84.86245</ele>
        <time>2017-05-16T00:39:26.000Z</time>
      </trkpt>
      <trkpt lat="52.30277" lon="-1.89608">
        <ele>84.25938</ele>
        <time>2017-05-16T00:39:29.000Z</time>
      </trkpt>
      <trkpt lat="52.30269" lon="-1.89598">
        <ele>83.76316</ele>
        <time>2017-05-16T00:39:31.000Z</time>
      </trkpt>
      <trkpt lat="52.30242" lon="-1.89563">
        <ele>81.97284</ele>
        <time>2017-05-16T00:39:38.000Z</time>
      </trkpt>
      <trkpt lat="52.30217" lon="-1.89534">
        <ele>80.84906</ele>
        <time>2017-05-16T00:39:44.000Z</time>
      </trkpt>
      <trkpt lat="52.30208" lon="-1.89542">
        <ele>80.32372</ele>
        <time>2017-05-16T00:39:46.000Z</time>
      </trkpt>
      <trkpt lat="52.30203" lon="-1.89537">
        <ele>80.13349</ele>
        <time>2017-05-16T00:39:47.000Z</time>
      </trkpt>
      <trkpt lat="52.30188" lon="-1.89526">
        <ele>79.57614</ele>
        <time>2017-05-16T00:39:50.000Z</time>
      </trkpt>
      <trkpt lat="52.30168" lon="-1.89513">
        <ele>78.86669</ele>
        <time>2017-05-16T00:39:55.000Z</time>
      </trkpt>
      <trkpt lat="52.30148" lon="-1.89508">
        <ele>78.31754</ele>
        <time>2017-05-16T00:39:59.000Z</time>
      </trkpt>
      <trkpt lat="52.30133" lon="-1.89504">
        <ele>78.0854</ele>
        <time>2017-05-16T00:40:02.000Z</time>
      </trkpt>
      <trkpt lat="52.3011" lon="-1.89503">
        <ele>77.9797</ele>
        <time>2017-05-16T00:40:06.000Z</time>
      </trkpt>
      <trkpt lat="52.30093" lon="-1.89504">
        <ele>77.89249</ele>
        <time>2017-05-16T00:40:10.000Z</time>
      </trkpt>
      <trkpt lat="52.30074" lon="-1.89506">
        <ele>77.48628</ele>
        <time>2017-05-16T00:40:14.000Z</time>
      </trkpt>
      <trkpt lat="52.30042" lon="-1.89503">
        <ele>76.8088</ele>
        <time>2017-05-16T00:40:20.000Z</time>
      </trkpt>
      <trkpt lat="52.30012" lon="-1.89499">
        <ele>76.27075</ele>
        <time>2017-05-16T00:40:26.000Z</time>
      </trkpt>
      <trkpt lat="52.2999" lon="-1.89492">
        <ele>76.70466</ele>
        <time>2017-05-16T00:40:31.000Z</time>
      </trkpt>
      <trkpt lat="52.29962" lon="-1.89489">
        <ele>76.50998</ele>
        <time>2017-05-16T00:40:36.000Z</time>
      </trkpt>
      <trkpt lat="52.29906" lon="-1.89487">
        <ele>75.59857</ele>
        <time>2017-05-16T00:40:47.000Z</time>
      </trkpt>
      <trkpt lat="52.29866" lon="-1.89491">
        <ele>75.17872</ele>
        <time>2017-05-16T00:40:55.000Z</time>
      </trkpt>
      <trkpt lat="52.29851" lon="-1.89491">
        <ele>74.85866</ele>
        <time>2017-05-16T00:40:58.000Z</time>
      </trkpt>
      <trkpt lat="52.29842" lon="-1.89487">
        <ele>74.60899</ele>
        <time>2017-05-16T00:41:00.000Z</time>
      </trkpt>
      <trkpt lat="52.29816" lon="-1.89497">
        <ele>75.04052</ele>
        <time>2017-05-16T00:41:06.000Z</time>
      </trkpt>
      <trkpt lat="52.29787" lon="-1.89504">
        <ele>74.49527</ele>
        <time>2017-05-16T00:41:12.000Z</time>
      </trkpt>
      <trkpt lat="52.29779" lon="-1.89516">
        <ele>74.4424</ele>
        <time>2017-05-16T00:41:14.000Z</time>
      </trkpt>
      <trkpt lat="52.29762" lon="-1.89532">
        <ele>74.18741</ele>
        <time>2017-05-16T00:41:18.000Z</time>
      </trkpt>
      <trkpt lat="52.29741" lon="-1.89546">
        <ele>74.3389</ele>
        <time>2017-05-16T00:41:22.000Z</time>
      </trkpt>
      <trkpt lat="52.29737" lon="-1.89553">
        <ele>74.27691</ele>
        <time>2017-05-16T00:41:23.000Z</time>
      </trkpt>
      <trkpt lat="52.29735" lon="-1.89557">
        <ele>74.2004</ele>
        <time>2017-05-16T00:41:24.000Z</time>
      </trkpt>
      <trkpt lat="52.29732" lon="-1.8957">
        <ele>74.29668</ele>
        <time>2017-05-16T00:41:26.000Z</time>
      </trkpt>
      <trkpt lat="52.29701" lon="-1.89605">
        <ele>74.88287</ele>
        <time>2017-05-16T00:41:33.000Z</time>
      </trkpt>
      <trkpt lat="52.29694" lon="-1.89613">
        <ele>75.10388</ele>
        <time>2017-05-16T00:41:35.000Z</time>
      </trkpt>
      <trkpt lat="52.29665" lon="-1.89639">
        <ele>76.043</ele>
        <time>2017-05-16T00:41:42.000Z</time>
      </trkpt>
      <trkpt lat="52.29614" lon="-1.89665">
        <ele>76.61306</ele>
        <time>2017-05-16T00:41:52.000Z</time>
      </trkpt>
      <trkpt lat="52.29604" lon="-1.8967">
        <ele>76.54126</ele>
        <time>2017-05-16T00:41:54.000Z</time>
      </trkpt>
      <trkpt lat="52.2952" lon="-1.89706">
        <ele>74.56649</ele>
        <time>2017-05-16T00:42:12.000Z</time>
      </trkpt>
      <trkpt lat="52.29508" lon="-1.89708">
        <ele>74.22579</ele>
        <time>2017-05-16T00:42:14.000Z</time>
      </trkpt>
      <trkpt lat="52.29498" lon="-1.89702">
        <ele>73.89129</ele>
        <time>2017-05-16T00:42:16.000Z</time>
      </trkpt>
      <trkpt lat="52.29493" lon="-1.89697">
        <ele>73.52935</ele>
        <time>2017-05-16T00:42:18.000Z</time>
      </trkpt>
      <trkpt lat="52.29482" lon="-1.89697">
        <ele>73.38281</ele>
        <time>2017-05-16T00:42:20.000Z</time>
      </trkpt>
      <trkpt lat="52.29473" lon="-1.89691">
        <ele>73.19922</ele>
        <time>2017-05-16T00:42:22.000Z</time>
      </trkpt>
      <trkpt lat="52.29467" lon="-1.89685">
        <ele>72.91506</ele>
        <time>2017-05-16T00:42:23.000Z</time>
      </trkpt>
      <trkpt lat="52.2946" lon="-1.89673">
        <ele>72.8017</ele>
        <time>2017-05-16T00:42:25.000Z</time>
      </trkpt>
      <trkpt lat="52.29447" lon="-1.89649">
        <ele>72.77997</ele>
        <time>2017-05-16T00:42:29.000Z</time>
      </trkpt>
      <trkpt lat="52.29432" lon="-1.89626">
        <ele>72.83649</ele>
        <time>2017-05-16T00:42:33.000Z</time>
      </trkpt>
      <trkpt lat="52.29421" lon="-1.89613">
        <ele>73.05036</ele>
        <time>2017-05-16T00:42:36.000Z</time>
      </trkpt>
      <trkpt lat="52.29405" lon="-1.89604">
        <ele>73.23378</ele>
        <time>2017-05-16T00:42:39.000Z</time>
      </trkpt>
      <trkpt lat="52.29382" lon="-1.89597">
        <ele>73.5527</ele>
        <time>2017-05-16T00:42:44.000Z</time>
      </trkpt>
      <trkpt lat="52.29361" lon="-1.89591">
        <ele>73.68875</ele>
        <time>2017-05-16T00:42:48.000Z</time>
      </trkpt>
      <trkpt lat="52.29362" lon="-1.89586">
        <ele>73.65297</ele>
        <time>2017-05-16T00:42:49.000Z</time>
      </trkpt>
      <trkpt lat="52.29358" lon="-1.89584">
        <ele>73.66541</ele>
        <time>2017-05-16T00:42:50.000Z</time>
      </trkpt>
      <trkpt lat="52.29348" lon="-1.89582">
        <ele>73.6547</ele>
        <time>2017-05-16T00:42:52.000Z</time>
      </trkpt>
      <trkpt lat="52.29323" lon="-1.89574">
        <ele>73.65846</ele>
        <time>2017-05-16T00:42:57.000Z</time>
      </trkpt>
      <trkpt lat="52.29297" lon="-1.89561">
        <ele>73.46944</ele>
        <time>2017-05-16T00:43:02.000Z</time>
      </trkpt>
      <trkpt lat="52.29266" lon="-1.89544">
        <ele>72.7137</ele>
        <time>2017-05-16T00:43:09.000Z</time>
      </trkpt>
      <trkpt lat="52.29231" lon="-1.89522">
        <ele>71.99343</ele>
        <time>2017-05-16T00:43:16.000Z</time>
      </trkpt>
      <trkpt lat="52.29187" lon="-1.89492">
        <ele>70.7699</ele>
        <time>2017-05-16T00:43:26.000Z</time>
      </trkpt>
      <trkpt lat="52.29132" lon="-1.8946">
        <ele>69.41748</ele>
        <time>2017-05-16T00:43:38.000Z</time>
      </trkpt>
      <trkpt lat="52.29113" lon="-1.89455">
        <ele>69.26382</ele>
        <time>2017-05-16T00:43:42.000Z</time>
      </trkpt>
      <trkpt lat="52.29099" lon="-1.89451">
        <ele>69.29557</ele>
        <time>2017-05-16T00:43:44.000Z</time>
      </trkpt>
      <trkpt lat="52.29046" lon="-1.89452">
        <ele>69.00899</ele>
        <time>2017-05-16T00:43:55.000Z</time>
      </trkpt>
      <trkpt lat="52.29012" lon="-1.89461">
        <ele>68.70153</ele>
        <time>2017-05-16T00:44:02.000Z</time>
      </trkpt>
      <trkpt lat="52.28979" lon="-1.8948">
        <ele>68.47618</ele>
        <time>2017-05-16T00:44:09.000Z</time>
      </trkpt>
      <trkpt lat="52.28977" lon="-1.89482">
        <ele>68.46828</ele>
        <time>2017-05-16T00:44:09.462Z</time>
      </trkpt>
      <trkpt lat="52.28913" lon="-1.89523">
        <ele>68.14496</ele>
        <time>2017-05-16T00:44:23.000Z</time>
      </trkpt>
      <trkpt lat="52.28849" lon="-1.89555">
        <ele>68.08359</ele>
        <time>2017-05-16T00:44:37.000Z</time>
      </trkpt>
      <trkpt lat="52.28826" lon="-1.89564">
        <ele>67.91846</ele>
        <time>2017-05-16T00:44:41.000Z</time>
      </trkpt>
      <trkpt lat="52.288" lon="-1.89573">
        <ele>67.88744</ele>
        <time>2017-05-16T00:44:47.000Z</time>
      </trkpt>
      <trkpt lat="52.28787" lon="-1.89578">
        <ele>67.84005</ele>
        <time>2017-05-16T00:44:49.000Z</time>
      </trkpt>
      <trkpt lat="52.28773" lon="-1.89586">
        <ele>67.94889</ele>
        <time>2017-05-16T00:44:52.000Z</time>
      </trkpt>
      <trkpt lat="52.28763" lon="-1.89591">
        <ele>67.74487</ele>
        <time>2017-05-16T00:44:54.000Z</time>
      </trkpt>
      <trkpt lat="52.28748" lon="-1.896">
        <ele>67.79133</ele>
        <time>2017-05-16T00:44:58.000Z</time>
      </trkpt>
      <trkpt lat="52.28726" lon="-1.89619">
        <ele>67.65216</ele>
        <time>2017-05-16T00:45:03.000Z</time>
      </trkpt>
      <trkpt lat="52.28711" lon="-1.89634">
        <ele>67.645</ele>
        <time>2017-05-16T00:45:06.000Z</time>
      </trkpt>
      <trkpt lat="52.28696" lon="-1.8965">
        <ele>67.54901</ele>
        <time>2017-05-16T00:45:10.000Z</time>
      </trkpt>
      <trkpt lat="52.28681" lon="-1.89669">
        <ele>67.48195</ele>
        <time>2017-05-16T00:45:13.000Z</time>
      </trkpt>
      <trkpt lat="52.28664" lon="-1.89695">
        <ele>67.4441</ele>
        <time>2017-05-16T00:45:18.000Z</time>
      </trkpt>
      <trkpt lat="52.28648" lon="-1.89727">
        <ele>67.34344</ele>
        <time>2017-05-16T00:45:23.000Z</time>
      </trkpt>
      <trkpt lat="52.28627" lon="-1.8977">
        <ele>67.24725</ele>
        <time>2017-05-16T00:45:30.000Z</time>
      </trkpt>
      <trkpt lat="52.28603" lon="-1.89815">
        <ele>67.13139</ele>
        <time>2017-05-16T00:45:37.000Z</time>
      </trkpt>
      <trkpt lat="52.2857" lon="-1.89881">
        <ele>67.4883</ele>
        <time>2017-05-16T00:45:48.000Z</time>
      </trkpt>
      <trkpt lat="52.28458" lon="-1.89754">
        <ele>66.66823</ele>
        <time>2017-05-16T00:46:15.000Z</time>
      </trkpt>
      <trkpt lat="52.28442" lon="-1.89737">
        <ele>66.6451</ele>
        <time>2017-05-16T00:46:19.000Z</time>
      </trkpt>
      <trkpt lat="52.28442" lon="-1.89731">
        <ele>66.63401</ele>
        <time>2017-05-16T00:46:20.000Z</time>
      </trkpt>
      <trkpt lat="52.28442" lon="-1.8972">
        <ele>66.61448</ele>
        <time>2017-05-16T00:46:21.000Z</time>
      </trkpt>
      <trkpt lat="52.28441" lon="-1.89708">
        <ele>66.58455</ele>
        <time>2017-05-16T00:46:22.000Z</time>
      </trkpt>
      <trkpt lat="52.2844" lon="-1.89699">
        <ele>66.56381</ele>
        <time>2017-05-16T00:46:24.000Z</time>
      </trkpt>
      <trkpt lat="52.28437" lon="-1.89689">
        <ele>66.55272</ele>
        <time>2017-05-16T00:46:25.000Z</time>
      </trkpt>
      <trkpt lat="52.28431" lon="-1.89672">
        <ele>66.38865</ele>
        <time>2017-05-16T00:46:27.000Z</time>
      </trkpt>
      <trkpt lat="52.28426" lon="-1.89665">
        <ele>66.32869</ele>
        <time>2017-05-16T00:46:29.000Z</time>
      </trkpt>
      <trkpt lat="52.28421" lon="-1.89661">
        <ele>66.3222</ele>
        <time>2017-05-16T00:46:30.000Z</time>
      </trkpt>
      <trkpt lat="52.28411" lon="-1.89659">
        <ele>66.23237</ele>
        <time>2017-05-16T00:46:32.000Z</time>
      </trkpt>
      <trkpt lat="52.28406" lon="-1.89659">
        <ele>66.21997</ele>
        <time>2017-05-16T00:46:33.000Z</time>
      </trkpt>
      <trkpt lat="52.28401" lon="-1.89662">
        <ele>66.19111</ele>
        <time>2017-05-16T00:46:34.000Z</time>
      </trkpt>
      <trkpt lat="52.28398" lon="-1.89666">
        <ele>66.16381</ele>
        <time>2017-05-16T00:46:35.000Z</time>
      </trkpt>
      <trkpt lat="52.28394" lon="-1.89675">
        <ele>66.1127</ele>
        <time>2017-05-16T00:46:36.000Z</time>
      </trkpt>
      <trkpt lat="52.28392" lon="-1.89679">
        <ele>66.08241</ele>
        <time>2017-05-16T00:46:37.000Z</time>
      </trkpt>
      <trkpt lat="52.28374" lon="-1.89654">
        <ele>65.78465</ele>
        <time>2017-05-16T00:46:41.000Z</time>
      </trkpt>
      <trkpt lat="52.28301" lon="-1.89553">
        <ele>65.71111</ele>
        <time>2017-05-16T00:47:01.000Z</time>
      </trkpt>
      <trkpt lat="52.2829" lon="-1.89532">
        <ele>66.16293</ele>
        <time>2017-05-16T00:47:04.000Z</time>
      </trkpt>
      <trkpt lat="52.2827" lon="-1.89493">
        <ele>66.22958</ele>
        <time>2017-05-16T00:47:10.000Z</time>
      </trkpt>
      <trkpt lat="52.2826" lon="-1.89503">
        <ele>66.25944</ele>
        <time>2017-05-16T00:47:13.000Z</time>
      </trkpt>
      <trkpt lat="52.28251" lon="-1.89509">
        <ele>66.25227</ele>
        <time>2017-05-16T00:47:14.000Z</time>
      </trkpt>
      <trkpt lat="52.28243" lon="-1.89513">
        <ele>66.26189</ele>
        <time>2017-05-16T00:47:16.000Z</time>
      </trkpt>
      <trkpt lat="52.28238" lon="-1.89515">
        <ele>66.27303</ele>
        <time>2017-05-16T00:47:17.000Z</time>
      </trkpt>
      <trkpt lat="52.28233" lon="-1.89516">
        <ele>66.2669</ele>
        <time>2017-05-16T00:47:18.000Z</time>
      </trkpt>
      <trkpt lat="52.28225" lon="-1.89516">
        <ele>66.12577</ele>
        <time>2017-05-16T00:47:20.000Z</time>
      </trkpt>
      <trkpt lat="52.28221" lon="-1.89516">
        <ele>66.04859</ele>
        <time>2017-05-16T00:47:21.000Z</time>
      </trkpt>
      <trkpt lat="52.28216" lon="-1.89515">
        <ele>65.95298</ele>
        <time>2017-05-16T00:47:22.000Z</time>
      </trkpt>
      <trkpt lat="52.28206" lon="-1.89513">
        <ele>65.86136</ele>
        <time>2017-05-16T00:47:24.000Z</time>
      </trkpt>
      <trkpt lat="52.28169" lon="-1.89505">
        <ele>65.73561</ele>
        <time>2017-05-16T00:47:31.000Z</time>
      </trkpt>
      <trkpt lat="52.28165" lon="-1.89504">
        <ele>65.71336</ele>
        <time>2017-05-16T00:47:32.000Z</time>
      </trkpt>
      <trkpt lat="52.28107" lon="-1.89491">
        <ele>65.41158</ele>
        <time>2017-05-16T00:47:44.000Z</time>
      </trkpt>
      <trkpt lat="52.28043" lon="-1.89476">
        <ele>65.14446</ele>
        <time>2017-05-16T00:47:57.000Z</time>
      </trkpt>
      <trkpt lat="52.28018" lon="-1.8947">
        <ele>65.36192</ele>
        <time>2017-05-16T00:48:02.000Z</time>
      </trkpt>
      <trkpt lat="52.28008" lon="-1.89468">
        <ele>65.53145</ele>
        <time>2017-05-16T00:48:04.000Z</time>
      </trkpt>
      <trkpt lat="52.27996" lon="-1.89466">
        <ele>65.71341</ele>
        <time>2017-05-16T00:48:06.000Z</time>
      </trkpt>
      <trkpt lat="52.27986" lon="-1.89466">
        <ele>65.82273</ele>
        <time>2017-05-16T00:48:08.000Z</time>
      </trkpt>
      <trkpt lat="52.27976" lon="-1.89466">
        <ele>65.82396</ele>
        <time>2017-05-16T00:48:10.000Z</time>
      </trkpt>
      <trkpt lat="52.27966" lon="-1.89467">
        <ele>64.17351</ele>
        <time>2017-05-16T00:48:12.000Z</time>
      </trkpt>
      <trkpt lat="52.27952" lon="-1.8947">
        <ele>64.71126</ele>
        <time>2017-05-16T00:48:15.000Z</time>
      </trkpt>
      <trkpt lat="52.2794" lon="-1.89474">
        <ele>65.71595</ele>
        <time>2017-05-16T00:48:17.000Z</time>
      </trkpt>
      <trkpt lat="52.27929" lon="-1.89478">
        <ele>65.48404</ele>
        <time>2017-05-16T00:48:20.000Z</time>
      </trkpt>
      <trkpt lat="52.2791" lon="-1.89487">
        <ele>65.27164</ele>
        <time>2017-05-16T00:48:24.000Z</time>
      </trkpt>
      <trkpt lat="52.27903" lon="-1.8949">
        <ele>65.2547</ele>
        <time>2017-05-16T00:48:25.000Z</time>
      </trkpt>
      <trkpt lat="52.27862" lon="-1.8951">
        <ele>65.35397</ele>
        <time>2017-05-16T00:48:34.000Z</time>
      </trkpt>
      <trkpt lat="52.27854" lon="-1.89513">
        <ele>65.324</ele>
        <time>2017-05-16T00:48:35.000Z</time>
      </trkpt>
      <trkpt lat="52.27843" lon="-1.89518">
        <ele>65.3314</ele>
        <time>2017-05-16T00:48:38.000Z</time>
      </trkpt>
      <trkpt lat="52.27829" lon="-1.89522">
        <ele>65.28784</ele>
        <time>2017-05-16T00:48:40.000Z</time>
      </trkpt>
      <trkpt lat="52.2782" lon="-1.89523">
        <ele>65.29559</ele>
        <time>2017-05-16T00:48:42.000Z</time>
      </trkpt>
      <trkpt lat="52.27813" lon="-1.89524">
        <ele>65.32121</ele>
        <time>2017-05-16T00:48:44.000Z</time>
      </trkpt>
      <trkpt lat="52.27805" lon="-1.89524">
        <ele>65.32492</ele>
        <time>2017-05-16T00:48:45.000Z</time>
      </trkpt>
      <trkpt lat="52.27797" lon="-1.89524">
        <ele>65.30199</ele>
        <time>2017-05-16T00:48:47.000Z</time>
      </trkpt>
      <trkpt lat="52.27787" lon="-1.89523">
        <ele>65.24074</ele>
        <time>2017-05-16T00:48:49.000Z</time>
      </trkpt>
      <trkpt lat="52.27746" lon="-1.8952">
        <ele>65.18463</ele>
        <time>2017-05-16T00:48:57.000Z</time>
      </trkpt>
      <trkpt lat="52.2774" lon="-1.89519">
        <ele>65.20139</ele>
        <time>2017-05-16T00:48:58.000Z</time>
      </trkpt>
      <trkpt lat="52.27695" lon="-1.89517">
        <ele>65.63529</ele>
        <time>2017-05-16T00:49:07.000Z</time>
      </trkpt>
      <trkpt lat="52.27683" lon="-1.89516">
        <ele>65.77131</ele>
        <time>2017-05-16T00:49:10.000Z</time>
      </trkpt>
      <trkpt lat="52.27666" lon="-1.89515">
        <ele>65.96528</ele>
        <time>2017-05-16T00:49:13.000Z</time>
      </trkpt>
      <trkpt lat="52.27652" lon="-1.89514">
        <ele>66.1137</ele>
        <time>2017-05-16T00:49:16.000Z</time>
      </trkpt>
      <trkpt lat="52.27639" lon="-1.89513">
        <ele>66.2173</ele>
        <time>2017-05-16T00:49:19.000Z</time>
      </trkpt>
      <trkpt lat="52.27621" lon="-1.89511">
        <ele>66.36522</ele>
        <time>2017-05-16T00:49:22.000Z</time>
      </trkpt>
      <trkpt lat="52.27611" lon="-1.8951">
        <ele>66.41767</ele>
        <time>2017-05-16T00:49:24.000Z</time>
      </trkpt>
      <trkpt lat="52.27591" lon="-1.89505">
        <ele>66.49095</ele>
        <time>2017-05-16T00:49:28.000Z</time>
      </trkpt>
      <trkpt lat="52.27581" lon="-1.89502">
        <ele>66.65004</ele>
        <time>2017-05-16T00:49:30.000Z</time>
      </trkpt>
      <trkpt lat="52.2757" lon="-1.89499">
        <ele>66.7958</ele>
        <time>2017-05-16T00:49:32.000Z</time>
      </trkpt>
      <trkpt lat="52.27565" lon="-1.89497">
        <ele>66.83157</ele>
        <time>2017-05-16T00:49:34.000Z</time>
      </trkpt>
      <trkpt lat="52.27558" lon="-1.89495">
        <ele>66.90468</ele>
        <time>2017-05-16T00:49:35.000Z</time>
      </trkpt>
      <trkpt lat="52.27527" lon="-1.89484">
        <ele>67.53933</ele>
        <time>2017-05-16T00:49:41.000Z</time>
      </trkpt>
      <trkpt lat="52.27519" lon="-1.89482">
        <ele>67.63876</ele>
        <time>2017-05-16T00:49:43.000Z</time>
      </trkpt>
      <trkpt lat="52.27479" lon="-1.89467">
        <ele>68.42324</ele>
        <time>2017-05-16T00:49:51.000Z</time>
      </trkpt>
      <trkpt lat="52.27474" lon="-1.89463">
        <ele>68.61709</ele>
        <time>2017-05-16T00:49:52.000Z</time>
      </trkpt>
      <trkpt lat="52.27472" lon="-1.89462">
        <ele>68.7258</ele>
        <time>2017-05-16T00:49:53.000Z</time>
      </trkpt>
      <trkpt lat="52.27464" lon="-1.8946">
        <ele>69.07611</ele>
        <time>2017-05-16T00:49:54.000Z</time>
      </trkpt>
      <trkpt lat="52.27463" lon="-1.89459">
        <ele>69.11407</ele>
        <time>2017-05-16T00:49:55.000Z</time>
      </trkpt>
      <trkpt lat="52.27459" lon="-1.89458">
        <ele>69.24336</ele>
        <time>2017-05-16T00:49:56.000Z</time>
        <name>52.274600,-1.894580</name>
        <extensions>
          <oa:locType>calcWayPoint</oa:locType>
        </extensions>
      </trkpt>
      <trkpt lat="52.27454" lon="-1.8946">
        <ele>69.38709</ele>
        <time>2017-05-16T00:49:57.000Z</time>
      </trkpt>
      <trkpt lat="52.27452" lon="-1.89464">
        <ele>69.45384</ele>
        <time>2017-05-16T00:49:58.000Z</time>
      </trkpt>
      <trkpt lat="52.27451" lon="-1.89472">
        <ele>69.50955</ele>
        <time>2017-05-16T00:49:59.000Z</time>
      </trkpt>
      <trkpt lat="52.27453" lon="-1.89478">
        <ele>69.48061</ele>
        <time>2017-05-16T00:50:00.000Z</time>
      </trkpt>
      <trkpt lat="52.27454" lon="-1.89493">
        <ele>69.54223</ele>
        <time>2017-05-16T00:50:02.000Z</time>
      </trkpt>
      <trkpt lat="52.27453" lon="-1.89498">
        <ele>69.64811</ele>
        <time>2017-05-16T00:50:03.000Z</time>
      </trkpt>
      <trkpt lat="52.27449" lon="-1.89518">
        <ele>70.22886</ele>
        <time>2017-05-16T00:50:05.000Z</time>
      </trkpt>
      <trkpt lat="52.27425" lon="-1.89554">
        <ele>72.60878</ele>
        <time>2017-05-16T00:50:12.000Z</time>
        <name>52.274250,-1.895540</name>
        <extensions>
          <oa:locType>calcWayPoint</oa:locType>
        </extensions>
      </trkpt>
      <trkpt lat="52.27421" lon="-1.89559">
        <ele>72.89922</ele>
        <time>2017-05-16T00:50:13.000Z</time>
      </trkpt>
      <trkpt lat="52.27416" lon="-1.89563">
        <ele>73.22422</ele>
        <time>2017-05-16T00:50:14.000Z</time>
      </trkpt>
      <trkpt lat="52.27413" lon="-1.89564">
        <ele>73.39258</ele>
        <time>2017-05-16T00:50:15.000Z</time>
      </trkpt>
      <trkpt lat="52.27388" lon="-1.89567">
        <ele>74.73669</ele>
        <time>2017-05-16T00:50:20.000Z</time>
      </trkpt>
      <trkpt lat="52.27382" lon="-1.89568">
        <ele>75.06134</ele>
        <time>2017-05-16T00:50:21.000Z</time>
      </trkpt>
      <trkpt lat="52.27378" lon="-1.89571">
        <ele>75.29914</ele>
        <time>2017-05-16T00:50:22.000Z</time>
      </trkpt>
      <trkpt lat="52.27355" lon="-1.89594">
        <ele>77.21191</ele>
        <time>2017-05-16T00:50:27.000Z</time>
      </trkpt>
      <trkpt lat="52.27334" lon="-1.89613">
        <ele>78.4665</ele>
        <time>2017-05-16T00:50:32.000Z</time>
      </trkpt>
      <trkpt lat="52.2732" lon="-1.8963">
        <ele>79.11914</ele>
        <time>2017-05-16T00:50:35.000Z</time>
      </trkpt>
      <trkpt lat="52.27311" lon="-1.8964">
        <ele>79.4828</ele>
        <time>2017-05-16T00:50:38.000Z</time>
      </trkpt>
      <trkpt lat="52.27299" lon="-1.89655">
        <ele>80.00348</ele>
        <time>2017-05-16T00:50:41.000Z</time>
      </trkpt>
      <trkpt lat="52.27289" lon="-1.8967">
        <ele>80.34447</ele>
        <time>2017-05-16T00:50:43.000Z</time>
      </trkpt>
      <trkpt lat="52.27287" lon="-1.89673">
        <ele>80.40798</ele>
        <time>2017-05-16T00:50:44.000Z</time>
      </trkpt>
      <trkpt lat="52.2728" lon="-1.89685">
        <ele>80.63105</ele>
        <time>2017-05-16T00:50:46.000Z</time>
      </trkpt>
      <trkpt lat="52.27276" lon="-1.89693">
        <ele>80.76455</ele>
        <time>2017-05-16T00:50:47.000Z</time>
      </trkpt>
      <trkpt lat="52.27257" lon="-1.89733">
        <ele>81.67652</ele>
        <time>2017-05-16T00:50:53.000Z</time>
      </trkpt>
      <trkpt lat="52.27254" lon="-1.8974">
        <ele>81.81914</ele>
        <time>2017-05-16T00:50:54.000Z</time>
      </trkpt>
      <trkpt lat="52.27237" lon="-1.89779">
        <ele>82.63439</ele>
        <time>2017-05-16T00:51:00.000Z</time>
      </trkpt>
      <trkpt lat="52.2722" lon="-1.89815">
        <ele>83.10104</ele>
        <time>2017-05-16T00:51:06.000Z</time>
      </trkpt>
      <trkpt lat="52.2721" lon="-1.89837">
        <ele>83.45242</ele>
        <time>2017-05-16T00:51:09.000Z</time>
      </trkpt>
      <trkpt lat="52.27205" lon="-1.8985">
        <ele>83.61861</ele>
        <time>2017-05-16T00:51:11.000Z</time>
      </trkpt>
      <trkpt lat="52.27189" lon="-1.89887">
        <ele>84.00147</ele>
        <time>2017-05-16T00:51:17.000Z</time>
      </trkpt>
      <trkpt lat="52.27169" lon="-1.89931">
        <ele>84.60741</ele>
        <time>2017-05-16T00:51:23.000Z</time>
      </trkpt>
      <trkpt lat="52.27169" lon="-1.89932">
        <ele>84.6193</ele>
        <time>2017-05-16T00:51:24.000Z</time>
      </trkpt>
      <trkpt lat="52.27152" lon="-1.89923">
        <ele>84.23572</ele>
        <time>2017-05-16T00:51:27.000Z</time>
      </trkpt>
      <trkpt lat="52.27148" lon="-1.89922">
        <ele>84.11599</ele>
        <time>2017-05-16T00:51:28.000Z</time>
      </trkpt>
      <trkpt lat="52.27139" lon="-1.89921">
        <ele>83.86863</ele>
        <time>2017-05-16T00:51:30.000Z</time>
      </trkpt>
      <trkpt lat="52.27107" lon="-1.89919">
        <ele>83.28032</ele>
        <time>2017-05-16T00:51:36.000Z</time>
      </trkpt>
      <trkpt lat="52.27099" lon="-1.89919">
        <ele>83.19039</ele>
        <time>2017-05-16T00:51:38.000Z</time>
      </trkpt>
      <trkpt lat="52.2709" lon="-1.8992">
        <ele>83.10866</ele>
        <time>2017-05-16T00:51:40.000Z</time>
      </trkpt>
      <trkpt lat="52.27083" lon="-1.8992">
        <ele>83.0147</ele>
        <time>2017-05-16T00:51:41.000Z</time>
      </trkpt>
      <trkpt lat="52.27075" lon="-1.89922">
        <ele>82.92201</ele>
        <time>2017-05-16T00:51:43.000Z</time>
      </trkpt>
      <trkpt lat="52.27066" lon="-1.89925">
        <ele>82.828</ele>
        <time>2017-05-16T00:51:44.000Z</time>
      </trkpt>
      <trkpt lat="52.27055" lon="-1.89931">
        <ele>82.67079</ele>
        <time>2017-05-16T00:51:47.000Z</time>
      </trkpt>
      <trkpt lat="52.2702" lon="-1.89954">
        <ele>82.75412</ele>
        <time>2017-05-16T00:51:54.000Z</time>
      </trkpt>
      <trkpt lat="52.27011" lon="-1.8996">
        <ele>82.7838</ele>
        <time>2017-05-16T00:51:56.000Z</time>
      </trkpt>
      <trkpt lat="52.27007" lon="-1.89963">
        <ele>82.76643</ele>
        <time>2017-05-16T00:51:57.000Z</time>
      </trkpt>
      <trkpt lat="52.26999" lon="-1.89966">
        <ele>82.72984</ele>
        <time>2017-05-16T00:51:59.000Z</time>
      </trkpt>
      <trkpt lat="52.26985" lon="-1.89971">
        <ele>82.64528</ele>
        <time>2017-05-16T00:52:02.000Z</time>
      </trkpt>
      <trkpt lat="52.26953" lon="-1.89984">
        <ele>82.40862</ele>
        <time>2017-05-16T00:52:08.000Z</time>
      </trkpt>
      <trkpt lat="52.26926" lon="-1.89994">
        <ele>82.12373</ele>
        <time>2017-05-16T00:52:14.000Z</time>
      </trkpt>
      <trkpt lat="52.26911" lon="-1.9">
        <ele>81.95705</ele>
        <time>2017-05-16T00:52:17.000Z</time>
      </trkpt>
      <trkpt lat="52.26903" lon="-1.90002">
        <ele>81.84071</ele>
        <time>2017-05-16T00:52:19.000Z</time>
      </trkpt>
      <trkpt lat="52.26896" lon="-1.90004">
        <ele>81.738</ele>
        <time>2017-05-16T00:52:20.000Z</time>
      </trkpt>
      <trkpt lat="52.26884" lon="-1.90006">
        <ele>81.57439</ele>
        <time>2017-05-16T00:52:22.000Z</time>
      </trkpt>
      <trkpt lat="52.26875" lon="-1.90008">
        <ele>81.419</ele>
        <time>2017-05-16T00:52:24.000Z</time>
      </trkpt>
      <trkpt lat="52.26846" lon="-1.90013">
        <ele>81.20024</ele>
        <time>2017-05-16T00:52:30.000Z</time>
      </trkpt>
      <trkpt lat="52.26836" lon="-1.90014">
        <ele>81.04204</ele>
        <time>2017-05-16T00:52:32.000Z</time>
      </trkpt>
      <trkpt lat="52.26834" lon="-1.90014">
        <ele>81.00167</ele>
        <time>2017-05-16T00:52:32.393Z</time>
      </trkpt>
      <trkpt lat="52.26775" lon="-1.90014">
        <ele>80.35399</ele>
        <time>2017-05-16T00:52:44.000Z</time>
      </trkpt>
      <trkpt lat="52.26764" lon="-1.90014">
        <ele>80.24525</ele>
        <time>2017-05-16T00:52:46.000Z</time>
      </trkpt>
      <trkpt lat="52.26735" lon="-1.9001">
        <ele>79.82525</ele>
        <time>2017-05-16T00:52:52.000Z</time>
      </trkpt>
      <trkpt lat="52.26731" lon="-1.90009">
        <ele>79.74415</ele>
        <time>2017-05-16T00:52:53.000Z</time>
      </trkpt>
      <trkpt lat="52.26709" lon="-1.9">
        <ele>79.45082</ele>
        <time>2017-05-16T00:52:58.000Z</time>
      </trkpt>
      <trkpt lat="52.26694" lon="-1.89992">
        <ele>79.08651</ele>
        <time>2017-05-16T00:53:01.000Z</time>
      </trkpt>
      <trkpt lat="52.26687" lon="-1.89989">
        <ele>79.02534</ele>
        <time>2017-05-16T00:53:02.000Z</time>
      </trkpt>
      <trkpt lat="52.26681" lon="-1.89982">
        <ele>78.83099</ele>
        <time>2017-05-16T00:53:04.000Z</time>
      </trkpt>
      <trkpt lat="52.26676" lon="-1.89975">
        <ele>78.68725</ele>
        <time>2017-05-16T00:53:05.000Z</time>
      </trkpt>
      <trkpt lat="52.2667" lon="-1.89964">
        <ele>78.51381</ele>
        <time>2017-05-16T00:53:07.000Z</time>
      </trkpt>
      <trkpt lat="52.26662" lon="-1.89946">
        <ele>78.28889</ele>
        <time>2017-05-16T00:53:10.000Z</time>
      </trkpt>
      <trkpt lat="52.26652" lon="-1.89922">
        <ele>78.1158</ele>
        <time>2017-05-16T00:53:13.000Z</time>
      </trkpt>
      <trkpt lat="52.26645" lon="-1.89904">
        <ele>77.92745</ele>
        <time>2017-05-16T00:53:16.000Z</time>
      </trkpt>
      <trkpt lat="52.26638" lon="-1.89878">
        <ele>77.88545</ele>
        <time>2017-05-16T00:53:19.000Z</time>
      </trkpt>
      <trkpt lat="52.26544" lon="-1.89924">
        <ele>77.55969</ele>
        <time>2017-05-16T00:53:39.000Z</time>
      </trkpt>
      <trkpt lat="52.26504" lon="-1.89945">
        <ele>77.41397</ele>
        <time>2017-05-16T00:53:47.000Z</time>
      </trkpt>
      <trkpt lat="52.26489" lon="-1.89953">
        <ele>77.39264</ele>
        <time>2017-05-16T00:53:50.000Z</time>
      </trkpt>
      <trkpt lat="52.26473" lon="-1.89963">
        <ele>77.33637</ele>
        <time>2017-05-16T00:53:54.000Z</time>
      </trkpt>
      <trkpt lat="52.26447" lon="-1.89983">
        <ele>77.1336</ele>
        <time>2017-05-16T00:54:00.000Z</time>
      </trkpt>
      <trkpt lat="52.26435" lon="-1.89996">
        <ele>77.17812</ele>
        <time>2017-05-16T00:54:03.000Z</time>
      </trkpt>
      <trkpt lat="52.26422" lon="-1.90009">
        <ele>77.18536</ele>
        <time>2017-05-16T00:54:06.000Z</time>
      </trkpt>
      <trkpt lat="52.26401" lon="-1.90029">
        <ele>77.02322</ele>
        <time>2017-05-16T00:54:10.000Z</time>
      </trkpt>
      <trkpt lat="52.26369" lon="-1.90062">
        <ele>76.89474</ele>
        <time>2017-05-16T00:54:18.000Z</time>
      </trkpt>
      <trkpt lat="52.26339" lon="-1.9009">
        <ele>76.88979</ele>
        <time>2017-05-16T00:54:25.000Z</time>
      </trkpt>
      <trkpt lat="52.26319" lon="-1.90111">
        <ele>76.84006</ele>
        <time>2017-05-16T00:54:30.000Z</time>
      </trkpt>
      <trkpt lat="52.26303" lon="-1.90127">
        <ele>76.76192</ele>
        <time>2017-05-16T00:54:34.000Z</time>
      </trkpt>
      <trkpt lat="52.26291" lon="-1.90138">
        <ele>76.68453</ele>
        <time>2017-05-16T00:54:36.000Z</time>
      </trkpt>
      <trkpt lat="52.26273" lon="-1.90152">
        <ele>76.60529</ele>
        <time>2017-05-16T00:54:40.000Z</time>
      </trkpt>
      <trkpt lat="52.26262" lon="-1.90161">
        <ele>76.54</ele>
        <time>2017-05-16T00:54:43.000Z</time>
      </trkpt>
      <trkpt lat="52.26247" lon="-1.90174">
        <ele>76.54557</ele>
        <time>2017-05-16T00:54:46.000Z</time>
      </trkpt>
      <trkpt lat="52.26238" lon="-1.90183">
        <ele>76.51584</ele>
        <time>2017-05-16T00:54:48.000Z</time>
      </trkpt>
      <trkpt lat="52.26225" lon="-1.90195">
        <ele>76.43664</ele>
        <time>2017-05-16T00:54:51.000Z</time>
      </trkpt>
      <trkpt lat="52.26208" lon="-1.90212">
        <ele>76.4499</ele>
        <time>2017-05-16T00:54:55.000Z</time>
      </trkpt>
      <trkpt lat="52.26191" lon="-1.90229">
        <ele>76.40308</ele>
        <time>2017-05-16T00:54:59.000Z</time>
      </trkpt>
      <trkpt lat="52.2618" lon="-1.90241">
        <ele>76.48337</ele>
        <time>2017-05-16T00:55:02.000Z</time>
      </trkpt>
      <trkpt lat="52.26174" lon="-1.90248">
        <ele>76.55651</ele>
        <time>2017-05-16T00:55:03.000Z</time>
      </trkpt>
      <trkpt lat="52.26154" lon="-1.90269">
        <ele>76.67613</ele>
        <time>2017-05-16T00:55:08.000Z</time>
      </trkpt>
      <trkpt lat="52.26138" lon="-1.90288">
        <ele>76.86349</ele>
        <time>2017-05-16T00:55:12.000Z</time>
      </trkpt>
      <trkpt lat="52.26123" lon="-1.90308">
        <ele>77.24735</ele>
        <time>2017-05-16T00:55:16.000Z</time>
      </trkpt>
      <trkpt lat="52.2611" lon="-1.90325">
        <ele>77.46132</ele>
        <time>2017-05-16T00:55:19.000Z</time>
      </trkpt>
      <trkpt lat="52.26079" lon="-1.90362">
        <ele>78.0211</ele>
        <time>2017-05-16T00:55:27.000Z</time>
      </trkpt>
      <trkpt lat="52.26044" lon="-1.90405">
        <ele>78.42619</ele>
        <time>2017-05-16T00:55:36.000Z</time>
      </trkpt>
      <trkpt lat="52.26022" lon="-1.90432">
        <ele>78.68618</ele>
        <time>2017-05-16T00:55:41.000Z</time>
      </trkpt>
      <trkpt lat="52.26017" lon="-1.90437">
        <ele>78.68234</ele>
        <time>2017-05-16T00:55:42.000Z</time>
      </trkpt>
      <trkpt lat="52.26014" lon="-1.9044">
        <ele>78.68322</ele>
        <time>2017-05-16T00:55:43.000Z</time>
      </trkpt>
      <trkpt lat="52.26011" lon="-1.90445">
        <ele>78.71476</ele>
        <time>2017-05-16T00:55:44.000Z</time>
      </trkpt>
      <trkpt lat="52.26006" lon="-1.90451">
        <ele>78.7851</ele>
        <time>2017-05-16T00:55:45.000Z</time>
      </trkpt>
      <trkpt lat="52.26" lon="-1.90462">
        <ele>78.90941</ele>
        <time>2017-05-16T00:55:47.000Z</time>
      </trkpt>
      <trkpt lat="52.25994" lon="-1.90475">
        <ele>79.0479</ele>
        <time>2017-05-16T00:55:49.000Z</time>
      </trkpt>
      <trkpt lat="52.25982" lon="-1.905">
        <ele>79.39229</ele>
        <time>2017-05-16T00:55:53.000Z</time>
      </trkpt>
      <trkpt lat="52.25964" lon="-1.9054">
        <ele>79.52712</ele>
        <time>2017-05-16T00:55:59.000Z</time>
      </trkpt>
      <trkpt lat="52.25951" lon="-1.90569">
        <ele>78.89638</ele>
        <time>2017-05-16T00:56:03.000Z</time>
      </trkpt>
      <trkpt lat="52.2594" lon="-1.90588">
        <ele>77.89142</ele>
        <time>2017-05-16T00:56:07.000Z</time>
      </trkpt>
      <trkpt lat="52.2593" lon="-1.90605">
        <ele>76.71719</ele>
        <time>2017-05-16T00:56:10.000Z</time>
      </trkpt>
      <trkpt lat="52.25922" lon="-1.90618">
        <ele>75.99949</ele>
        <time>2017-05-16T00:56:12.000Z</time>
      </trkpt>
      <trkpt lat="52.25912" lon="-1.90632">
        <ele>75.57416</ele>
        <time>2017-05-16T00:56:14.000Z</time>
      </trkpt>
      <trkpt lat="52.25893" lon="-1.90652">
        <ele>75.29741</ele>
        <time>2017-05-16T00:56:19.000Z</time>
      </trkpt>
      <trkpt lat="52.25881" lon="-1.90666">
        <ele>75.39003</ele>
        <time>2017-05-16T00:56:22.000Z</time>
      </trkpt>
      <trkpt lat="52.25869" lon="-1.90678">
        <ele>75.62927</ele>
        <time>2017-05-16T00:56:25.000Z</time>
      </trkpt>
      <trkpt lat="52.25854" lon="-1.90698">
        <ele>76.19133</ele>
        <time>2017-05-16T00:56:29.000Z</time>
      </trkpt>
      <trkpt lat="52.2584" lon="-1.90721">
        <ele>77.16803</ele>
        <time>2017-05-16T00:56:33.000Z</time>
      </trkpt>
      <trkpt lat="52.25794" lon="-1.90809">
        <ele>80.56959</ele>
        <time>2017-05-16T00:56:47.000Z</time>
      </trkpt>
      <trkpt lat="52.25754" lon="-1.9089">
        <ele>83.30011</ele>
        <time>2017-05-16T00:57:00.000Z</time>
      </trkpt>
      <trkpt lat="52.25733" lon="-1.90933">
        <ele>84.73596</ele>
        <time>2017-05-16T00:57:06.000Z</time>
      </trkpt>
      <trkpt lat="52.25693" lon="-1.91009">
        <ele>85.7013</ele>
        <time>2017-05-16T00:57:19.000Z</time>
      </trkpt>
      <trkpt lat="52.25684" lon="-1.91024">
        <ele>85.5595</ele>
        <time>2017-05-16T00:57:21.000Z</time>
      </trkpt>
      <trkpt lat="52.25676" lon="-1.91037">
        <ele>85.42356</ele>
        <time>2017-05-16T00:57:23.000Z</time>
      </trkpt>
      <trkpt lat="52.25664" lon="-1.91054">
        <ele>85.23772</ele>
        <time>2017-05-16T00:57:27.000Z</time>
      </trkpt>
      <trkpt lat="52.25652" lon="-1.91071">
        <ele>84.96363</ele>
        <time>2017-05-16T00:57:30.000Z</time>
      </trkpt>
      <trkpt lat="52.25628" lon="-1.91101">
        <ele>84.13964</ele>
        <time>2017-05-16T00:57:36.000Z</time>
      </trkpt>
      <trkpt lat="52.25614" lon="-1.9112">
        <ele>83.39476</ele>
        <time>2017-05-16T00:57:40.000Z</time>
      </trkpt>
      <trkpt lat="52.25604" lon="-1.91133">
        <ele>82.97768</ele>
        <time>2017-05-16T00:57:42.000Z</time>
      </trkpt>
      <trkpt lat="52.25595" lon="-1.91144">
        <ele>82.61763</ele>
        <time>2017-05-16T00:57:44.000Z</time>
      </trkpt>
      <trkpt lat="52.25584" lon="-1.91156">
        <ele>82.24986</ele>
        <time>2017-05-16T00:57:47.000Z</time>
      </trkpt>
      <trkpt lat="52.25571" lon="-1.91165">
        <ele>82.02178</ele>
        <time>2017-05-16T00:57:50.000Z</time>
      </trkpt>
      <trkpt lat="52.2555" lon="-1.91175">
        <ele>82.34907</ele>
        <time>2017-05-16T00:57:54.000Z</time>
      </trkpt>
      <trkpt lat="52.25531" lon="-1.91182">
        <ele>82.76636</ele>
        <time>2017-05-16T00:57:58.000Z</time>
      </trkpt>
      <trkpt lat="52.25516" lon="-1.91189">
        <ele>83.53152</ele>
        <time>2017-05-16T00:58:01.000Z</time>
      </trkpt>
      <trkpt lat="52.25495" lon="-1.91195">
        <ele>83.85676</ele>
        <time>2017-05-16T00:58:05.000Z</time>
      </trkpt>
      <trkpt lat="52.25478" lon="-1.91267">
        <ele>85.09915</ele>
        <time>2017-05-16T00:58:15.000Z</time>
      </trkpt>
      <trkpt lat="52.25475" lon="-1.91284">
        <ele>85.35598</ele>
        <time>2017-05-16T00:58:17.000Z</time>
      </trkpt>
      <trkpt lat="52.25473" lon="-1.91293">
        <ele>85.49045</ele>
        <time>2017-05-16T00:58:18.000Z</time>
      </trkpt>
      <trkpt lat="52.25469" lon="-1.91309">
        <ele>85.81423</ele>
        <time>2017-05-16T00:58:20.000Z</time>
      </trkpt>
      <trkpt lat="52.25458" lon="-1.91341">
        <ele>86.66674</ele>
        <time>2017-05-16T00:58:25.000Z</time>
      </trkpt>
      <trkpt lat="52.2545" lon="-1.91364">
        <ele>87.24755</ele>
        <time>2017-05-16T00:58:28.000Z</time>
      </trkpt>
      <trkpt lat="52.25442" lon="-1.91389">
        <ele>87.77465</ele>
        <time>2017-05-16T00:58:32.000Z</time>
      </trkpt>
      <trkpt lat="52.25434" lon="-1.91409">
        <ele>88.15707</ele>
        <time>2017-05-16T00:58:35.000Z</time>
      </trkpt>
      <trkpt lat="52.25427" lon="-1.91428">
        <ele>88.61149</ele>
        <time>2017-05-16T00:58:37.000Z</time>
      </trkpt>
      <trkpt lat="52.25419" lon="-1.91448">
        <ele>88.65407</ele>
        <time>2017-05-16T00:58:40.000Z</time>
      </trkpt>
      <trkpt lat="52.25412" lon="-1.91464">
        <ele>88.80135</ele>
        <time>2017-05-16T00:58:43.000Z</time>
      </trkpt>
      <trkpt lat="52.25385" lon="-1.91518">
        <ele>88.9748</ele>
        <time>2017-05-16T00:58:51.000Z</time>
      </trkpt>
      <trkpt lat="52.25353" lon="-1.91576">
        <ele>89.29415</ele>
        <time>2017-05-16T00:59:01.000Z</time>
      </trkpt>
      <trkpt lat="52.25342" lon="-1.91594">
        <ele>89.38701</ele>
        <time>2017-05-16T00:59:04.000Z</time>
      </trkpt>
      <trkpt lat="52.25332" lon="-1.9161">
        <ele>89.4859</ele>
        <time>2017-05-16T00:59:07.000Z</time>
      </trkpt>
      <trkpt lat="52.25317" lon="-1.91637">
        <ele>89.64185</ele>
        <time>2017-05-16T00:59:11.000Z</time>
      </trkpt>
      <trkpt lat="52.25308" lon="-1.9166">
        <ele>89.57193</ele>
        <time>2017-05-16T00:59:14.000Z</time>
      </trkpt>
      <trkpt lat="52.25301" lon="-1.91678">
        <ele>89.45755</ele>
        <time>2017-05-16T00:59:17.000Z</time>
      </trkpt>
      <trkpt lat="52.25297" lon="-1.91693">
        <ele>89.53263</ele>
        <time>2017-05-16T00:59:19.000Z</time>
      </trkpt>
      <trkpt lat="52.25292" lon="-1.91712">
        <ele>89.51973</ele>
        <time>2017-05-16T00:59:22.000Z</time>
      </trkpt>
      <trkpt lat="52.25287" lon="-1.9173">
        <ele>89.54492</ele>
        <time>2017-05-16T00:59:24.000Z</time>
      </trkpt>
      <trkpt lat="52.25281" lon="-1.91759">
        <ele>89.52513</ele>
        <time>2017-05-16T00:59:28.000Z</time>
      </trkpt>
      <trkpt lat="52.25271" lon="-1.91801">
        <ele>89.23255</ele>
        <time>2017-05-16T00:59:33.000Z</time>
      </trkpt>
      <trkpt lat="52.2526" lon="-1.91839">
        <ele>88.99727</ele>
        <time>2017-05-16T00:59:39.000Z</time>
      </trkpt>
      <trkpt lat="52.25247" lon="-1.91883">
        <ele>89.22649</ele>
        <time>2017-05-16T00:59:45.000Z</time>
      </trkpt>
      <trkpt lat="52.25234" lon="-1.91921">
        <ele>88.80131</ele>
        <time>2017-05-16T00:59:50.000Z</time>
      </trkpt>
      <trkpt lat="52.25225" lon="-1.91943">
        <ele>88.25752</ele>
        <time>2017-05-16T00:59:53.000Z</time>
      </trkpt>
      <trkpt lat="52.25216" lon="-1.9196">
        <ele>87.53587</ele>
        <time>2017-05-16T00:59:56.000Z</time>
      </trkpt>
      <trkpt lat="52.2521" lon="-1.91968">
        <ele>87.0242</ele>
        <time>2017-05-16T00:59:57.000Z</time>
      </trkpt>
      <trkpt lat="52.25201" lon="-1.91978">
        <ele>86.42417</ele>
        <time>2017-05-16T01:00:00.000Z</time>
      </trkpt>
      <trkpt lat="52.25192" lon="-1.91983">
        <ele>86.21912</ele>
        <time>2017-05-16T01:00:01.000Z</time>
      </trkpt>
      <trkpt lat="52.25174" lon="-1.91988">
        <ele>87.01597</ele>
        <time>2017-05-16T01:00:05.000Z</time>
      </trkpt>
      <trkpt lat="52.25154" lon="-1.91991">
        <ele>88.71716</ele>
        <time>2017-05-16T01:00:09.000Z</time>
      </trkpt>
      <trkpt lat="52.25106" lon="-1.92">
        <ele>92.57535</ele>
        <time>2017-05-16T01:00:19.000Z</time>
      </trkpt>
      <trkpt lat="52.25053" lon="-1.9201">
        <ele>95.81567</ele>
        <time>2017-05-16T01:00:30.000Z</time>
      </trkpt>
      <trkpt lat="52.25014" lon="-1.92015">
        <ele>97.56334</ele>
        <time>2017-05-16T01:00:37.000Z</time>
      </trkpt>
      <trkpt lat="52.24981" lon="-1.92021">
        <ele>98.77642</ele>
        <time>2017-05-16T01:00:44.000Z</time>
      </trkpt>
      <trkpt lat="52.24968" lon="-1.92024">
        <ele>99.17419</ele>
        <time>2017-05-16T01:00:47.000Z</time>
      </trkpt>
      <trkpt lat="52.24951" lon="-1.92031">
        <ele>99.95412</ele>
        <time>2017-05-16T01:00:50.000Z</time>
      </trkpt>
      <trkpt lat="52.2493" lon="-1.92041">
        <ele>101.06668</ele>
        <time>2017-05-16T01:00:55.000Z</time>
      </trkpt>
      <trkpt lat="52.24902" lon="-1.92058">
        <ele>102.26183</ele>
        <time>2017-05-16T01:01:01.000Z</time>
      </trkpt>
      <trkpt lat="52.24882" lon="-1.92068">
        <ele>102.9781</ele>
        <time>2017-05-16T01:01:05.000Z</time>
      </trkpt>
      <trkpt lat="52.24846" lon="-1.92083">
        <ele>102.02585</ele>
        <time>2017-05-16T01:01:12.000Z</time>
      </trkpt>
      <trkpt lat="52.24753" lon="-1.92122">
        <ele>99.96444</ele>
        <time>2017-05-16T01:01:31.000Z</time>
      </trkpt>
      <trkpt lat="52.24662" lon="-1.92161">
        <ele>106.54218</ele>
        <time>2017-05-16T01:01:50.000Z</time>
      </trkpt>
      <trkpt lat="52.24555" lon="-1.92214">
        <ele>107.48713</ele>
        <time>2017-05-16T01:02:13.000Z</time>
      </trkpt>
      <trkpt lat="52.24452" lon="-1.92264">
        <ele>110.83829</ele>
        <time>2017-05-16T01:02:34.000Z</time>
      </trkpt>
      <trkpt lat="52.24428" lon="-1.92273">
        <ele>111.08017</ele>
        <time>2017-05-16T01:02:39.000Z</time>
      </trkpt>
      <trkpt lat="52.24413" lon="-1.92277">
        <ele>111.07651</ele>
        <time>2017-05-16T01:02:42.000Z</time>
      </trkpt>
      <trkpt lat="52.24402" lon="-1.92279">
        <ele>111.30794</ele>
        <time>2017-05-16T01:02:44.000Z</time>
      </trkpt>
      <trkpt lat="52.24397" lon="-1.92277">
        <ele>111.38564</ele>
        <time>2017-05-16T01:02:45.000Z</time>
      </trkpt>
      <trkpt lat="52.24387" lon="-1.92272">
        <ele>111.40107</ele>
        <time>2017-05-16T01:02:48.000Z</time>
      </trkpt>
      <trkpt lat="52.24372" lon="-1.92255">
        <ele>111.26813</ele>
        <time>2017-05-16T01:02:51.000Z</time>
      </trkpt>
      <trkpt lat="52.24346" lon="-1.92214">
        <ele>110.20306</ele>
        <time>2017-05-16T01:02:58.000Z</time>
      </trkpt>
      <trkpt lat="52.24329" lon="-1.92183">
        <ele>109.70938</ele>
        <time>2017-05-16T01:03:04.000Z</time>
      </trkpt>
      <trkpt lat="52.24314" lon="-1.92162">
        <ele>109.94899</ele>
        <time>2017-05-16T01:03:08.000Z</time>
      </trkpt>
      <trkpt lat="52.24301" lon="-1.92148">
        <ele>110.59561</ele>
        <time>2017-05-16T01:03:11.000Z</time>
      </trkpt>
      <trkpt lat="52.24295" lon="-1.92145">
        <ele>111.04268</ele>
        <time>2017-05-16T01:03:12.000Z</time>
      </trkpt>
      <trkpt lat="52.24265" lon="-1.92183">
        <ele>114.76097</ele>
        <time>2017-05-16T01:03:20.000Z</time>
      </trkpt>
      <trkpt lat="52.24253" lon="-1.92206">
        <ele>116.26947</ele>
        <time>2017-05-16T01:03:23.000Z</time>
      </trkpt>
      <trkpt lat="52.24239" lon="-1.92229">
        <ele>117.76251</ele>
        <time>2017-05-16T01:03:27.000Z</time>
      </trkpt>
      <trkpt lat="52.24224" lon="-1.92248">
        <ele>119.52769</ele>
        <time>2017-05-16T01:03:31.000Z</time>
      </trkpt>
      <trkpt lat="52.24208" lon="-1.92268">
        <ele>120.99409</ele>
        <time>2017-05-16T01:03:35.000Z</time>
      </trkpt>
      <trkpt lat="52.24189" lon="-1.92291">
        <ele>122.53937</ele>
        <time>2017-05-16T01:03:40.000Z</time>
      </trkpt>
      <trkpt lat="52.24174" lon="-1.92309">
        <ele>123.84484</ele>
        <time>2017-05-16T01:03:44.000Z</time>
      </trkpt>
      <trkpt lat="52.24158" lon="-1.92332">
        <ele>125.35504</ele>
        <time>2017-05-16T01:03:48.000Z</time>
      </trkpt>
      <trkpt lat="52.24144" lon="-1.92354">
        <ele>127.21385</ele>
        <time>2017-05-16T01:03:52.000Z</time>
      </trkpt>
      <trkpt lat="52.24129" lon="-1.92377">
        <ele>129.39534</ele>
        <time>2017-05-16T01:03:56.000Z</time>
      </trkpt>
      <trkpt lat="52.24118" lon="-1.92395">
        <ele>131.11033</ele>
        <time>2017-05-16T01:03:59.000Z</time>
      </trkpt>
      <trkpt lat="52.24113" lon="-1.92403">
        <ele>131.89899</ele>
        <time>2017-05-16T01:04:00.000Z</time>
      </trkpt>
      <trkpt lat="52.24103" lon="-1.92425">
        <ele>133.58377</ele>
        <time>2017-05-16T01:04:04.000Z</time>
      </trkpt>
      <trkpt lat="52.24086" lon="-1.92464">
        <ele>135.79264</ele>
        <time>2017-05-16T01:04:10.000Z</time>
      </trkpt>
      <trkpt lat="52.24078" lon="-1.92484">
        <ele>136.74858</ele>
        <time>2017-05-16T01:04:12.000Z</time>
      </trkpt>
      <trkpt lat="52.2407" lon="-1.92501">
        <ele>137.6869</ele>
        <time>2017-05-16T01:04:15.000Z</time>
      </trkpt>
      <trkpt lat="52.24062" lon="-1.92513">
        <ele>138.28466</ele>
        <time>2017-05-16T01:04:17.000Z</time>
      </trkpt>
      <trkpt lat="52.24052" lon="-1.92526">
        <ele>138.78115</ele>
        <time>2017-05-16T01:04:20.000Z</time>
      </trkpt>
      <trkpt lat="52.24046" lon="-1.92534">
        <ele>139.01747</ele>
        <time>2017-05-16T01:04:21.000Z</time>
      </trkpt>
      <trkpt lat="52.24028" lon="-1.92551">
        <ele>139.3206</ele>
        <time>2017-05-16T01:04:26.000Z</time>
      </trkpt>
      <trkpt lat="52.24008" lon="-1.9257">
        <ele>139.36397</ele>
        <time>2017-05-16T01:04:30.000Z</time>
      </trkpt>
      <trkpt lat="52.23989" lon="-1.92586">
        <ele>139.39109</ele>
        <time>2017-05-16T01:04:34.000Z</time>
      </trkpt>
      <trkpt lat="52.23957" lon="-1.92617">
        <ele>139.12349</ele>
        <time>2017-05-16T01:04:42.000Z</time>
      </trkpt>
      <trkpt lat="52.23954" lon="-1.9262">
        <ele>139.08256</ele>
        <time>2017-05-16T01:04:43.000Z</time>
      </trkpt>
      <trkpt lat="52.23935" lon="-1.9263">
        <ele>138.77719</ele>
        <time>2017-05-16T01:04:47.000Z</time>
      </trkpt>
      <trkpt lat="52.23915" lon="-1.92635">
        <ele>138.51625</ele>
        <time>2017-05-16T01:04:51.000Z</time>
      </trkpt>
      <trkpt lat="52.23899" lon="-1.92638">
        <ele>138.23053</ele>
        <time>2017-05-16T01:04:54.000Z</time>
      </trkpt>
      <trkpt lat="52.23882" lon="-1.92642">
        <ele>137.94829</ele>
        <time>2017-05-16T01:04:58.000Z</time>
        <name>52.238820,-1.926420</name>
        <extensions>
          <oa:locType>calcWayPoint</oa:locType>
        </extensions>
      </trkpt>
      <trkpt lat="52.23871" lon="-1.92643">
        <ele>137.83418</ele>
        <time>2017-05-16T01:05:00.000Z</time>
      </trkpt>
      <trkpt lat="52.23861" lon="-1.92644">
        <ele>137.64778</ele>
        <time>2017-05-16T01:05:02.000Z</time>
      </trkpt>
      <trkpt lat="52.23847" lon="-1.92645">
        <ele>137.42349</ele>
        <time>2017-05-16T01:05:05.000Z</time>
      </trkpt>
      <trkpt lat="52.23834" lon="-1.92645">
        <ele>137.29993</ele>
        <time>2017-05-16T01:05:07.000Z</time>
      </trkpt>
      <trkpt lat="52.23832" lon="-1.92645">
        <ele>137.29412</ele>
        <time>2017-05-16T01:05:08.000Z</time>
      </trkpt>
      <trkpt lat="52.23825" lon="-1.92644">
        <ele>137.25375</ele>
        <time>2017-05-16T01:05:09.000Z</time>
      </trkpt>
      <trkpt lat="52.23816" lon="-1.92643">
        <ele>137.19598</ele>
        <time>2017-05-16T01:05:11.000Z</time>
      </trkpt>
      <trkpt lat="52.23802" lon="-1.92641">
        <ele>137.05461</ele>
        <time>2017-05-16T01:05:14.000Z</time>
      </trkpt>
      <trkpt lat="52.23794" lon="-1.92639">
        <ele>137.02537</ele>
        <time>2017-05-16T01:05:15.000Z</time>
      </trkpt>
      <trkpt lat="52.23789" lon="-1.92637">
        <ele>137.01525</ele>
        <time>2017-05-16T01:05:16.000Z</time>
      </trkpt>
      <trkpt lat="52.23774" lon="-1.92633">
        <ele>137.00016</ele>
        <time>2017-05-16T01:05:19.000Z</time>
      </trkpt>
      <trkpt lat="52.23762" lon="-1.92629">
        <ele>136.92847</ele>
        <time>2017-05-16T01:05:22.000Z</time>
      </trkpt>
      <trkpt lat="52.23756" lon="-1.92627">
        <ele>136.85304</ele>
        <time>2017-05-16T01:05:23.000Z</time>
      </trkpt>
      <trkpt lat="52.23736" lon="-1.9262">
        <ele>136.73687</ele>
        <time>2017-05-16T01:05:27.000Z</time>
      </trkpt>
      <trkpt lat="52.23716" lon="-1.92613">
        <ele>136.43012</ele>
        <time>2017-05-16T01:05:31.000Z</time>
      </trkpt>
      <trkpt lat="52.23678" lon="-1.92599">
        <ele>135.89207</ele>
        <time>2017-05-16T01:05:39.000Z</time>
      </trkpt>
      <trkpt lat="52.23632" lon="-1.92583">
        <ele>135.2536</ele>
        <time>2017-05-16T01:05:49.000Z</time>
      </trkpt>
      <trkpt lat="52.23608" lon="-1.92574">
        <ele>134.92338</ele>
        <time>2017-05-16T01:05:53.000Z</time>
      </trkpt>
      <trkpt lat="52.23597" lon="-1.9257">
        <ele>134.75813</ele>
        <time>2017-05-16T01:05:56.000Z</time>
      </trkpt>
      <trkpt lat="52.23567" lon="-1.92559">
        <ele>134.4478</ele>
        <time>2017-05-16T01:06:02.000Z</time>
      </trkpt>
      <trkpt lat="52.23555" lon="-1.92554">
        <ele>134.17639</ele>
        <time>2017-05-16T01:06:04.000Z</time>
      </trkpt>
      <trkpt lat="52.23521" lon="-1.92541">
        <ele>133.59681</ele>
        <time>2017-05-16T01:06:11.000Z</time>
      </trkpt>
      <trkpt lat="52.23499" lon="-1.92532">
        <ele>133.27218</ele>
        <time>2017-05-16T01:06:16.000Z</time>
      </trkpt>
      <trkpt lat="52.23464" lon="-1.92518">
        <ele>132.46573</ele>
        <time>2017-05-16T01:06:23.000Z</time>
      </trkpt>
      <trkpt lat="52.23444" lon="-1.9251">
        <ele>132.01809</ele>
        <time>2017-05-16T01:06:27.000Z</time>
      </trkpt>
      <trkpt lat="52.23439" lon="-1.92508">
        <ele>131.95348</ele>
        <time>2017-05-16T01:06:28.000Z</time>
      </trkpt>
      <trkpt lat="52.23411" lon="-1.92496">
        <ele>131.29804</ele>
        <time>2017-05-16T01:06:34.000Z</time>
      </trkpt>
      <trkpt lat="52.23398" lon="-1.9249">
        <ele>130.9197</ele>
        <time>2017-05-16T01:06:37.000Z</time>
      </trkpt>
      <trkpt lat="52.23382" lon="-1.92481">
        <ele>130.42878</ele>
        <time>2017-05-16T01:06:40.000Z</time>
      </trkpt>
      <trkpt lat="52.23372" lon="-1.92476">
        <ele>130.16491</ele>
        <time>2017-05-16T01:06:42.000Z</time>
      </trkpt>
      <trkpt lat="52.23346" lon="-1.92461">
        <ele>129.87308</ele>
        <time>2017-05-16T01:06:48.000Z</time>
      </trkpt>
      <trkpt lat="52.23331" lon="-1.92451">
        <ele>129.82116</ele>
        <time>2017-05-16T01:06:51.000Z</time>
      </trkpt>
      <trkpt lat="52.23285" lon="-1.92421">
        <ele>129.45452</ele>
        <time>2017-05-16T01:07:01.000Z</time>
      </trkpt>
      <trkpt lat="52.23274" lon="-1.92414">
        <ele>129.28141</ele>
        <time>2017-05-16T01:07:03.000Z</time>
      </trkpt>
      <trkpt lat="52.23244" lon="-1.92394">
        <ele>128.38238</ele>
        <time>2017-05-16T01:07:10.000Z</time>
      </trkpt>
      <trkpt lat="52.23188" lon="-1.92354">
        <ele>127.14851</ele>
        <time>2017-05-16T01:07:22.000Z</time>
      </trkpt>
      <trkpt lat="52.23181" lon="-1.92349">
        <ele>127.11673</ele>
        <time>2017-05-16T01:07:24.000Z</time>
      </trkpt>
      <trkpt lat="52.2313" lon="-1.92311">
        <ele>127.15412</ele>
        <time>2017-05-16T01:07:35.000Z</time>
      </trkpt>
      <trkpt lat="52.23089" lon="-1.9228">
        <ele>127.52092</ele>
        <time>2017-05-16T01:07:44.000Z</time>
      </trkpt>
      <trkpt lat="52.23066" lon="-1.92263">
        <ele>127.82597</ele>
        <time>2017-05-16T01:07:49.000Z</time>
      </trkpt>
      <trkpt lat="52.23049" lon="-1.9225">
        <ele>127.98624</ele>
        <time>2017-05-16T01:07:53.000Z</time>
      </trkpt>
      <trkpt lat="52.2303" lon="-1.92236">
        <ele>128.05159</ele>
        <time>2017-05-16T01:07:57.000Z</time>
      </trkpt>
      <trkpt lat="52.23015" lon="-1.92226">
        <ele>128.05376</ele>
        <time>2017-05-16T01:08:00.000Z</time>
      </trkpt>
      <trkpt lat="52.23002" lon="-1.92218">
        <ele>127.94568</ele>
        <time>2017-05-16T01:08:03.000Z</time>
      </trkpt>
      <trkpt lat="52.22993" lon="-1.92212">
        <ele>127.84672</ele>
        <time>2017-05-16T01:08:05.000Z</time>
      </trkpt>
      <trkpt lat="52.22975" lon="-1.92202">
        <ele>127.63328</ele>
        <time>2017-05-16T01:08:09.000Z</time>
      </trkpt>
      <trkpt lat="52.22953" lon="-1.92189">
        <ele>127.2631</ele>
        <time>2017-05-16T01:08:13.000Z</time>
      </trkpt>
      <trkpt lat="52.22934" lon="-1.92178">
        <ele>126.97623</ele>
        <time>2017-05-16T01:08:17.000Z</time>
      </trkpt>
      <trkpt lat="52.22912" lon="-1.92166">
        <ele>126.8257</ele>
        <time>2017-05-16T01:08:22.000Z</time>
      </trkpt>
      <trkpt lat="52.22893" lon="-1.92157">
        <ele>126.67682</ele>
        <time>2017-05-16T01:08:26.000Z</time>
      </trkpt>
      <trkpt lat="52.22879" lon="-1.9215">
        <ele>126.48192</ele>
        <time>2017-05-16T01:08:29.000Z</time>
      </trkpt>
      <trkpt lat="52.22847" lon="-1.92135">
        <ele>126.11224</ele>
        <time>2017-05-16T01:08:36.000Z</time>
      </trkpt>
      <trkpt lat="52.22826" lon="-1.92125">
        <ele>126.03238</ele>
        <time>2017-05-16T01:08:40.000Z</time>
      </trkpt>
      <trkpt lat="52.22794" lon="-1.92111">
        <ele>125.92583</ele>
        <time>2017-05-16T01:08:47.000Z</time>
      </trkpt>
      <trkpt lat="52.2276" lon="-1.92095">
        <ele>125.96655</ele>
        <time>2017-05-16T01:08:54.000Z</time>
      </trkpt>
      <trkpt lat="52.22733" lon="-1.92082">
        <ele>126.12064</ele>
        <time>2017-05-16T01:08:59.000Z</time>
      </trkpt>
      <trkpt lat="52.22704" lon="-1.92068">
        <ele>126.24544</ele>
        <time>2017-05-16T01:09:05.000Z</time>
      </trkpt>
      <trkpt lat="52.22658" lon="-1.92045">
        <ele>125.85995</ele>
        <time>2017-05-16T01:09:15.000Z</time>
      </trkpt>
      <trkpt lat="52.2255" lon="-1.91977">
        <ele>125.39387</ele>
        <time>2017-05-16T01:09:38.000Z</time>
      </trkpt>
      <trkpt lat="52.22462" lon="-1.91921">
        <ele>126.05875</ele>
        <time>2017-05-16T01:09:57.000Z</time>
      </trkpt>
      <trkpt lat="52.22434" lon="-1.91903">
        <ele>126.40027</ele>
        <time>2017-05-16T01:10:03.000Z</time>
      </trkpt>
      <trkpt lat="52.22416" lon="-1.91891">
        <ele>126.57449</ele>
        <time>2017-05-16T01:10:07.000Z</time>
      </trkpt>
      <trkpt lat="52.22397" lon="-1.91881">
        <ele>126.62651</ele>
        <time>2017-05-16T01:10:11.000Z</time>
      </trkpt>
      <trkpt lat="52.22389" lon="-1.91877">
        <ele>126.65755</ele>
        <time>2017-05-16T01:10:13.000Z</time>
      </trkpt>
      <trkpt lat="52.22377" lon="-1.91871">
        <ele>126.67932</ele>
        <time>2017-05-16T01:10:15.000Z</time>
      </trkpt>
      <trkpt lat="52.22371" lon="-1.91869">
        <ele>126.70403</ele>
        <time>2017-05-16T01:10:17.000Z</time>
      </trkpt>
      <trkpt lat="52.22355" lon="-1.91864">
        <ele>126.67086</ele>
        <time>2017-05-16T01:10:20.000Z</time>
      </trkpt>
      <trkpt lat="52.22346" lon="-1.91862">
        <ele>126.6449</ele>
        <time>2017-05-16T01:10:22.000Z</time>
      </trkpt>
      <trkpt lat="52.22331" lon="-1.9186">
        <ele>126.55339</ele>
        <time>2017-05-16T01:10:25.000Z</time>
      </trkpt>
      <trkpt lat="52.22323" lon="-1.91859">
        <ele>126.55767</ele>
        <time>2017-05-16T01:10:26.000Z</time>
      </trkpt>
      <trkpt lat="52.22311" lon="-1.91858">
        <ele>126.50763</ele>
        <time>2017-05-16T01:10:29.000Z</time>
      </trkpt>
      <trkpt lat="52.2228" lon="-1.91858">
        <ele>126.4101</ele>
        <time>2017-05-16T01:10:35.000Z</time>
      </trkpt>
      <trkpt lat="52.22268" lon="-1.91859">
        <ele>126.42273</ele>
        <time>2017-05-16T01:10:37.000Z</time>
      </trkpt>
      <trkpt lat="52.22235" lon="-1.9186">
        <ele>126.37341</ele>
        <time>2017-05-16T01:10:44.000Z</time>
      </trkpt>
      <trkpt lat="52.22159" lon="-1.9186">
        <ele>125.90778</ele>
        <time>2017-05-16T01:10:59.000Z</time>
      </trkpt>
      <trkpt lat="52.2211" lon="-1.91861">
        <ele>125.4116</ele>
        <time>2017-05-16T01:11:09.000Z</time>
      </trkpt>
      <trkpt lat="52.22091" lon="-1.91861">
        <ele>125.10735</ele>
        <time>2017-05-16T01:11:13.000Z</time>
      </trkpt>
      <trkpt lat="52.22067" lon="-1.91862">
        <ele>124.81028</ele>
        <time>2017-05-16T01:11:18.000Z</time>
      </trkpt>
      <trkpt lat="52.22045" lon="-1.91861">
        <ele>124.5585</ele>
        <time>2017-05-16T01:11:22.000Z</time>
      </trkpt>
      <trkpt lat="52.22021" lon="-1.91859">
        <ele>124.22337</ele>
        <time>2017-05-16T01:11:27.000Z</time>
      </trkpt>
      <trkpt lat="52.22004" lon="-1.91856">
        <ele>124.12596</ele>
        <time>2017-05-16T01:11:30.000Z</time>
      </trkpt>
      <trkpt lat="52.21999" lon="-1.91855">
        <ele>124.08977</ele>
        <time>2017-05-16T01:11:31.000Z</time>
      </trkpt>
      <trkpt lat="52.21977" lon="-1.91851">
        <ele>123.91322</ele>
        <time>2017-05-16T01:11:36.000Z</time>
      </trkpt>
      <trkpt lat="52.21968" lon="-1.91849">
        <ele>123.86809</ele>
        <time>2017-05-16T01:11:37.000Z</time>
      </trkpt>
      <trkpt lat="52.21951" lon="-1.91847">
        <ele>123.74162</ele>
        <time>2017-05-16T01:11:41.000Z</time>
      </trkpt>
      <trkpt lat="52.21928" lon="-1.91844">
        <ele>123.5195</ele>
        <time>2017-05-16T01:11:46.000Z</time>
      </trkpt>
      <trkpt lat="52.21918" lon="-1.91844">
        <ele>123.42348</ele>
        <time>2017-05-16T01:11:48.000Z</time>
      </trkpt>
      <trkpt lat="52.21908" lon="-1.91844">
        <ele>123.39473</ele>
        <time>2017-05-16T01:11:50.000Z</time>
      </trkpt>
      <trkpt lat="52.21893" lon="-1.91845">
        <ele>123.35349</ele>
        <time>2017-05-16T01:11:53.000Z</time>
      </trkpt>
      <trkpt lat="52.21882" lon="-1.91846">
        <ele>123.3123</ele>
        <time>2017-05-16T01:11:55.000Z</time>
      </trkpt>
      <trkpt lat="52.21871" lon="-1.91848">
        <ele>123.26981</ele>
        <time>2017-05-16T01:11:57.000Z</time>
      </trkpt>
      <trkpt lat="52.21854" lon="-1.91851">
        <ele>123.23996</ele>
        <time>2017-05-16T01:12:00.000Z</time>
      </trkpt>
      <trkpt lat="52.21835" lon="-1.91856">
        <ele>123.11382</ele>
        <time>2017-05-16T01:12:04.000Z</time>
      </trkpt>
      <trkpt lat="52.21818" lon="-1.91861">
        <ele>123.10128</ele>
        <time>2017-05-16T01:12:08.000Z</time>
      </trkpt>
      <trkpt lat="52.21812" lon="-1.91863">
        <ele>123.10922</ele>
        <time>2017-05-16T01:12:09.000Z</time>
      </trkpt>
      <trkpt lat="52.21787" lon="-1.91872">
        <ele>123.04937</ele>
        <time>2017-05-16T01:12:14.000Z</time>
      </trkpt>
      <trkpt lat="52.21766" lon="-1.9188">
        <ele>122.99099</ele>
        <time>2017-05-16T01:12:18.000Z</time>
      </trkpt>
      <trkpt lat="52.21733" lon="-1.91896">
        <ele>123.01453</ele>
        <time>2017-05-16T01:12:25.000Z</time>
      </trkpt>
      <trkpt lat="52.21706" lon="-1.9191">
        <ele>123.07149</ele>
        <time>2017-05-16T01:12:31.000Z</time>
      </trkpt>
      <trkpt lat="52.21698" lon="-1.91914">
        <ele>123.07325</ele>
        <time>2017-05-16T01:12:33.000Z</time>
      </trkpt>
      <trkpt lat="52.21628" lon="-1.91952">
        <ele>123.56663</ele>
        <time>2017-05-16T01:12:47.000Z</time>
      </trkpt>
      <trkpt lat="52.21611" lon="-1.91961">
        <ele>123.75811</ele>
        <time>2017-05-16T01:12:51.000Z</time>
      </trkpt>
      <trkpt lat="52.21591" lon="-1.91972">
        <ele>123.85872</ele>
        <time>2017-05-16T01:12:55.000Z</time>
      </trkpt>
      <trkpt lat="52.21576" lon="-1.91981">
        <ele>124.00157</ele>
        <time>2017-05-16T01:12:58.000Z</time>
      </trkpt>
      <trkpt lat="52.21561" lon="-1.9199">
        <ele>124.05202</ele>
        <time>2017-05-16T01:13:02.000Z</time>
      </trkpt>
      <trkpt lat="52.21549" lon="-1.91998">
        <ele>124.10947</ele>
        <time>2017-05-16T01:13:04.000Z</time>
      </trkpt>
      <trkpt lat="52.21531" lon="-1.9201">
        <ele>124.23353</ele>
        <time>2017-05-16T01:13:08.000Z</time>
      </trkpt>
      <trkpt lat="52.21522" lon="-1.92017">
        <ele>124.16689</ele>
        <time>2017-05-16T01:13:10.000Z</time>
      </trkpt>
      <trkpt lat="52.21499" lon="-1.92035">
        <ele>124.01497</ele>
        <time>2017-05-16T01:13:15.000Z</time>
      </trkpt>
      <trkpt lat="52.2149" lon="-1.92042">
        <ele>123.91023</ele>
        <time>2017-05-16T01:13:17.000Z</time>
      </trkpt>
      <trkpt lat="52.2148" lon="-1.92049">
        <ele>123.76496</ele>
        <time>2017-05-16T01:13:19.000Z</time>
      </trkpt>
      <trkpt lat="52.21466" lon="-1.9206">
        <ele>123.48583</ele>
        <time>2017-05-16T01:13:23.000Z</time>
      </trkpt>
      <trkpt lat="52.21454" lon="-1.92068">
        <ele>123.0171</ele>
        <time>2017-05-16T01:13:25.000Z</time>
      </trkpt>
      <trkpt lat="52.21437" lon="-1.92076">
        <ele>122.09925</ele>
        <time>2017-05-16T01:13:29.000Z</time>
      </trkpt>
      <trkpt lat="52.21423" lon="-1.92083">
        <ele>121.25769</ele>
        <time>2017-05-16T01:13:32.000Z</time>
      </trkpt>
      <trkpt lat="52.2141" lon="-1.92088">
        <ele>120.44087</ele>
        <time>2017-05-16T01:13:34.000Z</time>
      </trkpt>
      <trkpt lat="52.21398" lon="-1.92092">
        <ele>119.72142</ele>
        <time>2017-05-16T01:13:37.000Z</time>
      </trkpt>
      <trkpt lat="52.21381" lon="-1.92096">
        <ele>119.13511</ele>
        <time>2017-05-16T01:13:40.000Z</time>
      </trkpt>
      <trkpt lat="52.21368" lon="-1.92099">
        <ele>118.97466</ele>
        <time>2017-05-16T01:13:43.000Z</time>
      </trkpt>
      <trkpt lat="52.21351" lon="-1.92101">
        <ele>118.89692</ele>
        <time>2017-05-16T01:13:46.000Z</time>
      </trkpt>
      <trkpt lat="52.21087" lon="-1.92122">
        <ele>120.42713</ele>
        <time>2017-05-16T01:14:39.000Z</time>
      </trkpt>
      <trkpt lat="52.20998" lon="-1.92119">
        <ele>121.94803</ele>
        <time>2017-05-16T01:14:57.000Z</time>
      </trkpt>
      <trkpt lat="52.20944" lon="-1.92118">
        <ele>122.74154</ele>
        <time>2017-05-16T01:15:08.000Z</time>
      </trkpt>
      <trkpt lat="52.2094" lon="-1.92118">
        <ele>122.77883</ele>
        <time>2017-05-16T01:15:09.000Z</time>
      </trkpt>
      <trkpt lat="52.20861" lon="-1.92117">
        <ele>123.49712</ele>
        <time>2017-05-16T01:15:24.000Z</time>
      </trkpt>
      <trkpt lat="52.20797" lon="-1.92117">
        <ele>123.6507</ele>
        <time>2017-05-16T01:15:37.000Z</time>
      </trkpt>
      <trkpt lat="52.20758" lon="-1.92117">
        <ele>123.49379</ele>
        <time>2017-05-16T01:15:45.000Z</time>
      </trkpt>
      <trkpt lat="52.20703" lon="-1.92116">
        <ele>123.07804</ele>
        <time>2017-05-16T01:15:56.000Z</time>
      </trkpt>
      <trkpt lat="52.20627" lon="-1.92116">
        <ele>122.31122</ele>
        <time>2017-05-16T01:16:11.000Z</time>
      </trkpt>
      <trkpt lat="52.20602" lon="-1.92113">
        <ele>122.82339</ele>
        <time>2017-05-16T01:16:16.000Z</time>
      </trkpt>
      <trkpt lat="52.20577" lon="-1.92108">
        <ele>123.25471</ele>
        <time>2017-05-16T01:16:21.000Z</time>
      </trkpt>
      <trkpt lat="52.20527" lon="-1.92091">
        <ele>123.28147</ele>
        <time>2017-05-16T01:16:32.000Z</time>
      </trkpt>
      <trkpt lat="52.20491" lon="-1.9208">
        <ele>122.20621</ele>
        <time>2017-05-16T01:16:39.000Z</time>
      </trkpt>
      <trkpt lat="52.20457" lon="-1.92072">
        <ele>120.71438</ele>
        <time>2017-05-16T01:16:46.000Z</time>
      </trkpt>
      <trkpt lat="52.20435" lon="-1.92069">
        <ele>119.95749</ele>
        <time>2017-05-16T01:16:50.000Z</time>
      </trkpt>
      <trkpt lat="52.20416" lon="-1.92068">
        <ele>119.36282</ele>
        <time>2017-05-16T01:16:54.000Z</time>
      </trkpt>
      <trkpt lat="52.20379" lon="-1.92071">
        <ele>117.39471</ele>
        <time>2017-05-16T01:17:02.000Z</time>
      </trkpt>
      <trkpt lat="52.20354" lon="-1.92074">
        <ele>116.40413</ele>
        <time>2017-05-16T01:17:07.000Z</time>
      </trkpt>
      <trkpt lat="52.20323" lon="-1.9208">
        <ele>114.04404</ele>
        <time>2017-05-16T01:17:13.000Z</time>
      </trkpt>
      <trkpt lat="52.20299" lon="-1.92087">
        <ele>113.26783</ele>
        <time>2017-05-16T01:17:18.000Z</time>
      </trkpt>
      <trkpt lat="52.20286" lon="-1.92089">
        <ele>112.79506</ele>
        <time>2017-05-16T01:17:20.000Z</time>
      </trkpt>
      <trkpt lat="52.20275" lon="-1.92089">
        <ele>112.44583</ele>
        <time>2017-05-16T01:17:23.000Z</time>
      </trkpt>
      <trkpt lat="52.20252" lon="-1.92082">
        <ele>111.47712</ele>
        <time>2017-05-16T01:17:27.000Z</time>
      </trkpt>
      <trkpt lat="52.20218" lon="-1.9207">
        <ele>111.13629</ele>
        <time>2017-05-16T01:17:34.000Z</time>
      </trkpt>
      <trkpt lat="52.20167" lon="-1.92055">
        <ele>110.1231</ele>
        <time>2017-05-16T01:17:45.000Z</time>
      </trkpt>
      <trkpt lat="52.20123" lon="-1.92043">
        <ele>109.83002</ele>
        <time>2017-05-16T01:17:53.000Z</time>
      </trkpt>
      <trkpt lat="52.20099" lon="-1.92038">
        <ele>109.54658</ele>
        <time>2017-05-16T01:17:58.000Z</time>
      </trkpt>
      <trkpt lat="52.20092" lon="-1.92037">
        <ele>109.51608</ele>
        <time>2017-05-16T01:18:00.000Z</time>
      </trkpt>
      <trkpt lat="52.2006" lon="-1.9203">
        <ele>109.31967</ele>
        <time>2017-05-16T01:18:06.000Z</time>
      </trkpt>
      <trkpt lat="52.20027" lon="-1.92018">
        <ele>108.51398</ele>
        <time>2017-05-16T01:18:13.000Z</time>
      </trkpt>
      <trkpt lat="52.1996" lon="-1.91995">
        <ele>108.26459</ele>
        <time>2017-05-16T01:18:27.000Z</time>
      </trkpt>
      <trkpt lat="52.19906" lon="-1.91977">
        <ele>108.71354</ele>
        <time>2017-05-16T01:18:38.000Z</time>
      </trkpt>
      <trkpt lat="52.19861" lon="-1.91959">
        <ele>108.70884</ele>
        <time>2017-05-16T01:18:47.000Z</time>
      </trkpt>
      <trkpt lat="52.19818" lon="-1.91934">
        <ele>109.70216</ele>
        <time>2017-05-16T01:18:56.000Z</time>
      </trkpt>
      <trkpt lat="52.19781" lon="-1.91903">
        <ele>110.99827</ele>
        <time>2017-05-16T01:19:05.000Z</time>
      </trkpt>
      <trkpt lat="52.19745" lon="-1.91867">
        <ele>113.85074</ele>
        <time>2017-05-16T01:19:13.000Z</time>
      </trkpt>
      <trkpt lat="52.19743" lon="-1.91865">
        <ele>114.05633</ele>
        <time>2017-05-16T01:19:13.453Z</time>
      </trkpt>
      <trkpt lat="52.19702" lon="-1.9182">
        <ele>114.87212</ele>
        <time>2017-05-16T01:19:23.000Z</time>
      </trkpt>
      <trkpt lat="52.19637" lon="-1.91754">
        <ele>114.9616</ele>
        <time>2017-05-16T01:19:39.000Z</time>
      </trkpt>
      <trkpt lat="52.19598" lon="-1.91702">
        <ele>111.52111</ele>
        <time>2017-05-16T01:19:49.000Z</time>
      </trkpt>
      <trkpt lat="52.19563" lon="-1.91653">
        <ele>109.95348</ele>
        <time>2017-05-16T01:19:58.000Z</time>
      </trkpt>
      <trkpt lat="52.19551" lon="-1.9164">
        <ele>109.52246</ele>
        <time>2017-05-16T01:20:01.000Z</time>
      </trkpt>
      <trkpt lat="52.19529" lon="-1.91625">
        <ele>108.67578</ele>
        <time>2017-05-16T01:20:06.000Z</time>
      </trkpt>
      <trkpt lat="52.195" lon="-1.91612">
        <ele>107.69175</ele>
        <time>2017-05-16T01:20:12.000Z</time>
      </trkpt>
      <trkpt lat="52.19463" lon="-1.91605">
        <ele>106.81879</ele>
        <time>2017-05-16T01:20:19.000Z</time>
      </trkpt>
      <trkpt lat="52.19448" lon="-1.91608">
        <ele>106.78667</ele>
        <time>2017-05-16T01:20:22.000Z</time>
      </trkpt>
      <trkpt lat="52.19433" lon="-1.91612">
        <ele>106.82789</ele>
        <time>2017-05-16T01:20:25.000Z</time>
      </trkpt>
      <trkpt lat="52.19412" lon="-1.91623">
        <ele>107.73886</ele>
        <time>2017-05-16T01:20:30.000Z</time>
      </trkpt>
      <trkpt lat="52.19387" lon="-1.91643">
        <ele>109.56297</ele>
        <time>2017-05-16T01:20:35.000Z</time>
      </trkpt>
      <trkpt lat="52.19373" lon="-1.9165">
        <ele>108.48191</ele>
        <time>2017-05-16T01:20:38.000Z</time>
      </trkpt>
      <trkpt lat="52.19356" lon="-1.91656">
        <ele>106.7203</ele>
        <time>2017-05-16T01:20:42.000Z</time>
      </trkpt>
      <trkpt lat="52.19334" lon="-1.91656">
        <ele>103.96524</ele>
        <time>2017-05-16T01:20:46.000Z</time>
      </trkpt>
      <trkpt lat="52.19305" lon="-1.91648">
        <ele>101.28704</ele>
        <time>2017-05-16T01:20:52.000Z</time>
      </trkpt>
      <trkpt lat="52.19233" lon="-1.91613">
        <ele>95.90241</ele>
        <time>2017-05-16T01:21:07.000Z</time>
      </trkpt>
      <trkpt lat="52.19158" lon="-1.91563">
        <ele>92.46671</ele>
        <time>2017-05-16T01:21:23.000Z</time>
      </trkpt>
      <trkpt lat="52.19133" lon="-1.91546">
        <ele>91.8748</ele>
        <time>2017-05-16T01:21:29.000Z</time>
      </trkpt>
      <trkpt lat="52.19118" lon="-1.9154">
        <ele>91.4207</ele>
        <time>2017-05-16T01:21:32.000Z</time>
      </trkpt>
      <trkpt lat="52.19104" lon="-1.91536">
        <ele>90.89528</ele>
        <time>2017-05-16T01:21:35.000Z</time>
      </trkpt>
      <trkpt lat="52.1906" lon="-1.91538">
        <ele>88.83223</ele>
        <time>2017-05-16T01:21:43.000Z</time>
      </trkpt>
      <trkpt lat="52.18929" lon="-1.91546">
        <ele>84.42111</ele>
        <time>2017-05-16T01:22:10.000Z</time>
      </trkpt>
      <trkpt lat="52.18805" lon="-1.91556">
        <ele>84.62985</ele>
        <time>2017-05-16T01:22:35.000Z</time>
        <name>52.188050,-1.915560</name>
        <extensions>
          <oa:locType>calcWayPoint</oa:locType>
        </extensions>
      </trkpt>
      <trkpt lat="52.18767" lon="-1.91556">
        <ele>85.80109</ele>
        <time>2017-05-16T01:22:42.000Z</time>
      </trkpt>
      <trkpt lat="52.18763" lon="-1.91554">
        <ele>85.86295</ele>
        <time>2017-05-16T01:22:43.000Z</time>
      </trkpt>
      <trkpt lat="52.18762" lon="-1.91553">
        <ele>85.87226</ele>
        <time>2017-05-16T01:22:43.229Z</time>
      </trkpt>
      <trkpt lat="52.18726" lon="-1.91474">
        <ele>84.01897</ele>
        <time>2017-05-16T01:22:55.000Z</time>
      </trkpt>
      <trkpt lat="52.18649" lon="-1.91305">
        <ele>80.41281</ele>
        <time>2017-05-16T01:23:21.000Z</time>
      </trkpt>
      <trkpt lat="52.18588" lon="-1.91167">
        <ele>79.70986</ele>
        <time>2017-05-16T01:23:42.000Z</time>
      </trkpt>
      <trkpt lat="52.18554" lon="-1.9109">
        <ele>78.37104</ele>
        <time>2017-05-16T01:23:54.000Z</time>
      </trkpt>
      <trkpt lat="52.18462" lon="-1.90884">
        <ele>79.60924</ele>
        <time>2017-05-16T01:24:25.000Z</time>
      </trkpt>
      <trkpt lat="52.18416" lon="-1.90783">
        <ele>80.37456</ele>
        <time>2017-05-16T01:24:41.000Z</time>
      </trkpt>
      <trkpt lat="52.18413" lon="-1.90775">
        <ele>80.47376</ele>
        <time>2017-05-16T01:24:42.000Z</time>
      </trkpt>
      <trkpt lat="52.18293" lon="-1.90496">
        <ele>74.60826</ele>
        <time>2017-05-16T01:25:24.000Z</time>
      </trkpt>
      <trkpt lat="52.18256" lon="-1.90409">
        <ele>73.06574</ele>
        <time>2017-05-16T01:25:37.000Z</time>
      </trkpt>
      <trkpt lat="52.18235" lon="-1.90357">
        <ele>72.50333</ele>
        <time>2017-05-16T01:25:44.000Z</time>
      </trkpt>
      <trkpt lat="52.18209" lon="-1.90293">
        <ele>72.54092</ele>
        <time>2017-05-16T01:25:54.000Z</time>
      </trkpt>
      <trkpt lat="52.18201" lon="-1.90273">
        <ele>72.64196</ele>
        <time>2017-05-16T01:25:57.000Z</time>
      </trkpt>
      <trkpt lat="52.18195" lon="-1.90255">
        <ele>72.77259</ele>
        <time>2017-05-16T01:25:59.000Z</time>
      </trkpt>
      <trkpt lat="52.18191" lon="-1.90235">
        <ele>72.83329</ele>
        <time>2017-05-16T01:26:02.000Z</time>
      </trkpt>
      <trkpt lat="52.18187" lon="-1.90219">
        <ele>72.97842</ele>
        <time>2017-05-16T01:26:04.000Z</time>
      </trkpt>
      <trkpt lat="52.18178" lon="-1.90196">
        <ele>73.26349</ele>
        <time>2017-05-16T01:26:07.000Z</time>
      </trkpt>
      <trkpt lat="52.18158" lon="-1.90159">
        <ele>74.42191</ele>
        <time>2017-05-16T01:26:13.000Z</time>
      </trkpt>
      <trkpt lat="52.18145" lon="-1.90136">
        <ele>74.65448</ele>
        <time>2017-05-16T01:26:17.000Z</time>
      </trkpt>
      <trkpt lat="52.18121" lon="-1.90074">
        <ele>74.78979</ele>
        <time>2017-05-16T01:26:26.000Z</time>
      </trkpt>
      <trkpt lat="52.18099" lon="-1.9001">
        <ele>74.40438</ele>
        <time>2017-05-16T01:26:35.000Z</time>
      </trkpt>
      <trkpt lat="52.18077" lon="-1.8994">
        <ele>73.57082</ele>
        <time>2017-05-16T01:26:45.000Z</time>
      </trkpt>
      <trkpt lat="52.18053" lon="-1.89873">
        <ele>72.1387</ele>
        <time>2017-05-16T01:26:54.000Z</time>
      </trkpt>
      <trkpt lat="52.18037" lon="-1.89827">
        <ele>70.86705</ele>
        <time>2017-05-16T01:27:01.000Z</time>
      </trkpt>
      <trkpt lat="52.18029" lon="-1.89794">
        <ele>69.79167</ele>
        <time>2017-05-16T01:27:05.000Z</time>
      </trkpt>
      <trkpt lat="52.18017" lon="-1.89706">
        <ele>68.19929</ele>
        <time>2017-05-16T01:27:16.000Z</time>
      </trkpt>
      <trkpt lat="52.18015" lon="-1.89687">
        <ele>67.52917</ele>
        <time>2017-05-16T01:27:19.000Z</time>
      </trkpt>
      <trkpt lat="52.18013" lon="-1.89668">
        <ele>66.60254</ele>
        <time>2017-05-16T01:27:21.000Z</time>
      </trkpt>
      <trkpt lat="52.18007" lon="-1.89637">
        <ele>65.58797</ele>
        <time>2017-05-16T01:27:25.000Z</time>
      </trkpt>
      <trkpt lat="52.18005" lon="-1.89626">
        <ele>65.04889</ele>
        <time>2017-05-16T01:27:26.000Z</time>
      </trkpt>
      <trkpt lat="52.18002" lon="-1.89616">
        <ele>64.67876</ele>
        <time>2017-05-16T01:27:28.000Z</time>
      </trkpt>
      <trkpt lat="52.17999" lon="-1.89608">
        <ele>64.57053</ele>
        <time>2017-05-16T01:27:29.000Z</time>
      </trkpt>
      <trkpt lat="52.17985" lon="-1.89568">
        <ele>62.56942</ele>
        <time>2017-05-16T01:27:35.000Z</time>
      </trkpt>
      <trkpt lat="52.17971" lon="-1.89539">
        <ele>61.16808</ele>
        <time>2017-05-16T01:27:39.000Z</time>
      </trkpt>
      <trkpt lat="52.17957" lon="-1.89512">
        <ele>59.69442</ele>
        <time>2017-05-16T01:27:43.000Z</time>
      </trkpt>
      <trkpt lat="52.17945" lon="-1.89484">
        <ele>58.31739</ele>
        <time>2017-05-16T01:27:48.000Z</time>
      </trkpt>
      <trkpt lat="52.17936" lon="-1.89448">
        <ele>56.79354</ele>
        <time>2017-05-16T01:27:52.000Z</time>
      </trkpt>
      <trkpt lat="52.17935" lon="-1.89443">
        <ele>56.64767</ele>
        <time>2017-05-16T01:27:53.000Z</time>
      </trkpt>
      <trkpt lat="52.17928" lon="-1.89404">
        <ele>54.97763</ele>
        <time>2017-05-16T01:27:58.000Z</time>
      </trkpt>
      <trkpt lat="52.17922" lon="-1.89357">
        <ele>52.46283</ele>
        <time>2017-05-16T01:28:04.000Z</time>
      </trkpt>
      <trkpt lat="52.17916" lon="-1.8931">
        <ele>50.5212</ele>
        <time>2017-05-16T01:28:10.000Z</time>
      </trkpt>
      <trkpt lat="52.1791" lon="-1.89273">
        <ele>49.05843</ele>
        <time>2017-05-16T01:28:15.000Z</time>
      </trkpt>
      <trkpt lat="52.17901" lon="-1.89239">
        <ele>47.84378</ele>
        <time>2017-05-16T01:28:19.000Z</time>
      </trkpt>
      <trkpt lat="52.17888" lon="-1.89202">
        <ele>46.68453</ele>
        <time>2017-05-16T01:28:24.000Z</time>
      </trkpt>
      <trkpt lat="52.17879" lon="-1.89163">
        <ele>45.81041</ele>
        <time>2017-05-16T01:28:29.000Z</time>
      </trkpt>
      <trkpt lat="52.17874" lon="-1.89134">
        <ele>45.2105</ele>
        <time>2017-05-16T01:28:33.000Z</time>
      </trkpt>
      <trkpt lat="52.17871" lon="-1.89098">
        <ele>44.61748</ele>
        <time>2017-05-16T01:28:38.000Z</time>
      </trkpt>
      <trkpt lat="52.1787" lon="-1.89064">
        <ele>43.88796</ele>
        <time>2017-05-16T01:28:42.000Z</time>
      </trkpt>
      <trkpt lat="52.17867" lon="-1.89045">
        <ele>43.31222</ele>
        <time>2017-05-16T01:28:44.000Z</time>
      </trkpt>
      <trkpt lat="52.17865" lon="-1.89029">
        <ele>42.83792</ele>
        <time>2017-05-16T01:28:46.000Z</time>
      </trkpt>
      <trkpt lat="52.1786" lon="-1.89011">
        <ele>42.18189</ele>
        <time>2017-05-16T01:28:49.000Z</time>
      </trkpt>
      <trkpt lat="52.17851" lon="-1.88992">
        <ele>41.49291</ele>
        <time>2017-05-16T01:28:52.000Z</time>
      </trkpt>
      <trkpt lat="52.1783" lon="-1.88957">
        <ele>40.2764</ele>
        <time>2017-05-16T01:28:58.000Z</time>
      </trkpt>
      <trkpt lat="52.17787" lon="-1.88888">
        <ele>38.33486</ele>
        <time>2017-05-16T01:29:10.000Z</time>
      </trkpt>
      <trkpt lat="52.17762" lon="-1.8885">
        <ele>37.64523</ele>
        <time>2017-05-16T01:29:17.000Z</time>
      </trkpt>
      <trkpt lat="52.17745" lon="-1.88822">
        <ele>37.36496</ele>
        <time>2017-05-16T01:29:21.000Z</time>
      </trkpt>
      <trkpt lat="52.17737" lon="-1.88809">
        <ele>37.29785</ele>
        <time>2017-05-16T01:29:24.000Z</time>
      </trkpt>
      <trkpt lat="52.17732" lon="-1.88792">
        <ele>37.22816</ele>
        <time>2017-05-16T01:29:26.000Z</time>
      </trkpt>
      <trkpt lat="52.17728" lon="-1.88776">
        <ele>37.15336</ele>
        <time>2017-05-16T01:29:28.000Z</time>
      </trkpt>
      <trkpt lat="52.1773" lon="-1.88755">
        <ele>37.1115</ele>
        <time>2017-05-16T01:29:31.000Z</time>
        <name>52.177300,-1.887550</name>
        <extensions>
          <oa:locType>calcWayPoint</oa:locType>
        </extensions>
      </trkpt>
      <trkpt lat="52.17737" lon="-1.88719">
        <ele>36.89936</ele>
        <time>2017-05-16T01:29:35.000Z</time>
      </trkpt>
      <trkpt lat="52.17751" lon="-1.88658">
        <ele>36.92483</ele>
        <time>2017-05-16T01:29:43.000Z</time>
      </trkpt>
      <trkpt lat="52.17767" lon="-1.88579">
        <ele>37.11054</ele>
        <time>2017-05-16T01:29:54.000Z</time>
      </trkpt>
      <trkpt lat="52.17785" lon="-1.8851">
        <ele>37.04876</ele>
        <time>2017-05-16T01:30:03.000Z</time>
      </trkpt>
      <trkpt lat="52.17815" lon="-1.88411">
        <ele>37.06309</ele>
        <time>2017-05-16T01:30:16.000Z</time>
      </trkpt>
      <trkpt lat="52.1783" lon="-1.88356">
        <ele>37.06968</ele>
        <time>2017-05-16T01:30:24.000Z</time>
      </trkpt>
      <trkpt lat="52.1784" lon="-1.88309">
        <ele>37.11286</ele>
        <time>2017-05-16T01:30:30.000Z</time>
      </trkpt>
      <trkpt lat="52.17847" lon="-1.88255">
        <ele>37.42649</ele>
        <time>2017-05-16T01:30:37.000Z</time>
      </trkpt>
      <trkpt lat="52.17851" lon="-1.88199">
        <ele>38.16572</ele>
        <time>2017-05-16T01:30:44.000Z</time>
      </trkpt>
      <trkpt lat="52.17852" lon="-1.88156">
        <ele>39.05581</ele>
        <time>2017-05-16T01:30:49.000Z</time>
      </trkpt>
      <trkpt lat="52.1785" lon="-1.88109">
        <ele>40.62112</ele>
        <time>2017-05-16T01:30:55.000Z</time>
      </trkpt>
      <trkpt lat="52.17848" lon="-1.88076">
        <ele>41.67889</ele>
        <time>2017-05-16T01:30:59.000Z</time>
      </trkpt>
      <trkpt lat="52.17839" lon="-1.88015">
        <ele>41.36224</ele>
        <time>2017-05-16T01:31:06.000Z</time>
      </trkpt>
      <trkpt lat="52.17835" lon="-1.87986">
        <ele>36.04454</ele>
        <time>2017-05-16T01:31:10.000Z</time>
      </trkpt>
      <trkpt lat="52.17833" lon="-1.87969">
        <ele>35.82056</ele>
        <time>2017-05-16T01:31:12.000Z</time>
      </trkpt>
      <trkpt lat="52.1783" lon="-1.87952">
        <ele>38.38515</ele>
        <time>2017-05-16T01:31:14.000Z</time>
      </trkpt>
      <trkpt lat="52.17825" lon="-1.8791">
        <ele>42.33686</ele>
        <time>2017-05-16T01:31:20.000Z</time>
      </trkpt>
      <trkpt lat="52.1782" lon="-1.87862">
        <ele>40.8377</ele>
        <time>2017-05-16T01:31:26.000Z</time>
      </trkpt>
      <trkpt lat="52.17817" lon="-1.87806">
        <ele>38.75573</ele>
        <time>2017-05-16T01:31:33.000Z</time>
      </trkpt>
      <trkpt lat="52.17816" lon="-1.87739">
        <ele>36.36283</ele>
        <time>2017-05-16T01:31:41.000Z</time>
      </trkpt>
      <trkpt lat="52.17818" lon="-1.87653">
        <ele>33.43661</ele>
        <time>2017-05-16T01:31:51.000Z</time>
      </trkpt>
      <trkpt lat="52.17818" lon="-1.87569">
        <ele>32.3826</ele>
        <time>2017-05-16T01:32:02.000Z</time>
      </trkpt>
      <trkpt lat="52.17817" lon="-1.87475">
        <ele>32.44544</ele>
        <time>2017-05-16T01:32:13.000Z</time>
      </trkpt>
      <trkpt lat="52.17814" lon="-1.87358">
        <ele>31.97605</ele>
        <time>2017-05-16T01:32:28.000Z</time>
      </trkpt>
      <trkpt lat="52.17813" lon="-1.87264">
        <ele>33.64523</ele>
        <time>2017-05-16T01:32:39.000Z</time>
      </trkpt>
      <trkpt lat="52.17814" lon="-1.87207">
        <ele>35.28129</ele>
        <time>2017-05-16T01:32:46.000Z</time>
      </trkpt>
      <trkpt lat="52.17815" lon="-1.87161">
        <ele>35.69789</ele>
        <time>2017-05-16T01:32:52.000Z</time>
      </trkpt>
      <trkpt lat="52.17815" lon="-1.87098">
        <ele>35.96951</ele>
        <time>2017-05-16T01:33:00.000Z</time>
      </trkpt>
      <trkpt lat="52.17815" lon="-1.87036">
        <ele>35.9909</ele>
        <time>2017-05-16T01:33:07.000Z</time>
      </trkpt>
      <trkpt lat="52.17815" lon="-1.86944">
        <ele>36.10771</ele>
        <time>2017-05-16T01:33:18.000Z</time>
      </trkpt>
      <trkpt lat="52.17815" lon="-1.86879">
        <ele>36.03903</ele>
        <time>2017-05-16T01:33:26.000Z</time>
      </trkpt>
      <trkpt lat="52.17815" lon="-1.86816">
        <ele>36.18214</ele>
        <time>2017-05-16T01:33:34.000Z</time>
      </trkpt>
      <trkpt lat="52.17811" lon="-1.86698">
        <ele>36.22535</ele>
        <time>2017-05-16T01:33:49.000Z</time>
      </trkpt>
      <trkpt lat="52.17809" lon="-1.86632">
        <ele>36.43793</ele>
        <time>2017-05-16T01:33:57.000Z</time>
      </trkpt>
      <trkpt lat="52.17857" lon="-1.86619">
        <ele>36.40148</ele>
        <time>2017-05-16T01:34:07.000Z</time>
      </trkpt>
      <trkpt lat="52.17877" lon="-1.86613">
        <ele>36.4032</ele>
        <time>2017-05-16T01:34:11.000Z</time>
      </trkpt>
      <trkpt lat="52.17895" lon="-1.86605">
        <ele>36.3517</ele>
        <time>2017-05-16T01:34:14.000Z</time>
      </trkpt>
      <trkpt lat="52.17897" lon="-1.86587">
        <ele>36.31097</ele>
        <time>2017-05-16T01:34:17.000Z</time>
      </trkpt>
      <trkpt lat="52.179" lon="-1.86562">
        <ele>36.41949</ele>
        <time>2017-05-16T01:34:20.000Z</time>
      </trkpt>
      <trkpt lat="52.17916" lon="-1.86434">
        <ele>36.69369</ele>
        <time>2017-05-16T01:34:36.000Z</time>
      </trkpt>
      <trkpt lat="52.17938" lon="-1.86283">
        <ele>37.26932</ele>
        <time>2017-05-16T01:34:55.000Z</time>
      </trkpt>
      <trkpt lat="52.17952" lon="-1.86205">
        <ele>37.4645</ele>
        <time>2017-05-16T01:35:05.000Z</time>
      </trkpt>
      <trkpt lat="52.1795" lon="-1.86174">
        <ele>37.75675</ele>
        <time>2017-05-16T01:35:09.000Z</time>
      </trkpt>
      <trkpt lat="52.17935" lon="-1.86153">
        <ele>37.92261</ele>
        <time>2017-05-16T01:35:13.000Z</time>
      </trkpt>
      <trkpt lat="52.17879" lon="-1.86071">
        <ele>38.79455</ele>
        <time>2017-05-16T01:35:28.000Z</time>
      </trkpt>
      <trkpt lat="52.17834" lon="-1.86008">
        <ele>39.86933</ele>
        <time>2017-05-16T01:35:40.000Z</time>
      </trkpt>
      <trkpt lat="52.17808" lon="-1.85976">
        <ele>40.57182</ele>
        <time>2017-05-16T01:35:46.000Z</time>
      </trkpt>
      <trkpt lat="52.17791" lon="-1.85957">
        <ele>41.03148</ele>
        <time>2017-05-16T01:35:50.000Z</time>
      </trkpt>
      <trkpt lat="52.17801" lon="-1.8592">
        <ele>41.73566</ele>
        <time>2017-05-16T01:35:55.000Z</time>
      </trkpt>
      <trkpt lat="52.17833" lon="-1.85797">
        <ele>44.71713</ele>
        <time>2017-05-16T01:36:12.000Z</time>
      </trkpt>
      <trkpt lat="52.17842" lon="-1.85757">
        <ele>46.32644</ele>
        <time>2017-05-16T01:36:17.000Z</time>
      </trkpt>
      <trkpt lat="52.17847" lon="-1.85737">
        <ele>47.21431</ele>
        <time>2017-05-16T01:36:20.000Z</time>
      </trkpt>
      <trkpt lat="52.17866" lon="-1.85673">
        <ele>48.89118</ele>
        <time>2017-05-16T01:36:28.000Z</time>
      </trkpt>
      <trkpt lat="52.1787" lon="-1.85661">
        <ele>49.21634</ele>
        <time>2017-05-16T01:36:30.000Z</time>
      </trkpt>
      <trkpt lat="52.179" lon="-1.85581">
        <ele>51.06361</ele>
        <time>2017-05-16T01:36:42.000Z</time>
      </trkpt>
      <trkpt lat="52.17908" lon="-1.85548">
        <ele>51.38909</ele>
        <time>2017-05-16T01:36:46.000Z</time>
      </trkpt>
      <trkpt lat="52.17912" lon="-1.85531">
        <ele>51.49378</ele>
        <time>2017-05-16T01:36:48.000Z</time>
      </trkpt>
      <trkpt lat="52.17916" lon="-1.85502">
        <ele>51.74884</ele>
        <time>2017-05-16T01:36:52.000Z</time>
      </trkpt>
      <trkpt lat="52.1792" lon="-1.85484">
        <ele>51.79673</ele>
        <time>2017-05-16T01:36:54.000Z</time>
      </trkpt>
      <trkpt lat="52.17938" lon="-1.8542">
        <ele>52.06138</ele>
        <time>2017-05-16T01:37:03.000Z</time>
      </trkpt>
      <trkpt lat="52.17953" lon="-1.85363">
        <ele>52.31838</ele>
        <time>2017-05-16T01:37:10.000Z</time>
      </trkpt>
      <trkpt lat="52.1797" lon="-1.8529">
        <ele>52.31679</ele>
        <time>2017-05-16T01:37:20.000Z</time>
      </trkpt>
      <trkpt lat="52.17995" lon="-1.85172">
        <ele>52.04823</ele>
        <time>2017-05-16T01:37:35.000Z</time>
      </trkpt>
      <trkpt lat="52.18015" lon="-1.85077">
        <ele>51.32698</ele>
        <time>2017-05-16T01:37:48.000Z</time>
      </trkpt>
      <trkpt lat="52.18037" lon="-1.84995">
        <ele>50.36762</ele>
        <time>2017-05-16T01:37:59.000Z</time>
      </trkpt>
      <trkpt lat="52.18047" lon="-1.84948">
        <ele>49.57964</ele>
        <time>2017-05-16T01:38:05.000Z</time>
      </trkpt>
      <trkpt lat="52.18052" lon="-1.84907">
        <ele>48.89967</ele>
        <time>2017-05-16T01:38:10.000Z</time>
      </trkpt>
      <trkpt lat="52.18056" lon="-1.84861">
        <ele>48.26978</ele>
        <time>2017-05-16T01:38:16.000Z</time>
      </trkpt>
      <trkpt lat="52.18059" lon="-1.84843">
        <ele>48.10724</ele>
        <time>2017-05-16T01:38:18.000Z</time>
      </trkpt>
      <trkpt lat="52.18081" lon="-1.84755">
        <ele>47.07073</ele>
        <time>2017-05-16T01:38:30.000Z</time>
      </trkpt>
      <trkpt lat="52.18094" lon="-1.84701">
        <ele>46.38289</ele>
        <time>2017-05-16T01:38:37.000Z</time>
      </trkpt>
      <trkpt lat="52.18103" lon="-1.84643">
        <ele>45.77992</ele>
        <time>2017-05-16T01:38:44.000Z</time>
      </trkpt>
      <trkpt lat="52.18105" lon="-1.84633">
        <ele>45.74445</ele>
        <time>2017-05-16T01:38:45.000Z</time>
      </trkpt>
      <trkpt lat="52.18116" lon="-1.84572">
        <ele>45.73773</ele>
        <time>2017-05-16T01:38:53.000Z</time>
      </trkpt>
      <trkpt lat="52.18116" lon="-1.84571">
        <ele>45.75619</ele>
        <time>2017-05-16T01:38:53.124Z</time>
      </trkpt>
      <trkpt lat="52.18128" lon="-1.84519">
        <ele>47.45496</ele>
        <time>2017-05-16T01:39:00.000Z</time>
      </trkpt>
      <trkpt lat="52.18154" lon="-1.84421">
        <ele>54.18738</ele>
        <time>2017-05-16T01:39:13.000Z</time>
      </trkpt>
      <trkpt lat="52.18167" lon="-1.84384">
        <ele>57.61439</ele>
        <time>2017-05-16T01:39:18.000Z</time>
      </trkpt>
      <trkpt lat="52.18176" lon="-1.84364">
        <ele>58.66934</ele>
        <time>2017-05-16T01:39:22.000Z</time>
      </trkpt>
      <trkpt lat="52.18228" lon="-1.8427">
        <ele>58.66906</ele>
        <time>2017-05-16T01:39:37.000Z</time>
      </trkpt>
      <trkpt lat="52.1825" lon="-1.8423">
        <ele>59.17994</ele>
        <time>2017-05-16T01:39:44.000Z</time>
      </trkpt>
      <trkpt lat="52.18266" lon="-1.84193">
        <ele>59.57773</ele>
        <time>2017-05-16T01:39:49.000Z</time>
      </trkpt>
      <trkpt lat="52.18278" lon="-1.8417">
        <ele>59.99633</ele>
        <time>2017-05-16T01:39:53.000Z</time>
      </trkpt>
      <trkpt lat="52.18325" lon="-1.84109">
        <ele>61.54741</ele>
        <time>2017-05-16T01:40:05.000Z</time>
      </trkpt>
      <trkpt lat="52.18361" lon="-1.84064">
        <ele>63.06093</ele>
        <time>2017-05-16T01:40:14.000Z</time>
      </trkpt>
      <trkpt lat="52.18397" lon="-1.84026">
        <ele>65.57657</ele>
        <time>2017-05-16T01:40:23.000Z</time>
      </trkpt>
      <trkpt lat="52.18392" lon="-1.83993">
        <ele>66.10737</ele>
        <time>2017-05-16T01:40:27.000Z</time>
      </trkpt>
      <trkpt lat="52.18373" lon="-1.83853">
        <ele>68.98845</ele>
        <time>2017-05-16T01:40:44.000Z</time>
      </trkpt>
      <trkpt lat="52.18348" lon="-1.83681">
        <ele>71.99435</ele>
        <time>2017-05-16T01:41:06.000Z</time>
      </trkpt>
      <trkpt lat="52.18338" lon="-1.83642">
        <ele>72.23422</ele>
        <time>2017-05-16T01:41:11.000Z</time>
      </trkpt>
      <trkpt lat="52.18337" lon="-1.83639">
        <ele>72.21199</ele>
        <time>2017-05-16T01:41:12.000Z</time>
      </trkpt>
      <trkpt lat="52.18299" lon="-1.83545">
        <ele>71.93964</ele>
        <time>2017-05-16T01:41:26.000Z</time>
      </trkpt>
      <trkpt lat="52.18274" lon="-1.83486">
        <ele>71.52864</ele>
        <time>2017-05-16T01:41:34.000Z</time>
      </trkpt>
      <trkpt lat="52.18259" lon="-1.83452">
        <ele>71.20708</ele>
        <time>2017-05-16T01:41:40.000Z</time>
      </trkpt>
      <trkpt lat="52.18248" lon="-1.83421">
        <ele>70.92384</ele>
        <time>2017-05-16T01:41:44.000Z</time>
      </trkpt>
      <trkpt lat="52.18235" lon="-1.83385">
        <ele>70.54818</ele>
        <time>2017-05-16T01:41:49.000Z</time>
      </trkpt>
      <trkpt lat="52.18212" lon="-1.8331">
        <ele>69.81839</ele>
        <time>2017-05-16T01:41:59.000Z</time>
      </trkpt>
      <trkpt lat="52.18207" lon="-1.83291">
        <ele>69.77599</ele>
        <time>2017-05-16T01:42:02.000Z</time>
      </trkpt>
      <trkpt lat="52.18154" lon="-1.83093">
        <ele>66.83163</ele>
        <time>2017-05-16T01:42:29.000Z</time>
      </trkpt>
      <trkpt lat="52.18139" lon="-1.83027">
        <ele>66.19761</ele>
        <time>2017-05-16T01:42:37.000Z</time>
      </trkpt>
      <trkpt lat="52.18133" lon="-1.82982">
        <ele>66.25073</ele>
        <time>2017-05-16T01:42:43.000Z</time>
      </trkpt>
      <trkpt lat="52.18132" lon="-1.82976">
        <ele>66.26323</ele>
        <time>2017-05-16T01:42:44.000Z</time>
      </trkpt>
      <trkpt lat="52.1813" lon="-1.82945">
        <ele>66.65061</ele>
        <time>2017-05-16T01:42:47.000Z</time>
      </trkpt>
      <trkpt lat="52.18123" lon="-1.82863">
        <ele>68.93558</ele>
        <time>2017-05-16T01:42:58.000Z</time>
      </trkpt>
      <trkpt lat="52.18113" lon="-1.82749">
        <ele>70.34304</ele>
        <time>2017-05-16T01:43:12.000Z</time>
      </trkpt>
      <trkpt lat="52.18106" lon="-1.82701">
        <ele>69.89007</ele>
        <time>2017-05-16T01:43:18.000Z</time>
      </trkpt>
      <trkpt lat="52.18096" lon="-1.82658">
        <ele>68.87926</ele>
        <time>2017-05-16T01:43:23.000Z</time>
      </trkpt>
      <trkpt lat="52.18054" lon="-1.82488">
        <ele>63.70217</ele>
        <time>2017-05-16T01:43:46.000Z</time>
      </trkpt>
      <trkpt lat="52.18025" lon="-1.82357">
        <ele>59.65665</ele>
        <time>2017-05-16T01:44:03.000Z</time>
      </trkpt>
      <trkpt lat="52.18013" lon="-1.8231">
        <ele>57.96402</ele>
        <time>2017-05-16T01:44:09.000Z</time>
      </trkpt>
      <trkpt lat="52.18006" lon="-1.82285">
        <ele>57.02501</ele>
        <time>2017-05-16T01:44:13.000Z</time>
      </trkpt>
      <trkpt lat="52.17995" lon="-1.82253">
        <ele>56.36546</ele>
        <time>2017-05-16T01:44:17.000Z</time>
      </trkpt>
      <trkpt lat="52.1798" lon="-1.8222">
        <ele>55.60374</ele>
        <time>2017-05-16T01:44:22.000Z</time>
      </trkpt>
      <trkpt lat="52.17955" lon="-1.82184">
        <ele>54.40341</ele>
        <time>2017-05-16T01:44:29.000Z</time>
      </trkpt>
      <trkpt lat="52.17912" lon="-1.82145">
        <ele>53.083</ele>
        <time>2017-05-16T01:44:39.000Z</time>
      </trkpt>
      <trkpt lat="52.17873" lon="-1.82105">
        <ele>52.28265</ele>
        <time>2017-05-16T01:44:48.000Z</time>
      </trkpt>
      <trkpt lat="52.17802" lon="-1.82036">
        <ele>50.32673</ele>
        <time>2017-05-16T01:45:05.000Z</time>
      </trkpt>
      <trkpt lat="52.17772" lon="-1.82">
        <ele>49.42457</ele>
        <time>2017-05-16T01:45:12.000Z</time>
      </trkpt>
      <trkpt lat="52.17743" lon="-1.81954">
        <ele>48.62494</ele>
        <time>2017-05-16T01:45:20.000Z</time>
      </trkpt>
      <trkpt lat="52.17696" lon="-1.81866">
        <ele>47.8463</ele>
        <time>2017-05-16T01:45:35.000Z</time>
      </trkpt>
      <trkpt lat="52.17706" lon="-1.81851">
        <ele>47.90942</ele>
        <time>2017-05-16T01:45:37.000Z</time>
      </trkpt>
      <trkpt lat="52.17712" lon="-1.81841">
        <ele>47.98497</ele>
        <time>2017-05-16T01:45:39.000Z</time>
      </trkpt>
      <trkpt lat="52.17716" lon="-1.81832">
        <ele>48.005</ele>
        <time>2017-05-16T01:45:40.000Z</time>
      </trkpt>
      <trkpt lat="52.17721" lon="-1.81819">
        <ele>48.10598</ele>
        <time>2017-05-16T01:45:42.000Z</time>
      </trkpt>
      <trkpt lat="52.17726" lon="-1.81805">
        <ele>48.18733</ele>
        <time>2017-05-16T01:45:44.000Z</time>
      </trkpt>
      <trkpt lat="52.17729" lon="-1.81793">
        <ele>48.33139</ele>
        <time>2017-05-16T01:45:46.000Z</time>
      </trkpt>
      <trkpt lat="52.17732" lon="-1.81779">
        <ele>48.40522</ele>
        <time>2017-05-16T01:45:48.000Z</time>
      </trkpt>
      <trkpt lat="52.17733" lon="-1.81768">
        <ele>48.38446</ele>
        <time>2017-05-16T01:45:49.000Z</time>
      </trkpt>
      <trkpt lat="52.17735" lon="-1.81757">
        <ele>48.42864</ele>
        <time>2017-05-16T01:45:50.000Z</time>
      </trkpt>
      <trkpt lat="52.17736" lon="-1.81744">
        <ele>48.44894</ele>
        <time>2017-05-16T01:45:52.000Z</time>
      </trkpt>
      <trkpt lat="52.17736" lon="-1.81729">
        <ele>48.45703</ele>
        <time>2017-05-16T01:45:54.000Z</time>
      </trkpt>
      <trkpt lat="52.17736" lon="-1.81714">
        <ele>48.46686</ele>
        <time>2017-05-16T01:45:56.000Z</time>
      </trkpt>
      <trkpt lat="52.17735" lon="-1.81698">
        <ele>48.46876</ele>
        <time>2017-05-16T01:45:58.000Z</time>
      </trkpt>
      <trkpt lat="52.17731" lon="-1.81662">
        <ele>48.1818</ele>
        <time>2017-05-16T01:46:02.000Z</time>
      </trkpt>
      <trkpt lat="52.17728" lon="-1.81637">
        <ele>48.11167</ele>
        <time>2017-05-16T01:46:05.000Z</time>
      </trkpt>
      <trkpt lat="52.17722" lon="-1.81603">
        <ele>48.00029</ele>
        <time>2017-05-16T01:46:10.000Z</time>
      </trkpt>
      <trkpt lat="52.17715" lon="-1.81565">
        <ele>47.84652</ele>
        <time>2017-05-16T01:46:15.000Z</time>
      </trkpt>
      <trkpt lat="52.17709" lon="-1.81526">
        <ele>47.83773</ele>
        <time>2017-05-16T01:46:19.000Z</time>
      </trkpt>
      <trkpt lat="52.17699" lon="-1.81468">
        <ele>47.92157</ele>
        <time>2017-05-16T01:46:27.000Z</time>
      </trkpt>
      <trkpt lat="52.17694" lon="-1.81428">
        <ele>47.92597</ele>
        <time>2017-05-16T01:46:32.000Z</time>
      </trkpt>
      <trkpt lat="52.1769" lon="-1.81401">
        <ele>48.04187</ele>
        <time>2017-05-16T01:46:35.000Z</time>
      </trkpt>
      <trkpt lat="52.17685" lon="-1.81357">
        <ele>48.18055</ele>
        <time>2017-05-16T01:46:41.000Z</time>
      </trkpt>
      <trkpt lat="52.17681" lon="-1.8131">
        <ele>48.3994</ele>
        <time>2017-05-16T01:46:47.000Z</time>
      </trkpt>
      <trkpt lat="52.17675" lon="-1.81232">
        <ele>48.57882</ele>
        <time>2017-05-16T01:46:56.000Z</time>
      </trkpt>
      <trkpt lat="52.17673" lon="-1.81198">
        <ele>48.69042</ele>
        <time>2017-05-16T01:47:00.000Z</time>
      </trkpt>
      <trkpt lat="52.1767" lon="-1.81155">
        <ele>48.84232</ele>
        <time>2017-05-16T01:47:06.000Z</time>
      </trkpt>
      <trkpt lat="52.17668" lon="-1.81112">
        <ele>48.88502</ele>
        <time>2017-05-16T01:47:11.000Z</time>
      </trkpt>
      <trkpt lat="52.17665" lon="-1.81075">
        <ele>48.84513</ele>
        <time>2017-05-16T01:47:16.000Z</time>
      </trkpt>
      <trkpt lat="52.17665" lon="-1.81045">
        <ele>48.83867</ele>
        <time>2017-05-16T01:47:19.000Z</time>
      </trkpt>
      <trkpt lat="52.17664" lon="-1.8101">
        <ele>48.50656</ele>
        <time>2017-05-16T01:47:24.000Z</time>
      </trkpt>
      <trkpt lat="52.17664" lon="-1.80974">
        <ele>48.2511</ele>
        <time>2017-05-16T01:47:28.000Z</time>
      </trkpt>
      <trkpt lat="52.17665" lon="-1.80923">
        <ele>47.4047</ele>
        <time>2017-05-16T01:47:34.000Z</time>
      </trkpt>
      <trkpt lat="52.17666" lon="-1.80839">
        <ele>46.55067</ele>
        <time>2017-05-16T01:47:45.000Z</time>
      </trkpt>
      <trkpt lat="52.17668" lon="-1.80787">
        <ele>46.03395</ele>
        <time>2017-05-16T01:47:51.000Z</time>
      </trkpt>
      <trkpt lat="52.17669" lon="-1.80728">
        <ele>45.62524</ele>
        <time>2017-05-16T01:47:58.000Z</time>
      </trkpt>
      <trkpt lat="52.1767" lon="-1.80662">
        <ele>45.13211</ele>
        <time>2017-05-16T01:48:06.000Z</time>
      </trkpt>
      <trkpt lat="52.1767" lon="-1.80648">
        <ele>45.04665</ele>
        <time>2017-05-16T01:48:08.000Z</time>
      </trkpt>
      <trkpt lat="52.1767" lon="-1.80642">
        <ele>45.011</ele>
        <time>2017-05-16T01:48:09.000Z</time>
      </trkpt>
      <trkpt lat="52.17671" lon="-1.80625">
        <ele>44.90711</ele>
        <time>2017-05-16T01:48:11.000Z</time>
      </trkpt>
      <trkpt lat="52.17672" lon="-1.80583">
        <ele>44.72842</ele>
        <time>2017-05-16T01:48:16.000Z</time>
      </trkpt>
      <trkpt lat="52.17673" lon="-1.80541">
        <ele>44.76775</ele>
        <time>2017-05-16T01:48:21.000Z</time>
      </trkpt>
      <trkpt lat="52.17673" lon="-1.80487">
        <ele>44.87582</ele>
        <time>2017-05-16T01:48:28.000Z</time>
      </trkpt>
      <trkpt lat="52.17672" lon="-1.80458">
        <ele>45.12571</ele>
        <time>2017-05-16T01:48:32.000Z</time>
      </trkpt>
      <trkpt lat="52.17671" lon="-1.80434">
        <ele>45.33013</ele>
        <time>2017-05-16T01:48:34.000Z</time>
      </trkpt>
      <trkpt lat="52.1767" lon="-1.80398">
        <ele>45.65674</ele>
        <time>2017-05-16T01:48:39.000Z</time>
      </trkpt>
      <trkpt lat="52.17667" lon="-1.80352">
        <ele>45.82965</ele>
        <time>2017-05-16T01:48:45.000Z</time>
      </trkpt>
      <trkpt lat="52.17664" lon="-1.80309">
        <ele>46.09861</ele>
        <time>2017-05-16T01:48:50.000Z</time>
      </trkpt>
      <trkpt lat="52.17659" lon="-1.80252">
        <ele>46.4718</ele>
        <time>2017-05-16T01:48:57.000Z</time>
      </trkpt>
      <trkpt lat="52.17654" lon="-1.80204">
        <ele>46.76247</ele>
        <time>2017-05-16T01:49:03.000Z</time>
      </trkpt>
      <trkpt lat="52.17648" lon="-1.80148">
        <ele>47.15044</ele>
        <time>2017-05-16T01:49:10.000Z</time>
      </trkpt>
      <trkpt lat="52.17644" lon="-1.80099">
        <ele>47.61928</ele>
        <time>2017-05-16T01:49:16.000Z</time>
      </trkpt>
      <trkpt lat="52.17639" lon="-1.80048">
        <ele>48.11233</ele>
        <time>2017-05-16T01:49:22.000Z</time>
      </trkpt>
      <trkpt lat="52.17631" lon="-1.79978">
        <ele>48.81586</ele>
        <time>2017-05-16T01:49:31.000Z</time>
      </trkpt>
      <trkpt lat="52.1763" lon="-1.79965">
        <ele>48.86188</ele>
        <time>2017-05-16T01:49:33.000Z</time>
      </trkpt>
      <trkpt lat="52.17625" lon="-1.79923">
        <ele>48.60964</ele>
        <time>2017-05-16T01:49:38.000Z</time>
      </trkpt>
      <trkpt lat="52.17619" lon="-1.79883">
        <ele>47.92251</ele>
        <time>2017-05-16T01:49:43.000Z</time>
      </trkpt>
      <trkpt lat="52.17617" lon="-1.79862">
        <ele>47.80011</ele>
        <time>2017-05-16T01:49:46.000Z</time>
      </trkpt>
      <trkpt lat="52.17615" lon="-1.79842">
        <ele>47.30626</ele>
        <time>2017-05-16T01:49:48.000Z</time>
      </trkpt>
      <trkpt lat="52.17614" lon="-1.79817">
        <ele>46.3015</ele>
        <time>2017-05-16T01:49:51.000Z</time>
      </trkpt>
      <trkpt lat="52.17613" lon="-1.79787">
        <ele>44.60182</ele>
        <time>2017-05-16T01:49:55.000Z</time>
      </trkpt>
      <trkpt lat="52.17614" lon="-1.79738">
        <ele>42.85431</ele>
        <time>2017-05-16T01:50:01.000Z</time>
      </trkpt>
      <trkpt lat="52.17614" lon="-1.79703">
        <ele>41.93081</ele>
        <time>2017-05-16T01:50:05.000Z</time>
      </trkpt>
      <trkpt lat="52.17616" lon="-1.79667">
        <ele>41.78613</ele>
        <time>2017-05-16T01:50:10.000Z</time>
      </trkpt>
      <trkpt lat="52.1762" lon="-1.79625">
        <ele>41.77525</ele>
        <time>2017-05-16T01:50:15.000Z</time>
      </trkpt>
      <trkpt lat="52.17624" lon="-1.79587">
        <ele>42.21769</ele>
        <time>2017-05-16T01:50:20.000Z</time>
      </trkpt>
      <trkpt lat="52.17627" lon="-1.79559">
        <ele>42.22669</ele>
        <time>2017-05-16T01:50:23.000Z</time>
      </trkpt>
      <trkpt lat="52.17631" lon="-1.79524">
        <ele>42.62306</ele>
        <time>2017-05-16T01:50:28.000Z</time>
      </trkpt>
      <trkpt lat="52.17633" lon="-1.79496">
        <ele>42.51743</ele>
        <time>2017-05-16T01:50:31.000Z</time>
      </trkpt>
      <trkpt lat="52.17636" lon="-1.79458">
        <ele>42.20898</ele>
        <time>2017-05-16T01:50:36.000Z</time>
      </trkpt>
      <trkpt lat="52.17639" lon="-1.79426">
        <ele>42.23736</ele>
        <time>2017-05-16T01:50:40.000Z</time>
      </trkpt>
      <trkpt lat="52.1764" lon="-1.79401">
        <ele>42.14662</ele>
        <time>2017-05-16T01:50:43.000Z</time>
      </trkpt>
      <trkpt lat="52.17644" lon="-1.79355">
        <ele>41.66072</ele>
        <time>2017-05-16T01:50:48.000Z</time>
      </trkpt>
      <trkpt lat="52.17648" lon="-1.79317">
        <ele>41.1043</ele>
        <time>2017-05-16T01:50:53.000Z</time>
      </trkpt>
      <trkpt lat="52.17653" lon="-1.79279">
        <ele>40.20177</ele>
        <time>2017-05-16T01:50:58.000Z</time>
      </trkpt>
      <trkpt lat="52.17657" lon="-1.7925">
        <ele>39.70296</ele>
        <time>2017-05-16T01:51:02.000Z</time>
      </trkpt>
      <trkpt lat="52.17668" lon="-1.79212">
        <ele>39.11638</ele>
        <time>2017-05-16T01:51:07.000Z</time>
      </trkpt>
      <trkpt lat="52.17677" lon="-1.79177">
        <ele>38.37524</ele>
        <time>2017-05-16T01:51:11.000Z</time>
      </trkpt>
      <trkpt lat="52.17685" lon="-1.7915">
        <ele>37.70686</ele>
        <time>2017-05-16T01:51:15.000Z</time>
      </trkpt>
      <trkpt lat="52.17707" lon="-1.79101">
        <ele>36.6705</ele>
        <time>2017-05-16T01:51:23.000Z</time>
      </trkpt>
      <trkpt lat="52.17722" lon="-1.79075">
        <ele>35.94337</ele>
        <time>2017-05-16T01:51:27.000Z</time>
      </trkpt>
      <trkpt lat="52.17738" lon="-1.79049">
        <ele>35.33595</ele>
        <time>2017-05-16T01:51:32.000Z</time>
      </trkpt>
      <trkpt lat="52.17734" lon="-1.79042">
        <ele>35.12992</ele>
        <time>2017-05-16T01:51:33.000Z</time>
      </trkpt>
      <trkpt lat="52.1773" lon="-1.79037">
        <ele>34.85745</ele>
        <time>2017-05-16T01:51:34.000Z</time>
      </trkpt>
      <trkpt lat="52.17726" lon="-1.79034">
        <ele>34.59724</ele>
        <time>2017-05-16T01:51:35.000Z</time>
      </trkpt>
      <trkpt lat="52.1772" lon="-1.79029">
        <ele>33.96441</ele>
        <time>2017-05-16T01:51:36.000Z</time>
      </trkpt>
      <trkpt lat="52.17702" lon="-1.79018">
        <ele>32.75456</ele>
        <time>2017-05-16T01:51:40.000Z</time>
        <name>52.177020,-1.790180</name>
        <extensions>
          <oa:locType>calcWayPoint</oa:locType>
        </extensions>
      </trkpt>
      <trkpt lat="52.17677" lon="-1.79003">
        <ele>32.10643</ele>
        <time>2017-05-16T01:51:45.000Z</time>
      </trkpt>
      <trkpt lat="52.17642" lon="-1.78983">
        <ele>31.50945</ele>
        <time>2017-05-16T01:51:53.000Z</time>
      </trkpt>
      <trkpt lat="52.17615" lon="-1.78969">
        <ele>32.09828</ele>
        <time>2017-05-16T01:51:58.000Z</time>
      </trkpt>
      <trkpt lat="52.17607" lon="-1.78965">
        <ele>31.5044</ele>
        <time>2017-05-16T01:52:00.000Z</time>
      </trkpt>
      <trkpt lat="52.17571" lon="-1.78951">
        <ele>30.11267</ele>
        <time>2017-05-16T01:52:07.000Z</time>
      </trkpt>
      <trkpt lat="52.1755" lon="-1.78943">
        <ele>32.2033</ele>
        <time>2017-05-16T01:52:12.000Z</time>
      </trkpt>
      <trkpt lat="52.17529" lon="-1.78936">
        <ele>30.4419</ele>
        <time>2017-05-16T01:52:16.000Z</time>
      </trkpt>
      <trkpt lat="52.17503" lon="-1.78932">
        <ele>32.44716</ele>
        <time>2017-05-16T01:52:21.000Z</time>
      </trkpt>
      <trkpt lat="52.17458" lon="-1.78928">
        <ele>32.07064</ele>
        <time>2017-05-16T01:52:30.000Z</time>
      </trkpt>
      <trkpt lat="52.17423" lon="-1.78923">
        <ele>32.29401</ele>
        <time>2017-05-16T01:52:37.000Z</time>
      </trkpt>
      <trkpt lat="52.17387" lon="-1.7892">
        <ele>32.43867</ele>
        <time>2017-05-16T01:52:45.000Z</time>
      </trkpt>
      <trkpt lat="52.17381" lon="-1.7892">
        <ele>32.45485</ele>
        <time>2017-05-16T01:52:46.000Z</time>
      </trkpt>
      <trkpt lat="52.17364" lon="-1.78918">
        <ele>32.61193</ele>
        <time>2017-05-16T01:52:49.000Z</time>
      </trkpt>
      <trkpt lat="52.1735" lon="-1.78922">
        <ele>32.92793</ele>
        <time>2017-05-16T01:52:52.000Z</time>
      </trkpt>
      <trkpt lat="52.17345" lon="-1.78921">
        <ele>33.02653</ele>
        <time>2017-05-16T01:52:53.000Z</time>
      </trkpt>
      <trkpt lat="52.17332" lon="-1.78918">
        <ele>33.32692</ele>
        <time>2017-05-16T01:52:56.000Z</time>
      </trkpt>
      <trkpt lat="52.17309" lon="-1.78907">
        <ele>33.71741</ele>
        <time>2017-05-16T01:53:00.000Z</time>
      </trkpt>
      <trkpt lat="52.17296" lon="-1.78897">
        <ele>34.07481</ele>
        <time>2017-05-16T01:53:03.000Z</time>
      </trkpt>
      <trkpt lat="52.17286" lon="-1.78891">
        <ele>34.40388</ele>
        <time>2017-05-16T01:53:05.000Z</time>
      </trkpt>
      <trkpt lat="52.1728" lon="-1.78882">
        <ele>34.58841</ele>
        <time>2017-05-16T01:53:07.000Z</time>
      </trkpt>
      <trkpt lat="52.1727" lon="-1.7887">
        <ele>34.63419</ele>
        <time>2017-05-16T01:53:10.000Z</time>
      </trkpt>
      <trkpt lat="52.17264" lon="-1.78859">
        <ele>34.59413</ele>
        <time>2017-05-16T01:53:11.000Z</time>
      </trkpt>
      <trkpt lat="52.17244" lon="-1.78817">
        <ele>33.92752</ele>
        <time>2017-05-16T01:53:18.000Z</time>
      </trkpt>
      <trkpt lat="52.17227" lon="-1.78783">
        <ele>33.81179</ele>
        <time>2017-05-16T01:53:23.000Z</time>
      </trkpt>
      <trkpt lat="52.17222" lon="-1.78769">
        <ele>33.98469</ele>
        <time>2017-05-16T01:53:25.000Z</time>
      </trkpt>
      <trkpt lat="52.17202" lon="-1.78724">
        <ele>34.1809</ele>
        <time>2017-05-16T01:53:32.000Z</time>
      </trkpt>
      <trkpt lat="52.17177" lon="-1.78671">
        <ele>34.6434</ele>
        <time>2017-05-16T01:53:40.000Z</time>
      </trkpt>
      <trkpt lat="52.17169" lon="-1.78653">
        <ele>34.96419</ele>
        <time>2017-05-16T01:53:43.000Z</time>
      </trkpt>
      <trkpt lat="52.17165" lon="-1.78642">
        <ele>35.01723</ele>
        <time>2017-05-16T01:53:45.000Z</time>
      </trkpt>
      <trkpt lat="52.17158" lon="-1.78626">
        <ele>35.24607</ele>
        <time>2017-05-16T01:53:47.000Z</time>
      </trkpt>
      <trkpt lat="52.17149" lon="-1.78609">
        <ele>35.61249</ele>
        <time>2017-05-16T01:53:50.000Z</time>
      </trkpt>
      <trkpt lat="52.17138" lon="-1.78592">
        <ele>36.46637</ele>
        <time>2017-05-16T01:53:53.000Z</time>
      </trkpt>
      <trkpt lat="52.17127" lon="-1.78573">
        <ele>37.34434</ele>
        <time>2017-05-16T01:53:56.000Z</time>
      </trkpt>
      <trkpt lat="52.1712" lon="-1.78562">
        <ele>37.87169</ele>
        <time>2017-05-16T01:53:58.000Z</time>
      </trkpt>
      <trkpt lat="52.17115" lon="-1.78556">
        <ele>38.20528</ele>
        <time>2017-05-16T01:53:59.000Z</time>
      </trkpt>
      <trkpt lat="52.17106" lon="-1.78544">
        <ele>38.77693</ele>
        <time>2017-05-16T01:54:02.000Z</time>
      </trkpt>
      <trkpt lat="52.17099" lon="-1.78536">
        <ele>39.09772</ele>
        <time>2017-05-16T01:54:03.000Z</time>
      </trkpt>
      <trkpt lat="52.17092" lon="-1.78521">
        <ele>39.64136</ele>
        <time>2017-05-16T01:54:06.000Z</time>
      </trkpt>
      <trkpt lat="52.17072" lon="-1.78502">
        <ele>40.49476</ele>
        <time>2017-05-16T01:54:10.000Z</time>
      </trkpt>
      <trkpt lat="52.17061" lon="-1.78491">
        <ele>40.94478</ele>
        <time>2017-05-16T01:54:13.000Z</time>
      </trkpt>
      <trkpt lat="52.17043" lon="-1.78475">
        <ele>41.77135</ele>
        <time>2017-05-16T01:54:17.000Z</time>
      </trkpt>
      <trkpt lat="52.17033" lon="-1.78467">
        <ele>42.10183</ele>
        <time>2017-05-16T01:54:19.000Z</time>
      </trkpt>
      <trkpt lat="52.17024" lon="-1.78461">
        <ele>42.41154</ele>
        <time>2017-05-16T01:54:21.000Z</time>
      </trkpt>
      <trkpt lat="52.17004" lon="-1.78449">
        <ele>43.27504</ele>
        <time>2017-05-16T01:54:25.000Z</time>
      </trkpt>
      <trkpt lat="52.16996" lon="-1.78445">
        <ele>43.56458</ele>
        <time>2017-05-16T01:54:27.000Z</time>
      </trkpt>
      <trkpt lat="52.16989" lon="-1.78441">
        <ele>43.80673</ele>
        <time>2017-05-16T01:54:29.000Z</time>
      </trkpt>
      <trkpt lat="52.16984" lon="-1.7844">
        <ele>43.81798</ele>
        <time>2017-05-16T01:54:30.000Z</time>
      </trkpt>
      <trkpt lat="52.16979" lon="-1.78438">
        <ele>43.85582</ele>
        <time>2017-05-16T01:54:31.000Z</time>
      </trkpt>
      <trkpt lat="52.16957" lon="-1.78434">
        <ele>43.66739</ele>
        <time>2017-05-16T01:54:35.000Z</time>
      </trkpt>
      <trkpt lat="52.16903" lon="-1.78427">
        <ele>42.11429</ele>
        <time>2017-05-16T01:54:46.000Z</time>
      </trkpt>
      <trkpt lat="52.16894" lon="-1.78425">
        <ele>42.00409</ele>
        <time>2017-05-16T01:54:48.000Z</time>
      </trkpt>
      <trkpt lat="52.16861" lon="-1.78422">
        <ele>41.94382</ele>
        <time>2017-05-16T01:54:54.000Z</time>
      </trkpt>
      <trkpt lat="52.16857" lon="-1.78422">
        <ele>41.91559</ele>
        <time>2017-05-16T01:54:55.000Z</time>
      </trkpt>
      <trkpt lat="52.16848" lon="-1.78422">
        <ele>41.87724</ele>
        <time>2017-05-16T01:54:57.000Z</time>
      </trkpt>
      <trkpt lat="52.16826" lon="-1.78419">
        <ele>42.12865</ele>
        <time>2017-05-16T01:55:01.000Z</time>
      </trkpt>
      <trkpt lat="52.16797" lon="-1.78417">
        <ele>42.12928</ele>
        <time>2017-05-16T01:55:07.000Z</time>
      </trkpt>
      <trkpt lat="52.16775" lon="-1.78411">
        <ele>42.13395</ele>
        <time>2017-05-16T01:55:12.000Z</time>
      </trkpt>
      <trkpt lat="52.16762" lon="-1.78405">
        <ele>42.03591</ele>
        <time>2017-05-16T01:55:14.000Z</time>
      </trkpt>
      <trkpt lat="52.16723" lon="-1.78387">
        <ele>42.06565</ele>
        <time>2017-05-16T01:55:23.000Z</time>
      </trkpt>
      <trkpt lat="52.16711" lon="-1.78382">
        <ele>42.02321</ele>
        <time>2017-05-16T01:55:25.000Z</time>
      </trkpt>
      <trkpt lat="52.16695" lon="-1.78373">
        <ele>42.27029</ele>
        <time>2017-05-16T01:55:28.000Z</time>
      </trkpt>
      <trkpt lat="52.1666" lon="-1.78357">
        <ele>42.91816</ele>
        <time>2017-05-16T01:55:36.000Z</time>
      </trkpt>
      <trkpt lat="52.16625" lon="-1.7834">
        <ele>42.92671</ele>
        <time>2017-05-16T01:55:43.000Z</time>
      </trkpt>
      <trkpt lat="52.16595" lon="-1.78325">
        <ele>43.04147</ele>
        <time>2017-05-16T01:55:49.000Z</time>
      </trkpt>
      <trkpt lat="52.16593" lon="-1.78325">
        <ele>43.07574</ele>
        <time>2017-05-16T01:55:50.000Z</time>
      </trkpt>
      <trkpt lat="52.16584" lon="-1.78323">
        <ele>43.13424</ele>
        <time>2017-05-16T01:55:51.000Z</time>
      </trkpt>
      <trkpt lat="52.16571" lon="-1.78319">
        <ele>43.11781</ele>
        <time>2017-05-16T01:55:54.000Z</time>
      </trkpt>
      <trkpt lat="52.16568" lon="-1.78318">
        <ele>43.09892</ele>
        <time>2017-05-16T01:55:55.000Z</time>
      </trkpt>
      <trkpt lat="52.16545" lon="-1.78312">
        <ele>42.79932</ele>
        <time>2017-05-16T01:55:59.000Z</time>
      </trkpt>
      <trkpt lat="52.1653" lon="-1.78307">
        <ele>42.87743</ele>
        <time>2017-05-16T01:56:02.000Z</time>
      </trkpt>
      <trkpt lat="52.16501" lon="-1.78295">
        <ele>42.79425</ele>
        <time>2017-05-16T01:56:08.000Z</time>
      </trkpt>
      <trkpt lat="52.1648" lon="-1.78284">
        <ele>42.83531</ele>
        <time>2017-05-16T01:56:13.000Z</time>
      </trkpt>
      <trkpt lat="52.16472" lon="-1.78281">
        <ele>42.85335</ele>
        <time>2017-05-16T01:56:15.000Z</time>
      </trkpt>
      <trkpt lat="52.16441" lon="-1.78268">
        <ele>43.05241</ele>
        <time>2017-05-16T01:56:21.000Z</time>
      </trkpt>
      <trkpt lat="52.16436" lon="-1.78267">
        <ele>42.99349</ele>
        <time>2017-05-16T01:56:22.000Z</time>
      </trkpt>
      <trkpt lat="52.16416" lon="-1.78261">
        <ele>42.97877</ele>
        <time>2017-05-16T01:56:26.000Z</time>
      </trkpt>
      <trkpt lat="52.16405" lon="-1.78258">
        <ele>42.94219</ele>
        <time>2017-05-16T01:56:28.000Z</time>
      </trkpt>
      <trkpt lat="52.16391" lon="-1.78254">
        <ele>42.89404</ele>
        <time>2017-05-16T01:56:31.000Z</time>
      </trkpt>
      <trkpt lat="52.16388" lon="-1.78253">
        <ele>42.86824</ele>
        <time>2017-05-16T01:56:32.000Z</time>
      </trkpt>
      <trkpt lat="52.16379" lon="-1.78249">
        <ele>42.85228</ele>
        <time>2017-05-16T01:56:34.000Z</time>
      </trkpt>
      <trkpt lat="52.16373" lon="-1.78247">
        <ele>42.90287</ele>
        <time>2017-05-16T01:56:35.000Z</time>
      </trkpt>
      <trkpt lat="52.16365" lon="-1.78245">
        <ele>42.96327</ele>
        <time>2017-05-16T01:56:36.000Z</time>
      </trkpt>
      <trkpt lat="52.16356" lon="-1.78243">
        <ele>42.98287</ele>
        <time>2017-05-16T01:56:38.000Z</time>
      </trkpt>
      <trkpt lat="52.1633" lon="-1.78242">
        <ele>43.06905</ele>
        <time>2017-05-16T01:56:43.000Z</time>
      </trkpt>
      <trkpt lat="52.16356" lon="-1.78243">
        <ele>42.98287</ele>
        <time>2017-05-16T01:56:49.000Z</time>
        <name>52.163560,-1.782430</name>
        <extensions>
          <oa:locType>calcWayPoint</oa:locType>
        </extensions>
      </trkpt>
      <trkpt lat="52.16365" lon="-1.78245">
        <ele>42.96327</ele>
        <time>2017-05-16T01:56:51.000Z</time>
      </trkpt>
      <trkpt lat="52.16373" lon="-1.78247">
        <ele>42.90287</ele>
        <time>2017-05-16T01:56:52.000Z</time>
      </trkpt>
      <trkpt lat="52.16379" lon="-1.78249">
        <ele>42.85228</ele>
        <time>2017-05-16T01:56:53.000Z</time>
      </trkpt>
      <trkpt lat="52.16388" lon="-1.78253">
        <ele>42.86824</ele>
        <time>2017-05-16T01:56:55.000Z</time>
      </trkpt>
      <trkpt lat="52.16391" lon="-1.78254">
        <ele>42.89404</ele>
        <time>2017-05-16T01:56:56.000Z</time>
      </trkpt>
      <trkpt lat="52.16386" lon="-1.78262">
        <ele>42.92706</ele>
        <time>2017-05-16T01:56:57.000Z</time>
      </trkpt>
      <trkpt lat="52.16381" lon="-1.78272">
        <ele>42.95899</ele>
        <time>2017-05-16T01:56:59.000Z</time>
      </trkpt>
      <trkpt lat="52.16374" lon="-1.7829">
        <ele>43.08042</ele>
        <time>2017-05-16T01:57:01.000Z</time>
      </trkpt>
      <trkpt lat="52.16366" lon="-1.78311">
        <ele>43.35555</ele>
        <time>2017-05-16T01:57:05.000Z</time>
      </trkpt>
      <trkpt lat="52.16356" lon="-1.78349">
        <ele>43.69473</ele>
        <time>2017-05-16T01:57:10.000Z</time>
      </trkpt>
      <trkpt lat="52.16332" lon="-1.78449">
        <ele>43.51482</ele>
        <time>2017-05-16T01:57:23.000Z</time>
      </trkpt>
      <trkpt lat="52.16322" lon="-1.7849">
        <ele>42.77666</ele>
        <time>2017-05-16T01:57:28.000Z</time>
      </trkpt>
      <trkpt lat="52.16308" lon="-1.78545">
        <ele>40.89581</ele>
        <time>2017-05-16T01:57:36.000Z</time>
      </trkpt>
      <trkpt lat="52.16299" lon="-1.78585">
        <ele>39.89473</ele>
        <time>2017-05-16T01:57:41.000Z</time>
      </trkpt>
      <trkpt lat="52.1629" lon="-1.78623">
        <ele>39.21643</ele>
        <time>2017-05-16T01:57:46.000Z</time>
      </trkpt>
      <trkpt lat="52.16282" lon="-1.78653">
        <ele>38.86183</ele>
        <time>2017-05-16T01:57:50.000Z</time>
      </trkpt>
      <trkpt lat="52.16276" lon="-1.78677">
        <ele>38.54833</ele>
        <time>2017-05-16T01:57:53.000Z</time>
      </trkpt>
      <trkpt lat="52.16259" lon="-1.78743">
        <ele>37.68817</ele>
        <time>2017-05-16T01:58:02.000Z</time>
      </trkpt>
      <trkpt lat="52.16256" lon="-1.78753">
        <ele>37.55399</ele>
        <time>2017-05-16T01:58:03.000Z</time>
      </trkpt>
      <trkpt lat="52.16251" lon="-1.78774">
        <ele>37.3455</ele>
        <time>2017-05-16T01:58:06.000Z</time>
      </trkpt>
      <trkpt lat="52.16241" lon="-1.78818">
        <ele>37.07378</ele>
        <time>2017-05-16T01:58:12.000Z</time>
      </trkpt>
      <trkpt lat="52.16226" lon="-1.78877">
        <ele>37.027</ele>
        <time>2017-05-16T01:58:20.000Z</time>
      </trkpt>
      <trkpt lat="52.16223" lon="-1.78892">
        <ele>37.0698</ele>
        <time>2017-05-16T01:58:21.000Z</time>
      </trkpt>
      <trkpt lat="52.16217" lon="-1.78916">
        <ele>37.02674</ele>
        <time>2017-05-16T01:58:25.000Z</time>
      </trkpt>
      <trkpt lat="52.16211" lon="-1.7894">
        <ele>37.09938</ele>
        <time>2017-05-16T01:58:28.000Z</time>
      </trkpt>
      <trkpt lat="52.16209" lon="-1.78946">
        <ele>37.09688</ele>
        <time>2017-05-16T01:58:29.000Z</time>
      </trkpt>
      <trkpt lat="52.16199" lon="-1.78992">
        <ele>36.91839</ele>
        <time>2017-05-16T01:58:35.000Z</time>
      </trkpt>
      <trkpt lat="52.16189" lon="-1.79035">
        <ele>36.79562</ele>
        <time>2017-05-16T01:58:40.000Z</time>
      </trkpt>
      <trkpt lat="52.16186" lon="-1.79049">
        <ele>36.73028</ele>
        <time>2017-05-16T01:58:42.000Z</time>
      </trkpt>
      <trkpt lat="52.16174" lon="-1.79095">
        <ele>36.42588</ele>
        <time>2017-05-16T01:58:48.000Z</time>
      </trkpt>
      <trkpt lat="52.16161" lon="-1.79147">
        <ele>36.55247</ele>
        <time>2017-05-16T01:58:55.000Z</time>
      </trkpt>
      <trkpt lat="52.16148" lon="-1.79205">
        <ele>36.99975</ele>
        <time>2017-05-16T01:59:03.000Z</time>
      </trkpt>
      <trkpt lat="52.16132" lon="-1.79271">
        <ele>37.82406</ele>
        <time>2017-05-16T01:59:12.000Z</time>
      </trkpt>
      <trkpt lat="52.16122" lon="-1.79313">
        <ele>38.42466</ele>
        <time>2017-05-16T01:59:17.000Z</time>
      </trkpt>
      <trkpt lat="52.16115" lon="-1.79342">
        <ele>39.06535</ele>
        <time>2017-05-16T01:59:21.000Z</time>
      </trkpt>
      <trkpt lat="52.16102" lon="-1.79396">
        <ele>42.18824</ele>
        <time>2017-05-16T01:59:28.000Z</time>
      </trkpt>
      <trkpt lat="52.16094" lon="-1.79431">
        <ele>44.92196</ele>
        <time>2017-05-16T01:59:33.000Z</time>
      </trkpt>
      <trkpt lat="52.16086" lon="-1.79462">
        <ele>47.11365</ele>
        <time>2017-05-16T01:59:37.000Z</time>
      </trkpt>
      <trkpt lat="52.16084" lon="-1.79469">
        <ele>47.71064</ele>
        <time>2017-05-16T01:59:38.000Z</time>
      </trkpt>
      <trkpt lat="52.16081" lon="-1.79481">
        <ele>48.6273</ele>
        <time>2017-05-16T01:59:39.000Z</time>
      </trkpt>
      <trkpt lat="52.16071" lon="-1.79521">
        <ele>50.4834</ele>
        <time>2017-05-16T01:59:45.000Z</time>
      </trkpt>
      <trkpt lat="52.16067" lon="-1.79538">
        <ele>51.02839</ele>
        <time>2017-05-16T01:59:47.000Z</time>
      </trkpt>
      <trkpt lat="52.16053" lon="-1.79591">
        <ele>52.77806</ele>
        <time>2017-05-16T01:59:54.000Z</time>
      </trkpt>
      <trkpt lat="52.16046" lon="-1.79614">
        <ele>53.68576</ele>
        <time>2017-05-16T01:59:57.000Z</time>
      </trkpt>
      <trkpt lat="52.16033" lon="-1.79658">
        <ele>54.91977</ele>
        <time>2017-05-16T02:00:03.000Z</time>
      </trkpt>
      <trkpt lat="52.16033" lon="-1.79661">
        <ele>54.88542</ele>
        <time>2017-05-16T02:00:03.377Z</time>
      </trkpt>
      <trkpt lat="52.16021" lon="-1.7971">
        <ele>55.77367</ele>
        <time>2017-05-16T02:00:10.000Z</time>
      </trkpt>
      <trkpt lat="52.16012" lon="-1.79752">
        <ele>55.68501</ele>
        <time>2017-05-16T02:00:15.000Z</time>
      </trkpt>
      <trkpt lat="52.16001" lon="-1.798">
        <ele>54.13696</ele>
        <time>2017-05-16T02:00:22.000Z</time>
      </trkpt>
      <trkpt lat="52.15989" lon="-1.79852">
        <ele>51.98595</ele>
        <time>2017-05-16T02:00:29.000Z</time>
      </trkpt>
      <trkpt lat="52.15982" lon="-1.7988">
        <ele>50.74688</ele>
        <time>2017-05-16T02:00:32.000Z</time>
      </trkpt>
      <trkpt lat="52.15972" lon="-1.79923">
        <ele>49.40208</ele>
        <time>2017-05-16T02:00:38.000Z</time>
      </trkpt>
      <trkpt lat="52.15961" lon="-1.79969">
        <ele>48.48413</ele>
        <time>2017-05-16T02:00:44.000Z</time>
      </trkpt>
      <trkpt lat="52.15952" lon="-1.80009">
        <ele>48.19849</ele>
        <time>2017-05-16T02:00:49.000Z</time>
      </trkpt>
      <trkpt lat="52.15941" lon="-1.80055">
        <ele>48.22684</ele>
        <time>2017-05-16T02:00:55.000Z</time>
      </trkpt>
      <trkpt lat="52.15931" lon="-1.80098">
        <ele>48.68468</ele>
        <time>2017-05-16T02:01:01.000Z</time>
      </trkpt>
      <trkpt lat="52.15916" lon="-1.80173">
        <ele>50.15524</ele>
        <time>2017-05-16T02:01:11.000Z</time>
      </trkpt>
      <trkpt lat="52.15916" lon="-1.80191">
        <ele>50.07735</ele>
        <time>2017-05-16T02:01:13.000Z</time>
      </trkpt>
      <trkpt lat="52.15916" lon="-1.80201">
        <ele>50.07766</ele>
        <time>2017-05-16T02:01:14.000Z</time>
      </trkpt>
      <trkpt lat="52.15916" lon="-1.80209">
        <ele>50.09551</ele>
        <time>2017-05-16T02:01:15.000Z</time>
      </trkpt>
      <trkpt lat="52.15917" lon="-1.80235">
        <ele>49.90886</ele>
        <time>2017-05-16T02:01:18.000Z</time>
      </trkpt>
      <trkpt lat="52.15921" lon="-1.803">
        <ele>49.69357</ele>
        <time>2017-05-16T02:01:26.000Z</time>
      </trkpt>
      <trkpt lat="52.15927" lon="-1.80416">
        <ele>49.30771</ele>
        <time>2017-05-16T02:01:41.000Z</time>
      </trkpt>
      <trkpt lat="52.15936" lon="-1.80543">
        <ele>42.98096</ele>
        <time>2017-05-16T02:01:56.000Z</time>
      </trkpt>
      <trkpt lat="52.15942" lon="-1.80645">
        <ele>40.82671</ele>
        <time>2017-05-16T02:02:09.000Z</time>
      </trkpt>
      <trkpt lat="52.15945" lon="-1.80706">
        <ele>41.27324</ele>
        <time>2017-05-16T02:02:16.000Z</time>
      </trkpt>
      <trkpt lat="52.15947" lon="-1.80727">
        <ele>41.52805</ele>
        <time>2017-05-16T02:02:19.000Z</time>
      </trkpt>
      <trkpt lat="52.15953" lon="-1.80796">
        <ele>42.70664</ele>
        <time>2017-05-16T02:02:28.000Z</time>
      </trkpt>
      <trkpt lat="52.15959" lon="-1.80877">
        <ele>44.38398</ele>
        <time>2017-05-16T02:02:38.000Z</time>
      </trkpt>
      <trkpt lat="52.1597" lon="-1.81025">
        <ele>47.15698</ele>
        <time>2017-05-16T02:02:56.000Z</time>
      </trkpt>
      <trkpt lat="52.15978" lon="-1.81134">
        <ele>46.48009</ele>
        <time>2017-05-16T02:03:09.000Z</time>
      </trkpt>
      <trkpt lat="52.15989" lon="-1.81274">
        <ele>44.84714</ele>
        <time>2017-05-16T02:03:27.000Z</time>
      </trkpt>
      <trkpt lat="52.15999" lon="-1.81417">
        <ele>42.89187</ele>
        <time>2017-05-16T02:03:44.000Z</time>
      </trkpt>
      <trkpt lat="52.16008" lon="-1.81545">
        <ele>41.6013</ele>
        <time>2017-05-16T02:04:00.000Z</time>
      </trkpt>
      <trkpt lat="52.1601" lon="-1.81568">
        <ele>41.21655</ele>
        <time>2017-05-16T02:04:03.000Z</time>
      </trkpt>
      <trkpt lat="52.16016" lon="-1.81662">
        <ele>40.61096</ele>
        <time>2017-05-16T02:04:15.000Z</time>
      </trkpt>
      <trkpt lat="52.16016" lon="-1.81667">
        <ele>40.56675</ele>
        <time>2017-05-16T02:04:15.591Z</time>
      </trkpt>
      <trkpt lat="52.16025" lon="-1.81788">
        <ele>38.3656</ele>
        <time>2017-05-16T02:04:30.000Z</time>
      </trkpt>
      <trkpt lat="52.16032" lon="-1.81882">
        <ele>36.89076</ele>
        <time>2017-05-16T02:04:42.000Z</time>
      </trkpt>
      <trkpt lat="52.16035" lon="-1.8192">
        <ele>36.48949</ele>
        <time>2017-05-16T02:04:47.000Z</time>
      </trkpt>
      <trkpt lat="52.16047" lon="-1.82074">
        <ele>35.37869</ele>
        <time>2017-05-16T02:05:06.000Z</time>
      </trkpt>
      <trkpt lat="52.16053" lon="-1.82164">
        <ele>35.65885</ele>
        <time>2017-05-16T02:05:17.000Z</time>
      </trkpt>
      <trkpt lat="52.16055" lon="-1.82183">
        <ele>35.63536</ele>
        <time>2017-05-16T02:05:19.000Z</time>
      </trkpt>
      <trkpt lat="52.1606" lon="-1.82242">
        <ele>35.12492</ele>
        <time>2017-05-16T02:05:27.000Z</time>
      </trkpt>
      <trkpt lat="52.16062" lon="-1.82274">
        <ele>34.7967</ele>
        <time>2017-05-16T02:05:31.000Z</time>
      </trkpt>
      <trkpt lat="52.16062" lon="-1.82293">
        <ele>34.55781</ele>
        <time>2017-05-16T02:05:33.000Z</time>
      </trkpt>
      <trkpt lat="52.16064" lon="-1.8232">
        <ele>33.92631</ele>
        <time>2017-05-16T02:05:36.000Z</time>
      </trkpt>
      <trkpt lat="52.16067" lon="-1.82405">
        <ele>31.1748</ele>
        <time>2017-05-16T02:05:47.000Z</time>
      </trkpt>
      <trkpt lat="52.16066" lon="-1.82438">
        <ele>30.25183</ele>
        <time>2017-05-16T02:05:51.000Z</time>
      </trkpt>
      <trkpt lat="52.16065" lon="-1.82458">
        <ele>29.97845</ele>
        <time>2017-05-16T02:05:53.000Z</time>
      </trkpt>
      <trkpt lat="52.16064" lon="-1.82476">
        <ele>29.92913</ele>
        <time>2017-05-16T02:05:55.000Z</time>
      </trkpt>
      <trkpt lat="52.16062" lon="-1.82494">
        <ele>29.66042</ele>
        <time>2017-05-16T02:05:58.000Z</time>
      </trkpt>
      <trkpt lat="52.1606" lon="-1.82508">
        <ele>29.49888</ele>
        <time>2017-05-16T02:06:00.000Z</time>
      </trkpt>
      <trkpt lat="52.16055" lon="-1.82529">
        <ele>29.91045</ele>
        <time>2017-05-16T02:06:02.000Z</time>
      </trkpt>
      <trkpt lat="52.1605" lon="-1.82548">
        <ele>30.0304</ele>
        <time>2017-05-16T02:06:05.000Z</time>
      </trkpt>
      <trkpt lat="52.16045" lon="-1.82566">
        <ele>30.08999</ele>
        <time>2017-05-16T02:06:07.000Z</time>
      </trkpt>
      <trkpt lat="52.16038" lon="-1.82598">
        <ele>30.3608</ele>
        <time>2017-05-16T02:06:11.000Z</time>
      </trkpt>
      <trkpt lat="52.16026" lon="-1.82652">
        <ele>31.23613</ele>
        <time>2017-05-16T02:06:18.000Z</time>
      </trkpt>
      <trkpt lat="52.16018" lon="-1.82701">
        <ele>31.4464</ele>
        <time>2017-05-16T02:06:25.000Z</time>
      </trkpt>
      <trkpt lat="52.16013" lon="-1.82738">
        <ele>31.38516</ele>
        <time>2017-05-16T02:06:29.000Z</time>
      </trkpt>
      <trkpt lat="52.16005" lon="-1.82805">
        <ele>31.14687</ele>
        <time>2017-05-16T02:06:38.000Z</time>
      </trkpt>
      <trkpt lat="52.15999" lon="-1.8287">
        <ele>30.96423</ele>
        <time>2017-05-16T02:06:46.000Z</time>
      </trkpt>
      <trkpt lat="52.15996" lon="-1.82916">
        <ele>30.84497</ele>
        <time>2017-05-16T02:06:52.000Z</time>
      </trkpt>
      <trkpt lat="52.15995" lon="-1.82949">
        <ele>30.58406</ele>
        <time>2017-05-16T02:06:56.000Z</time>
      </trkpt>
      <trkpt lat="52.15994" lon="-1.82988">
        <ele>30.49258</ele>
        <time>2017-05-16T02:07:00.000Z</time>
      </trkpt>
      <trkpt lat="52.15994" lon="-1.83025">
        <ele>30.57232</ele>
        <time>2017-05-16T02:07:05.000Z</time>
      </trkpt>
      <trkpt lat="52.15996" lon="-1.83056">
        <ele>30.41473</ele>
        <time>2017-05-16T02:07:09.000Z</time>
      </trkpt>
      <trkpt lat="52.15997" lon="-1.83088">
        <ele>30.31179</ele>
        <time>2017-05-16T02:07:13.000Z</time>
      </trkpt>
      <trkpt lat="52.15997" lon="-1.83097">
        <ele>30.39574</ele>
        <time>2017-05-16T02:07:14.000Z</time>
      </trkpt>
      <trkpt lat="52.16" lon="-1.83124">
        <ele>30.51227</ele>
        <time>2017-05-16T02:07:17.000Z</time>
      </trkpt>
      <trkpt lat="52.16007" lon="-1.83183">
        <ele>30.59249</ele>
        <time>2017-05-16T02:07:25.000Z</time>
      </trkpt>
      <trkpt lat="52.16011" lon="-1.83221">
        <ele>30.38107</ele>
        <time>2017-05-16T02:07:29.000Z</time>
      </trkpt>
      <trkpt lat="52.16015" lon="-1.8325">
        <ele>30.23073</ele>
        <time>2017-05-16T02:07:33.000Z</time>
      </trkpt>
      <trkpt lat="52.16018" lon="-1.83289">
        <ele>29.99983</ele>
        <time>2017-05-16T02:07:38.000Z</time>
      </trkpt>
      <trkpt lat="52.1602" lon="-1.8331">
        <ele>29.76353</ele>
        <time>2017-05-16T02:07:40.000Z</time>
      </trkpt>
      <trkpt lat="52.16019" lon="-1.83337">
        <ele>29.81689</ele>
        <time>2017-05-16T02:07:44.000Z</time>
      </trkpt>
      <trkpt lat="52.16019" lon="-1.83354">
        <ele>29.69064</ele>
        <time>2017-05-16T02:07:46.000Z</time>
      </trkpt>
      <trkpt lat="52.16017" lon="-1.83385">
        <ele>29.45645</ele>
        <time>2017-05-16T02:07:50.000Z</time>
      </trkpt>
      <trkpt lat="52.16014" lon="-1.83423">
        <ele>29.2493</ele>
        <time>2017-05-16T02:07:54.000Z</time>
      </trkpt>
      <trkpt lat="52.16009" lon="-1.8349">
        <ele>29.13471</ele>
        <time>2017-05-16T02:08:03.000Z</time>
      </trkpt>
      <trkpt lat="52.16004" lon="-1.83548">
        <ele>29.0438</ele>
        <time>2017-05-16T02:08:10.000Z</time>
      </trkpt>
      <trkpt lat="52.15999" lon="-1.83633">
        <ele>28.98307</ele>
        <time>2017-05-16T02:08:20.000Z</time>
      </trkpt>
      <trkpt lat="52.15998" lon="-1.83683">
        <ele>28.97404</ele>
        <time>2017-05-16T02:08:27.000Z</time>
      </trkpt>
      <trkpt lat="52.15997" lon="-1.83712">
        <ele>28.91626</ele>
        <time>2017-05-16T02:08:30.000Z</time>
      </trkpt>
      <trkpt lat="52.15994" lon="-1.83748">
        <ele>28.92951</ele>
        <time>2017-05-16T02:08:35.000Z</time>
      </trkpt>
      <trkpt lat="52.15991" lon="-1.83778">
        <ele>29.16877</ele>
        <time>2017-05-16T02:08:38.000Z</time>
      </trkpt>
      <trkpt lat="52.15981" lon="-1.83828">
        <ele>29.64549</ele>
        <time>2017-05-16T02:08:45.000Z</time>
      </trkpt>
      <trkpt lat="52.15958" lon="-1.83934">
        <ele>30.07656</ele>
        <time>2017-05-16T02:08:59.000Z</time>
      </trkpt>
      <trkpt lat="52.15937" lon="-1.84029">
        <ele>29.00072</ele>
        <time>2017-05-16T02:09:11.000Z</time>
      </trkpt>
      <trkpt lat="52.15935" lon="-1.84039">
        <ele>28.99842</ele>
        <time>2017-05-16T02:09:12.000Z</time>
      </trkpt>
      <trkpt lat="52.15928" lon="-1.84075">
        <ele>29.08367</ele>
        <time>2017-05-16T02:09:17.000Z</time>
      </trkpt>
      <trkpt lat="52.15922" lon="-1.84104">
        <ele>29.37033</ele>
        <time>2017-05-16T02:09:21.000Z</time>
      </trkpt>
      <trkpt lat="52.15916" lon="-1.84142">
        <ele>29.46122</ele>
        <time>2017-05-16T02:09:26.000Z</time>
      </trkpt>
      <trkpt lat="52.15912" lon="-1.84165">
        <ele>29.44024</ele>
        <time>2017-05-16T02:09:28.000Z</time>
      </trkpt>
      <trkpt lat="52.1591" lon="-1.84183">
        <ele>29.40336</ele>
        <time>2017-05-16T02:09:31.000Z</time>
      </trkpt>
      <trkpt lat="52.15909" lon="-1.84201">
        <ele>29.45489</ele>
        <time>2017-05-16T02:09:33.000Z</time>
      </trkpt>
      <trkpt lat="52.15909" lon="-1.84218">
        <ele>29.5131</ele>
        <time>2017-05-16T02:09:35.000Z</time>
      </trkpt>
      <trkpt lat="52.15909" lon="-1.84241">
        <ele>29.48214</ele>
        <time>2017-05-16T02:09:38.000Z</time>
      </trkpt>
      <trkpt lat="52.1591" lon="-1.84276">
        <ele>29.21551</ele>
        <time>2017-05-16T02:09:42.000Z</time>
      </trkpt>
      <trkpt lat="52.15909" lon="-1.843">
        <ele>29.25364</ele>
        <time>2017-05-16T02:09:45.000Z</time>
      </trkpt>
      <trkpt lat="52.15909" lon="-1.84312">
        <ele>29.27216</ele>
        <time>2017-05-16T02:09:47.000Z</time>
      </trkpt>
      <trkpt lat="52.15905" lon="-1.84351">
        <ele>29.23377</ele>
        <time>2017-05-16T02:09:51.000Z</time>
      </trkpt>
      <trkpt lat="52.15905" lon="-1.84353">
        <ele>29.23975</ele>
        <time>2017-05-16T02:09:52.000Z</time>
      </trkpt>
      <trkpt lat="52.15902" lon="-1.84394">
        <ele>29.24817</ele>
        <time>2017-05-16T02:09:57.000Z</time>
      </trkpt>
      <trkpt lat="52.159" lon="-1.8441">
        <ele>29.19596</ele>
        <time>2017-05-16T02:09:59.000Z</time>
      </trkpt>
      <trkpt lat="52.15898" lon="-1.8442">
        <ele>29.15199</ele>
        <time>2017-05-16T02:10:00.000Z</time>
      </trkpt>
      <trkpt lat="52.15896" lon="-1.84426">
        <ele>29.12929</ele>
        <time>2017-05-16T02:10:01.000Z</time>
      </trkpt>
      <trkpt lat="52.15893" lon="-1.84428">
        <ele>29.1572</ele>
        <time>2017-05-16T02:10:02.000Z</time>
      </trkpt>
      <trkpt lat="52.15883" lon="-1.84429">
        <ele>29.26571</ele>
        <time>2017-05-16T02:10:04.000Z</time>
      </trkpt>
      <trkpt lat="52.15875" lon="-1.84428">
        <ele>29.35412</ele>
        <time>2017-05-16T02:10:05.000Z</time>
      </trkpt>
      <trkpt lat="52.15858" lon="-1.84424">
        <ele>29.55037</ele>
        <time>2017-05-16T02:10:09.000Z</time>
      </trkpt>
      <trkpt lat="52.15847" lon="-1.84421">
        <ele>29.65459</ele>
        <time>2017-05-16T02:10:11.000Z</time>
      </trkpt>
      <trkpt lat="52.15833" lon="-1.84418">
        <ele>29.89169</ele>
        <time>2017-05-16T02:10:14.000Z</time>
      </trkpt>
      <trkpt lat="52.15829" lon="-1.84418">
        <ele>29.96362</ele>
        <time>2017-05-16T02:10:15.000Z</time>
      </trkpt>
      <trkpt lat="52.15823" lon="-1.84419">
        <ele>30.13322</ele>
        <time>2017-05-16T02:10:16.000Z</time>
      </trkpt>
      <trkpt lat="52.15819" lon="-1.84421">
        <ele>30.26184</ele>
        <time>2017-05-16T02:10:17.000Z</time>
      </trkpt>
      <trkpt lat="52.15815" lon="-1.84425">
        <ele>30.35855</ele>
        <time>2017-05-16T02:10:18.000Z</time>
      </trkpt>
      <trkpt lat="52.1581" lon="-1.84434">
        <ele>30.37032</ele>
        <time>2017-05-16T02:10:19.000Z</time>
      </trkpt>
      <trkpt lat="52.15808" lon="-1.84438">
        <ele>30.3656</ele>
        <time>2017-05-16T02:10:20.000Z</time>
      </trkpt>
      <trkpt lat="52.15805" lon="-1.84446">
        <ele>30.36973</ele>
        <time>2017-05-16T02:10:21.000Z</time>
      </trkpt>
      <trkpt lat="52.15802" lon="-1.84456">
        <ele>30.44242</ele>
        <time>2017-05-16T02:10:22.000Z</time>
      </trkpt>
      <trkpt lat="52.15798" lon="-1.84473">
        <ele>30.65107</ele>
        <time>2017-05-16T02:10:24.000Z</time>
      </trkpt>
      <trkpt lat="52.15797" lon="-1.84478">
        <ele>30.70176</ele>
        <time>2017-05-16T02:10:25.000Z</time>
      </trkpt>
      <trkpt lat="52.15796" lon="-1.84486">
        <ele>30.71589</ele>
        <time>2017-05-16T02:10:26.000Z</time>
      </trkpt>
      <trkpt lat="52.15793" lon="-1.84506">
        <ele>30.8597</ele>
        <time>2017-05-16T02:10:29.000Z</time>
      </trkpt>
      <trkpt lat="52.15791" lon="-1.84518">
        <ele>31.05703</ele>
        <time>2017-05-16T02:10:30.000Z</time>
      </trkpt>
      <trkpt lat="52.15789" lon="-1.84538">
        <ele>31.30289</ele>
        <time>2017-05-16T02:10:33.000Z</time>
      </trkpt>
      <trkpt lat="52.15785" lon="-1.84578">
        <ele>31.44448</ele>
        <time>2017-05-16T02:10:38.000Z</time>
      </trkpt>
      <trkpt lat="52.15781" lon="-1.84608">
        <ele>31.54282</ele>
        <time>2017-05-16T02:10:41.000Z</time>
      </trkpt>
      <trkpt lat="52.15777" lon="-1.84636">
        <ele>31.57595</ele>
        <time>2017-05-16T02:10:45.000Z</time>
      </trkpt>
      <trkpt lat="52.15772" lon="-1.84658">
        <ele>31.51231</ele>
        <time>2017-05-16T02:10:48.000Z</time>
      </trkpt>
      <trkpt lat="52.15767" lon="-1.84677">
        <ele>31.34855</ele>
        <time>2017-05-16T02:10:50.000Z</time>
      </trkpt>
      <trkpt lat="52.1576" lon="-1.847">
        <ele>31.20561</ele>
        <time>2017-05-16T02:10:54.000Z</time>
      </trkpt>
      <trkpt lat="52.15754" lon="-1.84716">
        <ele>31.20037</ele>
        <time>2017-05-16T02:10:56.000Z</time>
      </trkpt>
      <trkpt lat="52.1574" lon="-1.84749">
        <ele>31.31661</ele>
        <time>2017-05-16T02:11:01.000Z</time>
      </trkpt>
      <trkpt lat="52.15727" lon="-1.84779">
        <ele>31.51486</ele>
        <time>2017-05-16T02:11:05.000Z</time>
      </trkpt>
      <trkpt lat="52.15722" lon="-1.84792">
        <ele>31.63135</ele>
        <time>2017-05-16T02:11:07.000Z</time>
      </trkpt>
      <trkpt lat="52.15714" lon="-1.84814">
        <ele>31.7654</ele>
        <time>2017-05-16T02:11:10.000Z</time>
      </trkpt>
      <trkpt lat="52.15711" lon="-1.84822">
        <ele>31.81824</ele>
        <time>2017-05-16T02:11:11.000Z</time>
      </trkpt>
      <trkpt lat="52.15707" lon="-1.84837">
        <ele>31.91606</ele>
        <time>2017-05-16T02:11:13.000Z</time>
      </trkpt>
      <trkpt lat="52.15703" lon="-1.84856">
        <ele>31.92054</ele>
        <time>2017-05-16T02:11:16.000Z</time>
      </trkpt>
      <trkpt lat="52.15691" lon="-1.84914">
        <ele>31.96082</ele>
        <time>2017-05-16T02:11:23.000Z</time>
      </trkpt>
      <trkpt lat="52.15684" lon="-1.84954">
        <ele>32.00622</ele>
        <time>2017-05-16T02:11:29.000Z</time>
      </trkpt>
      <trkpt lat="52.15672" lon="-1.85021">
        <ele>31.9485</ele>
        <time>2017-05-16T02:11:37.000Z</time>
      </trkpt>
      <trkpt lat="52.15665" lon="-1.85063">
        <ele>31.78181</ele>
        <time>2017-05-16T02:11:43.000Z</time>
        <name>52.156650,-1.850630</name>
        <extensions>
          <oa:locType>calcWayPoint</oa:locType>
        </extensions>
      </trkpt>
      <trkpt lat="52.15659" lon="-1.85102">
        <ele>31.54487</ele>
        <time>2017-05-16T02:11:47.000Z</time>
      </trkpt>
      <trkpt lat="52.15658" lon="-1.85103">
        <ele>31.56508</ele>
        <time>2017-05-16T02:11:48.000Z</time>
      </trkpt>
      <trkpt lat="52.15658" lon="-1.85112">
        <ele>31.47822</ele>
        <time>2017-05-16T02:11:49.000Z</time>
      </trkpt>
      <trkpt lat="52.15657" lon="-1.85119">
        <ele>31.40252</ele>
        <time>2017-05-16T02:11:50.000Z</time>
      </trkpt>
      <trkpt lat="52.15657" lon="-1.85125">
        <ele>31.36178</ele>
        <time>2017-05-16T02:11:50.716Z</time>
      </trkpt>
      <trkpt lat="52.15702" lon="-1.85151">
        <ele>31.01734</ele>
        <time>2017-05-16T02:12:00.000Z</time>
      </trkpt>
      <trkpt lat="52.15752" lon="-1.85178">
        <ele>30.82498</ele>
        <time>2017-05-16T02:12:11.000Z</time>
      </trkpt>
      <trkpt lat="52.15768" lon="-1.85189">
        <ele>30.63226</ele>
        <time>2017-05-16T02:12:14.000Z</time>
      </trkpt>
      <trkpt lat="52.15795" lon="-1.85204">
        <ele>30.03694</ele>
        <time>2017-05-16T02:12:20.000Z</time>
      </trkpt>
      <trkpt lat="52.15835" lon="-1.85222">
        <ele>29.11218</ele>
        <time>2017-05-16T02:12:28.000Z</time>
      </trkpt>
      <trkpt lat="52.15867" lon="-1.85234">
        <ele>28.86161</ele>
        <time>2017-05-16T02:12:35.000Z</time>
      </trkpt>
      <trkpt lat="52.15881" lon="-1.8524">
        <ele>28.92568</ele>
        <time>2017-05-16T02:12:38.000Z</time>
      </trkpt>
      <trkpt lat="52.15885" lon="-1.85242">
        <ele>28.9201</ele>
        <time>2017-05-16T02:12:38.788Z</time>
      </trkpt>
      <trkpt lat="52.15912" lon="-1.85252">
        <ele>28.78977</ele>
        <time>2017-05-16T02:12:44.000Z</time>
      </trkpt>
      <trkpt lat="52.15938" lon="-1.85262">
        <ele>28.78732</ele>
        <time>2017-05-16T02:12:49.000Z</time>
      </trkpt>
      <trkpt lat="52.1596" lon="-1.85267">
        <ele>28.84569</ele>
        <time>2017-05-16T02:12:54.000Z</time>
      </trkpt>
      <trkpt lat="52.15976" lon="-1.8527">
        <ele>28.77792</ele>
        <time>2017-05-16T02:12:57.000Z</time>
      </trkpt>
      <trkpt lat="52.16003" lon="-1.85275">
        <ele>28.64467</ele>
        <time>2017-05-16T02:13:02.000Z</time>
      </trkpt>
      <trkpt lat="52.16036" lon="-1.8528">
        <ele>28.77539</ele>
        <time>2017-05-16T02:13:09.000Z</time>
      </trkpt>
      <trkpt lat="52.16046" lon="-1.85284">
        <ele>28.86224</ele>
        <time>2017-05-16T02:13:11.000Z</time>
      </trkpt>
      <trkpt lat="52.16053" lon="-1.85287">
        <ele>28.77039</ele>
        <time>2017-05-16T02:13:13.000Z</time>
      </trkpt>
      <trkpt lat="52.16059" lon="-1.85291">
        <ele>28.68629</ele>
        <time>2017-05-16T02:13:14.000Z</time>
      </trkpt>
      <trkpt lat="52.16069" lon="-1.853">
        <ele>28.90476</ele>
        <time>2017-05-16T02:13:16.000Z</time>
      </trkpt>
      <trkpt lat="52.16087" lon="-1.8532">
        <ele>28.75048</ele>
        <time>2017-05-16T02:13:21.000Z</time>
      </trkpt>
      <trkpt lat="52.16124" lon="-1.85361">
        <ele>28.84837</ele>
        <time>2017-05-16T02:13:29.000Z</time>
      </trkpt>
      <trkpt lat="52.16176" lon="-1.85422">
        <ele>28.85496</ele>
        <time>2017-05-16T02:13:42.000Z</time>
      </trkpt>
      <trkpt lat="52.16213" lon="-1.85465">
        <ele>28.80309</ele>
        <time>2017-05-16T02:13:51.000Z</time>
      </trkpt>
      <trkpt lat="52.16222" lon="-1.85475">
        <ele>28.8228</ele>
        <time>2017-05-16T02:13:54.000Z</time>
      </trkpt>
      <trkpt lat="52.16258" lon="-1.85515">
        <ele>28.81119</ele>
        <time>2017-05-16T02:14:02.000Z</time>
      </trkpt>
      <trkpt lat="52.16285" lon="-1.85546">
        <ele>28.86796</ele>
        <time>2017-05-16T02:14:09.000Z</time>
      </trkpt>
      <trkpt lat="52.16316" lon="-1.85583">
        <ele>28.79868</ele>
        <time>2017-05-16T02:14:17.000Z</time>
      </trkpt>
      <trkpt lat="52.16336" lon="-1.85608">
        <ele>29.07609</ele>
        <time>2017-05-16T02:14:22.000Z</time>
      </trkpt>
      <trkpt lat="52.16347" lon="-1.85622">
        <ele>29.06527</ele>
        <time>2017-05-16T02:14:25.000Z</time>
      </trkpt>
      <trkpt lat="52.16352" lon="-1.85627">
        <ele>29.039</ele>
        <time>2017-05-16T02:14:26.000Z</time>
      </trkpt>
      <trkpt lat="52.16356" lon="-1.85631">
        <ele>29.03542</ele>
        <time>2017-05-16T02:14:27.000Z</time>
      </trkpt>
      <trkpt lat="52.16364" lon="-1.85639">
        <ele>28.58201</ele>
        <time>2017-05-16T02:14:29.000Z</time>
      </trkpt>
      <trkpt lat="52.1637" lon="-1.85643">
        <ele>27.88944</ele>
        <time>2017-05-16T02:14:30.000Z</time>
      </trkpt>
      <trkpt lat="52.16376" lon="-1.85647">
        <ele>26.96298</ele>
        <time>2017-05-16T02:14:31.000Z</time>
      </trkpt>
      <trkpt lat="52.16388" lon="-1.85652">
        <ele>26.52242</ele>
        <time>2017-05-16T02:14:34.000Z</time>
      </trkpt>
      <trkpt lat="52.16401" lon="-1.85658">
        <ele>26.51899</ele>
        <time>2017-05-16T02:14:36.000Z</time>
      </trkpt>
      <trkpt lat="52.16414" lon="-1.85663">
        <ele>26.82962</ele>
        <time>2017-05-16T02:14:39.000Z</time>
      </trkpt>
      <trkpt lat="52.16429" lon="-1.85671">
        <ele>29.16802</ele>
        <time>2017-05-16T02:14:42.000Z</time>
      </trkpt>
      <trkpt lat="52.16432" lon="-1.85673">
        <ele>29.33907</ele>
        <time>2017-05-16T02:14:43.000Z</time>
      </trkpt>
      <trkpt lat="52.16436" lon="-1.85677">
        <ele>29.2897</ele>
        <time>2017-05-16T02:14:44.000Z</time>
      </trkpt>
      <trkpt lat="52.16442" lon="-1.85684">
        <ele>29.25305</ele>
        <time>2017-05-16T02:14:45.000Z</time>
        <name>52.164420,-1.856840</name>
        <extensions>
          <oa:locType>calcWayPoint</oa:locType>
        </extensions>
      </trkpt>
      <trkpt lat="52.16446" lon="-1.85658">
        <ele>29.32234</ele>
        <time>2017-05-16T02:14:49.000Z</time>
      </trkpt>
      <trkpt lat="52.16461" lon="-1.85591">
        <ele>30.0276</ele>
        <time>2017-05-16T02:14:57.000Z</time>
      </trkpt>
      <trkpt lat="52.16471" lon="-1.85553">
        <ele>30.52418</ele>
        <time>2017-05-16T02:15:02.000Z</time>
      </trkpt>
      <trkpt lat="52.16473" lon="-1.85546">
        <ele>30.58868</ele>
        <time>2017-05-16T02:15:03.000Z</time>
      </trkpt>
      <trkpt lat="52.16482" lon="-1.8552">
        <ele>30.66532</ele>
        <time>2017-05-16T02:15:07.000Z</time>
      </trkpt>
      <trkpt lat="52.16486" lon="-1.8551">
        <ele>30.88447</ele>
        <time>2017-05-16T02:15:08.000Z</time>
      </trkpt>
      <trkpt lat="52.16494" lon="-1.85491">
        <ele>31.21209</ele>
        <time>2017-05-16T02:15:11.000Z</time>
      </trkpt>
      <trkpt lat="52.16503" lon="-1.85471">
        <ele>31.45074</ele>
        <time>2017-05-16T02:15:14.000Z</time>
      </trkpt>
      <trkpt lat="52.16508" lon="-1.85463">
        <ele>31.64943</ele>
        <time>2017-05-16T02:15:16.000Z</time>
      </trkpt>
      <trkpt lat="52.1652" lon="-1.85443">
        <ele>32.19403</ele>
        <time>2017-05-16T02:15:19.000Z</time>
      </trkpt>
      <trkpt lat="52.16529" lon="-1.8543">
        <ele>32.52312</ele>
        <time>2017-05-16T02:15:22.000Z</time>
      </trkpt>
      <trkpt lat="52.16533" lon="-1.85424">
        <ele>32.68627</ele>
        <time>2017-05-16T02:15:23.000Z</time>
      </trkpt>
      <trkpt lat="52.16538" lon="-1.85417">
        <ele>32.92191</ele>
        <time>2017-05-16T02:15:24.000Z</time>
      </trkpt>
      <trkpt lat="52.16542" lon="-1.85411">
        <ele>33.07921</ele>
        <time>2017-05-16T02:15:25.000Z</time>
      </trkpt>
      <trkpt lat="52.16558" lon="-1.85381">
        <ele>33.75718</ele>
        <time>2017-05-16T02:15:30.000Z</time>
      </trkpt>
      <trkpt lat="52.16577" lon="-1.85344">
        <ele>34.21695</ele>
        <time>2017-05-16T02:15:36.000Z</time>
      </trkpt>
      <trkpt lat="52.16594" lon="-1.85311">
        <ele>34.65197</ele>
        <time>2017-05-16T02:15:41.000Z</time>
      </trkpt>
      <trkpt lat="52.16605" lon="-1.85289">
        <ele>34.7751</ele>
        <time>2017-05-16T02:15:45.000Z</time>
      </trkpt>
      <trkpt lat="52.16622" lon="-1.85262">
        <ele>35.6401</ele>
        <time>2017-05-16T02:15:49.000Z</time>
      </trkpt>
      <trkpt lat="52.16626" lon="-1.85258">
        <ele>35.85653</ele>
        <time>2017-05-16T02:15:50.000Z</time>
      </trkpt>
      <trkpt lat="52.16628" lon="-1.85256">
        <ele>35.97565</ele>
        <time>2017-05-16T02:15:51.000Z</time>
      </trkpt>
      <trkpt lat="52.16633" lon="-1.85252">
        <ele>36.30252</ele>
        <time>2017-05-16T02:15:52.000Z</time>
      </trkpt>
      <trkpt lat="52.16639" lon="-1.85247">
        <ele>36.65812</ele>
        <time>2017-05-16T02:15:53.000Z</time>
      </trkpt>
      <trkpt lat="52.16643" lon="-1.85244">
        <ele>36.85997</ele>
        <time>2017-05-16T02:15:54.000Z</time>
      </trkpt>
      <trkpt lat="52.16647" lon="-1.85242">
        <ele>36.97841</ele>
        <time>2017-05-16T02:15:55.000Z</time>
      </trkpt>
      <trkpt lat="52.1665" lon="-1.8524">
        <ele>36.99782</ele>
        <time>2017-05-16T02:15:56.000Z</time>
      </trkpt>
      <trkpt lat="52.16655" lon="-1.8524">
        <ele>37.08996</ele>
        <time>2017-05-16T02:15:57.000Z</time>
      </trkpt>
      <trkpt lat="52.16654" lon="-1.85216">
        <ele>37.29758</ele>
        <time>2017-05-16T02:16:00.000Z</time>
      </trkpt>
      <trkpt lat="52.16653" lon="-1.85197">
        <ele>37.51561</ele>
        <time>2017-05-16T02:16:02.000Z</time>
      </trkpt>
      <trkpt lat="52.16653" lon="-1.85185">
        <ele>37.67689</ele>
        <time>2017-05-16T02:16:03.000Z</time>
      </trkpt>
      <trkpt lat="52.16654" lon="-1.85152">
        <ele>38.19184</ele>
        <time>2017-05-16T02:16:08.000Z</time>
      </trkpt>
      <trkpt lat="52.16659" lon="-1.85114">
        <ele>39.06808</ele>
        <time>2017-05-16T02:16:12.000Z</time>
      </trkpt>
      <trkpt lat="52.16666" lon="-1.85082">
        <ele>40.21724</ele>
        <time>2017-05-16T02:16:16.000Z</time>
      </trkpt>
      <trkpt lat="52.16677" lon="-1.85044">
        <ele>42.49386</ele>
        <time>2017-05-16T02:16:22.000Z</time>
      </trkpt>
      <trkpt lat="52.1669" lon="-1.85004">
        <ele>45.05449</ele>
        <time>2017-05-16T02:16:27.000Z</time>
      </trkpt>
      <trkpt lat="52.16707" lon="-1.84949">
        <ele>48.39037</ele>
        <time>2017-05-16T02:16:35.000Z</time>
      </trkpt>
      <trkpt lat="52.16715" lon="-1.84922">
        <ele>49.27513</ele>
        <time>2017-05-16T02:16:38.000Z</time>
      </trkpt>
      <trkpt lat="52.16724" lon="-1.84893">
        <ele>49.71143</ele>
        <time>2017-05-16T02:16:42.000Z</time>
      </trkpt>
      <trkpt lat="52.16732" lon="-1.84864">
        <ele>49.84637</ele>
        <time>2017-05-16T02:16:46.000Z</time>
      </trkpt>
      <trkpt lat="52.16735" lon="-1.84848">
        <ele>49.95737</ele>
        <time>2017-05-16T02:16:48.000Z</time>
      </trkpt>
      <trkpt lat="52.16737" lon="-1.84837">
        <ele>50.05006</ele>
        <time>2017-05-16T02:16:50.000Z</time>
      </trkpt>
      <trkpt lat="52.16739" lon="-1.8482">
        <ele>50.09699</ele>
        <time>2017-05-16T02:16:52.000Z</time>
      </trkpt>
      <trkpt lat="52.16742" lon="-1.84795">
        <ele>50.07688</ele>
        <time>2017-05-16T02:16:55.000Z</time>
      </trkpt>
      <trkpt lat="52.16742" lon="-1.84791">
        <ele>50.10175</ele>
        <time>2017-05-16T02:16:56.000Z</time>
      </trkpt>
      <trkpt lat="52.16745" lon="-1.84762">
        <ele>50.38968</ele>
        <time>2017-05-16T02:16:59.000Z</time>
      </trkpt>
      <trkpt lat="52.16748" lon="-1.84721">
        <ele>50.9029</ele>
        <time>2017-05-16T02:17:04.000Z</time>
      </trkpt>
      <trkpt lat="52.16751" lon="-1.84686">
        <ele>51.39615</ele>
        <time>2017-05-16T02:17:09.000Z</time>
      </trkpt>
      <trkpt lat="52.16753" lon="-1.84663">
        <ele>51.86087</ele>
        <time>2017-05-16T02:17:11.000Z</time>
      </trkpt>
      <trkpt lat="52.16753" lon="-1.84657">
        <ele>51.92299</ele>
        <time>2017-05-16T02:17:12.000Z</time>
      </trkpt>
      <trkpt lat="52.16753" lon="-1.84663">
        <ele>51.86087</ele>
        <time>2017-05-16T02:17:13.000Z</time>
      </trkpt>
      <trkpt lat="52.16751" lon="-1.84686">
        <ele>51.39615</ele>
        <time>2017-05-16T02:17:16.000Z</time>
      </trkpt>
      <trkpt lat="52.16786" lon="-1.84687">
        <ele>51.84595</ele>
        <time>2017-05-16T02:17:23.000Z</time>
      </trkpt>
      <trkpt lat="52.16788" lon="-1.84687">
        <ele>51.821</ele>
        <time>2017-05-16T02:17:23.383Z</time>
      </trkpt>
      <trkpt lat="52.16833" lon="-1.84684">
        <ele>51.6038</ele>
        <time>2017-05-16T02:17:32.000Z</time>
      </trkpt>
      <trkpt lat="52.16864" lon="-1.84678">
        <ele>51.55044</ele>
        <time>2017-05-16T02:17:39.000Z</time>
      </trkpt>
      <trkpt lat="52.16899" lon="-1.84673">
        <ele>51.50142</ele>
        <time>2017-05-16T02:17:46.000Z</time>
      </trkpt>
      <trkpt lat="52.1692" lon="-1.84674">
        <ele>51.45292</ele>
        <time>2017-05-16T02:17:50.000Z</time>
      </trkpt>
      <trkpt lat="52.16931" lon="-1.84675">
        <ele>51.4192</ele>
        <time>2017-05-16T02:17:52.000Z</time>
      </trkpt>
      <trkpt lat="52.16946" lon="-1.84678">
        <ele>51.32862</ele>
        <time>2017-05-16T02:17:55.000Z</time>
      </trkpt>
      <trkpt lat="52.16958" lon="-1.8468">
        <ele>51.25317</ele>
        <time>2017-05-16T02:17:57.000Z</time>
      </trkpt>
      <trkpt lat="52.16968" lon="-1.8468">
        <ele>51.22428</ele>
        <time>2017-05-16T02:17:59.000Z</time>
      </trkpt>
      <trkpt lat="52.16989" lon="-1.84679">
        <ele>51.17954</ele>
        <time>2017-05-16T02:18:04.000Z</time>
      </trkpt>
      <trkpt lat="52.16997" lon="-1.84678">
        <ele>51.18962</ele>
        <time>2017-05-16T02:18:05.000Z</time>
      </trkpt>
      <trkpt lat="52.1702" lon="-1.84673">
        <ele>51.31272</ele>
        <time>2017-05-16T02:18:10.000Z</time>
      </trkpt>
      <trkpt lat="52.17066" lon="-1.8466">
        <ele>50.86176</ele>
        <time>2017-05-16T02:18:19.000Z</time>
      </trkpt>
      <trkpt lat="52.17098" lon="-1.8465">
        <ele>50.42776</ele>
        <time>2017-05-16T02:18:26.000Z</time>
      </trkpt>
      <trkpt lat="52.17107" lon="-1.84647">
        <ele>50.31478</ele>
        <time>2017-05-16T02:18:28.000Z</time>
      </trkpt>
      <trkpt lat="52.17122" lon="-1.84644">
        <ele>50.11645</ele>
        <time>2017-05-16T02:18:31.000Z</time>
      </trkpt>
      <trkpt lat="52.17164" lon="-1.84634">
        <ele>49.71773</ele>
        <time>2017-05-16T02:18:39.000Z</time>
      </trkpt>
      <trkpt lat="52.17229" lon="-1.84623">
        <ele>48.97467</ele>
        <time>2017-05-16T02:18:52.000Z</time>
      </trkpt>
      <trkpt lat="52.1724" lon="-1.84621">
        <ele>48.74762</ele>
        <time>2017-05-16T02:18:54.000Z</time>
      </trkpt>
      <trkpt lat="52.17273" lon="-1.84608">
        <ele>48.32126</ele>
        <time>2017-05-16T02:19:01.000Z</time>
      </trkpt>
      <trkpt lat="52.17287" lon="-1.84604">
        <ele>48.04194</ele>
        <time>2017-05-16T02:19:04.000Z</time>
      </trkpt>
      <trkpt lat="52.17289" lon="-1.84603">
        <ele>47.9874</ele>
        <time>2017-05-16T02:19:05.000Z</time>
      </trkpt>
      <trkpt lat="52.17316" lon="-1.84597">
        <ele>47.67196</ele>
        <time>2017-05-16T02:19:10.000Z</time>
      </trkpt>
      <trkpt lat="52.17352" lon="-1.84591">
        <ele>47.98546</ele>
        <time>2017-05-16T02:19:17.000Z</time>
      </trkpt>
      <trkpt lat="52.17361" lon="-1.84587">
        <ele>46.90713</ele>
        <time>2017-05-16T02:19:19.000Z</time>
      </trkpt>
      <trkpt lat="52.17382" lon="-1.84577">
        <ele>47.61748</ele>
        <time>2017-05-16T02:19:23.000Z</time>
      </trkpt>
      <trkpt lat="52.17394" lon="-1.84566">
        <ele>46.77129</ele>
        <time>2017-05-16T02:19:26.000Z</time>
      </trkpt>
      <trkpt lat="52.17409" lon="-1.8455">
        <ele>45.95991</ele>
        <time>2017-05-16T02:19:30.000Z</time>
      </trkpt>
      <trkpt lat="52.17422" lon="-1.84532">
        <ele>44.93925</ele>
        <time>2017-05-16T02:19:33.000Z</time>
      </trkpt>
      <trkpt lat="52.17442" lon="-1.84498">
        <ele>43.287</ele>
        <time>2017-05-16T02:19:39.000Z</time>
      </trkpt>
      <trkpt lat="52.17458" lon="-1.84466">
        <ele>42.53044</ele>
        <time>2017-05-16T02:19:44.000Z</time>
      </trkpt>
      <trkpt lat="52.17472" lon="-1.84433">
        <ele>42.15454</ele>
        <time>2017-05-16T02:19:49.000Z</time>
      </trkpt>
      <trkpt lat="52.17488" lon="-1.8438">
        <ele>42.01739</ele>
        <time>2017-05-16T02:19:56.000Z</time>
      </trkpt>
      <trkpt lat="52.17531" lon="-1.84245">
        <ele>43.09349</ele>
        <time>2017-05-16T02:20:15.000Z</time>
      </trkpt>
      <trkpt lat="52.17588" lon="-1.84083">
        <ele>46.43723</ele>
        <time>2017-05-16T02:20:38.000Z</time>
      </trkpt>
      <trkpt lat="52.176" lon="-1.84055">
        <ele>47.724</ele>
        <time>2017-05-16T02:20:42.000Z</time>
      </trkpt>
      <trkpt lat="52.17606" lon="-1.84044">
        <ele>48.34952</ele>
        <time>2017-05-16T02:20:44.000Z</time>
      </trkpt>
      <trkpt lat="52.17612" lon="-1.84039">
        <ele>48.86997</ele>
        <time>2017-05-16T02:20:45.000Z</time>
      </trkpt>
      <trkpt lat="52.17622" lon="-1.84036">
        <ele>49.57297</ele>
        <time>2017-05-16T02:20:47.000Z</time>
      </trkpt>
      <trkpt lat="52.17641" lon="-1.84034">
        <ele>51.59039</ele>
        <time>2017-05-16T02:20:51.000Z</time>
      </trkpt>
      <trkpt lat="52.17691" lon="-1.84029">
        <ele>59.25131</ele>
        <time>2017-05-16T02:21:01.000Z</time>
      </trkpt>
      <trkpt lat="52.17697" lon="-1.84028">
        <ele>60.39547</ele>
        <time>2017-05-16T02:21:02.000Z</time>
      </trkpt>
      <trkpt lat="52.17703" lon="-1.84027">
        <ele>61.4643</ele>
        <time>2017-05-16T02:21:04.000Z</time>
      </trkpt>
      <trkpt lat="52.17709" lon="-1.84024">
        <ele>62.52351</ele>
        <time>2017-05-16T02:21:05.000Z</time>
      </trkpt>
      <trkpt lat="52.17715" lon="-1.8402">
        <ele>63.53095</ele>
        <time>2017-05-16T02:21:06.000Z</time>
      </trkpt>
      <trkpt lat="52.17722" lon="-1.84014">
        <ele>64.62799</ele>
        <time>2017-05-16T02:21:08.000Z</time>
      </trkpt>
      <trkpt lat="52.17733" lon="-1.84002">
        <ele>65.57744</ele>
        <time>2017-05-16T02:21:10.000Z</time>
      </trkpt>
      <trkpt lat="52.17756" lon="-1.83963">
        <ele>64.80436</ele>
        <time>2017-05-16T02:21:17.000Z</time>
      </trkpt>
      <trkpt lat="52.17788" lon="-1.83922">
        <ele>62.24691</ele>
        <time>2017-05-16T02:21:25.000Z</time>
      </trkpt>
      <trkpt lat="52.17801" lon="-1.83907">
        <ele>61.79763</ele>
        <time>2017-05-16T02:21:28.000Z</time>
      </trkpt>
      <trkpt lat="52.17811" lon="-1.83898">
        <ele>61.91308</ele>
        <time>2017-05-16T02:21:31.000Z</time>
      </trkpt>
      <trkpt lat="52.17895" lon="-1.83833">
        <ele>66.50911</ele>
        <time>2017-05-16T02:21:49.000Z</time>
      </trkpt>
      <trkpt lat="52.17996" lon="-1.83757">
        <ele>65.45939</ele>
        <time>2017-05-16T02:22:12.000Z</time>
      </trkpt>
      <trkpt lat="52.18087" lon="-1.83684">
        <ele>64.96412</ele>
        <time>2017-05-16T02:22:32.000Z</time>
      </trkpt>
      <trkpt lat="52.18153" lon="-1.83617">
        <ele>66.94973</ele>
        <time>2017-05-16T02:22:48.000Z</time>
      </trkpt>
      <trkpt lat="52.18274" lon="-1.83486">
        <ele>71.52864</ele>
        <time>2017-05-16T02:23:17.000Z</time>
      </trkpt>
      <trkpt lat="52.1828" lon="-1.83477">
        <ele>71.74702</ele>
        <time>2017-05-16T02:23:18.000Z</time>
      </trkpt>
      <trkpt lat="52.18284" lon="-1.83473">
        <ele>71.83627</ele>
        <time>2017-05-16T02:23:19.000Z</time>
      </trkpt>
      <trkpt lat="52.18289" lon="-1.83468">
        <ele>71.96091</ele>
        <time>2017-05-16T02:23:20.000Z</time>
      </trkpt>
      <trkpt lat="52.183" lon="-1.83458">
        <ele>72.36819</ele>
        <time>2017-05-16T02:23:23.000Z</time>
      </trkpt>
      <trkpt lat="52.18322" lon="-1.8344">
        <ele>73.19455</ele>
        <time>2017-05-16T02:23:28.000Z</time>
      </trkpt>
      <trkpt lat="52.18398" lon="-1.83378">
        <ele>76.42819</ele>
        <time>2017-05-16T02:23:45.000Z</time>
      </trkpt>
      <trkpt lat="52.18504" lon="-1.83293">
        <ele>81.30674</ele>
        <time>2017-05-16T02:24:09.000Z</time>
      </trkpt>
      <trkpt lat="52.18525" lon="-1.83268">
        <ele>82.49425</ele>
        <time>2017-05-16T02:24:14.000Z</time>
      </trkpt>
      <trkpt lat="52.18564" lon="-1.83211">
        <ele>84.91478</ele>
        <time>2017-05-16T02:24:24.000Z</time>
      </trkpt>
      <trkpt lat="52.18585" lon="-1.83182">
        <ele>86.15867</ele>
        <time>2017-05-16T02:24:30.000Z</time>
      </trkpt>
      <trkpt lat="52.18602" lon="-1.83165">
        <ele>87.58038</ele>
        <time>2017-05-16T02:24:34.000Z</time>
      </trkpt>
      <trkpt lat="52.18623" lon="-1.83149">
        <ele>89.30294</ele>
        <time>2017-05-16T02:24:38.000Z</time>
      </trkpt>
      <trkpt lat="52.1864" lon="-1.83143">
        <ele>90.59228</ele>
        <time>2017-05-16T02:24:42.000Z</time>
      </trkpt>
      <trkpt lat="52.18685" lon="-1.83144">
        <ele>92.91551</ele>
        <time>2017-05-16T02:24:51.000Z</time>
      </trkpt>
      <trkpt lat="52.18707" lon="-1.83147">
        <ele>92.87185</ele>
        <time>2017-05-16T02:24:55.000Z</time>
      </trkpt>
      <trkpt lat="52.18752" lon="-1.83153">
        <ele>90.9844</ele>
        <time>2017-05-16T02:25:04.000Z</time>
      </trkpt>
      <trkpt lat="52.18762" lon="-1.83155">
        <ele>90.51503</ele>
        <time>2017-05-16T02:25:06.000Z</time>
      </trkpt>
      <trkpt lat="52.18799" lon="-1.83117">
        <ele>89.15949</ele>
        <time>2017-05-16T02:25:15.000Z</time>
      </trkpt>
      <trkpt lat="52.18815" lon="-1.83097">
        <ele>88.06185</ele>
        <time>2017-05-16T02:25:19.000Z</time>
      </trkpt>
      <trkpt lat="52.18835" lon="-1.83064">
        <ele>87.90478</ele>
        <time>2017-05-16T02:25:25.000Z</time>
      </trkpt>
      <trkpt lat="52.18845" lon="-1.83046">
        <ele>88.42167</ele>
        <time>2017-05-16T02:25:28.000Z</time>
      </trkpt>
      <trkpt lat="52.18867" lon="-1.83007">
        <ele>89.42437</ele>
        <time>2017-05-16T02:25:34.000Z</time>
      </trkpt>
      <trkpt lat="52.189" lon="-1.82938">
        <ele>93.20276</ele>
        <time>2017-05-16T02:25:45.000Z</time>
      </trkpt>
      <trkpt lat="52.18913" lon="-1.82901">
        <ele>95.04005</ele>
        <time>2017-05-16T02:25:50.000Z</time>
      </trkpt>
      <trkpt lat="52.18933" lon="-1.82842">
        <ele>96.86981</ele>
        <time>2017-05-16T02:25:59.000Z</time>
      </trkpt>
      <trkpt lat="52.18962" lon="-1.82779">
        <ele>96.25655</ele>
        <time>2017-05-16T02:26:08.000Z</time>
      </trkpt>
      <trkpt lat="52.18998" lon="-1.82689">
        <ele>94.58176</ele>
        <time>2017-05-16T02:26:21.000Z</time>
      </trkpt>
      <trkpt lat="52.19015" lon="-1.82631">
        <ele>94.09346</ele>
        <time>2017-05-16T02:26:29.000Z</time>
      </trkpt>
      <trkpt lat="52.19041" lon="-1.82531">
        <ele>93.48845</ele>
        <time>2017-05-16T02:26:43.000Z</time>
      </trkpt>
      <trkpt lat="52.19061" lon="-1.82456">
        <ele>92.54191</ele>
        <time>2017-05-16T02:26:53.000Z</time>
      </trkpt>
      <trkpt lat="52.19095" lon="-1.82349">
        <ele>93.02432</ele>
        <time>2017-05-16T02:27:08.000Z</time>
      </trkpt>
      <trkpt lat="52.19129" lon="-1.82222">
        <ele>94.24924</ele>
        <time>2017-05-16T02:27:25.000Z</time>
      </trkpt>
      <trkpt lat="52.19134" lon="-1.82203">
        <ele>94.08052</ele>
        <time>2017-05-16T02:27:27.000Z</time>
      </trkpt>
      <trkpt lat="52.19179" lon="-1.82206">
        <ele>94.94823</ele>
        <time>2017-05-16T02:27:36.000Z</time>
      </trkpt>
      <trkpt lat="52.19197" lon="-1.82202">
        <ele>95.14296</ele>
        <time>2017-05-16T02:27:40.000Z</time>
      </trkpt>
      <trkpt lat="52.19271" lon="-1.82187">
        <ele>94.14584</ele>
        <time>2017-05-16T02:27:55.000Z</time>
        <name>52.192710,-1.821870</name>
        <extensions>
          <oa:locType>calcWayPoint</oa:locType>
        </extensions>
      </trkpt>
      <trkpt lat="52.19286" lon="-1.82191">
        <ele>93.93709</ele>
        <time>2017-05-16T02:27:58.000Z</time>
      </trkpt>
      <trkpt lat="52.19306" lon="-1.82203">
        <ele>93.84126</ele>
        <time>2017-05-16T02:28:02.000Z</time>
      </trkpt>
      <trkpt lat="52.19376" lon="-1.82262">
        <ele>94.77694</ele>
        <time>2017-05-16T02:28:18.000Z</time>
      </trkpt>
      <trkpt lat="52.19411" lon="-1.82267">
        <ele>95.65078</ele>
        <time>2017-05-16T02:28:25.000Z</time>
      </trkpt>
      <trkpt lat="52.1945" lon="-1.82262">
        <ele>95.5669</ele>
        <time>2017-05-16T02:28:33.000Z</time>
      </trkpt>
      <trkpt lat="52.19528" lon="-1.82246">
        <ele>95.97387</ele>
        <time>2017-05-16T02:28:48.000Z</time>
      </trkpt>
      <trkpt lat="52.19611" lon="-1.82241">
        <ele>98.47105</ele>
        <time>2017-05-16T02:29:05.000Z</time>
      </trkpt>
      <trkpt lat="52.19689" lon="-1.82246">
        <ele>101.66703</ele>
        <time>2017-05-16T02:29:21.000Z</time>
      </trkpt>
      <trkpt lat="52.1971" lon="-1.8225">
        <ele>102.66312</ele>
        <time>2017-05-16T02:29:25.000Z</time>
      </trkpt>
      <trkpt lat="52.19747" lon="-1.82258">
        <ele>104.62376</ele>
        <time>2017-05-16T02:29:32.000Z</time>
      </trkpt>
      <trkpt lat="52.19784" lon="-1.82258">
        <ele>106.4145</ele>
        <time>2017-05-16T02:29:40.000Z</time>
      </trkpt>
      <trkpt lat="52.19834" lon="-1.82252">
        <ele>107.35745</ele>
        <time>2017-05-16T02:29:50.000Z</time>
      </trkpt>
      <trkpt lat="52.19866" lon="-1.82245">
        <ele>107.8276</ele>
        <time>2017-05-16T02:29:56.000Z</time>
      </trkpt>
      <trkpt lat="52.19923" lon="-1.82248">
        <ele>109.19783</ele>
        <time>2017-05-16T02:30:08.000Z</time>
      </trkpt>
      <trkpt lat="52.2002" lon="-1.82267">
        <ele>108.9841</ele>
        <time>2017-05-16T02:30:27.000Z</time>
      </trkpt>
      <trkpt lat="52.20152" lon="-1.82296">
        <ele>101.10328</ele>
        <time>2017-05-16T02:30:54.000Z</time>
      </trkpt>
      <trkpt lat="52.20205" lon="-1.82308">
        <ele>98.68394</ele>
        <time>2017-05-16T02:31:05.000Z</time>
      </trkpt>
      <trkpt lat="52.20287" lon="-1.82319">
        <ele>95.60682</ele>
        <time>2017-05-16T02:31:21.000Z</time>
      </trkpt>
      <trkpt lat="52.20396" lon="-1.82335">
        <ele>83.13943</ele>
        <time>2017-05-16T02:31:43.000Z</time>
      </trkpt>
      <trkpt lat="52.2046" lon="-1.82341">
        <ele>75.72847</ele>
        <time>2017-05-16T02:31:56.000Z</time>
      </trkpt>
      <trkpt lat="52.20503" lon="-1.82344">
        <ele>73.95466</ele>
        <time>2017-05-16T02:32:05.000Z</time>
      </trkpt>
      <trkpt lat="52.2054" lon="-1.82338">
        <ele>73.23003</ele>
        <time>2017-05-16T02:32:12.000Z</time>
      </trkpt>
      <trkpt lat="52.20573" lon="-1.82335">
        <ele>71.64408</ele>
        <time>2017-05-16T02:32:19.000Z</time>
      </trkpt>
      <trkpt lat="52.20597" lon="-1.82337">
        <ele>69.75024</ele>
        <time>2017-05-16T02:32:24.000Z</time>
      </trkpt>
      <trkpt lat="52.2065" lon="-1.82345">
        <ele>66.85017</ele>
        <time>2017-05-16T02:32:34.000Z</time>
      </trkpt>
      <trkpt lat="52.20706" lon="-1.82358">
        <ele>65.57598</ele>
        <time>2017-05-16T02:32:46.000Z</time>
      </trkpt>
      <trkpt lat="52.20749" lon="-1.82369">
        <ele>64.77706</ele>
        <time>2017-05-16T02:32:54.000Z</time>
      </trkpt>
      <trkpt lat="52.20833" lon="-1.82398">
        <ele>64.65024</ele>
        <time>2017-05-16T02:33:12.000Z</time>
      </trkpt>
      <trkpt lat="52.20941" lon="-1.82442">
        <ele>65.99699</ele>
        <time>2017-05-16T02:33:34.000Z</time>
      </trkpt>
      <trkpt lat="52.20961" lon="-1.82449">
        <ele>66.2947</ele>
        <time>2017-05-16T02:33:38.000Z</time>
      </trkpt>
      <trkpt lat="52.20965" lon="-1.82449">
        <ele>66.29905</ele>
        <time>2017-05-16T02:33:39.000Z</time>
      </trkpt>
      <trkpt lat="52.20974" lon="-1.82448">
        <ele>66.34718</ele>
        <time>2017-05-16T02:33:41.000Z</time>
      </trkpt>
      <trkpt lat="52.20987" lon="-1.82443">
        <ele>66.22594</ele>
        <time>2017-05-16T02:33:43.000Z</time>
      </trkpt>
      <trkpt lat="52.20993" lon="-1.8244">
        <ele>66.151</ele>
        <time>2017-05-16T02:33:44.000Z</time>
      </trkpt>
      <trkpt lat="52.20998" lon="-1.82436">
        <ele>66.02712</ele>
        <time>2017-05-16T02:33:46.000Z</time>
      </trkpt>
      <trkpt lat="52.21002" lon="-1.82431">
        <ele>65.84489</ele>
        <time>2017-05-16T02:33:47.000Z</time>
      </trkpt>
      <trkpt lat="52.21007" lon="-1.82423">
        <ele>65.54023</ele>
        <time>2017-05-16T02:33:48.000Z</time>
      </trkpt>
      <trkpt lat="52.2101" lon="-1.82417">
        <ele>65.42624</ele>
        <time>2017-05-16T02:33:49.000Z</time>
      </trkpt>
      <trkpt lat="52.21012" lon="-1.82411">
        <ele>65.32122</ele>
        <time>2017-05-16T02:33:50.000Z</time>
      </trkpt>
      <trkpt lat="52.21025" lon="-1.82376">
        <ele>64.5876</ele>
        <time>2017-05-16T02:33:55.000Z</time>
      </trkpt>
      <trkpt lat="52.2104" lon="-1.82351">
        <ele>63.91598</ele>
        <time>2017-05-16T02:33:59.000Z</time>
      </trkpt>
      <trkpt lat="52.21045" lon="-1.82345">
        <ele>63.82386</ele>
        <time>2017-05-16T02:34:00.000Z</time>
      </trkpt>
      <trkpt lat="52.21052" lon="-1.82339">
        <ele>63.43511</ele>
        <time>2017-05-16T02:34:02.000Z</time>
      </trkpt>
      <trkpt lat="52.21063" lon="-1.82331">
        <ele>62.89489</ele>
        <time>2017-05-16T02:34:04.000Z</time>
      </trkpt>
      <trkpt lat="52.21072" lon="-1.82326">
        <ele>62.59494</ele>
        <time>2017-05-16T02:34:06.000Z</time>
      </trkpt>
      <trkpt lat="52.21076" lon="-1.82324">
        <ele>62.44944</ele>
        <time>2017-05-16T02:34:07.000Z</time>
      </trkpt>
      <trkpt lat="52.2108" lon="-1.82323">
        <ele>62.35821</ele>
        <time>2017-05-16T02:34:08.000Z</time>
      </trkpt>
      <trkpt lat="52.21084" lon="-1.82322">
        <ele>62.2854</ele>
        <time>2017-05-16T02:34:09.000Z</time>
      </trkpt>
      <trkpt lat="52.21088" lon="-1.82322">
        <ele>62.23831</ele>
        <time>2017-05-16T02:34:10.000Z</time>
      </trkpt>
      <trkpt lat="52.21098" lon="-1.82322">
        <ele>62.10779</ele>
        <time>2017-05-16T02:34:12.000Z</time>
      </trkpt>
      <trkpt lat="52.21109" lon="-1.82324">
        <ele>61.85979</ele>
        <time>2017-05-16T02:34:14.000Z</time>
      </trkpt>
      <trkpt lat="52.21137" lon="-1.82329">
        <ele>61.10702</ele>
        <time>2017-05-16T02:34:19.000Z</time>
      </trkpt>
      <trkpt lat="52.21206" lon="-1.82338">
        <ele>59.25967</ele>
        <time>2017-05-16T02:34:33.000Z</time>
      </trkpt>
      <trkpt lat="52.21255" lon="-1.82348">
        <ele>58.03461</ele>
        <time>2017-05-16T02:34:43.000Z</time>
      </trkpt>
      <trkpt lat="52.21289" lon="-1.82363">
        <ele>57.55315</ele>
        <time>2017-05-16T02:34:50.000Z</time>
      </trkpt>
      <trkpt lat="52.21327" lon="-1.82386">
        <ele>57.87767</ele>
        <time>2017-05-16T02:34:58.000Z</time>
      </trkpt>
      <trkpt lat="52.21366" lon="-1.82412">
        <ele>58.27355</ele>
        <time>2017-05-16T02:35:07.000Z</time>
      </trkpt>
      <trkpt lat="52.21385" lon="-1.82431">
        <ele>58.85979</ele>
        <time>2017-05-16T02:35:11.000Z</time>
      </trkpt>
      <trkpt lat="52.21398" lon="-1.82442">
        <ele>59.11989</ele>
        <time>2017-05-16T02:35:14.000Z</time>
      </trkpt>
      <trkpt lat="52.21404" lon="-1.82448">
        <ele>59.40644</ele>
        <time>2017-05-16T02:35:16.000Z</time>
      </trkpt>
      <trkpt lat="52.21411" lon="-1.82452">
        <ele>59.42507</ele>
        <time>2017-05-16T02:35:17.000Z</time>
      </trkpt>
      <trkpt lat="52.21416" lon="-1.82453">
        <ele>59.32922</ele>
        <time>2017-05-16T02:35:18.000Z</time>
      </trkpt>
      <trkpt lat="52.2142" lon="-1.82453">
        <ele>59.19813</ele>
        <time>2017-05-16T02:35:19.000Z</time>
      </trkpt>
      <trkpt lat="52.21424" lon="-1.82453">
        <ele>59.02005</ele>
        <time>2017-05-16T02:35:20.000Z</time>
      </trkpt>
      <trkpt lat="52.21431" lon="-1.8245">
        <ele>58.61889</ele>
        <time>2017-05-16T02:35:21.000Z</time>
      </trkpt>
      <trkpt lat="52.21435" lon="-1.82445">
        <ele>58.53417</ele>
        <time>2017-05-16T02:35:22.000Z</time>
      </trkpt>
      <trkpt lat="52.21438" lon="-1.82439">
        <ele>58.39599</ele>
        <time>2017-05-16T02:35:23.000Z</time>
      </trkpt>
      <trkpt lat="52.21442" lon="-1.82431">
        <ele>58.35182</ele>
        <time>2017-05-16T02:35:24.000Z</time>
      </trkpt>
      <trkpt lat="52.21445" lon="-1.82423">
        <ele>58.24726</ele>
        <time>2017-05-16T02:35:26.000Z</time>
      </trkpt>
      <trkpt lat="52.21447" lon="-1.82415">
        <ele>57.93688</ele>
        <time>2017-05-16T02:35:27.000Z</time>
      </trkpt>
      <trkpt lat="52.21473" lon="-1.82323">
        <ele>55.43188</ele>
        <time>2017-05-16T02:35:39.000Z</time>
      </trkpt>
      <trkpt lat="52.21482" lon="-1.82293">
        <ele>55.31835</ele>
        <time>2017-05-16T02:35:43.000Z</time>
      </trkpt>
      <trkpt lat="52.21489" lon="-1.82274">
        <ele>55.1417</ele>
        <time>2017-05-16T02:35:46.000Z</time>
      </trkpt>
      <trkpt lat="52.21593" lon="-1.82353">
        <ele>58.04786</ele>
        <time>2017-05-16T02:36:09.000Z</time>
      </trkpt>
      <trkpt lat="52.21656" lon="-1.82376">
        <ele>60.03721</ele>
        <time>2017-05-16T02:36:22.000Z</time>
      </trkpt>
      <trkpt lat="52.21691" lon="-1.82389">
        <ele>62.17499</ele>
        <time>2017-05-16T02:36:29.000Z</time>
      </trkpt>
      <trkpt lat="52.21724" lon="-1.8241">
        <ele>63.31289</ele>
        <time>2017-05-16T02:36:36.000Z</time>
      </trkpt>
      <trkpt lat="52.21729" lon="-1.82412">
        <ele>63.43454</ele>
        <time>2017-05-16T02:36:37.000Z</time>
      </trkpt>
      <trkpt lat="52.2175" lon="-1.82425">
        <ele>64.24991</ele>
        <time>2017-05-16T02:36:42.000Z</time>
      </trkpt>
      <trkpt lat="52.21765" lon="-1.82436">
        <ele>65.09472</ele>
        <time>2017-05-16T02:36:45.000Z</time>
      </trkpt>
      <trkpt lat="52.21773" lon="-1.82443">
        <ele>65.14494</ele>
        <time>2017-05-16T02:36:47.000Z</time>
      </trkpt>
      <trkpt lat="52.21793" lon="-1.82474">
        <ele>64.25157</ele>
        <time>2017-05-16T02:36:52.000Z</time>
      </trkpt>
      <trkpt lat="52.21813" lon="-1.82511">
        <ele>61.77942</ele>
        <time>2017-05-16T02:36:58.000Z</time>
      </trkpt>
      <trkpt lat="52.21819" lon="-1.82519">
        <ele>61.19057</ele>
        <time>2017-05-16T02:37:00.000Z</time>
      </trkpt>
      <trkpt lat="52.2183" lon="-1.82524">
        <ele>60.35615</ele>
        <time>2017-05-16T02:37:02.000Z</time>
      </trkpt>
      <trkpt lat="52.21854" lon="-1.82536">
        <ele>59.14706</ele>
        <time>2017-05-16T02:37:07.000Z</time>
      </trkpt>
      <trkpt lat="52.21932" lon="-1.82579">
        <ele>53.75158</ele>
        <time>2017-05-16T02:37:24.000Z</time>
      </trkpt>
      <trkpt lat="52.21939" lon="-1.82582">
        <ele>53.47368</ele>
        <time>2017-05-16T02:37:25.000Z</time>
      </trkpt>
      <trkpt lat="52.21942" lon="-1.82583">
        <ele>53.37931</ele>
        <time>2017-05-16T02:37:26.000Z</time>
      </trkpt>
      <trkpt lat="52.21947" lon="-1.82586">
        <ele>53.21094</ele>
        <time>2017-05-16T02:37:27.000Z</time>
      </trkpt>
      <trkpt lat="52.22062" lon="-1.82663">
        <ele>50.4958</ele>
        <time>2017-05-16T02:37:52.000Z</time>
      </trkpt>
      <trkpt lat="52.22123" lon="-1.82702">
        <ele>49.79824</ele>
        <time>2017-05-16T02:38:05.000Z</time>
      </trkpt>
      <trkpt lat="52.22179" lon="-1.82743">
        <ele>49.07639</ele>
        <time>2017-05-16T02:38:17.000Z</time>
      </trkpt>
      <trkpt lat="52.22204" lon="-1.82758">
        <ele>48.63426</ele>
        <time>2017-05-16T02:38:22.000Z</time>
      </trkpt>
      <trkpt lat="52.22221" lon="-1.82764">
        <ele>48.52122</ele>
        <time>2017-05-16T02:38:26.000Z</time>
      </trkpt>
      <trkpt lat="52.22252" lon="-1.82768">
        <ele>48.11582</ele>
        <time>2017-05-16T02:38:32.000Z</time>
      </trkpt>
      <trkpt lat="52.22284" lon="-1.82768">
        <ele>47.99501</ele>
        <time>2017-05-16T02:38:39.000Z</time>
      </trkpt>
      <trkpt lat="52.22298" lon="-1.82767">
        <ele>47.92985</ele>
        <time>2017-05-16T02:38:41.000Z</time>
      </trkpt>
      <trkpt lat="52.2232" lon="-1.82764">
        <ele>47.92076</ele>
        <time>2017-05-16T02:38:46.000Z</time>
      </trkpt>
      <trkpt lat="52.22348" lon="-1.82758">
        <ele>48.02854</ele>
        <time>2017-05-16T02:38:51.000Z</time>
      </trkpt>
      <trkpt lat="52.22385" lon="-1.82754">
        <ele>48.13922</ele>
        <time>2017-05-16T02:38:59.000Z</time>
      </trkpt>
      <trkpt lat="52.22402" lon="-1.8276">
        <ele>48.11526</ele>
        <time>2017-05-16T02:39:02.000Z</time>
      </trkpt>
      <trkpt lat="52.22439" lon="-1.82776">
        <ele>47.92585</ele>
        <time>2017-05-16T02:39:10.000Z</time>
      </trkpt>
      <trkpt lat="52.22449" lon="-1.82781">
        <ele>47.89289</ele>
        <time>2017-05-16T02:39:12.000Z</time>
      </trkpt>
      <trkpt lat="52.22458" lon="-1.82786">
        <ele>47.97776</ele>
        <time>2017-05-16T02:39:14.000Z</time>
      </trkpt>
      <trkpt lat="52.22466" lon="-1.82787">
        <ele>47.97197</ele>
        <time>2017-05-16T02:39:16.000Z</time>
      </trkpt>
      <trkpt lat="52.22474" lon="-1.82788">
        <ele>47.92595</ele>
        <time>2017-05-16T02:39:17.000Z</time>
      </trkpt>
      <trkpt lat="52.22502" lon="-1.82786">
        <ele>47.84148</ele>
        <time>2017-05-16T02:39:23.000Z</time>
      </trkpt>
      <trkpt lat="52.22548" lon="-1.82782">
        <ele>47.7128</ele>
        <time>2017-05-16T02:39:32.000Z</time>
      </trkpt>
      <trkpt lat="52.22588" lon="-1.82783">
        <ele>47.69519</ele>
        <time>2017-05-16T02:39:40.000Z</time>
      </trkpt>
      <trkpt lat="52.2264" lon="-1.82785">
        <ele>47.62682</ele>
        <time>2017-05-16T02:39:51.000Z</time>
      </trkpt>
      <trkpt lat="52.2267" lon="-1.8279">
        <ele>47.34749</ele>
        <time>2017-05-16T02:39:57.000Z</time>
      </trkpt>
      <trkpt lat="52.22697" lon="-1.82797">
        <ele>47.39296</ele>
        <time>2017-05-16T02:40:02.000Z</time>
      </trkpt>
      <trkpt lat="52.22724" lon="-1.82806">
        <ele>47.18967</ele>
        <time>2017-05-16T02:40:08.000Z</time>
      </trkpt>
      <trkpt lat="52.22752" lon="-1.82815">
        <ele>46.57841</ele>
        <time>2017-05-16T02:40:13.000Z</time>
      </trkpt>
      <trkpt lat="52.22754" lon="-1.82815">
        <ele>46.53421</ele>
        <time>2017-05-16T02:40:14.000Z</time>
      </trkpt>
      <trkpt lat="52.22758" lon="-1.82815">
        <ele>46.49725</ele>
        <time>2017-05-16T02:40:15.000Z</time>
      </trkpt>
      <trkpt lat="52.22763" lon="-1.82814">
        <ele>46.45692</ele>
        <time>2017-05-16T02:40:16.000Z</time>
      </trkpt>
      <trkpt lat="52.22765" lon="-1.82812">
        <ele>46.43268</ele>
        <time>2017-05-16T02:40:16.426Z</time>
      </trkpt>
      <trkpt lat="52.22767" lon="-1.8281">
        <ele>46.40196</ele>
        <time>2017-05-16T02:40:16.853Z</time>
      </trkpt>
      <trkpt lat="52.22788" lon="-1.82779">
        <ele>45.81495</ele>
        <time>2017-05-16T02:40:22.000Z</time>
        <name>52.227880,-1.827790</name>
        <extensions>
          <oa:locType>calcWayPoint</oa:locType>
        </extensions>
      </trkpt>
      <trkpt lat="52.22857" lon="-1.82846">
        <ele>45.48042</ele>
        <time>2017-05-16T02:40:38.000Z</time>
      </trkpt>
      <trkpt lat="52.22873" lon="-1.82865">
        <ele>45.42056</ele>
        <time>2017-05-16T02:40:42.000Z</time>
      </trkpt>
      <trkpt lat="52.22912" lon="-1.82932">
        <ele>45.30626</ele>
        <time>2017-05-16T02:40:54.000Z</time>
      </trkpt>
      <trkpt lat="52.22929" lon="-1.82963">
        <ele>45.24853</ele>
        <time>2017-05-16T02:40:59.000Z</time>
      </trkpt>
      <trkpt lat="52.22936" lon="-1.82975">
        <ele>45.23856</ele>
        <time>2017-05-16T02:41:01.000Z</time>
      </trkpt>
      <trkpt lat="52.22942" lon="-1.82987">
        <ele>45.36806</ele>
        <time>2017-05-16T02:41:03.000Z</time>
      </trkpt>
      <trkpt lat="52.22946" lon="-1.82997">
        <ele>45.28695</ele>
        <time>2017-05-16T02:41:04.000Z</time>
      </trkpt>
      <trkpt lat="52.22949" lon="-1.83009">
        <ele>45.32084</ele>
        <time>2017-05-16T02:41:06.000Z</time>
      </trkpt>
      <trkpt lat="52.22967" lon="-1.83089">
        <ele>45.63636</ele>
        <time>2017-05-16T02:41:16.000Z</time>
      </trkpt>
      <trkpt lat="52.22978" lon="-1.83134">
        <ele>45.53509</ele>
        <time>2017-05-16T02:41:22.000Z</time>
      </trkpt>
      <trkpt lat="52.22981" lon="-1.83145">
        <ele>45.41036</ele>
        <time>2017-05-16T02:41:24.000Z</time>
      </trkpt>
      <trkpt lat="52.22986" lon="-1.83158">
        <ele>45.40914</ele>
        <time>2017-05-16T02:41:25.000Z</time>
      </trkpt>
      <trkpt lat="52.22991" lon="-1.83169">
        <ele>45.37211</ele>
        <time>2017-05-16T02:41:27.000Z</time>
      </trkpt>
      <trkpt lat="52.23001" lon="-1.83183">
        <ele>45.50058</ele>
        <time>2017-05-16T02:41:30.000Z</time>
      </trkpt>
      <trkpt lat="52.23014" lon="-1.83197">
        <ele>46.56551</ele>
        <time>2017-05-16T02:41:33.000Z</time>
      </trkpt>
      <trkpt lat="52.23024" lon="-1.83209">
        <ele>46.74492</ele>
        <time>2017-05-16T02:41:35.000Z</time>
      </trkpt>
      <trkpt lat="52.23029" lon="-1.83211">
        <ele>46.6332</ele>
        <time>2017-05-16T02:41:36.000Z</time>
      </trkpt>
      <trkpt lat="52.23037" lon="-1.83211">
        <ele>46.49071</ele>
        <time>2017-05-16T02:41:38.000Z</time>
      </trkpt>
      <trkpt lat="52.23045" lon="-1.83211">
        <ele>46.25213</ele>
        <time>2017-05-16T02:41:40.000Z</time>
      </trkpt>
      <trkpt lat="52.23046" lon="-1.83202">
        <ele>46.21255</ele>
        <time>2017-05-16T02:41:41.000Z</time>
      </trkpt>
      <trkpt lat="52.23055" lon="-1.83174">
        <ele>46.26058</ele>
        <time>2017-05-16T02:41:45.000Z</time>
      </trkpt>
      <trkpt lat="52.23047" lon="-1.83197">
        <ele>46.21714</ele>
        <time>2017-05-16T02:41:48.000Z</time>
      </trkpt>
      <trkpt lat="52.23045" lon="-1.83211">
        <ele>46.25213</ele>
        <time>2017-05-16T02:41:50.000Z</time>
      </trkpt>
      <trkpt lat="52.23046" lon="-1.83222">
        <ele>46.31464</ele>
        <time>2017-05-16T02:41:51.000Z</time>
      </trkpt>
      <trkpt lat="52.23047" lon="-1.8323">
        <ele>46.35789</ele>
        <time>2017-05-16T02:41:52.000Z</time>
      </trkpt>
      <trkpt lat="52.2305" lon="-1.83246">
        <ele>46.51439</ele>
        <time>2017-05-16T02:41:54.000Z</time>
      </trkpt>
      <trkpt lat="52.23055" lon="-1.8326">
        <ele>46.70729</ele>
        <time>2017-05-16T02:41:56.000Z</time>
      </trkpt>
      <trkpt lat="52.23061" lon="-1.83275">
        <ele>46.74339</ele>
        <time>2017-05-16T02:41:58.000Z</time>
      </trkpt>
      <trkpt lat="52.23065" lon="-1.83284">
        <ele>46.86366</ele>
        <time>2017-05-16T02:42:00.000Z</time>
      </trkpt>
      <trkpt lat="52.2307" lon="-1.8329">
        <ele>47.09934</ele>
        <time>2017-05-16T02:42:01.000Z</time>
      </trkpt>
      <trkpt lat="52.23116" lon="-1.83353">
        <ele>48.96585</ele>
        <time>2017-05-16T02:42:13.000Z</time>
      </trkpt>
      <trkpt lat="52.23127" lon="-1.83366">
        <ele>49.1949</ele>
        <time>2017-05-16T02:42:16.000Z</time>
      </trkpt>
      <trkpt lat="52.23144" lon="-1.83386">
        <ele>49.5835</ele>
        <time>2017-05-16T02:42:20.000Z</time>
      </trkpt>
      <trkpt lat="52.23162" lon="-1.83406">
        <ele>50.17964</ele>
        <time>2017-05-16T02:42:24.000Z</time>
      </trkpt>
      <trkpt lat="52.2317" lon="-1.83416">
        <ele>50.19261</ele>
        <time>2017-05-16T02:42:26.000Z</time>
      </trkpt>
      <trkpt lat="52.23174" lon="-1.8342">
        <ele>50.28466</ele>
        <time>2017-05-16T02:42:27.000Z</time>
      </trkpt>
      <trkpt lat="52.23178" lon="-1.83426">
        <ele>50.36543</ele>
        <time>2017-05-16T02:42:28.000Z</time>
      </trkpt>
      <trkpt lat="52.2318" lon="-1.8343">
        <ele>50.40994</ele>
        <time>2017-05-16T02:42:29.000Z</time>
      </trkpt>
      <trkpt lat="52.23185" lon="-1.83443">
        <ele>50.5505</ele>
        <time>2017-05-16T02:42:31.000Z</time>
      </trkpt>
      <trkpt lat="52.23211" lon="-1.83447">
        <ele>50.63015</ele>
        <time>2017-05-16T02:42:36.000Z</time>
      </trkpt>
      <trkpt lat="52.23217" lon="-1.8345">
        <ele>50.72312</ele>
        <time>2017-05-16T02:42:37.000Z</time>
      </trkpt>
      <trkpt lat="52.2324" lon="-1.83463">
        <ele>50.77981</ele>
        <time>2017-05-16T02:42:42.000Z</time>
      </trkpt>
      <trkpt lat="52.23304" lon="-1.83523">
        <ele>51.47385</ele>
        <time>2017-05-16T02:42:57.000Z</time>
      </trkpt>
      <trkpt lat="52.23308" lon="-1.83527">
        <ele>51.49887</ele>
        <time>2017-05-16T02:42:58.000Z</time>
      </trkpt>
      <trkpt lat="52.23383" lon="-1.836">
        <ele>52.5337</ele>
        <time>2017-05-16T02:43:15.000Z</time>
      </trkpt>
      <trkpt lat="52.23428" lon="-1.83651">
        <ele>53.66195</ele>
        <time>2017-05-16T02:43:26.000Z</time>
      </trkpt>
      <trkpt lat="52.23459" lon="-1.83692">
        <ele>54.44311</ele>
        <time>2017-05-16T02:43:34.000Z</time>
      </trkpt>
      <trkpt lat="52.23478" lon="-1.83732">
        <ele>55.02141</ele>
        <time>2017-05-16T02:43:40.000Z</time>
      </trkpt>
      <trkpt lat="52.23497" lon="-1.83776">
        <ele>55.80667</ele>
        <time>2017-05-16T02:43:47.000Z</time>
      </trkpt>
      <trkpt lat="52.23524" lon="-1.8384">
        <ele>57.07599</ele>
        <time>2017-05-16T02:43:57.000Z</time>
      </trkpt>
      <trkpt lat="52.23554" lon="-1.83903">
        <ele>59.8201</ele>
        <time>2017-05-16T02:44:06.000Z</time>
      </trkpt>
      <trkpt lat="52.2365" lon="-1.84028">
        <ele>66.99424</ele>
        <time>2017-05-16T02:44:31.000Z</time>
      </trkpt>
      <trkpt lat="52.23871" lon="-1.84233">
        <ele>69.05752</ele>
        <time>2017-05-16T02:45:22.000Z</time>
      </trkpt>
      <trkpt lat="52.2395" lon="-1.843">
        <ele>68.7728</ele>
        <time>2017-05-16T02:45:40.000Z</time>
      </trkpt>
      <trkpt lat="52.23975" lon="-1.84313">
        <ele>69.15774</ele>
        <time>2017-05-16T02:45:45.000Z</time>
      </trkpt>
      <trkpt lat="52.24021" lon="-1.84319">
        <ele>69.67854</ele>
        <time>2017-05-16T02:45:54.000Z</time>
      </trkpt>
      <trkpt lat="52.24068" lon="-1.84316">
        <ele>70.89704</ele>
        <time>2017-05-16T02:46:04.000Z</time>
      </trkpt>
      <trkpt lat="52.24096" lon="-1.84329">
        <ele>71.93106</ele>
        <time>2017-05-16T02:46:10.000Z</time>
      </trkpt>
      <trkpt lat="52.24126" lon="-1.84353">
        <ele>72.93991</ele>
        <time>2017-05-16T02:46:16.000Z</time>
      </trkpt>
      <trkpt lat="52.24176" lon="-1.84401">
        <ele>75.05069</ele>
        <time>2017-05-16T02:46:28.000Z</time>
      </trkpt>
      <trkpt lat="52.24338" lon="-1.84576">
        <ele>82.29862</ele>
        <time>2017-05-16T02:47:07.000Z</time>
      </trkpt>
      <trkpt lat="52.24361" lon="-1.84601">
        <ele>82.98609</ele>
        <time>2017-05-16T02:47:12.000Z</time>
      </trkpt>
      <trkpt lat="52.24365" lon="-1.84606">
        <ele>83.05283</ele>
        <time>2017-05-16T02:47:13.000Z</time>
      </trkpt>
      <trkpt lat="52.2439" lon="-1.8464">
        <ele>82.87345</ele>
        <time>2017-05-16T02:47:20.000Z</time>
      </trkpt>
      <trkpt lat="52.24401" lon="-1.84659">
        <ele>82.63505</ele>
        <time>2017-05-16T02:47:23.000Z</time>
      </trkpt>
      <trkpt lat="52.24416" lon="-1.84694">
        <ele>81.78263</ele>
        <time>2017-05-16T02:47:28.000Z</time>
      </trkpt>
      <trkpt lat="52.24424" lon="-1.84711">
        <ele>81.27761</ele>
        <time>2017-05-16T02:47:31.000Z</time>
      </trkpt>
      <trkpt lat="52.24444" lon="-1.8475">
        <ele>80.92503</ele>
        <time>2017-05-16T02:47:37.000Z</time>
      </trkpt>
      <trkpt lat="52.24466" lon="-1.84784">
        <ele>80.20954</ele>
        <time>2017-05-16T02:47:43.000Z</time>
      </trkpt>
      <trkpt lat="52.24506" lon="-1.84835">
        <ele>78.91211</ele>
        <time>2017-05-16T02:47:53.000Z</time>
      </trkpt>
      <trkpt lat="52.2453" lon="-1.84864">
        <ele>78.04758</ele>
        <time>2017-05-16T02:47:59.000Z</time>
      </trkpt>
      <trkpt lat="52.24558" lon="-1.84896">
        <ele>77.37812</ele>
        <time>2017-05-16T02:48:06.000Z</time>
      </trkpt>
      <trkpt lat="52.24601" lon="-1.8493">
        <ele>76.26101</ele>
        <time>2017-05-16T02:48:16.000Z</time>
      </trkpt>
      <trkpt lat="52.24697" lon="-1.84998">
        <ele>73.91021</ele>
        <time>2017-05-16T02:48:37.000Z</time>
      </trkpt>
      <trkpt lat="52.2471" lon="-1.85008">
        <ele>73.36705</ele>
        <time>2017-05-16T02:48:40.000Z</time>
      </trkpt>
      <trkpt lat="52.24724" lon="-1.85021">
        <ele>72.85015</ele>
        <time>2017-05-16T02:48:43.000Z</time>
      </trkpt>
      <trkpt lat="52.24733" lon="-1.85032">
        <ele>72.53715</ele>
        <time>2017-05-16T02:48:45.000Z</time>
      </trkpt>
      <trkpt lat="52.24773" lon="-1.85084">
        <ele>71.01647</ele>
        <time>2017-05-16T02:48:55.000Z</time>
      </trkpt>
      <trkpt lat="52.24819" lon="-1.85143">
        <ele>68.86879</ele>
        <time>2017-05-16T02:49:07.000Z</time>
      </trkpt>
      <trkpt lat="52.24857" lon="-1.85189">
        <ele>67.68915</ele>
        <time>2017-05-16T02:49:17.000Z</time>
      </trkpt>
      <trkpt lat="52.24895" lon="-1.85226">
        <ele>67.24007</ele>
        <time>2017-05-16T02:49:25.000Z</time>
      </trkpt>
      <trkpt lat="52.24923" lon="-1.85251">
        <ele>67.20698</ele>
        <time>2017-05-16T02:49:32.000Z</time>
      </trkpt>
      <trkpt lat="52.24947" lon="-1.85274">
        <ele>68.83831</ele>
        <time>2017-05-16T02:49:37.000Z</time>
      </trkpt>
      <trkpt lat="52.24969" lon="-1.85298">
        <ele>70.4612</ele>
        <time>2017-05-16T02:49:43.000Z</time>
      </trkpt>
      <trkpt lat="52.24991" lon="-1.85326">
        <ele>70.64241</ele>
        <time>2017-05-16T02:49:48.000Z</time>
      </trkpt>
      <trkpt lat="52.25007" lon="-1.85353">
        <ele>70.22787</ele>
        <time>2017-05-16T02:49:53.000Z</time>
      </trkpt>
      <trkpt lat="52.25019" lon="-1.85372">
        <ele>69.83291</ele>
        <time>2017-05-16T02:49:56.000Z</time>
      </trkpt>
      <trkpt lat="52.25029" lon="-1.85388">
        <ele>69.42348</ele>
        <time>2017-05-16T02:49:59.000Z</time>
      </trkpt>
      <trkpt lat="52.25042" lon="-1.85404">
        <ele>68.79426</ele>
        <time>2017-05-16T02:50:02.000Z</time>
      </trkpt>
      <trkpt lat="52.25054" lon="-1.85419">
        <ele>68.11155</ele>
        <time>2017-05-16T02:50:05.000Z</time>
      </trkpt>
      <trkpt lat="52.25087" lon="-1.85455">
        <ele>67.2283</ele>
        <time>2017-05-16T02:50:13.000Z</time>
      </trkpt>
      <trkpt lat="52.25116" lon="-1.8549">
        <ele>68.09568</ele>
        <time>2017-05-16T02:50:21.000Z</time>
      </trkpt>
      <trkpt lat="52.25198" lon="-1.85575">
        <ele>72.39371</ele>
        <time>2017-05-16T02:50:40.000Z</time>
      </trkpt>
      <trkpt lat="52.25238" lon="-1.85616">
        <ele>74.49839</ele>
        <time>2017-05-16T02:50:49.000Z</time>
      </trkpt>
      <trkpt lat="52.25292" lon="-1.85666">
        <ele>77.29531</ele>
        <time>2017-05-16T02:51:02.000Z</time>
      </trkpt>
      <trkpt lat="52.25346" lon="-1.85719">
        <ele>80.95815</ele>
        <time>2017-05-16T02:51:15.000Z</time>
      </trkpt>
      <trkpt lat="52.25364" lon="-1.85736">
        <ele>82.26988</ele>
        <time>2017-05-16T02:51:19.000Z</time>
      </trkpt>
      <trkpt lat="52.25378" lon="-1.85749">
        <ele>83.50605</ele>
        <time>2017-05-16T02:51:22.000Z</time>
      </trkpt>
      <trkpt lat="52.25402" lon="-1.85769">
        <ele>86.3008</ele>
        <time>2017-05-16T02:51:27.000Z</time>
      </trkpt>
      <trkpt lat="52.25416" lon="-1.8578">
        <ele>87.5176</ele>
        <time>2017-05-16T02:51:30.000Z</time>
      </trkpt>
      <trkpt lat="52.25428" lon="-1.85788">
        <ele>88.23502</ele>
        <time>2017-05-16T02:51:33.000Z</time>
      </trkpt>
      <trkpt lat="52.25437" lon="-1.85794">
        <ele>88.56188</ele>
        <time>2017-05-16T02:51:35.000Z</time>
      </trkpt>
      <trkpt lat="52.25444" lon="-1.85797">
        <ele>88.80591</ele>
        <time>2017-05-16T02:51:36.000Z</time>
      </trkpt>
      <trkpt lat="52.25486" lon="-1.85826">
        <ele>89.08765</ele>
        <time>2017-05-16T02:51:46.000Z</time>
      </trkpt>
      <trkpt lat="52.25607" lon="-1.85912">
        <ele>80.30209</ele>
        <time>2017-05-16T02:52:12.000Z</time>
      </trkpt>
      <trkpt lat="52.25691" lon="-1.85969">
        <ele>75.4786</ele>
        <time>2017-05-16T02:52:30.000Z</time>
      </trkpt>
      <trkpt lat="52.25734" lon="-1.85998">
        <ele>73.98052</ele>
        <time>2017-05-16T02:52:40.000Z</time>
      </trkpt>
      <trkpt lat="52.25744" lon="-1.86005">
        <ele>73.75727</ele>
        <time>2017-05-16T02:52:42.000Z</time>
      </trkpt>
      <trkpt lat="52.25764" lon="-1.86022">
        <ele>73.54291</ele>
        <time>2017-05-16T02:52:46.000Z</time>
      </trkpt>
      <trkpt lat="52.25793" lon="-1.86052">
        <ele>73.5808</ele>
        <time>2017-05-16T02:52:53.000Z</time>
      </trkpt>
      <trkpt lat="52.25819" lon="-1.86083">
        <ele>73.41869</ele>
        <time>2017-05-16T02:53:00.000Z</time>
      </trkpt>
      <trkpt lat="52.25842" lon="-1.86111">
        <ele>72.58956</ele>
        <time>2017-05-16T02:53:05.000Z</time>
      </trkpt>
      <trkpt lat="52.25869" lon="-1.86142">
        <ele>71.43549</ele>
        <time>2017-05-16T02:53:12.000Z</time>
      </trkpt>
      <trkpt lat="52.25876" lon="-1.86152">
        <ele>71.08969</ele>
        <time>2017-05-16T02:53:14.000Z</time>
      </trkpt>
      <trkpt lat="52.2588" lon="-1.86159">
        <ele>70.86549</ele>
        <time>2017-05-16T02:53:15.000Z</time>
      </trkpt>
      <trkpt lat="52.25885" lon="-1.86169">
        <ele>70.54125</ele>
        <time>2017-05-16T02:53:17.000Z</time>
      </trkpt>
      <trkpt lat="52.2589" lon="-1.86179">
        <ele>70.24186</ele>
        <time>2017-05-16T02:53:18.000Z</time>
      </trkpt>
      <trkpt lat="52.25893" lon="-1.86188">
        <ele>70.04436</ele>
        <time>2017-05-16T02:53:19.000Z</time>
      </trkpt>
      <trkpt lat="52.25896" lon="-1.86199">
        <ele>69.8098</ele>
        <time>2017-05-16T02:53:21.000Z</time>
      </trkpt>
      <trkpt lat="52.259" lon="-1.86215">
        <ele>69.37045</ele>
        <time>2017-05-16T02:53:23.000Z</time>
      </trkpt>
      <trkpt lat="52.25901" lon="-1.86222">
        <ele>69.16256</ele>
        <time>2017-05-16T02:53:24.000Z</time>
      </trkpt>
      <trkpt lat="52.25902" lon="-1.86229">
        <ele>68.95794</ele>
        <time>2017-05-16T02:53:25.000Z</time>
      </trkpt>
      <trkpt lat="52.25903" lon="-1.86238">
        <ele>68.74592</ele>
        <time>2017-05-16T02:53:26.000Z</time>
      </trkpt>
      <trkpt lat="52.25903" lon="-1.86245">
        <ele>68.62171</ele>
        <time>2017-05-16T02:53:27.000Z</time>
      </trkpt>
      <trkpt lat="52.25905" lon="-1.86277">
        <ele>67.5712</ele>
        <time>2017-05-16T02:53:31.000Z</time>
      </trkpt>
      <trkpt lat="52.25907" lon="-1.86323">
        <ele>66.85292</ele>
        <time>2017-05-16T02:53:36.000Z</time>
      </trkpt>
      <trkpt lat="52.25909" lon="-1.86366">
        <ele>66.50611</ele>
        <time>2017-05-16T02:53:42.000Z</time>
      </trkpt>
      <trkpt lat="52.2591" lon="-1.86399">
        <ele>66.28199</ele>
        <time>2017-05-16T02:53:46.000Z</time>
      </trkpt>
      <trkpt lat="52.2591" lon="-1.86407">
        <ele>66.21684</ele>
        <time>2017-05-16T02:53:47.000Z</time>
      </trkpt>
      <trkpt lat="52.2591" lon="-1.86415">
        <ele>66.13804</ele>
        <time>2017-05-16T02:53:48.000Z</time>
      </trkpt>
      <trkpt lat="52.2591" lon="-1.8643">
        <ele>65.90227</ele>
        <time>2017-05-16T02:53:49.000Z</time>
      </trkpt>
      <trkpt lat="52.25909" lon="-1.86467">
        <ele>65.14285</ele>
        <time>2017-05-16T02:53:54.000Z</time>
        <name>52.259090,-1.864670</name>
        <extensions>
          <oa:locType>calcWayPoint</oa:locType>
        </extensions>
      </trkpt>
      <trkpt lat="52.2592" lon="-1.86457">
        <ele>64.99045</ele>
        <time>2017-05-16T02:53:57.000Z</time>
      </trkpt>
      <trkpt lat="52.25931" lon="-1.86446">
        <ele>65.44949</ele>
        <time>2017-05-16T02:53:59.000Z</time>
      </trkpt>
      <trkpt lat="52.25942" lon="-1.86433">
        <ele>65.88066</ele>
        <time>2017-05-16T02:54:02.000Z</time>
      </trkpt>
      <trkpt lat="52.25967" lon="-1.86397">
        <ele>67.03391</ele>
        <time>2017-05-16T02:54:09.000Z</time>
      </trkpt>
      <trkpt lat="52.25983" lon="-1.86374">
        <ele>67.95249</ele>
        <time>2017-05-16T02:54:13.000Z</time>
      </trkpt>
      <trkpt lat="52.26" lon="-1.86351">
        <ele>68.73795</ele>
        <time>2017-05-16T02:54:17.000Z</time>
      </trkpt>
      <trkpt lat="52.26022" lon="-1.86327">
        <ele>69.60728</ele>
        <time>2017-05-16T02:54:22.000Z</time>
      </trkpt>
      <trkpt lat="52.26043" lon="-1.86308">
        <ele>70.75018</ele>
        <time>2017-05-16T02:54:27.000Z</time>
      </trkpt>
      <trkpt lat="52.2606" lon="-1.86295">
        <ele>72.17717</ele>
        <time>2017-05-16T02:54:31.000Z</time>
      </trkpt>
      <trkpt lat="52.26066" lon="-1.86291">
        <ele>72.66656</ele>
        <time>2017-05-16T02:54:32.000Z</time>
      </trkpt>
      <trkpt lat="52.26074" lon="-1.86287">
        <ele>73.2809</ele>
        <time>2017-05-16T02:54:34.000Z</time>
      </trkpt>
      <trkpt lat="52.26086" lon="-1.86281">
        <ele>74.47266</ele>
        <time>2017-05-16T02:54:37.000Z</time>
      </trkpt>
      <trkpt lat="52.26095" lon="-1.86279">
        <ele>75.02052</ele>
        <time>2017-05-16T02:54:38.000Z</time>
      </trkpt>
      <trkpt lat="52.26101" lon="-1.86277">
        <ele>75.24515</ele>
        <time>2017-05-16T02:54:40.000Z</time>
      </trkpt>
      <trkpt lat="52.26107" lon="-1.86276">
        <ele>75.47676</ele>
        <time>2017-05-16T02:54:41.000Z</time>
      </trkpt>
      <trkpt lat="52.26113" lon="-1.86272">
        <ele>75.85155</ele>
        <time>2017-05-16T02:54:42.000Z</time>
      </trkpt>
      <trkpt lat="52.26118" lon="-1.86269">
        <ele>76.18357</ele>
        <time>2017-05-16T02:54:43.000Z</time>
      </trkpt>
      <trkpt lat="52.26122" lon="-1.86265">
        <ele>76.46695</ele>
        <time>2017-05-16T02:54:44.000Z</time>
      </trkpt>
      <trkpt lat="52.26128" lon="-1.86257">
        <ele>76.95148</ele>
        <time>2017-05-16T02:54:46.000Z</time>
      </trkpt>
      <trkpt lat="52.26134" lon="-1.86249">
        <ele>77.35419</ele>
        <time>2017-05-16T02:54:47.000Z</time>
      </trkpt>
      <trkpt lat="52.26165" lon="-1.86187">
        <ele>78.59789</ele>
        <time>2017-05-16T02:54:57.000Z</time>
      </trkpt>
      <trkpt lat="52.26186" lon="-1.86142">
        <ele>78.84811</ele>
        <time>2017-05-16T02:55:04.000Z</time>
      </trkpt>
      <trkpt lat="52.26202" lon="-1.86122">
        <ele>78.6525</ele>
        <time>2017-05-16T02:55:08.000Z</time>
      </trkpt>
      <trkpt lat="52.26242" lon="-1.86075">
        <ele>78.46955</ele>
        <time>2017-05-16T02:55:18.000Z</time>
      </trkpt>
      <trkpt lat="52.26297" lon="-1.86011">
        <ele>76.55099</ele>
        <time>2017-05-16T02:55:31.000Z</time>
      </trkpt>
      <trkpt lat="52.26325" lon="-1.85981">
        <ele>74.8465</ele>
        <time>2017-05-16T02:55:38.000Z</time>
      </trkpt>
      <trkpt lat="52.26353" lon="-1.85946">
        <ele>73.19979</ele>
        <time>2017-05-16T02:55:45.000Z</time>
      </trkpt>
      <trkpt lat="52.2637" lon="-1.85919">
        <ele>72.14149</ele>
        <time>2017-05-16T02:55:50.000Z</time>
      </trkpt>
      <trkpt lat="52.26424" lon="-1.85847">
        <ele>69.0821</ele>
        <time>2017-05-16T02:56:04.000Z</time>
      </trkpt>
      <trkpt lat="52.26487" lon="-1.85772">
        <ele>68.05057</ele>
        <time>2017-05-16T02:56:20.000Z</time>
      </trkpt>
      <trkpt lat="52.26535" lon="-1.85722">
        <ele>67.74356</ele>
        <time>2017-05-16T02:56:31.000Z</time>
      </trkpt>
      <trkpt lat="52.26558" lon="-1.85701">
        <ele>67.72796</ele>
        <time>2017-05-16T02:56:36.000Z</time>
      </trkpt>
      <trkpt lat="52.26589" lon="-1.85681">
        <ele>67.30678</ele>
        <time>2017-05-16T02:56:43.000Z</time>
      </trkpt>
      <trkpt lat="52.26649" lon="-1.85646">
        <ele>66.98346</ele>
        <time>2017-05-16T02:56:56.000Z</time>
      </trkpt>
      <trkpt lat="52.26691" lon="-1.85617">
        <ele>67.00315</ele>
        <time>2017-05-16T02:57:05.000Z</time>
      </trkpt>
      <trkpt lat="52.26714" lon="-1.85593">
        <ele>67.17146</ele>
        <time>2017-05-16T02:57:10.000Z</time>
      </trkpt>
      <trkpt lat="52.26733" lon="-1.85569">
        <ele>67.29197</ele>
        <time>2017-05-16T02:57:15.000Z</time>
      </trkpt>
      <trkpt lat="52.26751" lon="-1.85544">
        <ele>67.50088</ele>
        <time>2017-05-16T02:57:20.000Z</time>
      </trkpt>
      <trkpt lat="52.2677" lon="-1.85511">
        <ele>67.71857</ele>
        <time>2017-05-16T02:57:25.000Z</time>
      </trkpt>
      <trkpt lat="52.26782" lon="-1.85486">
        <ele>67.91861</ele>
        <time>2017-05-16T02:57:29.000Z</time>
      </trkpt>
      <trkpt lat="52.26796" lon="-1.85457">
        <ele>68.18305</ele>
        <time>2017-05-16T02:57:34.000Z</time>
      </trkpt>
      <trkpt lat="52.26837" lon="-1.85358">
        <ele>68.9555</ele>
        <time>2017-05-16T02:57:48.000Z</time>
      </trkpt>
      <trkpt lat="52.269" lon="-1.85221">
        <ele>70.18052</ele>
        <time>2017-05-16T02:58:09.000Z</time>
      </trkpt>
      <trkpt lat="52.26925" lon="-1.85164">
        <ele>70.63041</ele>
        <time>2017-05-16T02:58:18.000Z</time>
      </trkpt>
      <trkpt lat="52.26928" lon="-1.85151">
        <ele>70.77681</ele>
        <time>2017-05-16T02:58:20.000Z</time>
      </trkpt>
      <trkpt lat="52.2693" lon="-1.85134">
        <ele>70.90501</ele>
        <time>2017-05-16T02:58:22.000Z</time>
      </trkpt>
      <trkpt lat="52.26962" lon="-1.84827">
        <ele>75.46623</ele>
        <time>2017-05-16T02:59:00.000Z</time>
      </trkpt>
      <trkpt lat="52.26966" lon="-1.84791">
        <ele>76.10999</ele>
        <time>2017-05-16T02:59:05.000Z</time>
      </trkpt>
      <trkpt lat="52.26969" lon="-1.84767">
        <ele>76.54489</ele>
        <time>2017-05-16T02:59:08.000Z</time>
      </trkpt>
      <trkpt lat="52.26977" lon="-1.84729">
        <ele>77.21957</ele>
        <time>2017-05-16T02:59:13.000Z</time>
      </trkpt>
      <trkpt lat="52.26985" lon="-1.84704">
        <ele>77.99965</ele>
        <time>2017-05-16T02:59:16.000Z</time>
      </trkpt>
      <trkpt lat="52.26991" lon="-1.84688">
        <ele>78.53979</ele>
        <time>2017-05-16T02:59:18.000Z</time>
      </trkpt>
      <trkpt lat="52.26995" lon="-1.8468">
        <ele>78.76739</ele>
        <time>2017-05-16T02:59:20.000Z</time>
      </trkpt>
      <trkpt lat="52.27001" lon="-1.8467">
        <ele>79.01483</ele>
        <time>2017-05-16T02:59:21.000Z</time>
      </trkpt>
      <trkpt lat="52.27028" lon="-1.84578">
        <ele>78.85919</ele>
        <time>2017-05-16T02:59:34.000Z</time>
      </trkpt>
      <trkpt lat="52.27041" lon="-1.8453">
        <ele>79.2793</ele>
        <time>2017-05-16T02:59:40.000Z</time>
      </trkpt>
      <trkpt lat="52.27065" lon="-1.84426">
        <ele>80.71608</ele>
        <time>2017-05-16T02:59:54.000Z</time>
      </trkpt>
      <trkpt lat="52.27074" lon="-1.84387">
        <ele>81.20905</ele>
        <time>2017-05-16T02:59:59.000Z</time>
      </trkpt>
      <trkpt lat="52.27078" lon="-1.84362">
        <ele>81.16623</ele>
        <time>2017-05-16T03:00:02.000Z</time>
      </trkpt>
      <trkpt lat="52.27079" lon="-1.84352">
        <ele>81.26566</ele>
        <time>2017-05-16T03:00:03.000Z</time>
      </trkpt>
      <trkpt lat="52.27078" lon="-1.84337">
        <ele>81.24814</ele>
        <time>2017-05-16T03:00:05.000Z</time>
      </trkpt>
      <trkpt lat="52.27076" lon="-1.84318">
        <ele>81.38616</ele>
        <time>2017-05-16T03:00:08.000Z</time>
      </trkpt>
      <trkpt lat="52.27066" lon="-1.84269">
        <ele>82.06974</ele>
        <time>2017-05-16T03:00:14.000Z</time>
      </trkpt>
      <trkpt lat="52.27063" lon="-1.8424">
        <ele>82.46914</ele>
        <time>2017-05-16T03:00:17.000Z</time>
      </trkpt>
      <trkpt lat="52.27064" lon="-1.84202">
        <ele>83.79631</ele>
        <time>2017-05-16T03:00:22.000Z</time>
      </trkpt>
      <trkpt lat="52.2707" lon="-1.8416">
        <ele>87.21727</ele>
        <time>2017-05-16T03:00:27.000Z</time>
      </trkpt>
      <trkpt lat="52.27072" lon="-1.84146">
        <ele>88.85737</ele>
        <time>2017-05-16T03:00:29.000Z</time>
      </trkpt>
      <trkpt lat="52.27079" lon="-1.8413">
        <ele>90.87327</ele>
        <time>2017-05-16T03:00:32.000Z</time>
      </trkpt>
      <trkpt lat="52.27083" lon="-1.8412">
        <ele>91.70763</ele>
        <time>2017-05-16T03:00:33.000Z</time>
      </trkpt>
      <trkpt lat="52.27092" lon="-1.84102">
        <ele>92.81348</ele>
        <time>2017-05-16T03:00:36.000Z</time>
      </trkpt>
      <trkpt lat="52.27097" lon="-1.84094">
        <ele>93.18214</ele>
        <time>2017-05-16T03:00:37.000Z</time>
      </trkpt>
      <trkpt lat="52.27102" lon="-1.84087">
        <ele>93.42781</ele>
        <time>2017-05-16T03:00:39.000Z</time>
      </trkpt>
      <trkpt lat="52.27104" lon="-1.84079">
        <ele>93.98966</ele>
        <time>2017-05-16T03:00:40.000Z</time>
      </trkpt>
      <trkpt lat="52.27108" lon="-1.84068">
        <ele>94.67448</ele>
        <time>2017-05-16T03:00:41.000Z</time>
      </trkpt>
      <trkpt lat="52.27114" lon="-1.84052">
        <ele>94.9756</ele>
        <time>2017-05-16T03:00:44.000Z</time>
      </trkpt>
      <trkpt lat="52.27119" lon="-1.84034">
        <ele>94.95735</ele>
        <time>2017-05-16T03:00:46.000Z</time>
      </trkpt>
      <trkpt lat="52.27121" lon="-1.84029">
        <ele>94.92348</ele>
        <time>2017-05-16T03:00:47.000Z</time>
      </trkpt>
      <trkpt lat="52.27126" lon="-1.84023">
        <ele>94.73209</ele>
        <time>2017-05-16T03:00:48.000Z</time>
      </trkpt>
      <trkpt lat="52.27129" lon="-1.84021">
        <ele>94.55233</ele>
        <time>2017-05-16T03:00:49.000Z</time>
      </trkpt>
      <trkpt lat="52.27145" lon="-1.8402">
        <ele>93.45758</ele>
        <time>2017-05-16T03:00:52.000Z</time>
      </trkpt>
      <trkpt lat="52.27162" lon="-1.84017">
        <ele>92.70966</ele>
        <time>2017-05-16T03:00:55.000Z</time>
      </trkpt>
      <trkpt lat="52.27177" lon="-1.84015">
        <ele>92.1388</ele>
        <time>2017-05-16T03:00:58.000Z</time>
      </trkpt>
      <trkpt lat="52.27203" lon="-1.84017">
        <ele>91.56602</ele>
        <time>2017-05-16T03:01:04.000Z</time>
      </trkpt>
      <trkpt lat="52.27252" lon="-1.84032">
        <ele>90.12855</ele>
        <time>2017-05-16T03:01:14.000Z</time>
      </trkpt>
      <trkpt lat="52.27259" lon="-1.84033">
        <ele>89.84491</ele>
        <time>2017-05-16T03:01:15.000Z</time>
      </trkpt>
      <trkpt lat="52.27265" lon="-1.84033">
        <ele>89.64788</ele>
        <time>2017-05-16T03:01:16.000Z</time>
      </trkpt>
      <trkpt lat="52.27271" lon="-1.84028">
        <ele>89.6634</ele>
        <time>2017-05-16T03:01:17.000Z</time>
      </trkpt>
      <trkpt lat="52.27276" lon="-1.84013">
        <ele>89.94761</ele>
        <time>2017-05-16T03:01:20.000Z</time>
      </trkpt>
      <trkpt lat="52.27293" lon="-1.83908">
        <ele>92.61938</ele>
        <time>2017-05-16T03:01:33.000Z</time>
      </trkpt>
      <trkpt lat="52.27302" lon="-1.8387">
        <ele>94.29223</ele>
        <time>2017-05-16T03:01:38.000Z</time>
      </trkpt>
      <trkpt lat="52.27314" lon="-1.83834">
        <ele>96.19634</ele>
        <time>2017-05-16T03:01:43.000Z</time>
      </trkpt>
      <trkpt lat="52.27318" lon="-1.83828">
        <ele>96.58373</ele>
        <time>2017-05-16T03:01:44.000Z</time>
      </trkpt>
      <trkpt lat="52.27321" lon="-1.83826">
        <ele>96.85294</ele>
        <time>2017-05-16T03:01:45.000Z</time>
      </trkpt>
      <trkpt lat="52.27334" lon="-1.8383">
        <ele>97.93523</ele>
        <time>2017-05-16T03:01:47.000Z</time>
      </trkpt>
      <trkpt lat="52.27342" lon="-1.83837">
        <ele>98.12914</ele>
        <time>2017-05-16T03:01:49.000Z</time>
      </trkpt>
      <trkpt lat="52.27361" lon="-1.83854">
        <ele>98.75708</ele>
        <time>2017-05-16T03:01:53.000Z</time>
      </trkpt>
      <trkpt lat="52.27382" lon="-1.8387">
        <ele>99.03399</ele>
        <time>2017-05-16T03:01:58.000Z</time>
      </trkpt>
      <trkpt lat="52.27391" lon="-1.83874">
        <ele>99.25185</ele>
        <time>2017-05-16T03:02:00.000Z</time>
      </trkpt>
      <trkpt lat="52.27403" lon="-1.83879">
        <ele>99.60594</ele>
        <time>2017-05-16T03:02:02.000Z</time>
      </trkpt>
      <trkpt lat="52.27419" lon="-1.83883">
        <ele>99.88627</ele>
        <time>2017-05-16T03:02:06.000Z</time>
      </trkpt>
      <trkpt lat="52.27433" lon="-1.83885">
        <ele>100.06138</ele>
        <time>2017-05-16T03:02:09.000Z</time>
      </trkpt>
      <trkpt lat="52.2745" lon="-1.83884">
        <ele>100.5175</ele>
        <time>2017-05-16T03:02:12.000Z</time>
      </trkpt>
      <trkpt lat="52.27463" lon="-1.83881">
        <ele>100.86665</ele>
        <time>2017-05-16T03:02:15.000Z</time>
      </trkpt>
      <trkpt lat="52.27477" lon="-1.83875">
        <ele>100.96352</ele>
        <time>2017-05-16T03:02:17.000Z</time>
      </trkpt>
      <trkpt lat="52.27497" lon="-1.83865">
        <ele>101.631</ele>
        <time>2017-05-16T03:02:22.000Z</time>
      </trkpt>
      <trkpt lat="52.27521" lon="-1.83851">
        <ele>102.71964</ele>
        <time>2017-05-16T03:02:27.000Z</time>
      </trkpt>
      <trkpt lat="52.27541" lon="-1.83837">
        <ele>102.83569</ele>
        <time>2017-05-16T03:02:31.000Z</time>
      </trkpt>
      <trkpt lat="52.27553" lon="-1.83828">
        <ele>102.1333</ele>
        <time>2017-05-16T03:02:34.000Z</time>
      </trkpt>
      <trkpt lat="52.27564" lon="-1.83824">
        <ele>101.41888</ele>
        <time>2017-05-16T03:02:36.000Z</time>
      </trkpt>
      <trkpt lat="52.27579" lon="-1.83821">
        <ele>100.9324</ele>
        <time>2017-05-16T03:02:39.000Z</time>
      </trkpt>
      <trkpt lat="52.27596" lon="-1.83818">
        <ele>100.44163</ele>
        <time>2017-05-16T03:02:42.000Z</time>
      </trkpt>
      <trkpt lat="52.27604" lon="-1.83816">
        <ele>100.38606</ele>
        <time>2017-05-16T03:02:44.000Z</time>
      </trkpt>
      <trkpt lat="52.27613" lon="-1.83813">
        <ele>100.52817</ele>
        <time>2017-05-16T03:02:46.000Z</time>
      </trkpt>
      <trkpt lat="52.2762" lon="-1.8381">
        <ele>100.74125</ele>
        <time>2017-05-16T03:02:47.000Z</time>
      </trkpt>
      <trkpt lat="52.27626" lon="-1.83807">
        <ele>101.04369</ele>
        <time>2017-05-16T03:02:49.000Z</time>
      </trkpt>
      <trkpt lat="52.27634" lon="-1.83801">
        <ele>101.67667</ele>
        <time>2017-05-16T03:02:50.000Z</time>
      </trkpt>
      <trkpt lat="52.2764" lon="-1.83796">
        <ele>101.89552</ele>
        <time>2017-05-16T03:02:52.000Z</time>
      </trkpt>
      <trkpt lat="52.27647" lon="-1.8379">
        <ele>102.24112</ele>
        <time>2017-05-16T03:02:53.000Z</time>
      </trkpt>
      <trkpt lat="52.27652" lon="-1.83788">
        <ele>102.39502</ele>
        <time>2017-05-16T03:02:54.000Z</time>
      </trkpt>
      <trkpt lat="52.27657" lon="-1.83787">
        <ele>102.53141</ele>
        <time>2017-05-16T03:02:55.000Z</time>
      </trkpt>
      <trkpt lat="52.27662" lon="-1.83787">
        <ele>102.49722</ele>
        <time>2017-05-16T03:02:56.000Z</time>
      </trkpt>
      <trkpt lat="52.27668" lon="-1.83788">
        <ele>102.31474</ele>
        <time>2017-05-16T03:02:58.000Z</time>
      </trkpt>
      <trkpt lat="52.27674" lon="-1.83793">
        <ele>101.90165</ele>
        <time>2017-05-16T03:02:59.000Z</time>
      </trkpt>
      <trkpt lat="52.27689" lon="-1.83807">
        <ele>100.81037</ele>
        <time>2017-05-16T03:03:02.000Z</time>
      </trkpt>
      <trkpt lat="52.27732" lon="-1.83848">
        <ele>98.78955</ele>
        <time>2017-05-16T03:03:12.000Z</time>
      </trkpt>
      <trkpt lat="52.2776" lon="-1.83874">
        <ele>96.58179</ele>
        <time>2017-05-16T03:03:19.000Z</time>
      </trkpt>
      <trkpt lat="52.27767" lon="-1.8388">
        <ele>95.97077</ele>
        <time>2017-05-16T03:03:20.000Z</time>
      </trkpt>
      <trkpt lat="52.27777" lon="-1.83885">
        <ele>95.2535</ele>
        <time>2017-05-16T03:03:22.000Z</time>
      </trkpt>
      <trkpt lat="52.27785" lon="-1.83888">
        <ele>94.66528</ele>
        <time>2017-05-16T03:03:24.000Z</time>
      </trkpt>
      <trkpt lat="52.27797" lon="-1.8389">
        <ele>94.04453</ele>
        <time>2017-05-16T03:03:27.000Z</time>
      </trkpt>
      <trkpt lat="52.27809" lon="-1.83891">
        <ele>93.7575</ele>
        <time>2017-05-16T03:03:29.000Z</time>
      </trkpt>
      <trkpt lat="52.27832" lon="-1.8389">
        <ele>93.67414</ele>
        <time>2017-05-16T03:03:34.000Z</time>
      </trkpt>
      <trkpt lat="52.27867" lon="-1.83888">
        <ele>93.14874</ele>
        <time>2017-05-16T03:03:41.000Z</time>
      </trkpt>
      <trkpt lat="52.27897" lon="-1.83885">
        <ele>92.36085</ele>
        <time>2017-05-16T03:03:47.000Z</time>
      </trkpt>
      <trkpt lat="52.27916" lon="-1.83881">
        <ele>91.28686</ele>
        <time>2017-05-16T03:03:50.000Z</time>
      </trkpt>
      <trkpt lat="52.27937" lon="-1.83877">
        <ele>90.21318</ele>
        <time>2017-05-16T03:03:55.000Z</time>
      </trkpt>
      <trkpt lat="52.27953" lon="-1.83869">
        <ele>90.18137</ele>
        <time>2017-05-16T03:03:58.000Z</time>
      </trkpt>
      <trkpt lat="52.27971" lon="-1.83858">
        <ele>91.07031</ele>
        <time>2017-05-16T03:04:02.000Z</time>
      </trkpt>
      <trkpt lat="52.27989" lon="-1.83846">
        <ele>91.29107</ele>
        <time>2017-05-16T03:04:06.000Z</time>
      </trkpt>
      <trkpt lat="52.28008" lon="-1.83834">
        <ele>90.46786</ele>
        <time>2017-05-16T03:04:10.000Z</time>
      </trkpt>
      <trkpt lat="52.28028" lon="-1.83823">
        <ele>89.8426</ele>
        <time>2017-05-16T03:04:14.000Z</time>
      </trkpt>
      <trkpt lat="52.28037" lon="-1.83817">
        <ele>89.5831</ele>
        <time>2017-05-16T03:04:16.000Z</time>
      </trkpt>
      <trkpt lat="52.28043" lon="-1.83811">
        <ele>89.66666</ele>
        <time>2017-05-16T03:04:17.000Z</time>
      </trkpt>
      <trkpt lat="52.28048" lon="-1.83804">
        <ele>89.72952</ele>
        <time>2017-05-16T03:04:19.000Z</time>
      </trkpt>
      <trkpt lat="52.2806" lon="-1.83786">
        <ele>89.67694</ele>
        <time>2017-05-16T03:04:22.000Z</time>
      </trkpt>
      <trkpt lat="52.28072" lon="-1.83772">
        <ele>89.58913</ele>
        <time>2017-05-16T03:04:25.000Z</time>
      </trkpt>
      <trkpt lat="52.28084" lon="-1.83758">
        <ele>89.83919</ele>
        <time>2017-05-16T03:04:28.000Z</time>
      </trkpt>
      <trkpt lat="52.28091" lon="-1.83749">
        <ele>89.75471</ele>
        <time>2017-05-16T03:04:30.000Z</time>
      </trkpt>
      <trkpt lat="52.28101" lon="-1.83742">
        <ele>88.99394</ele>
        <time>2017-05-16T03:04:32.000Z</time>
      </trkpt>
      <trkpt lat="52.28106" lon="-1.83736">
        <ele>88.48888</ele>
        <time>2017-05-16T03:04:33.000Z</time>
      </trkpt>
      <trkpt lat="52.28109" lon="-1.83731">
        <ele>88.19507</ele>
        <time>2017-05-16T03:04:34.000Z</time>
      </trkpt>
      <trkpt lat="52.28113" lon="-1.83718">
        <ele>87.84765</ele>
        <time>2017-05-16T03:04:36.000Z</time>
      </trkpt>
      <trkpt lat="52.28117" lon="-1.83699">
        <ele>87.50594</ele>
        <time>2017-05-16T03:04:38.000Z</time>
      </trkpt>
      <trkpt lat="52.28123" lon="-1.83664">
        <ele>86.90041</ele>
        <time>2017-05-16T03:04:43.000Z</time>
      </trkpt>
      <trkpt lat="52.28129" lon="-1.83609">
        <ele>87.51322</ele>
        <time>2017-05-16T03:04:50.000Z</time>
      </trkpt>
      <trkpt lat="52.28133" lon="-1.83579">
        <ele>88.25208</ele>
        <time>2017-05-16T03:04:53.000Z</time>
      </trkpt>
      <trkpt lat="52.28136" lon="-1.83558">
        <ele>88.61014</ele>
        <time>2017-05-16T03:04:56.000Z</time>
      </trkpt>
      <trkpt lat="52.28139" lon="-1.83535">
        <ele>89.01663</ele>
        <time>2017-05-16T03:04:59.000Z</time>
      </trkpt>
      <trkpt lat="52.28145" lon="-1.8351">
        <ele>89.51889</ele>
        <time>2017-05-16T03:05:02.000Z</time>
      </trkpt>
      <trkpt lat="52.28149" lon="-1.83489">
        <ele>90.03007</ele>
        <time>2017-05-16T03:05:05.000Z</time>
      </trkpt>
      <trkpt lat="52.2816" lon="-1.83444">
        <ele>90.76504</ele>
        <time>2017-05-16T03:05:11.000Z</time>
      </trkpt>
      <trkpt lat="52.28167" lon="-1.8341">
        <ele>91.28909</ele>
        <time>2017-05-16T03:05:15.000Z</time>
      </trkpt>
      <trkpt lat="52.28175" lon="-1.8337">
        <ele>91.41605</ele>
        <time>2017-05-16T03:05:20.000Z</time>
      </trkpt>
      <trkpt lat="52.28183" lon="-1.83306">
        <ele>91.69098</ele>
        <time>2017-05-16T03:05:28.000Z</time>
      </trkpt>
      <trkpt lat="52.28187" lon="-1.83277">
        <ele>92.24606</ele>
        <time>2017-05-16T03:05:32.000Z</time>
      </trkpt>
      <trkpt lat="52.28195" lon="-1.8321">
        <ele>93.50503</ele>
        <time>2017-05-16T03:05:40.000Z</time>
      </trkpt>
      <trkpt lat="52.282" lon="-1.83158">
        <ele>94.47467</ele>
        <time>2017-05-16T03:05:47.000Z</time>
      </trkpt>
      <trkpt lat="52.28205" lon="-1.83121">
        <ele>94.93721</ele>
        <time>2017-05-16T03:05:51.000Z</time>
      </trkpt>
      <trkpt lat="52.28206" lon="-1.83115">
        <ele>94.99537</ele>
        <time>2017-05-16T03:05:52.000Z</time>
      </trkpt>
      <trkpt lat="52.28207" lon="-1.83111">
        <ele>95.02824</ele>
        <time>2017-05-16T03:05:53.000Z</time>
      </trkpt>
      <trkpt lat="52.28211" lon="-1.83104">
        <ele>95.08865</ele>
        <time>2017-05-16T03:05:54.000Z</time>
      </trkpt>
      <trkpt lat="52.28215" lon="-1.831">
        <ele>95.12316</ele>
        <time>2017-05-16T03:05:55.000Z</time>
      </trkpt>
      <trkpt lat="52.28221" lon="-1.83097">
        <ele>95.22511</ele>
        <time>2017-05-16T03:05:56.000Z</time>
      </trkpt>
      <trkpt lat="52.28233" lon="-1.83094">
        <ele>95.41092</ele>
        <time>2017-05-16T03:05:59.000Z</time>
      </trkpt>
      <trkpt lat="52.28298" lon="-1.83087">
        <ele>95.71348</ele>
        <time>2017-05-16T03:06:12.000Z</time>
      </trkpt>
      <trkpt lat="52.28366" lon="-1.83066">
        <ele>96.91904</ele>
        <time>2017-05-16T03:06:25.000Z</time>
      </trkpt>
      <trkpt lat="52.2838" lon="-1.83045">
        <ele>98.2307</ele>
        <time>2017-05-16T03:06:29.000Z</time>
      </trkpt>
      <trkpt lat="52.28383" lon="-1.8304">
        <ele>98.54106</ele>
        <time>2017-05-16T03:06:30.000Z</time>
      </trkpt>
      <trkpt lat="52.28386" lon="-1.83037">
        <ele>98.73205</ele>
        <time>2017-05-16T03:06:31.000Z</time>
      </trkpt>
      <trkpt lat="52.28391" lon="-1.83034">
        <ele>99.01636</ele>
        <time>2017-05-16T03:06:32.000Z</time>
      </trkpt>
      <trkpt lat="52.28395" lon="-1.83034">
        <ele>99.193</ele>
        <time>2017-05-16T03:06:33.000Z</time>
      </trkpt>
      <trkpt lat="52.284" lon="-1.83035">
        <ele>99.44839</ele>
        <time>2017-05-16T03:06:34.000Z</time>
      </trkpt>
      <trkpt lat="52.28405" lon="-1.83038">
        <ele>99.60221</ele>
        <time>2017-05-16T03:06:35.000Z</time>
      </trkpt>
      <trkpt lat="52.28428" lon="-1.83058">
        <ele>99.22654</ele>
        <time>2017-05-16T03:06:40.000Z</time>
      </trkpt>
      <trkpt lat="52.28448" lon="-1.83075">
        <ele>98.2802</ele>
        <time>2017-05-16T03:06:45.000Z</time>
      </trkpt>
      <trkpt lat="52.28457" lon="-1.8308">
        <ele>98.15688</ele>
        <time>2017-05-16T03:06:46.000Z</time>
      </trkpt>
      <trkpt lat="52.28463" lon="-1.83082">
        <ele>98.09053</ele>
        <time>2017-05-16T03:06:48.000Z</time>
      </trkpt>
      <trkpt lat="52.2847" lon="-1.83079">
        <ele>98.18519</ele>
        <time>2017-05-16T03:06:49.000Z</time>
      </trkpt>
      <trkpt lat="52.28473" lon="-1.83076">
        <ele>98.17357</ele>
        <time>2017-05-16T03:06:50.000Z</time>
      </trkpt>
      <trkpt lat="52.28481" lon="-1.83062">
        <ele>98.40728</ele>
        <time>2017-05-16T03:06:52.000Z</time>
      </trkpt>
      <trkpt lat="52.28496" lon="-1.83023">
        <ele>98.81364</ele>
        <time>2017-05-16T03:06:58.000Z</time>
      </trkpt>
      <trkpt lat="52.28512" lon="-1.82979">
        <ele>99.42012</ele>
        <time>2017-05-16T03:07:04.000Z</time>
      </trkpt>
      <trkpt lat="52.2852" lon="-1.82952">
        <ele>99.45436</ele>
        <time>2017-05-16T03:07:08.000Z</time>
      </trkpt>
      <trkpt lat="52.28526" lon="-1.82933">
        <ele>99.39498</ele>
        <time>2017-05-16T03:07:10.000Z</time>
      </trkpt>
      <trkpt lat="52.28532" lon="-1.8291">
        <ele>99.29782</ele>
        <time>2017-05-16T03:07:13.000Z</time>
      </trkpt>
      <trkpt lat="52.28541" lon="-1.82884">
        <ele>99.13864</ele>
        <time>2017-05-16T03:07:17.000Z</time>
      </trkpt>
      <trkpt lat="52.2855" lon="-1.82863">
        <ele>98.89229</ele>
        <time>2017-05-16T03:07:20.000Z</time>
      </trkpt>
      <trkpt lat="52.28555" lon="-1.82853">
        <ele>98.7646</ele>
        <time>2017-05-16T03:07:22.000Z</time>
      </trkpt>
      <trkpt lat="52.28557" lon="-1.82848">
        <ele>98.70705</ele>
        <time>2017-05-16T03:07:23.000Z</time>
      </trkpt>
      <trkpt lat="52.28561" lon="-1.82843">
        <ele>98.59894</ele>
        <time>2017-05-16T03:07:24.000Z</time>
      </trkpt>
      <trkpt lat="52.28566" lon="-1.82839">
        <ele>98.34645</ele>
        <time>2017-05-16T03:07:25.000Z</time>
      </trkpt>
      <trkpt lat="52.28573" lon="-1.82836">
        <ele>98.02093</ele>
        <time>2017-05-16T03:07:26.000Z</time>
      </trkpt>
      <trkpt lat="52.28579" lon="-1.82836">
        <ele>97.84434</ele>
        <time>2017-05-16T03:07:27.000Z</time>
      </trkpt>
      <trkpt lat="52.28614" lon="-1.8284">
        <ele>97.2924</ele>
        <time>2017-05-16T03:07:34.000Z</time>
      </trkpt>
      <trkpt lat="52.28633" lon="-1.82841">
        <ele>97.17933</ele>
        <time>2017-05-16T03:07:38.000Z</time>
      </trkpt>
      <trkpt lat="52.28645" lon="-1.8284">
        <ele>97.07438</ele>
        <time>2017-05-16T03:07:41.000Z</time>
      </trkpt>
      <trkpt lat="52.28672" lon="-1.82839">
        <ele>97.00226</ele>
        <time>2017-05-16T03:07:46.000Z</time>
      </trkpt>
      <trkpt lat="52.28686" lon="-1.82838">
        <ele>96.99744</ele>
        <time>2017-05-16T03:07:49.000Z</time>
      </trkpt>
      <trkpt lat="52.28694" lon="-1.82836">
        <ele>96.99844</ele>
        <time>2017-05-16T03:07:50.000Z</time>
      </trkpt>
      <trkpt lat="52.28702" lon="-1.82833">
        <ele>97.05852</ele>
        <time>2017-05-16T03:07:52.000Z</time>
      </trkpt>
      <trkpt lat="52.2871" lon="-1.82829">
        <ele>97.08606</ele>
        <time>2017-05-16T03:07:54.000Z</time>
      </trkpt>
      <trkpt lat="52.28728" lon="-1.82815">
        <ele>97.00718</ele>
        <time>2017-05-16T03:07:58.000Z</time>
      </trkpt>
      <trkpt lat="52.28739" lon="-1.82805">
        <ele>96.97508</ele>
        <time>2017-05-16T03:08:00.000Z</time>
      </trkpt>
      <trkpt lat="52.28748" lon="-1.82796">
        <ele>96.9506</ele>
        <time>2017-05-16T03:08:02.000Z</time>
      </trkpt>
      <trkpt lat="52.28756" lon="-1.82788">
        <ele>96.96078</ele>
        <time>2017-05-16T03:08:04.000Z</time>
      </trkpt>
      <trkpt lat="52.28765" lon="-1.82779">
        <ele>97.03444</ele>
        <time>2017-05-16T03:08:06.000Z</time>
      </trkpt>
      <trkpt lat="52.28771" lon="-1.82774">
        <ele>97.04165</ele>
        <time>2017-05-16T03:08:08.000Z</time>
      </trkpt>
      <trkpt lat="52.28778" lon="-1.82771">
        <ele>97.123</ele>
        <time>2017-05-16T03:08:09.000Z</time>
      </trkpt>
      <trkpt lat="52.28792" lon="-1.8277">
        <ele>97.29039</ele>
        <time>2017-05-16T03:08:12.000Z</time>
      </trkpt>
      <trkpt lat="52.28811" lon="-1.82767">
        <ele>97.46948</ele>
        <time>2017-05-16T03:08:16.000Z</time>
      </trkpt>
      <trkpt lat="52.28817" lon="-1.82765">
        <ele>97.4689</ele>
        <time>2017-05-16T03:08:17.000Z</time>
      </trkpt>
      <trkpt lat="52.28822" lon="-1.82763">
        <ele>97.42961</ele>
        <time>2017-05-16T03:08:18.000Z</time>
      </trkpt>
      <trkpt lat="52.28827" lon="-1.8276">
        <ele>97.37227</ele>
        <time>2017-05-16T03:08:19.000Z</time>
      </trkpt>
      <trkpt lat="52.28832" lon="-1.82757">
        <ele>97.38999</ele>
        <time>2017-05-16T03:08:20.000Z</time>
      </trkpt>
      <trkpt lat="52.28834" lon="-1.82755">
        <ele>97.38835</ele>
        <time>2017-05-16T03:08:21.000Z</time>
      </trkpt>
      <trkpt lat="52.28843" lon="-1.82743">
        <ele>97.17694</ele>
        <time>2017-05-16T03:08:23.000Z</time>
      </trkpt>
      <trkpt lat="52.28851" lon="-1.82734">
        <ele>96.93174</ele>
        <time>2017-05-16T03:08:25.000Z</time>
      </trkpt>
      <trkpt lat="52.28856" lon="-1.8273">
        <ele>96.82909</ele>
        <time>2017-05-16T03:08:26.000Z</time>
      </trkpt>
      <trkpt lat="52.28858" lon="-1.8273">
        <ele>96.89036</ele>
        <time>2017-05-16T03:08:27.000Z</time>
      </trkpt>
      <trkpt lat="52.28865" lon="-1.82731">
        <ele>97.03551</ele>
        <time>2017-05-16T03:08:28.000Z</time>
      </trkpt>
      <trkpt lat="52.2887" lon="-1.82733">
        <ele>97.11728</ele>
        <time>2017-05-16T03:08:29.000Z</time>
      </trkpt>
      <trkpt lat="52.28875" lon="-1.82736">
        <ele>97.36613</ele>
        <time>2017-05-16T03:08:30.000Z</time>
      </trkpt>
      <trkpt lat="52.28902" lon="-1.82752">
        <ele>98.12997</ele>
        <time>2017-05-16T03:08:36.000Z</time>
      </trkpt>
      <trkpt lat="52.28919" lon="-1.82762">
        <ele>98.81078</ele>
        <time>2017-05-16T03:08:39.000Z</time>
      </trkpt>
      <trkpt lat="52.28933" lon="-1.82773">
        <ele>99.44588</ele>
        <time>2017-05-16T03:08:43.000Z</time>
      </trkpt>
      <trkpt lat="52.28954" lon="-1.8279">
        <ele>100.10655</ele>
        <time>2017-05-16T03:08:47.000Z</time>
      </trkpt>
      <trkpt lat="52.28959" lon="-1.82792">
        <ele>100.19004</ele>
        <time>2017-05-16T03:08:48.000Z</time>
      </trkpt>
      <trkpt lat="52.28962" lon="-1.82793">
        <ele>100.26592</ele>
        <time>2017-05-16T03:08:49.000Z</time>
      </trkpt>
      <trkpt lat="52.28968" lon="-1.82794">
        <ele>100.47022</ele>
        <time>2017-05-16T03:08:50.000Z</time>
      </trkpt>
      <trkpt lat="52.28972" lon="-1.82793">
        <ele>100.50616</ele>
        <time>2017-05-16T03:08:51.000Z</time>
      </trkpt>
      <trkpt lat="52.2898" lon="-1.82791">
        <ele>100.4424</ele>
        <time>2017-05-16T03:08:52.000Z</time>
      </trkpt>
      <trkpt lat="52.28985" lon="-1.82788">
        <ele>100.30441</ele>
        <time>2017-05-16T03:08:54.000Z</time>
      </trkpt>
      <trkpt lat="52.28992" lon="-1.82782">
        <ele>100.34907</ele>
        <time>2017-05-16T03:08:55.000Z</time>
      </trkpt>
      <trkpt lat="52.29" lon="-1.82773">
        <ele>100.02519</ele>
        <time>2017-05-16T03:08:57.000Z</time>
      </trkpt>
      <trkpt lat="52.29005" lon="-1.82766">
        <ele>99.90668</ele>
        <time>2017-05-16T03:08:58.000Z</time>
      </trkpt>
      <trkpt lat="52.29012" lon="-1.82752">
        <ele>99.9447</ele>
        <time>2017-05-16T03:09:01.000Z</time>
      </trkpt>
      <trkpt lat="52.29067" lon="-1.8261">
        <ele>97.37952</ele>
        <time>2017-05-16T03:09:21.000Z</time>
      </trkpt>
      <trkpt lat="52.29109" lon="-1.82512">
        <ele>94.68705</ele>
        <time>2017-05-16T03:09:36.000Z</time>
      </trkpt>
      <trkpt lat="52.2911" lon="-1.82509">
        <ele>94.57955</ele>
        <time>2017-05-16T03:09:36.424Z</time>
      </trkpt>
      <trkpt lat="52.29128" lon="-1.82465">
        <ele>93.46092</ele>
        <time>2017-05-16T03:09:43.000Z</time>
      </trkpt>
      <trkpt lat="52.29141" lon="-1.82436">
        <ele>93.08674</ele>
        <time>2017-05-16T03:09:47.000Z</time>
      </trkpt>
      <trkpt lat="52.29152" lon="-1.82415">
        <ele>92.8948</ele>
        <time>2017-05-16T03:09:51.000Z</time>
      </trkpt>
      <trkpt lat="52.29159" lon="-1.82407">
        <ele>92.74312</ele>
        <time>2017-05-16T03:09:52.000Z</time>
      </trkpt>
      <trkpt lat="52.29166" lon="-1.82402">
        <ele>92.8125</ele>
        <time>2017-05-16T03:09:54.000Z</time>
      </trkpt>
      <trkpt lat="52.29181" lon="-1.82395">
        <ele>92.57571</ele>
        <time>2017-05-16T03:09:57.000Z</time>
      </trkpt>
      <trkpt lat="52.29201" lon="-1.8239">
        <ele>92.17336</ele>
        <time>2017-05-16T03:10:01.000Z</time>
      </trkpt>
      <trkpt lat="52.29208" lon="-1.82387">
        <ele>92.07152</ele>
        <time>2017-05-16T03:10:02.000Z</time>
      </trkpt>
      <trkpt lat="52.29221" lon="-1.82381">
        <ele>92.14133</ele>
        <time>2017-05-16T03:10:05.000Z</time>
        <name>52.292210,-1.823810</name>
        <extensions>
          <oa:locType>calcWayPoint</oa:locType>
        </extensions>
      </trkpt>
      <trkpt lat="52.29231" lon="-1.82374">
        <ele>92.3998</ele>
        <time>2017-05-16T03:10:07.000Z</time>
      </trkpt>
      <trkpt lat="52.2924" lon="-1.82398">
        <ele>92.68761</ele>
        <time>2017-05-16T03:10:11.000Z</time>
      </trkpt>
      <trkpt lat="52.29247" lon="-1.82421">
        <ele>92.98243</ele>
        <time>2017-05-16T03:10:14.000Z</time>
      </trkpt>
      <trkpt lat="52.29253" lon="-1.82443">
        <ele>93.39491</ele>
        <time>2017-05-16T03:10:17.000Z</time>
      </trkpt>
      <trkpt lat="52.29259" lon="-1.82468">
        <ele>93.72625</ele>
        <time>2017-05-16T03:10:20.000Z</time>
      </trkpt>
      <trkpt lat="52.29269" lon="-1.82512">
        <ele>94.49713</ele>
        <time>2017-05-16T03:10:26.000Z</time>
      </trkpt>
      <trkpt lat="52.29276" lon="-1.82541">
        <ele>94.83812</ele>
        <time>2017-05-16T03:10:30.000Z</time>
      </trkpt>
      <trkpt lat="52.2929" lon="-1.82584">
        <ele>95.36867</ele>
        <time>2017-05-16T03:10:36.000Z</time>
      </trkpt>
      <trkpt lat="52.29299" lon="-1.82614">
        <ele>95.74035</ele>
        <time>2017-05-16T03:10:40.000Z</time>
      </trkpt>
      <trkpt lat="52.29308" lon="-1.82635">
        <ele>96.02454</ele>
        <time>2017-05-16T03:10:43.000Z</time>
      </trkpt>
      <trkpt lat="52.29322" lon="-1.82664">
        <ele>96.17576</ele>
        <time>2017-05-16T03:10:47.000Z</time>
      </trkpt>
      <trkpt lat="52.2933" lon="-1.82677">
        <ele>96.40528</ele>
        <time>2017-05-16T03:10:50.000Z</time>
      </trkpt>
      <trkpt lat="52.29339" lon="-1.82692">
        <ele>96.60964</ele>
        <time>2017-05-16T03:10:52.000Z</time>
      </trkpt>
      <trkpt lat="52.29353" lon="-1.82708">
        <ele>96.92154</ele>
        <time>2017-05-16T03:10:56.000Z</time>
      </trkpt>
      <trkpt lat="52.29364" lon="-1.82722">
        <ele>97.13155</ele>
        <time>2017-05-16T03:10:59.000Z</time>
      </trkpt>
      <trkpt lat="52.29376" lon="-1.82734">
        <ele>97.25515</ele>
        <time>2017-05-16T03:11:01.000Z</time>
      </trkpt>
      <trkpt lat="52.29392" lon="-1.82748">
        <ele>97.48379</ele>
        <time>2017-05-16T03:11:05.000Z</time>
      </trkpt>
      <trkpt lat="52.29407" lon="-1.82758">
        <ele>97.63076</ele>
        <time>2017-05-16T03:11:08.000Z</time>
      </trkpt>
      <trkpt lat="52.29425" lon="-1.8277">
        <ele>97.90025</ele>
        <time>2017-05-16T03:11:12.000Z</time>
      </trkpt>
      <trkpt lat="52.29443" lon="-1.82777">
        <ele>98.04161</ele>
        <time>2017-05-16T03:11:16.000Z</time>
      </trkpt>
      <trkpt lat="52.29458" lon="-1.82781">
        <ele>98.21169</ele>
        <time>2017-05-16T03:11:19.000Z</time>
      </trkpt>
      <trkpt lat="52.29471" lon="-1.82783">
        <ele>98.26333</ele>
        <time>2017-05-16T03:11:22.000Z</time>
      </trkpt>
      <trkpt lat="52.29501" lon="-1.82785">
        <ele>98.02104</ele>
        <time>2017-05-16T03:11:28.000Z</time>
      </trkpt>
      <trkpt lat="52.29522" lon="-1.82784">
        <ele>97.68709</ele>
        <time>2017-05-16T03:11:32.000Z</time>
      </trkpt>
      <trkpt lat="52.29548" lon="-1.82782">
        <ele>97.22846</ele>
        <time>2017-05-16T03:11:37.000Z</time>
      </trkpt>
      <trkpt lat="52.29633" lon="-1.82775">
        <ele>96.19677</ele>
        <time>2017-05-16T03:11:54.000Z</time>
      </trkpt>
      <trkpt lat="52.29682" lon="-1.82772">
        <ele>95.73826</ele>
        <time>2017-05-16T03:12:04.000Z</time>
      </trkpt>
      <trkpt lat="52.29702" lon="-1.82772">
        <ele>94.88055</ele>
        <time>2017-05-16T03:12:08.000Z</time>
      </trkpt>
      <trkpt lat="52.29735" lon="-1.82774">
        <ele>96.32225</ele>
        <time>2017-05-16T03:12:14.000Z</time>
      </trkpt>
      <trkpt lat="52.29754" lon="-1.82782">
        <ele>96.7721</ele>
        <time>2017-05-16T03:12:18.000Z</time>
      </trkpt>
      <trkpt lat="52.29765" lon="-1.82788">
        <ele>97.05777</ele>
        <time>2017-05-16T03:12:21.000Z</time>
      </trkpt>
      <trkpt lat="52.29789" lon="-1.82805">
        <ele>97.7873</ele>
        <time>2017-05-16T03:12:26.000Z</time>
      </trkpt>
      <trkpt lat="52.29809" lon="-1.82823">
        <ele>98.43525</ele>
        <time>2017-05-16T03:12:31.000Z</time>
      </trkpt>
      <trkpt lat="52.29835" lon="-1.82858">
        <ele>99.41176</ele>
        <time>2017-05-16T03:12:37.000Z</time>
      </trkpt>
      <trkpt lat="52.29849" lon="-1.82879">
        <ele>99.93023</ele>
        <time>2017-05-16T03:12:41.000Z</time>
      </trkpt>
      <trkpt lat="52.29859" lon="-1.82896">
        <ele>100.27887</ele>
        <time>2017-05-16T03:12:44.000Z</time>
      </trkpt>
      <trkpt lat="52.2989" lon="-1.82962">
        <ele>101.95239</ele>
        <time>2017-05-16T03:12:54.000Z</time>
      </trkpt>
      <trkpt lat="52.29916" lon="-1.8302">
        <ele>103.77892</ele>
        <time>2017-05-16T03:13:03.000Z</time>
      </trkpt>
      <trkpt lat="52.2992" lon="-1.83028">
        <ele>103.96536</ele>
        <time>2017-05-16T03:13:04.000Z</time>
      </trkpt>
      <trkpt lat="52.2992" lon="-1.83029">
        <ele>103.97665</ele>
        <time>2017-05-16T03:13:04.122Z</time>
      </trkpt>
      <trkpt lat="52.29945" lon="-1.8299">
        <ele>105.91079</ele>
        <time>2017-05-16T03:13:11.000Z</time>
      </trkpt>
      <trkpt lat="52.29954" lon="-1.82968">
        <ele>106.65628</ele>
        <time>2017-05-16T03:13:15.000Z</time>
      </trkpt>
      <trkpt lat="52.2996" lon="-1.82949">
        <ele>106.96926</ele>
        <time>2017-05-16T03:13:17.000Z</time>
      </trkpt>
      <trkpt lat="52.29974" lon="-1.82918">
        <ele>106.97053</ele>
        <time>2017-05-16T03:13:22.000Z</time>
      </trkpt>
      <trkpt lat="52.29993" lon="-1.82885">
        <ele>106.16214</ele>
        <time>2017-05-16T03:13:27.000Z</time>
      </trkpt>
      <trkpt lat="52.30001" lon="-1.82868">
        <ele>105.51044</ele>
        <time>2017-05-16T03:13:30.000Z</time>
      </trkpt>
      <trkpt lat="52.30005" lon="-1.82855">
        <ele>104.96452</ele>
        <time>2017-05-16T03:13:32.000Z</time>
      </trkpt>
      <trkpt lat="52.30006" lon="-1.82843">
        <ele>104.51157</ele>
        <time>2017-05-16T03:13:33.000Z</time>
      </trkpt>
      <trkpt lat="52.30007" lon="-1.82831">
        <ele>104.18001</ele>
        <time>2017-05-16T03:13:35.000Z</time>
      </trkpt>
      <trkpt lat="52.30008" lon="-1.82806">
        <ele>104.16976</ele>
        <time>2017-05-16T03:13:38.000Z</time>
      </trkpt>
      <trkpt lat="52.3001" lon="-1.82769">
        <ele>105.27817</ele>
        <time>2017-05-16T03:13:42.000Z</time>
      </trkpt>
      <trkpt lat="52.30012" lon="-1.82751">
        <ele>105.73095</ele>
        <time>2017-05-16T03:13:45.000Z</time>
      </trkpt>
      <trkpt lat="52.30014" lon="-1.82736">
        <ele>105.96934</ele>
        <time>2017-05-16T03:13:47.000Z</time>
      </trkpt>
      <trkpt lat="52.30019" lon="-1.82715">
        <ele>106.18847</ele>
        <time>2017-05-16T03:13:49.000Z</time>
      </trkpt>
      <trkpt lat="52.30024" lon="-1.827">
        <ele>106.49199</ele>
        <time>2017-05-16T03:13:51.000Z</time>
      </trkpt>
      <trkpt lat="52.30029" lon="-1.82692">
        <ele>106.6959</ele>
        <time>2017-05-16T03:13:53.000Z</time>
      </trkpt>
      <trkpt lat="52.30038" lon="-1.82681">
        <ele>107.15121</ele>
        <time>2017-05-16T03:13:55.000Z</time>
      </trkpt>
      <trkpt lat="52.30062" lon="-1.82655">
        <ele>107.80925</ele>
        <time>2017-05-16T03:14:01.000Z</time>
      </trkpt>
      <trkpt lat="52.3007" lon="-1.82647">
        <ele>107.88394</ele>
        <time>2017-05-16T03:14:03.000Z</time>
      </trkpt>
      <trkpt lat="52.30077" lon="-1.82641">
        <ele>107.86711</ele>
        <time>2017-05-16T03:14:04.000Z</time>
      </trkpt>
      <trkpt lat="52.30098" lon="-1.82627">
        <ele>107.89312</ele>
        <time>2017-05-16T03:14:09.000Z</time>
      </trkpt>
      <trkpt lat="52.30124" lon="-1.82615">
        <ele>107.53426</ele>
        <time>2017-05-16T03:14:14.000Z</time>
      </trkpt>
      <trkpt lat="52.30156" lon="-1.82602">
        <ele>107.13148</ele>
        <time>2017-05-16T03:14:21.000Z</time>
      </trkpt>
      <trkpt lat="52.30159" lon="-1.82601">
        <ele>107.08753</ele>
        <time>2017-05-16T03:14:21.550Z</time>
      </trkpt>
      <trkpt lat="52.30183" lon="-1.82591">
        <ele>106.77006</ele>
        <time>2017-05-16T03:14:26.000Z</time>
      </trkpt>
      <trkpt lat="52.30197" lon="-1.82586">
        <ele>106.70752</ele>
        <time>2017-05-16T03:14:29.000Z</time>
      </trkpt>
      <trkpt lat="52.30209" lon="-1.82583">
        <ele>106.72851</ele>
        <time>2017-05-16T03:14:32.000Z</time>
      </trkpt>
      <trkpt lat="52.30221" lon="-1.82581">
        <ele>106.76985</ele>
        <time>2017-05-16T03:14:34.000Z</time>
      </trkpt>
      <trkpt lat="52.30248" lon="-1.82575">
        <ele>107.23511</ele>
        <time>2017-05-16T03:14:40.000Z</time>
      </trkpt>
      <trkpt lat="52.30271" lon="-1.82565">
        <ele>107.54563</ele>
        <time>2017-05-16T03:14:44.000Z</time>
      </trkpt>
      <trkpt lat="52.30289" lon="-1.82555">
        <ele>108.13776</ele>
        <time>2017-05-16T03:14:48.000Z</time>
      </trkpt>
      <trkpt lat="52.30296" lon="-1.82549">
        <ele>108.24456</ele>
        <time>2017-05-16T03:14:50.000Z</time>
      </trkpt>
      <trkpt lat="52.30302" lon="-1.82544">
        <ele>108.46828</ele>
        <time>2017-05-16T03:14:51.000Z</time>
      </trkpt>
      <trkpt lat="52.30305" lon="-1.82538">
        <ele>108.51092</ele>
        <time>2017-05-16T03:14:52.000Z</time>
      </trkpt>
      <trkpt lat="52.30311" lon="-1.82528">
        <ele>108.52048</ele>
        <time>2017-05-16T03:14:54.000Z</time>
      </trkpt>
      <trkpt lat="52.30316" lon="-1.82518">
        <ele>108.63333</ele>
        <time>2017-05-16T03:14:55.000Z</time>
      </trkpt>
      <trkpt lat="52.30319" lon="-1.82495">
        <ele>108.9518</ele>
        <time>2017-05-16T03:14:58.000Z</time>
      </trkpt>
      <trkpt lat="52.3032" lon="-1.82466">
        <ele>109.18278</ele>
        <time>2017-05-16T03:15:02.000Z</time>
      </trkpt>
      <trkpt lat="52.30317" lon="-1.82446">
        <ele>109.13822</ele>
        <time>2017-05-16T03:15:04.000Z</time>
      </trkpt>
      <trkpt lat="52.30312" lon="-1.82429">
        <ele>108.97631</ele>
        <time>2017-05-16T03:15:07.000Z</time>
      </trkpt>
      <trkpt lat="52.3031" lon="-1.82416">
        <ele>108.89053</ele>
        <time>2017-05-16T03:15:08.000Z</time>
      </trkpt>
      <trkpt lat="52.30308" lon="-1.82404">
        <ele>108.71671</ele>
        <time>2017-05-16T03:15:10.000Z</time>
      </trkpt>
      <trkpt lat="52.30305" lon="-1.82384">
        <ele>108.19115</ele>
        <time>2017-05-16T03:15:12.000Z</time>
      </trkpt>
      <trkpt lat="52.30305" lon="-1.82381">
        <ele>108.08735</ele>
        <time>2017-05-16T03:15:13.000Z</time>
      </trkpt>
      <trkpt lat="52.30304" lon="-1.82369">
        <ele>107.63484</ele>
        <time>2017-05-16T03:15:14.000Z</time>
      </trkpt>
      <trkpt lat="52.30303" lon="-1.82356">
        <ele>107.04413</ele>
        <time>2017-05-16T03:15:16.000Z</time>
      </trkpt>
      <trkpt lat="52.30302" lon="-1.82324">
        <ele>105.5183</ele>
        <time>2017-05-16T03:15:20.000Z</time>
      </trkpt>
      <trkpt lat="52.30302" lon="-1.8229">
        <ele>103.92727</ele>
        <time>2017-05-16T03:15:24.000Z</time>
      </trkpt>
      <trkpt lat="52.30302" lon="-1.82268">
        <ele>103.04432</ele>
        <time>2017-05-16T03:15:27.000Z</time>
      </trkpt>
      <trkpt lat="52.30305" lon="-1.82239">
        <ele>102.46546</ele>
        <time>2017-05-16T03:15:30.000Z</time>
      </trkpt>
      <trkpt lat="52.30307" lon="-1.82224">
        <ele>102.28174</ele>
        <time>2017-05-16T03:15:32.000Z</time>
      </trkpt>
      <trkpt lat="52.3031" lon="-1.82215">
        <ele>102.24729</ele>
        <time>2017-05-16T03:15:33.000Z</time>
      </trkpt>
      <trkpt lat="52.3032" lon="-1.82189">
        <ele>102.08071</ele>
        <time>2017-05-16T03:15:37.000Z</time>
      </trkpt>
      <trkpt lat="52.30324" lon="-1.82191">
        <ele>102.16194</ele>
        <time>2017-05-16T03:15:38.000Z</time>
      </trkpt>
      <trkpt lat="52.30344" lon="-1.82203">
        <ele>102.56821</ele>
        <time>2017-05-16T03:15:42.000Z</time>
      </trkpt>
      <trkpt lat="52.30428" lon="-1.82259">
        <ele>105.09822</ele>
        <time>2017-05-16T03:16:00.000Z</time>
      </trkpt>
      <trkpt lat="52.3045" lon="-1.82278">
        <ele>105.82162</ele>
        <time>2017-05-16T03:16:05.000Z</time>
      </trkpt>
      <trkpt lat="52.30473" lon="-1.823">
        <ele>106.46468</ele>
        <time>2017-05-16T03:16:11.000Z</time>
      </trkpt>
      <trkpt lat="52.30502" lon="-1.82327">
        <ele>107.65363</ele>
        <time>2017-05-16T03:16:17.000Z</time>
      </trkpt>
      <trkpt lat="52.30515" lon="-1.82339">
        <ele>108.46353</ele>
        <time>2017-05-16T03:16:20.000Z</time>
      </trkpt>
      <trkpt lat="52.30529" lon="-1.82352">
        <ele>109.38149</ele>
        <time>2017-05-16T03:16:24.000Z</time>
      </trkpt>
      <trkpt lat="52.30546" lon="-1.8237">
        <ele>110.49646</ele>
        <time>2017-05-16T03:16:28.000Z</time>
      </trkpt>
      <trkpt lat="52.30577" lon="-1.82401">
        <ele>112.61835</ele>
        <time>2017-05-16T03:16:35.000Z</time>
      </trkpt>
      <trkpt lat="52.30601" lon="-1.82432">
        <ele>114.5607</ele>
        <time>2017-05-16T03:16:41.000Z</time>
      </trkpt>
      <trkpt lat="52.30618" lon="-1.82457">
        <ele>116.10437</ele>
        <time>2017-05-16T03:16:46.000Z</time>
      </trkpt>
      <trkpt lat="52.30622" lon="-1.82464">
        <ele>116.45988</ele>
        <time>2017-05-16T03:16:47.000Z</time>
      </trkpt>
      <trkpt lat="52.30632" lon="-1.82482">
        <ele>117.50447</ele>
        <time>2017-05-16T03:16:50.000Z</time>
      </trkpt>
      <trkpt lat="52.30652" lon="-1.82526">
        <ele>119.91427</ele>
        <time>2017-05-16T03:16:57.000Z</time>
      </trkpt>
      <trkpt lat="52.30668" lon="-1.82519">
        <ele>120.23141</ele>
        <time>2017-05-16T03:17:00.000Z</time>
      </trkpt>
      <trkpt lat="52.30684" lon="-1.82517">
        <ele>120.66239</ele>
        <time>2017-05-16T03:17:03.000Z</time>
      </trkpt>
      <trkpt lat="52.30698" lon="-1.82523">
        <ele>121.54749</ele>
        <time>2017-05-16T03:17:06.000Z</time>
      </trkpt>
      <trkpt lat="52.30761" lon="-1.82561">
        <ele>125.65716</ele>
        <time>2017-05-16T03:17:19.000Z</time>
      </trkpt>
      <trkpt lat="52.30782" lon="-1.82574">
        <ele>126.15618</ele>
        <time>2017-05-16T03:17:24.000Z</time>
      </trkpt>
      <trkpt lat="52.30807" lon="-1.82589">
        <ele>125.81012</ele>
        <time>2017-05-16T03:17:29.000Z</time>
      </trkpt>
      <trkpt lat="52.3084" lon="-1.82607">
        <ele>126.10824</ele>
        <time>2017-05-16T03:17:36.000Z</time>
      </trkpt>
      <trkpt lat="52.30867" lon="-1.82619">
        <ele>127.18644</ele>
        <time>2017-05-16T03:17:42.000Z</time>
      </trkpt>
      <trkpt lat="52.30878" lon="-1.82625">
        <ele>127.87142</ele>
        <time>2017-05-16T03:17:44.000Z</time>
      </trkpt>
      <trkpt lat="52.30894" lon="-1.8264">
        <ele>129.81169</ele>
        <time>2017-05-16T03:17:48.000Z</time>
      </trkpt>
      <trkpt lat="52.30915" lon="-1.8266">
        <ele>131.43402</ele>
        <time>2017-05-16T03:17:53.000Z</time>
      </trkpt>
      <trkpt lat="52.30965" lon="-1.82712">
        <ele>133.17312</ele>
        <time>2017-05-16T03:18:05.000Z</time>
      </trkpt>
      <trkpt lat="52.3099" lon="-1.82741">
        <ele>132.62808</ele>
        <time>2017-05-16T03:18:11.000Z</time>
      </trkpt>
      <trkpt lat="52.31035" lon="-1.82796">
        <ele>130.36498</ele>
        <time>2017-05-16T03:18:22.000Z</time>
      </trkpt>
      <trkpt lat="52.31064" lon="-1.82831">
        <ele>127.88569</ele>
        <time>2017-05-16T03:18:29.000Z</time>
      </trkpt>
      <trkpt lat="52.31086" lon="-1.82846">
        <ele>127.4632</ele>
        <time>2017-05-16T03:18:34.000Z</time>
      </trkpt>
      <trkpt lat="52.31111" lon="-1.82861">
        <ele>128.31579</ele>
        <time>2017-05-16T03:18:39.000Z</time>
      </trkpt>
      <trkpt lat="52.31143" lon="-1.82878">
        <ele>132.02003</ele>
        <time>2017-05-16T03:18:46.000Z</time>
      </trkpt>
      <trkpt lat="52.31164" lon="-1.82892">
        <ele>133.44711</ele>
        <time>2017-05-16T03:18:51.000Z</time>
      </trkpt>
      <trkpt lat="52.31173" lon="-1.82904">
        <ele>134.00215</ele>
        <time>2017-05-16T03:18:53.000Z</time>
      </trkpt>
      <trkpt lat="52.31185" lon="-1.82916">
        <ele>134.69425</ele>
        <time>2017-05-16T03:18:56.000Z</time>
      </trkpt>
      <trkpt lat="52.31192" lon="-1.82923">
        <ele>135.15678</ele>
        <time>2017-05-16T03:18:57.000Z</time>
      </trkpt>
      <trkpt lat="52.31199" lon="-1.82952">
        <ele>135.91124</ele>
        <time>2017-05-16T03:19:01.000Z</time>
      </trkpt>
      <trkpt lat="52.31215" lon="-1.82996">
        <ele>136.77715</ele>
        <time>2017-05-16T03:19:07.000Z</time>
      </trkpt>
      <trkpt lat="52.31239" lon="-1.83032">
        <ele>138.62928</ele>
        <time>2017-05-16T03:19:14.000Z</time>
      </trkpt>
      <trkpt lat="52.31259" lon="-1.83052">
        <ele>140.21192</ele>
        <time>2017-05-16T03:19:19.000Z</time>
      </trkpt>
      <trkpt lat="52.31292" lon="-1.83075">
        <ele>142.20256</ele>
        <time>2017-05-16T03:19:26.000Z</time>
      </trkpt>
      <trkpt lat="52.31332" lon="-1.83093">
        <ele>144.85614</ele>
        <time>2017-05-16T03:19:34.000Z</time>
      </trkpt>
      <trkpt lat="52.31378" lon="-1.83103">
        <ele>148.18014</ele>
        <time>2017-05-16T03:19:44.000Z</time>
      </trkpt>
      <trkpt lat="52.31442" lon="-1.83121">
        <ele>148.53744</ele>
        <time>2017-05-16T03:19:57.000Z</time>
      </trkpt>
      <trkpt lat="52.31511" lon="-1.83131">
        <ele>144.69222</ele>
        <time>2017-05-16T03:20:10.000Z</time>
      </trkpt>
      <trkpt lat="52.31629" lon="-1.83137">
        <ele>134.27564</ele>
        <time>2017-05-16T03:20:34.000Z</time>
      </trkpt>
      <trkpt lat="52.31709" lon="-1.83137">
        <ele>132.67263</ele>
        <time>2017-05-16T03:20:50.000Z</time>
      </trkpt>
      <trkpt lat="52.31765" lon="-1.83139">
        <ele>132.23284</ele>
        <time>2017-05-16T03:21:01.000Z</time>
      </trkpt>
      <trkpt lat="52.31841" lon="-1.83162">
        <ele>129.27612</ele>
        <time>2017-05-16T03:21:17.000Z</time>
      </trkpt>
      <trkpt lat="52.31874" lon="-1.83179">
        <ele>127.37579</ele>
        <time>2017-05-16T03:21:24.000Z</time>
      </trkpt>
      <trkpt lat="52.31921" lon="-1.83197">
        <ele>125.67242</ele>
        <time>2017-05-16T03:21:33.000Z</time>
      </trkpt>
      <trkpt lat="52.31968" lon="-1.83212">
        <ele>121.10714</ele>
        <time>2017-05-16T03:21:43.000Z</time>
      </trkpt>
      <trkpt lat="52.31994" lon="-1.83207">
        <ele>118.57894</ele>
        <time>2017-05-16T03:21:48.000Z</time>
      </trkpt>
      <trkpt lat="52.32024" lon="-1.83206">
        <ele>116.75604</ele>
        <time>2017-05-16T03:21:54.000Z</time>
      </trkpt>
      <trkpt lat="52.32112" lon="-1.83217">
        <ele>117.03775</ele>
        <time>2017-05-16T03:22:12.000Z</time>
      </trkpt>
      <trkpt lat="52.32123" lon="-1.83221">
        <ele>117.47232</ele>
        <time>2017-05-16T03:22:14.000Z</time>
      </trkpt>
      <trkpt lat="52.32138" lon="-1.8324">
        <ele>118.00088</ele>
        <time>2017-05-16T03:22:18.000Z</time>
      </trkpt>
      <trkpt lat="52.32144" lon="-1.83246">
        <ele>118.20224</ele>
        <time>2017-05-16T03:22:19.000Z</time>
      </trkpt>
      <trkpt lat="52.3217" lon="-1.83271">
        <ele>119.85199</ele>
        <time>2017-05-16T03:22:25.000Z</time>
      </trkpt>
      <trkpt lat="52.32187" lon="-1.83295">
        <ele>121.27769</ele>
        <time>2017-05-16T03:22:30.000Z</time>
      </trkpt>
      <trkpt lat="52.32211" lon="-1.83322">
        <ele>122.76721</ele>
        <time>2017-05-16T03:22:36.000Z</time>
      </trkpt>
      <trkpt lat="52.32237" lon="-1.8335">
        <ele>124.08123</ele>
        <time>2017-05-16T03:22:42.000Z</time>
      </trkpt>
      <trkpt lat="52.32258" lon="-1.83372">
        <ele>125.84183</ele>
        <time>2017-05-16T03:22:47.000Z</time>
      </trkpt>
      <trkpt lat="52.32281" lon="-1.83386">
        <ele>127.48474</ele>
        <time>2017-05-16T03:22:52.000Z</time>
      </trkpt>
      <trkpt lat="52.32332" lon="-1.83416">
        <ele>131.3204</ele>
        <time>2017-05-16T03:23:03.000Z</time>
      </trkpt>
      <trkpt lat="52.32368" lon="-1.83437">
        <ele>135.73876</ele>
        <time>2017-05-16T03:23:10.000Z</time>
      </trkpt>
      <trkpt lat="52.32392" lon="-1.83452">
        <ele>139.46975</ele>
        <time>2017-05-16T03:23:16.000Z</time>
      </trkpt>
      <trkpt lat="52.32404" lon="-1.83459">
        <ele>141.50769</ele>
        <time>2017-05-16T03:23:18.000Z</time>
      </trkpt>
      <trkpt lat="52.32421" lon="-1.83474">
        <ele>143.68858</ele>
        <time>2017-05-16T03:23:22.000Z</time>
      </trkpt>
      <trkpt lat="52.32447" lon="-1.83502">
        <ele>147.40965</ele>
        <time>2017-05-16T03:23:28.000Z</time>
      </trkpt>
      <trkpt lat="52.32465" lon="-1.83534">
        <ele>149.77217</ele>
        <time>2017-05-16T03:23:34.000Z</time>
      </trkpt>
      <trkpt lat="52.32477" lon="-1.83563">
        <ele>151.32119</ele>
        <time>2017-05-16T03:23:38.000Z</time>
      </trkpt>
      <trkpt lat="52.32497" lon="-1.83601">
        <ele>150.17263</ele>
        <time>2017-05-16T03:23:44.000Z</time>
      </trkpt>
      <trkpt lat="52.3252" lon="-1.83658">
        <ele>147.94563</ele>
        <time>2017-05-16T03:23:52.000Z</time>
      </trkpt>
      <trkpt lat="52.32528" lon="-1.83672">
        <ele>147.24891</ele>
        <time>2017-05-16T03:23:55.000Z</time>
      </trkpt>
      <trkpt lat="52.32537" lon="-1.8368">
        <ele>146.69739</ele>
        <time>2017-05-16T03:23:57.000Z</time>
      </trkpt>
      <trkpt lat="52.32547" lon="-1.83687">
        <ele>146.76677</ele>
        <time>2017-05-16T03:23:59.000Z</time>
      </trkpt>
      <trkpt lat="52.32559" lon="-1.83694">
        <ele>147.3084</ele>
        <time>2017-05-16T03:24:02.000Z</time>
      </trkpt>
      <trkpt lat="52.32572" lon="-1.83709">
        <ele>148.2377</ele>
        <time>2017-05-16T03:24:05.000Z</time>
      </trkpt>
      <trkpt lat="52.32592" lon="-1.83747">
        <ele>148.66842</ele>
        <time>2017-05-16T03:24:11.000Z</time>
      </trkpt>
      <trkpt lat="52.32603" lon="-1.83787">
        <ele>148.37486</ele>
        <time>2017-05-16T03:24:16.000Z</time>
      </trkpt>
      <trkpt lat="52.32611" lon="-1.83816">
        <ele>147.82021</ele>
        <time>2017-05-16T03:24:20.000Z</time>
      </trkpt>
      <trkpt lat="52.32625" lon="-1.83859">
        <ele>147.94016</ele>
        <time>2017-05-16T03:24:26.000Z</time>
      </trkpt>
      <trkpt lat="52.32657" lon="-1.8397">
        <ele>146.81628</ele>
        <time>2017-05-16T03:24:41.000Z</time>
      </trkpt>
      <trkpt lat="52.32664" lon="-1.84016">
        <ele>146.39858</ele>
        <time>2017-05-16T03:24:47.000Z</time>
      </trkpt>
      <trkpt lat="52.32669" lon="-1.84058">
        <ele>146.71739</ele>
        <time>2017-05-16T03:24:52.000Z</time>
      </trkpt>
      <trkpt lat="52.32671" lon="-1.84101">
        <ele>148.44256</ele>
        <time>2017-05-16T03:24:57.000Z</time>
      </trkpt>
      <trkpt lat="52.32675" lon="-1.84182">
        <ele>152.13007</ele>
        <time>2017-05-16T03:25:07.000Z</time>
      </trkpt>
      <trkpt lat="52.32674" lon="-1.84268">
        <ele>155.06192</ele>
        <time>2017-05-16T03:25:18.000Z</time>
      </trkpt>
      <trkpt lat="52.32677" lon="-1.84326">
        <ele>156.44983</ele>
        <time>2017-05-16T03:25:25.000Z</time>
      </trkpt>
      <trkpt lat="52.32676" lon="-1.84399">
        <ele>157.18088</ele>
        <time>2017-05-16T03:25:34.000Z</time>
      </trkpt>
      <trkpt lat="52.32681" lon="-1.8446">
        <ele>156.62601</ele>
        <time>2017-05-16T03:25:42.000Z</time>
      </trkpt>
      <trkpt lat="52.327" lon="-1.84561">
        <ele>157.7897</ele>
        <time>2017-05-16T03:25:54.000Z</time>
      </trkpt>
      <trkpt lat="52.32712" lon="-1.84613">
        <ele>157.88887</ele>
        <time>2017-05-16T03:26:01.000Z</time>
      </trkpt>
      <trkpt lat="52.32732" lon="-1.84676">
        <ele>157.74002</ele>
        <time>2017-05-16T03:26:10.000Z</time>
      </trkpt>
      <trkpt lat="52.32747" lon="-1.84722">
        <ele>157.47785</ele>
        <time>2017-05-16T03:26:16.000Z</time>
      </trkpt>
      <trkpt lat="52.32765" lon="-1.84771">
        <ele>157.07024</ele>
        <time>2017-05-16T03:26:23.000Z</time>
      </trkpt>
      <trkpt lat="52.32783" lon="-1.8481">
        <ele>156.27262</ele>
        <time>2017-05-16T03:26:29.000Z</time>
      </trkpt>
      <trkpt lat="52.32795" lon="-1.84834">
        <ele>155.51547</ele>
        <time>2017-05-16T03:26:33.000Z</time>
      </trkpt>
      <trkpt lat="52.32806" lon="-1.84853">
        <ele>154.69517</ele>
        <time>2017-05-16T03:26:36.000Z</time>
      </trkpt>
      <trkpt lat="52.32808" lon="-1.84847">
        <ele>154.80244</ele>
        <time>2017-05-16T03:26:37.000Z</time>
      </trkpt>
      <trkpt lat="52.3285" lon="-1.8476">
        <ele>154.68074</ele>
        <time>2017-05-16T03:26:51.000Z</time>
      </trkpt>
      <trkpt lat="52.32881" lon="-1.84697">
        <ele>153.93138</ele>
        <time>2017-05-16T03:27:01.000Z</time>
      </trkpt>
      <trkpt lat="52.32918" lon="-1.84612">
        <ele>153.60799</ele>
        <time>2017-05-16T03:27:13.000Z</time>
      </trkpt>
      <trkpt lat="52.32956" lon="-1.84525">
        <ele>152.65077</ele>
        <time>2017-05-16T03:27:27.000Z</time>
      </trkpt>
      <trkpt lat="52.32986" lon="-1.84449">
        <ele>150.66637</ele>
        <time>2017-05-16T03:27:38.000Z</time>
      </trkpt>
      <trkpt lat="52.33002" lon="-1.84405">
        <ele>148.16791</ele>
        <time>2017-05-16T03:27:44.000Z</time>
      </trkpt>
      <trkpt lat="52.33025" lon="-1.84344">
        <ele>144.86462</ele>
        <time>2017-05-16T03:27:53.000Z</time>
      </trkpt>
      <trkpt lat="52.33061" lon="-1.84247">
        <ele>143.4263</ele>
        <time>2017-05-16T03:28:07.000Z</time>
      </trkpt>
      <trkpt lat="52.33066" lon="-1.8424">
        <ele>143.75528</ele>
        <time>2017-05-16T03:28:08.000Z</time>
      </trkpt>
      <trkpt lat="52.33075" lon="-1.8423">
        <ele>144.7225</ele>
        <time>2017-05-16T03:28:10.000Z</time>
      </trkpt>
      <trkpt lat="52.33082" lon="-1.84225">
        <ele>145.3135</ele>
        <time>2017-05-16T03:28:12.000Z</time>
      </trkpt>
      <trkpt lat="52.33103" lon="-1.84217">
        <ele>147.34833</ele>
        <time>2017-05-16T03:28:16.000Z</time>
      </trkpt>
      <trkpt lat="52.33131" lon="-1.84208">
        <ele>149.90297</ele>
        <time>2017-05-16T03:28:22.000Z</time>
      </trkpt>
      <trkpt lat="52.3314" lon="-1.8421">
        <ele>150.74385</ele>
        <time>2017-05-16T03:28:23.000Z</time>
      </trkpt>
      <trkpt lat="52.33146" lon="-1.84212">
        <ele>151.36398</ele>
        <time>2017-05-16T03:28:25.000Z</time>
      </trkpt>
      <trkpt lat="52.33167" lon="-1.84225">
        <ele>153.35436</ele>
        <time>2017-05-16T03:28:29.000Z</time>
      </trkpt>
      <trkpt lat="52.33191" lon="-1.84235">
        <ele>153.98754</ele>
        <time>2017-05-16T03:28:34.000Z</time>
      </trkpt>
      <trkpt lat="52.33199" lon="-1.84198">
        <ele>154.14173</ele>
        <time>2017-05-16T03:28:39.000Z</time>
      </trkpt>
      <trkpt lat="52.33223" lon="-1.84087">
        <ele>154.69711</ele>
        <time>2017-05-16T03:28:53.000Z</time>
      </trkpt>
      <trkpt lat="52.33235" lon="-1.84035">
        <ele>154.19599</ele>
        <time>2017-05-16T03:29:00.000Z</time>
      </trkpt>
      <trkpt lat="52.33246" lon="-1.83988">
        <ele>153.66145</ele>
        <time>2017-05-16T03:29:06.000Z</time>
      </trkpt>
      <trkpt lat="52.33246" lon="-1.83984">
        <ele>153.63051</ele>
        <time>2017-05-16T03:29:07.000Z</time>
      </trkpt>
      <trkpt lat="52.33263" lon="-1.83908">
        <ele>153.26695</ele>
        <time>2017-05-16T03:29:17.000Z</time>
      </trkpt>
      <trkpt lat="52.33265" lon="-1.83895">
        <ele>153.14436</ele>
        <time>2017-05-16T03:29:18.000Z</time>
      </trkpt>
      <trkpt lat="52.33274" lon="-1.83843">
        <ele>153.53896</ele>
        <time>2017-05-16T03:29:25.000Z</time>
      </trkpt>
      <trkpt lat="52.33273" lon="-1.83816">
        <ele>153.59763</ele>
        <time>2017-05-16T03:29:28.000Z</time>
      </trkpt>
      <trkpt lat="52.33273" lon="-1.83812">
        <ele>153.62927</ele>
        <time>2017-05-16T03:29:29.000Z</time>
      </trkpt>
      <trkpt lat="52.33273" lon="-1.83795">
        <ele>153.77082</ele>
        <time>2017-05-16T03:29:31.000Z</time>
      </trkpt>
      <trkpt lat="52.33274" lon="-1.8377">
        <ele>153.90622</ele>
        <time>2017-05-16T03:29:34.000Z</time>
      </trkpt>
      <trkpt lat="52.3328" lon="-1.8374">
        <ele>154.12542</ele>
        <time>2017-05-16T03:29:38.000Z</time>
      </trkpt>
      <trkpt lat="52.33287" lon="-1.83714">
        <ele>154.38497</ele>
        <time>2017-05-16T03:29:41.000Z</time>
      </trkpt>
      <trkpt lat="52.3329" lon="-1.83717">
        <ele>154.44625</ele>
        <time>2017-05-16T03:29:42.000Z</time>
      </trkpt>
      <trkpt lat="52.33297" lon="-1.83723">
        <ele>154.74992</ele>
        <time>2017-05-16T03:29:44.000Z</time>
      </trkpt>
      <trkpt lat="52.3331" lon="-1.83732">
        <ele>155.02903</ele>
        <time>2017-05-16T03:29:46.000Z</time>
      </trkpt>
      <trkpt lat="52.33326" lon="-1.83738">
        <ele>155.22441</ele>
        <time>2017-05-16T03:29:50.000Z</time>
      </trkpt>
      <trkpt lat="52.33341" lon="-1.83739">
        <ele>155.2854</ele>
        <time>2017-05-16T03:29:53.000Z</time>
      </trkpt>
      <trkpt lat="52.33359" lon="-1.83734">
        <ele>155.65241</ele>
        <time>2017-05-16T03:29:56.000Z</time>
      </trkpt>
      <trkpt lat="52.33383" lon="-1.83725">
        <ele>155.86246</ele>
        <time>2017-05-16T03:30:01.000Z</time>
      </trkpt>
      <trkpt lat="52.33402" lon="-1.8372">
        <ele>156.06619</ele>
        <time>2017-05-16T03:30:05.000Z</time>
      </trkpt>
      <trkpt lat="52.33408" lon="-1.83719">
        <ele>156.04485</ele>
        <time>2017-05-16T03:30:06.000Z</time>
      </trkpt>
      <trkpt lat="52.33422" lon="-1.83723">
        <ele>156.01881</ele>
        <time>2017-05-16T03:30:09.000Z</time>
      </trkpt>
      <trkpt lat="52.33449" lon="-1.83744">
        <ele>155.85635</ele>
        <time>2017-05-16T03:30:15.000Z</time>
      </trkpt>
      <trkpt lat="52.33462" lon="-1.83768">
        <ele>155.73814</ele>
        <time>2017-05-16T03:30:19.000Z</time>
      </trkpt>
      <trkpt lat="52.33471" lon="-1.83784">
        <ele>155.29794</ele>
        <time>2017-05-16T03:30:22.000Z</time>
      </trkpt>
      <trkpt lat="52.33474" lon="-1.83789">
        <ele>155.25622</ele>
        <time>2017-05-16T03:30:23.000Z</time>
      </trkpt>
      <trkpt lat="52.33481" lon="-1.83803">
        <ele>154.86633</ele>
        <time>2017-05-16T03:30:25.000Z</time>
      </trkpt>
      <trkpt lat="52.33493" lon="-1.83822">
        <ele>153.95923</ele>
        <time>2017-05-16T03:30:28.000Z</time>
      </trkpt>
      <trkpt lat="52.33502" lon="-1.83833">
        <ele>152.99326</ele>
        <time>2017-05-16T03:30:30.000Z</time>
      </trkpt>
      <trkpt lat="52.33522" lon="-1.83842">
        <ele>151.12238</ele>
        <time>2017-05-16T03:30:35.000Z</time>
      </trkpt>
      <trkpt lat="52.33541" lon="-1.8385">
        <ele>149.33625</ele>
        <time>2017-05-16T03:30:39.000Z</time>
      </trkpt>
      <trkpt lat="52.33582" lon="-1.83883">
        <ele>144.82561</ele>
        <time>2017-05-16T03:30:48.000Z</time>
      </trkpt>
      <trkpt lat="52.33605" lon="-1.8391">
        <ele>141.98534</ele>
        <time>2017-05-16T03:30:53.000Z</time>
      </trkpt>
      <trkpt lat="52.33626" lon="-1.83931">
        <ele>139.21692</ele>
        <time>2017-05-16T03:30:58.000Z</time>
      </trkpt>
      <trkpt lat="52.33649" lon="-1.83963">
        <ele>136.09416</ele>
        <time>2017-05-16T03:31:04.000Z</time>
      </trkpt>
      <trkpt lat="52.33666" lon="-1.83984">
        <ele>134.28096</ele>
        <time>2017-05-16T03:31:09.000Z</time>
      </trkpt>
      <trkpt lat="52.33675" lon="-1.83992">
        <ele>133.28597</ele>
        <time>2017-05-16T03:31:11.000Z</time>
      </trkpt>
      <trkpt lat="52.3369" lon="-1.84">
        <ele>132.29142</ele>
        <time>2017-05-16T03:31:14.000Z</time>
      </trkpt>
      <trkpt lat="52.337" lon="-1.84005">
        <ele>132.07664</ele>
        <time>2017-05-16T03:31:16.000Z</time>
      </trkpt>
      <trkpt lat="52.33706" lon="-1.84007">
        <ele>132.01127</ele>
        <time>2017-05-16T03:31:17.000Z</time>
      </trkpt>
      <trkpt lat="52.33718" lon="-1.8402">
        <ele>131.71968</ele>
        <time>2017-05-16T03:31:20.000Z</time>
      </trkpt>
      <trkpt lat="52.33726" lon="-1.84032">
        <ele>132.07423</ele>
        <time>2017-05-16T03:31:22.000Z</time>
      </trkpt>
      <trkpt lat="52.33732" lon="-1.84048">
        <ele>132.19343</ele>
        <time>2017-05-16T03:31:24.000Z</time>
      </trkpt>
      <trkpt lat="52.33736" lon="-1.84064">
        <ele>132.51533</ele>
        <time>2017-05-16T03:31:27.000Z</time>
      </trkpt>
      <trkpt lat="52.33747" lon="-1.84107">
        <ele>133.83392</ele>
        <time>2017-05-16T03:31:32.000Z</time>
      </trkpt>
      <trkpt lat="52.33757" lon="-1.84165">
        <ele>136.30451</ele>
        <time>2017-05-16T03:31:40.000Z</time>
      </trkpt>
      <trkpt lat="52.33765" lon="-1.84207">
        <ele>138.72649</ele>
        <time>2017-05-16T03:31:45.000Z</time>
      </trkpt>
      <trkpt lat="52.33794" lon="-1.84323">
        <ele>144.16642</ele>
        <time>2017-05-16T03:32:00.000Z</time>
      </trkpt>
      <trkpt lat="52.33805" lon="-1.8436">
        <ele>145.93125</ele>
        <time>2017-05-16T03:32:05.000Z</time>
      </trkpt>
      <trkpt lat="52.33822" lon="-1.84397">
        <ele>147.3408</ele>
        <time>2017-05-16T03:32:11.000Z</time>
      </trkpt>
      <trkpt lat="52.33843" lon="-1.84444">
        <ele>149.52717</ele>
        <time>2017-05-16T03:32:18.000Z</time>
      </trkpt>
      <trkpt lat="52.33844" lon="-1.84447">
        <ele>149.59866</ele>
        <time>2017-05-16T03:32:19.000Z</time>
      </trkpt>
      <trkpt lat="52.33861" lon="-1.84486">
        <ele>151.70207</ele>
        <time>2017-05-16T03:32:25.000Z</time>
      </trkpt>
      <trkpt lat="52.33885" lon="-1.84542">
        <ele>153.50938</ele>
        <time>2017-05-16T03:32:33.000Z</time>
      </trkpt>
      <trkpt lat="52.33904" lon="-1.84584">
        <ele>154.64968</ele>
        <time>2017-05-16T03:32:39.000Z</time>
      </trkpt>
      <trkpt lat="52.3393" lon="-1.84637">
        <ele>156.05763</ele>
        <time>2017-05-16T03:32:48.000Z</time>
      </trkpt>
      <trkpt lat="52.33972" lon="-1.84711">
        <ele>156.6087</ele>
        <time>2017-05-16T03:33:00.000Z</time>
      </trkpt>
      <trkpt lat="52.33976" lon="-1.84719">
        <ele>156.63915</ele>
        <time>2017-05-16T03:33:01.000Z</time>
      </trkpt>
      <trkpt lat="52.33986" lon="-1.84745">
        <ele>156.74705</ele>
        <time>2017-05-16T03:33:05.000Z</time>
      </trkpt>
      <trkpt lat="52.33989" lon="-1.84757">
        <ele>156.82152</ele>
        <time>2017-05-16T03:33:07.000Z</time>
      </trkpt>
      <trkpt lat="52.33992" lon="-1.84768">
        <ele>156.82704</ele>
        <time>2017-05-16T03:33:08.000Z</time>
      </trkpt>
      <trkpt lat="52.34001" lon="-1.84808">
        <ele>156.72324</ele>
        <time>2017-05-16T03:33:13.000Z</time>
      </trkpt>
      <trkpt lat="52.3401" lon="-1.8482">
        <ele>156.72531</ele>
        <time>2017-05-16T03:33:16.000Z</time>
      </trkpt>
      <trkpt lat="52.34023" lon="-1.84831">
        <ele>156.43754</ele>
        <time>2017-05-16T03:33:19.000Z</time>
      </trkpt>
      <trkpt lat="52.3403" lon="-1.84836">
        <ele>156.26842</ele>
        <time>2017-05-16T03:33:20.000Z</time>
      </trkpt>
      <trkpt lat="52.34073" lon="-1.84785">
        <ele>155.32174</ele>
        <time>2017-05-16T03:33:31.000Z</time>
      </trkpt>
      <trkpt lat="52.3409" lon="-1.84766">
        <ele>154.94894</ele>
        <time>2017-05-16T03:33:35.000Z</time>
      </trkpt>
      <trkpt lat="52.34111" lon="-1.84739">
        <ele>154.61022</ele>
        <time>2017-05-16T03:33:40.000Z</time>
      </trkpt>
      <trkpt lat="52.34137" lon="-1.84705">
        <ele>154.11616</ele>
        <time>2017-05-16T03:33:47.000Z</time>
      </trkpt>
      <trkpt lat="52.34157" lon="-1.8467">
        <ele>153.76764</ele>
        <time>2017-05-16T03:33:53.000Z</time>
      </trkpt>
      <trkpt lat="52.34164" lon="-1.84654">
        <ele>153.63177</ele>
        <time>2017-05-16T03:33:55.000Z</time>
      </trkpt>
      <trkpt lat="52.34226" lon="-1.84679">
        <ele>152.60946</ele>
        <time>2017-05-16T03:34:08.000Z</time>
      </trkpt>
      <trkpt lat="52.34287" lon="-1.84707">
        <ele>150.19259</ele>
        <time>2017-05-16T03:34:21.000Z</time>
      </trkpt>
      <trkpt lat="52.34363" lon="-1.84748">
        <ele>147.21033</ele>
        <time>2017-05-16T03:34:37.000Z</time>
      </trkpt>
      <trkpt lat="52.34432" lon="-1.84791">
        <ele>144.21424</ele>
        <time>2017-05-16T03:34:51.000Z</time>
      </trkpt>
      <trkpt lat="52.3447" lon="-1.84817">
        <ele>143.50372</ele>
        <time>2017-05-16T03:35:00.000Z</time>
      </trkpt>
      <trkpt lat="52.34524" lon="-1.84858">
        <ele>143.02784</ele>
        <time>2017-05-16T03:35:12.000Z</time>
      </trkpt>
      <trkpt lat="52.34548" lon="-1.8488">
        <ele>143.02704</ele>
        <time>2017-05-16T03:35:17.000Z</time>
      </trkpt>
      <trkpt lat="52.34556" lon="-1.84886">
        <ele>143.00592</ele>
        <time>2017-05-16T03:35:19.000Z</time>
      </trkpt>
      <trkpt lat="52.34597" lon="-1.84939">
        <ele>143.92968</ele>
        <time>2017-05-16T03:35:29.000Z</time>
      </trkpt>
      <trkpt lat="52.34612" lon="-1.84972">
        <ele>144.80288</ele>
        <time>2017-05-16T03:35:34.000Z</time>
      </trkpt>
      <trkpt lat="52.34624" lon="-1.84997">
        <ele>145.73059</ele>
        <time>2017-05-16T03:35:38.000Z</time>
      </trkpt>
      <trkpt lat="52.34638" lon="-1.8502">
        <ele>146.78154</ele>
        <time>2017-05-16T03:35:42.000Z</time>
      </trkpt>
      <trkpt lat="52.34691" lon="-1.85065">
        <ele>149.43088</ele>
        <time>2017-05-16T03:35:54.000Z</time>
      </trkpt>
      <trkpt lat="52.34727" lon="-1.85089">
        <ele>150.50036</ele>
        <time>2017-05-16T03:36:02.000Z</time>
      </trkpt>
      <trkpt lat="52.34751" lon="-1.85103">
        <ele>150.91516</ele>
        <time>2017-05-16T03:36:07.000Z</time>
      </trkpt>
      <trkpt lat="52.34753" lon="-1.85104">
        <ele>150.97861</ele>
        <time>2017-05-16T03:36:08.000Z</time>
      </trkpt>
      <trkpt lat="52.34776" lon="-1.85117">
        <ele>151.81868</ele>
        <time>2017-05-16T03:36:12.000Z</time>
      </trkpt>
      <trkpt lat="52.34798" lon="-1.85132">
        <ele>152.83633</ele>
        <time>2017-05-16T03:36:17.000Z</time>
      </trkpt>
      <trkpt lat="52.34813" lon="-1.85142">
        <ele>153.48324</ele>
        <time>2017-05-16T03:36:20.000Z</time>
      </trkpt>
      <trkpt lat="52.34826" lon="-1.85154">
        <ele>154.05904</ele>
        <time>2017-05-16T03:36:23.000Z</time>
      </trkpt>
      <trkpt lat="52.34837" lon="-1.85165">
        <ele>154.51336</ele>
        <time>2017-05-16T03:36:26.000Z</time>
      </trkpt>
      <trkpt lat="52.34847" lon="-1.85179">
        <ele>154.77018</ele>
        <time>2017-05-16T03:36:29.000Z</time>
      </trkpt>
      <trkpt lat="52.34862" lon="-1.852">
        <ele>155.26506</ele>
        <time>2017-05-16T03:36:33.000Z</time>
      </trkpt>
      <trkpt lat="52.34878" lon="-1.8523">
        <ele>155.69157</ele>
        <time>2017-05-16T03:36:38.000Z</time>
      </trkpt>
      <trkpt lat="52.34899" lon="-1.85272">
        <ele>156.0344</ele>
        <time>2017-05-16T03:36:44.000Z</time>
      </trkpt>
      <trkpt lat="52.34922" lon="-1.85318">
        <ele>155.97087</ele>
        <time>2017-05-16T03:36:51.000Z</time>
      </trkpt>
      <trkpt lat="52.34947" lon="-1.85368">
        <ele>155.33381</ele>
        <time>2017-05-16T03:36:59.000Z</time>
      </trkpt>
      <trkpt lat="52.34971" lon="-1.85417">
        <ele>155.6383</ele>
        <time>2017-05-16T03:37:07.000Z</time>
      </trkpt>
      <trkpt lat="52.3499" lon="-1.85456">
        <ele>155.88029</ele>
        <time>2017-05-16T03:37:13.000Z</time>
      </trkpt>
      <trkpt lat="52.35009" lon="-1.85501">
        <ele>156.16545</ele>
        <time>2017-05-16T03:37:20.000Z</time>
      </trkpt>
      <trkpt lat="52.35024" lon="-1.85537">
        <ele>156.21159</ele>
        <time>2017-05-16T03:37:25.000Z</time>
      </trkpt>
      <trkpt lat="52.35034" lon="-1.85557">
        <ele>156.41497</ele>
        <time>2017-05-16T03:37:28.000Z</time>
      </trkpt>
      <trkpt lat="52.35042" lon="-1.85572">
        <ele>156.43617</ele>
        <time>2017-05-16T03:37:31.000Z</time>
      </trkpt>
      <trkpt lat="52.35052" lon="-1.85586">
        <ele>156.48873</ele>
        <time>2017-05-16T03:37:33.000Z</time>
      </trkpt>
      <trkpt lat="52.35067" lon="-1.85608">
        <ele>156.60119</ele>
        <time>2017-05-16T03:37:37.000Z</time>
      </trkpt>
      <trkpt lat="52.35096" lon="-1.85643">
        <ele>157.01478</ele>
        <time>2017-05-16T03:37:45.000Z</time>
      </trkpt>
      <trkpt lat="52.35129" lon="-1.85684">
        <ele>157.89863</ele>
        <time>2017-05-16T03:37:53.000Z</time>
      </trkpt>
      <trkpt lat="52.35141" lon="-1.85702">
        <ele>154.86472</ele>
        <time>2017-05-16T03:37:56.000Z</time>
      </trkpt>
      <trkpt lat="52.35148" lon="-1.85711">
        <ele>152.20679</ele>
        <time>2017-05-16T03:37:58.000Z</time>
      </trkpt>
      <trkpt lat="52.35154" lon="-1.85722">
        <ele>151.08722</ele>
        <time>2017-05-16T03:38:00.000Z</time>
      </trkpt>
      <trkpt lat="52.35157" lon="-1.85728">
        <ele>150.93439</ele>
        <time>2017-05-16T03:38:01.000Z</time>
      </trkpt>
      <trkpt lat="52.35163" lon="-1.8574">
        <ele>150.80074</ele>
        <time>2017-05-16T03:38:03.000Z</time>
      </trkpt>
      <trkpt lat="52.35169" lon="-1.8575">
        <ele>150.87137</ele>
        <time>2017-05-16T03:38:04.000Z</time>
      </trkpt>
      <trkpt lat="52.35171" lon="-1.85754">
        <ele>150.94098</ele>
        <time>2017-05-16T03:38:05.000Z</time>
      </trkpt>
      <trkpt lat="52.35179" lon="-1.8577">
        <ele>152.84732</ele>
        <time>2017-05-16T03:38:08.000Z</time>
        <name>52.351790,-1.857700</name>
        <extensions>
          <oa:locType>calcWayPoint</oa:locType>
        </extensions>
      </trkpt>
      <trkpt lat="52.35183" lon="-1.85781">
        <ele>155.24432</ele>
        <time>2017-05-16T03:38:09.000Z</time>
      </trkpt>
      <trkpt lat="52.35188" lon="-1.85794">
        <ele>157.06298</ele>
        <time>2017-05-16T03:38:11.000Z</time>
      </trkpt>
      <trkpt lat="52.35197" lon="-1.85823">
        <ele>157.59797</ele>
        <time>2017-05-16T03:38:15.000Z</time>
      </trkpt>
      <trkpt lat="52.35209" lon="-1.85812">
        <ele>157.8079</ele>
        <time>2017-05-16T03:38:18.000Z</time>
      </trkpt>
      <trkpt lat="52.35216" lon="-1.85805">
        <ele>157.91022</ele>
        <time>2017-05-16T03:38:19.000Z</time>
      </trkpt>
      <trkpt lat="52.35223" lon="-1.85799">
        <ele>157.76172</ele>
        <time>2017-05-16T03:38:21.000Z</time>
      </trkpt>
      <trkpt lat="52.35223" lon="-1.85798">
        <ele>157.73899</ele>
        <time>2017-05-16T03:38:21.120Z</time>
      </trkpt>
      <trkpt lat="52.35265" lon="-1.85753">
        <ele>156.28176</ele>
        <time>2017-05-16T03:38:31.000Z</time>
      </trkpt>
      <trkpt lat="52.35317" lon="-1.85698">
        <ele>156.30705</ele>
        <time>2017-05-16T03:38:44.000Z</time>
      </trkpt>
      <trkpt lat="52.35372" lon="-1.85639">
        <ele>156.76345</ele>
        <time>2017-05-16T03:38:57.000Z</time>
      </trkpt>
      <trkpt lat="52.35385" lon="-1.85625">
        <ele>156.88291</ele>
        <time>2017-05-16T03:39:00.000Z</time>
      </trkpt>
      <trkpt lat="52.3539" lon="-1.85617">
        <ele>156.85334</ele>
        <time>2017-05-16T03:39:01.000Z</time>
      </trkpt>
      <trkpt lat="52.35395" lon="-1.85609">
        <ele>156.77467</ele>
        <time>2017-05-16T03:39:03.000Z</time>
      </trkpt>
      <trkpt lat="52.354" lon="-1.856">
        <ele>156.75781</ele>
        <time>2017-05-16T03:39:04.000Z</time>
      </trkpt>
      <trkpt lat="52.35405" lon="-1.8559">
        <ele>156.81013</ele>
        <time>2017-05-16T03:39:06.000Z</time>
      </trkpt>
      <trkpt lat="52.35437" lon="-1.85503">
        <ele>156.98131</ele>
        <time>2017-05-16T03:39:18.000Z</time>
      </trkpt>
      <trkpt lat="52.35466" lon="-1.85426">
        <ele>156.89535</ele>
        <time>2017-05-16T03:39:29.000Z</time>
      </trkpt>
      <trkpt lat="52.35502" lon="-1.85326">
        <ele>156.06212</ele>
        <time>2017-05-16T03:39:43.000Z</time>
      </trkpt>
      <trkpt lat="52.35517" lon="-1.85286">
        <ele>156.01435</ele>
        <time>2017-05-16T03:39:49.000Z</time>
      </trkpt>
      <trkpt lat="52.35536" lon="-1.85232">
        <ele>155.69788</ele>
        <time>2017-05-16T03:39:57.000Z</time>
      </trkpt>
      <trkpt lat="52.35556" lon="-1.85174">
        <ele>155.07127</ele>
        <time>2017-05-16T03:40:05.000Z</time>
      </trkpt>
      <trkpt lat="52.35592" lon="-1.85067">
        <ele>154.08291</ele>
        <time>2017-05-16T03:40:20.000Z</time>
      </trkpt>
      <trkpt lat="52.35625" lon="-1.84969">
        <ele>153.08519</ele>
        <time>2017-05-16T03:40:34.000Z</time>
      </trkpt>
      <trkpt lat="52.35647" lon="-1.84898">
        <ele>152.24177</ele>
        <time>2017-05-16T03:40:43.000Z</time>
      </trkpt>
      <trkpt lat="52.35651" lon="-1.84885">
        <ele>152.18473</ele>
        <time>2017-05-16T03:40:45.000Z</time>
      </trkpt>
      <trkpt lat="52.35653" lon="-1.8488">
        <ele>152.15133</ele>
        <time>2017-05-16T03:40:46.000Z</time>
      </trkpt>
      <trkpt lat="52.35659" lon="-1.84873">
        <ele>152.13294</ele>
        <time>2017-05-16T03:40:47.000Z</time>
      </trkpt>
      <trkpt lat="52.35686" lon="-1.84855">
        <ele>152.02588</ele>
        <time>2017-05-16T03:40:53.000Z</time>
      </trkpt>
      <trkpt lat="52.35726" lon="-1.84831">
        <ele>151.74984</ele>
        <time>2017-05-16T03:41:02.000Z</time>
      </trkpt>
      <trkpt lat="52.35753" lon="-1.84815">
        <ele>151.53879</ele>
        <time>2017-05-16T03:41:07.000Z</time>
      </trkpt>
      <trkpt lat="52.35774" lon="-1.84801">
        <ele>151.38429</ele>
        <time>2017-05-16T03:41:12.000Z</time>
      </trkpt>
      <trkpt lat="52.35786" lon="-1.84792">
        <ele>151.23801</ele>
        <time>2017-05-16T03:41:15.000Z</time>
      </trkpt>
      <trkpt lat="52.35794" lon="-1.84784">
        <ele>151.09491</ele>
        <time>2017-05-16T03:41:17.000Z</time>
      </trkpt>
      <trkpt lat="52.35801" lon="-1.84775">
        <ele>150.89353</ele>
        <time>2017-05-16T03:41:18.000Z</time>
      </trkpt>
      <trkpt lat="52.35805" lon="-1.84766">
        <ele>150.67245</ele>
        <time>2017-05-16T03:41:20.000Z</time>
      </trkpt>
      <trkpt lat="52.35812" lon="-1.84751">
        <ele>150.30873</ele>
        <time>2017-05-16T03:41:22.000Z</time>
      </trkpt>
      <trkpt lat="52.35815" lon="-1.84743">
        <ele>150.11623</ele>
        <time>2017-05-16T03:41:23.000Z</time>
      </trkpt>
      <trkpt lat="52.35819" lon="-1.84719">
        <ele>149.42538</ele>
        <time>2017-05-16T03:41:26.000Z</time>
      </trkpt>
      <trkpt lat="52.35827" lon="-1.84663">
        <ele>147.80196</ele>
        <time>2017-05-16T03:41:33.000Z</time>
      </trkpt>
      <trkpt lat="52.35832" lon="-1.84615">
        <ele>147.47306</ele>
        <time>2017-05-16T03:41:39.000Z</time>
      </trkpt>
      <trkpt lat="52.35834" lon="-1.84598">
        <ele>147.82412</ele>
        <time>2017-05-16T03:41:41.000Z</time>
      </trkpt>
      <trkpt lat="52.35836" lon="-1.84578">
        <ele>148.32881</ele>
        <time>2017-05-16T03:41:44.000Z</time>
      </trkpt>
      <trkpt lat="52.35839" lon="-1.84565">
        <ele>148.6742</ele>
        <time>2017-05-16T03:41:45.000Z</time>
      </trkpt>
      <trkpt lat="52.35843" lon="-1.84551">
        <ele>148.98416</ele>
        <time>2017-05-16T03:41:47.000Z</time>
      </trkpt>
      <trkpt lat="52.35849" lon="-1.84538">
        <ele>149.26006</ele>
        <time>2017-05-16T03:41:49.000Z</time>
      </trkpt>
      <trkpt lat="52.35852" lon="-1.84526">
        <ele>149.5125</ele>
        <time>2017-05-16T03:41:51.000Z</time>
      </trkpt>
      <trkpt lat="52.35879" lon="-1.84465">
        <ele>150.29717</ele>
        <time>2017-05-16T03:42:00.000Z</time>
      </trkpt>
      <trkpt lat="52.35891" lon="-1.84435">
        <ele>145.68363</ele>
        <time>2017-05-16T03:42:05.000Z</time>
      </trkpt>
      <trkpt lat="52.35903" lon="-1.84405">
        <ele>151.18729</ele>
        <time>2017-05-16T03:42:09.000Z</time>
      </trkpt>
      <trkpt lat="52.35934" lon="-1.84338">
        <ele>151.55918</ele>
        <time>2017-05-16T03:42:19.000Z</time>
      </trkpt>
      <trkpt lat="52.35945" lon="-1.84315">
        <ele>151.60821</ele>
        <time>2017-05-16T03:42:23.000Z</time>
      </trkpt>
      <trkpt lat="52.35979" lon="-1.84238">
        <ele>151.58309</ele>
        <time>2017-05-16T03:42:34.000Z</time>
      </trkpt>
      <trkpt lat="52.36008" lon="-1.84174">
        <ele>150.99363</ele>
        <time>2017-05-16T03:42:44.000Z</time>
      </trkpt>
      <trkpt lat="52.3602" lon="-1.84148">
        <ele>150.65936</ele>
        <time>2017-05-16T03:42:48.000Z</time>
      </trkpt>
      <trkpt lat="52.3603" lon="-1.84127">
        <ele>150.35061</ele>
        <time>2017-05-16T03:42:51.000Z</time>
      </trkpt>
      <trkpt lat="52.3604" lon="-1.84108">
        <ele>150.09321</ele>
        <time>2017-05-16T03:42:55.000Z</time>
      </trkpt>
      <trkpt lat="52.36051" lon="-1.84091">
        <ele>149.81943</ele>
        <time>2017-05-16T03:42:58.000Z</time>
      </trkpt>
      <trkpt lat="52.36108" lon="-1.84008">
        <ele>148.57128</ele>
        <time>2017-05-16T03:43:13.000Z</time>
      </trkpt>
      <trkpt lat="52.36147" lon="-1.83956">
        <ele>147.69305</ele>
        <time>2017-05-16T03:43:23.000Z</time>
      </trkpt>
      <trkpt lat="52.36263" lon="-1.83797">
        <ele>147.04981</ele>
        <time>2017-05-16T03:43:53.000Z</time>
      </trkpt>
      <trkpt lat="52.36269" lon="-1.83788">
        <ele>146.92501</ele>
        <time>2017-05-16T03:43:55.000Z</time>
      </trkpt>
      <trkpt lat="52.36295" lon="-1.83752">
        <ele>146.39022</ele>
        <time>2017-05-16T03:44:02.000Z</time>
      </trkpt>
      <trkpt lat="52.36323" lon="-1.83712">
        <ele>145.58412</ele>
        <time>2017-05-16T03:44:09.000Z</time>
      </trkpt>
      <trkpt lat="52.36326" lon="-1.83709">
        <ele>145.51561</ele>
        <time>2017-05-16T03:44:10.000Z</time>
      </trkpt>
      <trkpt lat="52.36387" lon="-1.83625">
        <ele>143.52504</ele>
        <time>2017-05-16T03:44:26.000Z</time>
      </trkpt>
      <trkpt lat="52.36397" lon="-1.83608">
        <ele>143.01999</ele>
        <time>2017-05-16T03:44:29.000Z</time>
      </trkpt>
      <trkpt lat="52.3645" lon="-1.83517">
        <ele>139.8431</ele>
        <time>2017-05-16T03:44:44.000Z</time>
      </trkpt>
      <trkpt lat="52.3646" lon="-1.83499">
        <ele>139.46741</ele>
        <time>2017-05-16T03:44:47.000Z</time>
      </trkpt>
      <trkpt lat="52.36469" lon="-1.83483">
        <ele>138.94367</ele>
        <time>2017-05-16T03:44:50.000Z</time>
      </trkpt>
      <trkpt lat="52.36477" lon="-1.83464">
        <ele>138.54491</ele>
        <time>2017-05-16T03:44:53.000Z</time>
      </trkpt>
      <trkpt lat="52.36488" lon="-1.83438">
        <ele>138.69438</ele>
        <time>2017-05-16T03:44:56.000Z</time>
      </trkpt>
      <trkpt lat="52.365" lon="-1.83414">
        <ele>138.52088</ele>
        <time>2017-05-16T03:45:00.000Z</time>
      </trkpt>
      <trkpt lat="52.3651" lon="-1.83398">
        <ele>138.4769</ele>
        <time>2017-05-16T03:45:03.000Z</time>
      </trkpt>
      <trkpt lat="52.36519" lon="-1.83385">
        <ele>138.32362</ele>
        <time>2017-05-16T03:45:05.000Z</time>
      </trkpt>
      <trkpt lat="52.3653" lon="-1.83373">
        <ele>138.35161</ele>
        <time>2017-05-16T03:45:08.000Z</time>
      </trkpt>
      <trkpt lat="52.36546" lon="-1.83358">
        <ele>138.37941</ele>
        <time>2017-05-16T03:45:12.000Z</time>
      </trkpt>
      <trkpt lat="52.36572" lon="-1.83335">
        <ele>138.92268</ele>
        <time>2017-05-16T03:45:18.000Z</time>
      </trkpt>
      <trkpt lat="52.36575" lon="-1.83328">
        <ele>139.0759</ele>
        <time>2017-05-16T03:45:19.000Z</time>
      </trkpt>
      <trkpt lat="52.36576" lon="-1.8332">
        <ele>138.89328</ele>
        <time>2017-05-16T03:45:20.000Z</time>
      </trkpt>
      <trkpt lat="52.36575" lon="-1.83314">
        <ele>138.57655</ele>
        <time>2017-05-16T03:45:21.000Z</time>
      </trkpt>
      <trkpt lat="52.36572" lon="-1.83307">
        <ele>138.50209</ele>
        <time>2017-05-16T03:45:22.000Z</time>
      </trkpt>
      <trkpt lat="52.36574" lon="-1.83312">
        <ele>138.51035</ele>
        <time>2017-05-16T03:45:23.000Z</time>
      </trkpt>
      <trkpt lat="52.36576" lon="-1.83318">
        <ele>138.79867</ele>
        <time>2017-05-16T03:45:24.000Z</time>
      </trkpt>
      <trkpt lat="52.36575" lon="-1.83326">
        <ele>139.03673</ele>
        <time>2017-05-16T03:45:25.000Z</time>
      </trkpt>
      <trkpt lat="52.36573" lon="-1.83332">
        <ele>139.03678</ele>
        <time>2017-05-16T03:45:26.000Z</time>
      </trkpt>
      <trkpt lat="52.36577" lon="-1.83334">
        <ele>138.96872</ele>
        <time>2017-05-16T03:45:27.000Z</time>
      </trkpt>
      <trkpt lat="52.36582" lon="-1.83332">
        <ele>139.09645</ele>
        <time>2017-05-16T03:45:28.000Z</time>
      </trkpt>
      <trkpt lat="52.36585" lon="-1.83331">
        <ele>139.02267</ele>
        <time>2017-05-16T03:45:29.000Z</time>
      </trkpt>
      <trkpt lat="52.36589" lon="-1.83334">
        <ele>138.70621</ele>
        <time>2017-05-16T03:45:30.000Z</time>
      </trkpt>
      <trkpt lat="52.36601" lon="-1.8335">
        <ele>138.08213</ele>
        <time>2017-05-16T03:45:33.000Z</time>
      </trkpt>
      <trkpt lat="52.36626" lon="-1.8339">
        <ele>137.97323</ele>
        <time>2017-05-16T03:45:40.000Z</time>
      </trkpt>
      <trkpt lat="52.36657" lon="-1.83436">
        <ele>138.14446</ele>
        <time>2017-05-16T03:45:48.000Z</time>
      </trkpt>
      <trkpt lat="52.36682" lon="-1.8347">
        <ele>138.18214</ele>
        <time>2017-05-16T03:45:55.000Z</time>
      </trkpt>
      <trkpt lat="52.36697" lon="-1.83489">
        <ele>138.20342</ele>
        <time>2017-05-16T03:45:58.000Z</time>
      </trkpt>
      <trkpt lat="52.36711" lon="-1.83506">
        <ele>138.32662</ele>
        <time>2017-05-16T03:46:02.000Z</time>
      </trkpt>
      <trkpt lat="52.36721" lon="-1.83516">
        <ele>138.49112</ele>
        <time>2017-05-16T03:46:04.000Z</time>
      </trkpt>
      <trkpt lat="52.36728" lon="-1.83524">
        <ele>138.77808</ele>
        <time>2017-05-16T03:46:06.000Z</time>
      </trkpt>
      <trkpt lat="52.36731" lon="-1.83524">
        <ele>138.77395</ele>
        <time>2017-05-16T03:46:07.000Z</time>
      </trkpt>
      <trkpt lat="52.36744" lon="-1.83534">
        <ele>139.00579</ele>
        <time>2017-05-16T03:46:10.000Z</time>
      </trkpt>
      <trkpt lat="52.3676" lon="-1.83555">
        <ele>139.98373</ele>
        <time>2017-05-16T03:46:14.000Z</time>
      </trkpt>
      <trkpt lat="52.36794" lon="-1.83604">
        <ele>142.20292</ele>
        <time>2017-05-16T03:46:23.000Z</time>
      </trkpt>
      <trkpt lat="52.36801" lon="-1.83614">
        <ele>142.59421</ele>
        <time>2017-05-16T03:46:25.000Z</time>
      </trkpt>
      <trkpt lat="52.36827" lon="-1.83599">
        <ele>143.05132</ele>
        <time>2017-05-16T03:46:31.000Z</time>
      </trkpt>
      <trkpt lat="52.36838" lon="-1.83592">
        <ele>143.23198</ele>
        <time>2017-05-16T03:46:33.000Z</time>
      </trkpt>
      <trkpt lat="52.3685" lon="-1.83583">
        <ele>143.34397</ele>
        <time>2017-05-16T03:46:36.000Z</time>
      </trkpt>
      <trkpt lat="52.36858" lon="-1.83576">
        <ele>143.52172</ele>
        <time>2017-05-16T03:46:37.000Z</time>
      </trkpt>
      <trkpt lat="52.36859" lon="-1.83581">
        <ele>143.49618</ele>
        <time>2017-05-16T03:46:38.000Z</time>
      </trkpt>
      <trkpt lat="52.36861" lon="-1.83585">
        <ele>143.56882</ele>
        <time>2017-05-16T03:46:39.000Z</time>
      </trkpt>
      <trkpt lat="52.36867" lon="-1.83589">
        <ele>143.79254</ele>
        <time>2017-05-16T03:46:40.000Z</time>
      </trkpt>
      <trkpt lat="52.3687" lon="-1.83589">
        <ele>143.84634</ele>
        <time>2017-05-16T03:46:41.000Z</time>
      </trkpt>
      <trkpt lat="52.3688" lon="-1.8359">
        <ele>144.02204</ele>
        <time>2017-05-16T03:46:43.000Z</time>
      </trkpt>
      <trkpt lat="52.36886" lon="-1.8359">
        <ele>144.11169</ele>
        <time>2017-05-16T03:46:44.000Z</time>
      </trkpt>
      <trkpt lat="52.36906" lon="-1.83586">
        <ele>144.37472</ele>
        <time>2017-05-16T03:46:48.000Z</time>
      </trkpt>
      <trkpt lat="52.36925" lon="-1.83581">
        <ele>144.56764</ele>
        <time>2017-05-16T03:46:52.000Z</time>
      </trkpt>
      <trkpt lat="52.36934" lon="-1.83568">
        <ele>144.59392</ele>
        <time>2017-05-16T03:46:54.000Z</time>
      </trkpt>
      <trkpt lat="52.36933" lon="-1.83564">
        <ele>144.54301</ele>
        <time>2017-05-16T03:46:55.000Z</time>
        <name>52.369320,-1.835620</name>
      </trkpt>
    </trkseg>
  </trk>
</gpx>